GFSWCAN_sfc_wetblb_000.txt.gz
Wetbulb
49.30 49.15 49.10 49.47 49.54 49.59 49.71 49.75 49.60 49.97 50.26 49.92 49.95 50.20 49.94 49.68 49.93 56.21 55.22 54.37 55.02 49.44 49.59 50.22 49.88 48.47 48.11 50.41 47.91 47.80 47.49 46.84 44.69 37.68 36.23 38.51 35.86 40.26 38.02 39.51 37.53 36.92 36.71 33.05 33.76 30.55 28.84 43.25 43.13 37.61 43.39 43.61 42.10 42.49
48.62 48.82 48.98 48.91 48.64 49.11 49.32 49.41 49.34 49.66 49.57 49.59 49.57 49.67 50.22 49.80 49.64 51.98 56.30 53.81 53.83 54.27 51.57 53.34 53.69 52.76 53.08 53.30 50.92 49.06 48.10 47.89 49.24 43.49 39.10 38.17 35.86 34.23 39.23 35.82 42.07 36.50 40.46 38.26 37.72 39.10 45.81 46.86 44.77 46.29 44.37 42.91 44.68 43.02
47.48 47.99 48.37 48.61 48.50 48.62 49.03 49.23 49.09 49.14 49.16 49.23 49.26 49.63 50.36 50.03 49.81 52.66 55.90 55.01 54.79 51.35 51.53 52.82 51.61 53.36 55.70 54.54 56.32 50.32 49.51 49.59 48.49 49.73 46.23 40.94 35.14 42.05 33.69 37.47 40.11 43.22 44.76 40.16 39.89 43.16 44.62 46.53 47.72 46.82 45.38 43.06 42.40 42.63
47.16 47.12 47.48 47.93 48.33 48.32 48.39 48.56 48.69 48.64 48.55 48.77 49.12 49.03 49.90 49.99 49.65 51.25 55.90 53.62 53.76 47.99 36.95 48.87 50.15 51.25 53.51 55.84 55.78 55.41 52.08 50.37 49.65 50.39 38.95 36.77 36.41 45.52 38.63 43.97 41.82 44.41 44.15 41.24 39.64 43.45 45.07 45.33 46.05 44.53 43.85 43.42 42.17 43.27
46.85 46.80 46.82 47.19 47.63 48.12 48.10 48.30 48.15 48.47 48.53 47.68 48.68 48.88 49.56 49.92 49.79 54.93 56.64 55.96 55.81 54.55 43.91 48.01 49.65 49.79 51.82 54.00 54.47 54.25 53.16 51.33 48.44 42.21 35.50 38.73 44.69 43.91 42.60 40.92 41.33 45.75 43.19 39.02 36.90 43.58 43.40 43.40 43.55 44.58 43.31 43.35 42.04 39.89
46.59 46.60 46.57 46.85 47.07 47.39 47.65 47.75 48.04 48.11 48.44 48.85 49.04 49.38 50.09 49.61 49.98 56.77 53.89 55.91 55.94 56.29 48.74 42.21 49.60 47.69 49.37 51.96 52.65 52.48 53.04 51.77 51.14 45.40 40.56 46.11 47.82 46.19 34.78 35.42 42.70 46.53 47.59 45.94 42.89 45.31 45.00 44.23 43.62 44.78 42.58 40.82 40.24 39.60
46.46 46.39 46.37 46.48 46.71 46.93 47.52 47.47 47.70 47.95 48.22 48.35 48.71 49.24 49.42 48.94 56.49 53.93 51.79 52.39 51.23 56.40 45.29 41.85 44.14 45.49 45.69 48.01 47.87 49.89 50.29 51.03 48.90 47.05 43.57 45.38 46.69 45.63 35.14 34.59 43.28 44.49 43.58 43.67 43.68 42.68 41.17 42.62 42.08 41.62 40.60 39.82 40.94 41.46
46.26 46.10 45.93 46.12 46.33 46.53 46.89 47.16 47.27 47.99 48.15 48.35 48.37 48.55 48.80 48.90 49.94 51.56 54.00 49.90 52.56 50.05 46.57 39.49 38.04 42.03 45.19 43.32 41.56 43.03 42.29 45.42 46.16 45.65 40.92 42.64 43.62 43.40 36.23 42.70 41.41 40.22 40.99 42.27 42.56 44.09 43.28 42.07 41.18 40.22 41.01 41.03 39.23 38.40
45.83 45.66 45.59 45.48 45.92 46.32 46.51 47.18 47.23 47.77 48.10 48.32 48.33 48.42 49.34 48.12 45.45 47.88 47.64 49.84 52.85 51.05 43.37 36.41 35.68 35.50 44.55 40.00 40.14 40.67 42.62 37.50 42.90 36.59 37.96 40.85 37.86 35.76 40.83 40.35 38.44 38.60 40.11 41.19 41.38 41.21 40.57 39.03 39.03 39.07 38.98 37.89 36.63 36.54
45.28 45.54 45.39 45.35 45.34 45.59 46.26 47.03 47.25 47.41 47.94 48.24 48.35 44.97 36.94 42.17 47.50 48.44 47.19 44.93 41.23 42.57 42.55 37.31 44.68 40.35 44.31 38.22 36.41 38.39 38.58 37.48 34.96 35.66 37.65 33.33 34.17 36.71 36.67 38.71 39.91 40.76 42.08 41.49 37.88 36.39 37.36 36.56 36.19 35.92 36.03 36.79 36.42 35.80
45.64 46.01 45.53 45.59 45.91 45.62 46.48 47.03 47.27 47.57 47.50 44.19 38.57 36.41 42.85 46.83 44.70 41.00 35.85 36.57 35.83 33.87 36.31 35.41 36.30 35.83 39.39 37.79 35.68 35.32 33.33 33.69 32.78 34.51 34.83 34.28 34.54 37.67 38.79 40.32 41.37 41.37 41.33 40.06 39.44 38.19 37.25 36.54 35.68 35.38 35.59 35.71 35.33 34.89
45.89 46.09 45.68 45.68 46.16 45.75 46.73 46.71 46.96 45.77 44.30 44.16 43.12 44.58 42.86 40.49 35.80 35.12 33.33 32.24 33.13 33.34 34.19 34.19 34.70 36.85 35.14 40.19 36.17 33.31 33.14 32.77 30.49 35.67 31.38 30.26 36.62 37.44 38.58 38.81 39.12 39.53 38.50 36.80 36.97 36.17 36.63 36.02 36.79 35.80 35.16 34.67 34.77 34.21
43.38 45.62 45.54 45.62 45.71 45.79 46.85 46.64 46.39 45.88 45.63 44.65 39.54 34.04 35.24 33.33 31.88 31.88 30.61 31.88 32.24 35.14 34.72 34.20 32.95 36.21 35.40 36.33 32.24 34.23 31.15 31.01 33.99 29.54 29.85 34.75 36.64 37.72 38.64 38.58 38.33 38.42 36.68 34.48 36.00 36.82 37.15 36.89 36.44 33.92 33.24 33.89 33.49 33.45
43.55 44.77 45.36 45.80 45.43 45.82 46.17 45.85 45.43 44.61 42.25 36.74 34.22 31.51 32.96 31.51 33.08 33.74 35.39 35.68 35.32 35.68 35.50 34.96 32.78 34.85 32.59 31.26 32.15 30.43 29.04 31.06 27.31 25.18 28.31 34.05 35.58 35.75 36.08 36.58 35.72 34.85 34.71 33.13 34.49 35.50 35.17 34.20 33.89 33.85 32.06 32.25 31.40 31.36
43.31 44.78 45.32 45.56 45.00 44.90 45.35 44.55 43.97 43.86 39.54 33.83 35.71 30.55 31.55 31.93 34.41 34.41 35.14 35.50 35.11 36.72 36.14 33.81 32.74 35.25 30.96 29.21 30.08 28.14 25.82 25.23 27.42 28.07 32.82 35.44 34.61 34.86 34.57 34.08 34.71 34.50 33.92 33.09 34.84 34.44 33.61 33.18 32.73 32.86 34.11 34.12 33.61 32.17
44.22 44.93 44.70 44.78 44.65 44.53 43.75 43.58 42.70 40.05 35.63 33.52 32.30 30.53 31.61 32.24 31.69 32.42 33.33 32.78 35.48 33.99 34.21 35.24 32.08 31.15 28.60 29.74 26.79 26.92 25.54 24.44 28.83 33.39 35.62 34.96 34.11 34.15 34.45 35.45 34.42 34.42 33.55 33.51 33.86 33.80 33.79 33.04 32.22 33.44 33.84 33.03 32.27 32.30
43.58 41.84 44.35 44.17 42.69 41.45 41.41 40.00 40.43 33.04 31.80 32.24 30.22 32.53 32.13 32.96 33.87 34.05 35.50 34.59 36.08 34.31 31.85 31.50 28.95 27.67 27.26 26.55 25.58 27.23 26.01 30.27 33.52 33.65 34.32 33.36 34.01 34.87 35.38 34.87 33.41 33.12 32.82 33.37 34.11 34.29 34.15 34.53 33.81 31.85 31.90 34.03 33.73 34.61
41.48 43.82 44.41 43.33 43.05 41.22 38.21 38.24 35.00 32.81 29.13 30.17 30.92 31.32 32.50 32.45 32.78 33.51 35.12 35.54 35.13 32.63 31.74 30.55 29.08 25.76 25.74 24.51 26.30 29.87 31.37 33.76 33.01 33.73 34.15 34.38 34.83 35.32 35.48 34.92 34.80 34.20 34.12 34.04 34.29 33.62 33.36 32.56 32.31 34.59 33.76 33.44 32.64 33.59
43.54 44.05 44.05 43.55 42.99 39.42 35.73 34.74 34.49 29.73 28.51 30.20 29.96 31.51 31.98 31.86 31.41 31.69 33.64 33.97 36.01 35.78 32.62 31.59 28.57 26.94 26.87 28.34 31.43 32.55 33.34 33.52 33.57 34.08 34.26 34.60 34.41 33.74 33.56 33.70 32.96 32.97 33.50 33.92 34.34 35.10 35.62 34.80 34.49 34.58 34.44 33.69 30.94 32.45
43.70 43.05 41.46 40.61 41.42 37.62 32.81 32.33 35.17 31.51 29.28 30.09 30.50 30.94 30.95 30.44 30.76 31.47 32.96 35.21 35.30 35.59 32.50 30.39 30.18 31.68 31.93 33.09 33.48 34.76 34.59 34.60 32.77 31.16 31.93 33.77 34.32 33.72 33.39 33.79 34.34 35.18 34.73 34.65 35.09 32.60 33.77 34.90 36.17 35.77 35.05 33.98 31.90 31.90
38.93 40.28 39.83 39.43 36.09 34.76 32.67 31.75 31.34 31.63 30.81 30.18 29.00 31.62 28.56 30.55 29.57 30.05 31.42 33.37 32.33 31.89 30.32 33.00 34.28 35.55 34.46 33.90 34.42 34.73 33.72 33.74 32.68 32.77 32.33 32.32 35.00 34.83 34.37 34.69 34.94 34.67 34.13 34.71 34.56 34.74 32.42 34.14 35.47 35.01 34.20 32.60 32.99 33.33
38.16 40.52 36.13 35.80 32.48 31.89 30.59 30.97 31.70 30.53 31.13 29.91 30.24 30.68 29.59 28.24 27.40 28.16 31.11 29.00 28.95 31.64 33.57 33.93 34.21 34.81 34.21 32.60 34.02 34.10 34.38 34.25 34.26 33.78 32.12 32.66 32.69 33.58 34.29 34.82 34.42 34.53 34.73 35.39 35.36 34.59 35.10 35.54 34.98 34.39 32.95 32.20 31.94 33.34
38.13 36.40 32.76 32.77 28.90 29.29 26.40 30.95 28.57 27.60 26.89 27.19 28.37 26.92 27.17 27.94 26.92 28.24 26.07 27.84 29.98 33.35 34.38 34.40 34.45 34.52 33.78 34.62 33.67 33.76 33.79 33.03 33.42 34.10 34.28 34.44 34.80 35.52 34.74 35.10 35.39 33.63 33.69 34.98 35.64 35.22 34.76 33.11 33.21 32.92 33.33 32.68 32.15 31.01
35.79 31.01 28.52 26.67 27.75 24.24 29.32 25.71 27.84 26.44 26.98 25.41 25.19 21.42 22.50 25.90 24.99 23.74 22.28 25.82 30.15 32.56 31.55 32.02 33.60 33.03 33.32 31.05 31.79 33.25 33.93 34.30 34.48 34.71 35.33 34.01 33.60 34.48 35.92 35.35 35.68 35.41 34.35 34.36 34.57 34.63 33.90 32.60 32.26 32.66 32.06 31.68 30.84 30.92
29.54 25.94 26.93 22.54 26.06 23.55 22.74 23.40 23.55 24.65 22.12 22.67 19.95 21.55 22.32 22.94 22.66 21.49 21.65 27.44 30.47 31.44 32.77 32.21 31.12 31.87 31.78 33.09 33.55 33.95 32.79 33.55 33.63 33.26 35.89 35.70 34.67 34.29 34.50 35.35 36.11 35.05 35.16 31.51 31.33 32.24 32.24 32.24 32.06 31.88 31.41 30.87 29.80 30.41
21.85 24.90 23.23 22.94 22.55 22.43 22.47 20.08 20.62 21.42 21.83 19.58 21.02 21.76 21.89 23.78 20.87 21.77 25.06 30.37 31.70 32.36 33.55 34.51 34.11 32.31 31.82 32.46 31.99 33.00 34.65 34.49 33.45 32.20 33.85 35.02 33.76 32.79 31.55 31.02 31.74 33.09 34.62 33.52 31.88 30.76 30.37 30.15 29.64 29.17 29.05 29.09 28.20 28.25
20.76 22.02 26.15 26.31 25.18 22.27 20.75 20.50 21.49 21.81 19.00 19.08 22.90 19.59 21.67 19.05 20.39 25.90 29.74 28.60 29.65 28.98 29.82 30.52 29.85 29.64 29.77 30.39 31.37 32.65 32.89 32.77 31.61 31.93 33.04 31.95 31.78 31.62 30.96 29.60 29.34 31.49 32.41 32.42 31.69 30.97 29.51 28.73 28.78 29.06 28.85 29.17 28.55 28.00
24.78 25.69 21.18 23.77 23.41 24.46 21.09 21.29 20.86 20.17 23.46 23.99 23.38 19.48 20.52 21.87 23.68 26.61 25.37 24.47 24.39 26.55 28.21 29.07 28.59 27.10 27.47 28.55 28.70 28.43 28.25 29.44 30.24 31.20 31.24 30.83 30.18 30.72 28.73 29.03 28.44 26.57 29.69 30.79 30.41 30.49 29.93 29.48 28.78 27.45 27.29 27.67 27.86 27.90
26.06 25.72 25.71 20.78 21.05 22.20 23.17 24.00 24.42 26.31 27.39 25.38 24.63 24.30 24.89 24.97 20.02 19.71 20.19 20.20 22.52 22.97 21.75 21.04 22.30 23.27 25.20 25.04 26.49 25.99 24.80 23.76 22.56 22.04 23.20 25.29 28.88 23.92 23.82 24.21 24.62 24.99 25.26 26.38 26.42 27.36 28.02 28.23 26.78 26.35 26.61 26.63 26.17 25.93
24.85 27.28 24.61 21.13 20.02 22.19 27.73 28.39 28.93 28.23 27.35 28.68 28.34 26.96 24.18 18.48 16.70 18.83 18.36 17.85 16.75 16.63 17.27 17.86 18.19 18.64 17.90 18.18 19.61 21.55 21.94 21.13 19.90 18.36 17.97 18.08 17.99 19.94 20.48 20.25 20.32 21.07 21.39 22.82 23.93 25.86 25.93 25.40 24.52 25.09 23.48 22.56 21.04 20.15
26.45 25.76 24.77 24.16 23.69 27.98 26.44 21.59 22.66 22.61 24.57 27.15 26.75 27.87 27.30 15.53 15.27 15.88 14.68 15.99 16.06 15.90 15.14 14.76 16.02 17.74 17.42 16.73 16.10 16.22 16.73 17.99 16.28 16.39 16.58 18.21 18.18 17.89 17.20 16.46 17.27 17.67 18.70 20.14 21.08 21.96 20.95 21.23 20.03 18.93 17.04 14.96 13.47 13.86
25.30 24.26 23.84 20.95 24.48 23.72 21.95 22.68 23.29 23.84 25.82 23.96 26.18 20.57 18.02 18.02 11.77 12.26 12.88 14.26 13.35 11.57 10.77 12.15 12.58 14.45 16.15 16.87 16.43 16.62 14.34 14.99 14.48 13.53 12.36 13.38 13.81 13.64 13.75 13.68 13.86 15.10 16.12 17.09 17.19 16.96 16.16 15.63 15.02 14.45 13.37 11.22 9.63 9.09
20.89 20.97 20.33 20.50 21.31 22.25 20.76 19.23 19.76 18.79 20.15 19.71 17.96 16.97 13.92 13.27 6.44 10.11 13.98 14.04 12.57 11.17 10.55 11.76 13.31 14.18 16.57 14.72 13.73 14.19 13.67 14.21 12.71 11.74 9.87 9.56 8.36 8.18 9.59 10.63 10.81 12.04 12.97 13.78 13.56 13.12 11.94 10.84 9.98 8.93 7.20 6.14 5.27 4.36

GFSWCAN_sfc_wetblb_003.txt.gz
Wetbulb
49.25 48.99 49.90 49.65 49.67 49.92 49.97 50.00 50.13 50.28 50.71 50.57 50.63 50.76 50.34 49.92 50.02 56.42 58.79 58.83 58.56 53.91 52.61 53.44 53.54 52.47 52.50 52.60 49.21 51.44 49.77 50.11 49.53 38.97 39.69 41.88 38.39 42.40 40.53 42.06 39.25 38.12 36.77 33.77 36.28 32.62 30.11 46.06 44.86 39.19 44.96 47.83 46.40 44.57
48.30 48.78 48.89 49.21 48.95 49.15 49.36 49.64 49.60 49.95 50.03 49.84 50.51 50.54 50.74 50.24 49.91 51.55 59.63 58.01 58.89 57.47 54.62 56.38 55.99 56.18 56.33 56.12 53.68 52.86 50.36 50.56 50.72 47.33 43.35 43.43 38.93 37.26 40.44 37.44 45.52 38.72 42.48 40.33 40.20 40.16 46.71 47.63 45.23 49.15 48.55 46.18 45.02 44.55
47.40 47.65 48.23 48.73 48.69 48.66 48.79 48.98 49.20 49.46 49.68 49.87 49.99 50.42 50.87 50.64 50.36 52.25 60.67 59.89 60.12 55.93 54.83 54.61 53.14 56.18 57.38 57.93 59.81 52.07 53.86 53.34 52.44 55.00 49.09 43.97 34.80 44.26 35.33 40.34 44.13 45.26 47.85 42.92 42.07 44.54 45.48 46.23 48.45 48.31 48.26 46.59 45.37 45.47
46.93 47.05 47.07 47.63 48.51 48.34 48.42 48.68 48.60 48.93 49.27 49.57 49.93 49.88 50.67 50.45 50.45 51.05 59.61 58.95 58.79 53.20 40.06 52.55 54.34 54.73 56.59 58.61 58.06 58.35 55.82 55.43 55.00 53.45 42.54 38.24 38.06 48.45 41.93 44.87 43.86 46.21 46.60 43.83 43.41 45.97 46.62 47.52 46.74 47.34 47.36 47.14 46.03 46.25
46.80 46.61 46.57 46.73 47.14 48.17 48.15 48.32 47.96 48.44 48.71 48.92 49.57 49.20 49.72 50.89 50.78 57.82 60.47 59.80 59.62 56.66 47.14 51.16 53.54 53.75 55.61 57.30 56.48 56.65 55.61 53.58 52.12 44.92 37.70 39.95 48.74 47.71 46.70 44.19 43.18 46.99 45.00 42.62 41.70 46.09 44.69 44.78 46.66 48.45 46.91 45.78 45.40 43.62
46.64 46.39 46.39 46.50 46.71 47.16 47.81 47.83 47.94 47.88 47.94 47.51 49.44 49.53 50.00 50.49 50.84 59.09 55.12 59.97 60.06 59.62 52.37 45.28 52.94 51.47 53.30 55.02 55.46 54.73 54.83 54.26 53.25 48.85 41.88 49.24 51.58 48.04 36.61 38.98 45.18 47.15 48.63 49.05 46.02 47.48 45.63 45.72 45.69 46.64 45.66 44.48 43.54 42.34
46.57 46.34 46.32 46.32 46.39 46.54 47.14 47.45 47.60 47.90 48.12 48.66 49.12 49.60 49.64 49.41 57.32 55.04 53.53 54.88 52.29 60.42 50.57 44.59 47.87 49.36 50.45 53.08 53.65 53.60 54.04 53.07 52.11 49.18 46.53 47.01 48.48 47.74 39.15 38.02 44.69 46.94 48.08 47.53 47.29 46.39 42.29 43.94 44.28 45.32 44.04 43.29 42.83 43.62
46.34 46.25 45.88 45.86 46.14 46.36 46.32 47.09 47.54 47.88 48.08 48.37 48.63 48.81 49.13 49.10 50.28 54.30 56.97 52.35 54.48 56.03 53.10 43.50 41.47 44.74 49.61 47.07 45.29 49.35 47.87 48.75 49.13 49.09 45.89 44.44 47.73 45.62 38.77 44.45 46.63 47.66 45.96 45.26 44.41 45.15 46.21 46.01 44.76 43.43 43.16 42.63 40.36 39.48
45.36 45.55 45.81 45.47 45.54 45.77 46.14 46.80 47.47 47.79 48.26 48.37 48.54 48.84 51.35 50.80 49.98 54.00 48.20 51.81 57.83 54.37 46.73 37.52 37.52 36.61 48.35 43.68 43.72 43.45 45.20 39.51 45.96 39.87 41.76 44.34 40.23 37.51 42.67 44.88 45.08 44.58 44.38 44.38 45.09 44.53 43.59 41.78 41.03 40.58 40.00 39.29 38.17 38.02
45.17 45.36 45.61 45.45 45.49 45.70 45.96 46.64 47.38 47.34 47.99 47.99 48.74 46.36 38.77 43.65 48.12 49.12 53.01 50.86 47.94 49.75 48.82 39.15 46.54 40.32 46.41 40.58 38.06 38.99 40.60 38.21 35.34 38.13 38.62 33.89 35.60 43.68 44.64 44.89 44.98 44.63 45.01 44.90 41.69 40.04 40.10 38.65 38.30 38.21 38.00 38.75 38.33 37.35
45.59 45.62 45.81 45.60 46.11 46.00 46.93 46.89 47.31 47.42 47.54 45.01 39.69 36.97 43.81 47.23 46.35 44.02 38.23 39.51 40.37 35.70 39.92 42.78 43.29 40.72 44.77 38.55 36.43 38.79 35.16 35.34 33.89 36.11 35.53 35.52 35.19 41.24 44.27 42.49 43.42 44.25 44.95 43.92 43.12 41.28 39.30 38.19 37.70 37.37 37.54 37.83 37.11 36.64
45.48 45.88 46.07 45.68 45.96 46.13 47.23 46.86 47.18 46.86 45.35 44.12 43.71 45.22 44.38 40.76 36.74 38.24 34.07 33.53 34.80 35.93 36.68 34.92 37.77 43.06 38.66 41.91 34.97 33.29 32.80 33.53 32.44 38.88 33.82 32.15 39.74 42.32 42.61 43.01 42.86 43.21 42.72 40.18 39.21 38.11 38.19 37.97 38.38 37.92 37.43 36.61 36.37 36.14
43.87 45.09 45.93 45.84 45.82 45.95 47.05 46.16 45.80 46.08 46.73 44.20 37.84 34.40 34.63 32.43 31.17 31.72 30.25 32.44 32.43 33.71 34.13 34.22 32.97 34.77 35.43 37.27 32.99 33.89 31.90 32.62 37.04 31.86 31.32 37.81 40.89 41.46 43.01 42.31 41.53 41.42 39.17 37.01 37.47 38.10 38.41 38.08 38.10 36.50 35.58 36.43 35.44 35.67
43.60 44.89 45.83 45.84 45.60 46.28 46.07 45.94 45.07 45.43 44.34 35.21 32.62 31.72 32.44 31.90 32.80 34.06 34.98 34.44 35.34 35.70 34.62 34.25 32.99 33.71 33.53 33.53 33.89 32.08 32.07 33.80 29.46 27.73 31.08 38.16 39.41 40.99 41.75 41.40 40.46 38.58 35.40 35.22 35.74 36.69 36.71 37.08 36.48 36.33 34.44 34.49 33.57 33.55
43.51 44.91 45.54 45.88 45.51 45.97 44.58 44.47 44.26 45.43 41.34 34.91 35.23 30.99 32.08 33.35 34.07 33.53 34.62 35.34 36.00 38.04 37.15 37.14 36.55 37.92 34.07 31.90 33.68 30.95 27.99 27.63 30.03 31.40 35.89 38.83 39.44 38.59 37.39 36.83 36.56 35.49 35.28 35.49 36.59 35.91 35.30 35.52 35.45 35.27 36.50 36.66 36.03 34.44
43.94 44.96 46.48 45.61 45.23 44.57 44.02 44.21 43.97 41.98 38.70 35.85 34.13 32.26 33.35 33.53 32.62 32.44 33.35 32.99 37.26 37.03 38.08 38.34 34.19 32.80 31.34 32.86 29.27 29.51 29.14 27.37 31.94 35.83 38.68 37.87 36.21 36.58 36.68 37.46 36.97 36.73 35.54 35.45 35.54 35.37 35.49 35.46 34.21 35.50 36.77 35.38 34.07 33.53
43.25 44.92 44.73 44.12 43.10 42.13 42.92 42.27 42.11 36.09 35.17 33.94 32.26 35.70 34.62 34.98 34.07 33.71 35.89 36.25 38.95 36.43 32.99 34.71 30.81 30.19 30.93 29.84 28.46 32.35 30.19 33.90 36.33 36.99 37.70 36.63 35.92 36.36 37.82 37.71 35.36 35.67 35.50 35.54 35.57 35.82 36.15 36.95 36.31 35.46 33.53 36.24 36.90 36.41
43.64 45.77 44.51 43.67 45.34 43.61 40.13 40.44 37.91 37.17 31.83 34.96 34.15 33.15 34.78 35.53 34.62 34.80 36.25 37.19 36.63 34.46 34.07 32.42 32.49 28.94 28.67 27.25 29.72 34.95 35.55 37.01 37.56 36.12 35.98 36.17 36.70 37.02 37.30 37.13 37.57 36.94 36.03 35.85 36.33 35.86 35.60 35.35 34.88 35.92 36.38 37.21 36.89 36.58
44.63 45.88 44.30 43.62 43.79 39.98 36.80 36.37 39.17 32.85 33.61 34.75 33.62 35.00 34.78 34.01 34.29 35.14 35.55 35.09 36.81 37.14 35.13 33.54 31.22 29.41 29.93 32.08 34.33 36.10 37.04 36.34 34.98 36.07 36.96 37.16 36.63 35.47 35.36 35.89 35.65 35.62 35.58 35.44 35.82 36.39 36.81 36.99 37.30 37.46 37.45 37.17 36.32 36.53
43.74 43.97 42.30 41.38 41.92 39.92 34.92 35.13 38.93 35.18 33.46 33.61 33.96 33.70 33.31 33.06 33.30 33.66 34.44 35.34 35.96 36.25 33.50 32.21 32.28 34.05 35.58 36.51 37.43 37.54 37.46 37.79 36.27 34.43 34.40 35.71 37.20 36.48 36.04 36.01 36.05 36.73 36.51 36.47 36.93 34.22 37.01 37.25 37.96 37.90 37.89 37.12 35.38 34.31
40.71 41.23 40.81 41.09 40.70 39.59 37.14 35.87 34.43 35.20 33.90 32.52 32.55 34.85 30.88 32.13 31.65 31.89 32.77 36.04 34.13 33.51 31.81 35.15 37.08 38.06 38.37 38.29 38.40 38.27 37.17 36.97 35.11 34.91 34.22 33.99 36.58 36.82 36.57 36.89 37.35 37.19 36.58 36.80 37.58 37.34 36.27 37.60 37.62 38.29 36.02 34.25 34.44 34.98
39.41 39.97 35.64 37.19 35.52 34.51 34.37 35.96 34.39 35.84 34.34 31.85 32.33 34.91 30.56 29.42 29.47 30.23 32.36 31.22 31.10 34.23 36.19 36.67 37.10 37.49 37.06 36.25 36.87 37.30 37.03 36.67 36.58 36.03 33.39 34.37 34.63 35.63 36.41 37.16 37.00 37.17 37.39 38.24 37.83 37.51 37.97 38.25 38.67 38.43 35.34 32.80 34.24 34.98
38.43 36.82 33.70 33.53 31.72 32.44 28.94 35.38 31.89 31.35 29.07 28.93 31.73 29.04 29.00 29.32 30.19 31.81 28.74 31.52 33.39 36.93 37.86 37.59 37.24 37.25 36.51 36.88 36.36 36.39 36.71 35.93 35.65 35.99 36.37 36.75 37.09 38.13 37.71 37.60 38.38 36.98 36.52 36.90 38.05 38.25 37.90 36.08 36.33 33.85 33.35 33.71 33.56 32.99
37.18 32.40 30.51 29.95 31.24 26.74 31.19 28.45 31.36 29.98 30.59 29.13 28.51 25.90 26.39 29.77 28.54 27.79 26.80 30.80 33.95 36.63 35.17 34.59 35.91 35.37 35.70 34.28 34.55 35.28 35.91 36.87 36.43 36.77 37.48 36.50 35.60 36.20 37.53 37.65 38.17 39.39 38.24 37.93 37.60 36.34 36.25 33.53 32.92 33.51 32.99 32.26 32.26 31.70
30.45 27.19 29.49 25.16 29.02 26.99 26.03 25.71 26.20 27.28 25.32 26.22 25.19 25.39 26.19 28.48 26.15 25.17 25.18 31.04 34.41 34.58 34.46 35.44 35.21 35.00 33.89 34.40 34.99 35.48 36.92 36.39 35.12 34.46 36.92 37.80 37.17 37.21 36.76 37.02 37.46 37.74 39.17 35.69 32.99 32.62 32.26 32.80 32.62 32.08 32.25 31.72 30.38 29.95
24.57 26.93 26.80 26.81 26.01 26.42 26.77 23.76 24.75 25.19 25.85 24.52 25.29 26.96 27.53 26.82 23.65 23.67 27.99 32.47 33.72 32.69 31.08 31.75 33.07 32.98 33.08 34.14 32.86 33.22 34.11 35.62 34.52 32.61 34.40 36.55 35.98 34.94 33.83 31.58 31.86 34.87 38.64 35.47 33.17 32.08 31.82 32.44 31.58 30.55 30.21 30.59 30.17 29.76
23.91 24.83 28.10 29.77 29.44 27.76 26.01 26.71 27.99 26.80 23.73 23.07 26.09 24.43 25.04 20.98 22.34 27.97 31.33 29.39 30.75 29.24 31.02 31.61 30.79 30.60 29.95 30.51 31.30 30.58 29.90 29.48 29.16 28.98 30.11 31.12 31.63 31.19 30.88 30.58 30.05 31.82 31.78 32.52 32.08 31.72 30.99 30.78 30.14 29.72 30.00 30.48 30.31 30.34
28.16 28.73 23.87 26.69 27.87 29.85 25.01 25.77 24.76 24.42 26.56 28.99 28.21 23.17 22.06 23.59 25.53 26.96 25.97 26.07 26.54 28.10 29.19 29.27 28.74 27.15 27.19 26.65 26.72 26.66 25.84 26.05 26.86 29.42 30.90 32.25 32.26 26.84 26.47 27.51 28.79 27.40 29.03 30.14 29.87 29.91 29.90 29.87 29.69 29.79 28.83 28.54 29.28 29.77
28.04 29.94 28.67 23.21 25.16 26.81 27.01 26.57 27.30 29.93 32.06 30.06 27.77 26.78 28.54 25.44 22.77 23.19 22.74 23.64 25.57 25.45 24.03 23.28 23.87 24.86 25.55 25.75 25.90 25.53 23.15 22.05 20.16 18.07 18.63 20.58 21.99 23.33 24.03 24.00 24.24 25.01 25.16 25.60 26.28 27.62 28.02 28.03 26.96 26.48 26.91 27.65 27.06 26.71
26.43 30.80 27.27 24.17 23.03 24.65 30.45 32.77 31.96 31.72 32.78 33.35 32.73 29.58 25.55 21.05 19.28 21.36 21.25 21.37 20.21 19.55 20.37 21.04 21.11 21.19 20.14 19.44 19.72 21.64 22.39 20.60 18.51 16.74 15.15 15.77 17.41 20.21 21.36 20.74 20.70 21.44 21.86 23.11 23.68 24.83 26.46 26.80 26.13 26.83 24.14 23.05 21.36 21.23
29.16 28.57 26.50 26.98 26.75 30.70 29.82 29.00 29.54 29.19 29.64 30.54 32.53 30.06 24.81 18.52 17.94 17.83 17.75 18.99 19.00 18.69 18.27 17.64 18.70 18.74 17.63 17.01 16.68 16.16 16.03 19.28 17.29 16.73 15.85 16.11 17.33 17.60 17.66 17.11 18.44 18.78 19.54 20.50 21.24 21.72 20.99 22.07 22.33 21.04 19.20 16.96 15.84 15.57
27.89 26.96 26.70 23.85 26.63 28.30 28.76 27.78 28.74 28.31 29.88 28.02 28.60 25.53 21.93 21.18 15.90 15.21 15.80 17.55 17.06 15.41 14.13 15.34 14.98 15.36 17.19 18.18 17.99 18.07 15.66 16.73 16.39 15.18 14.45 12.90 13.65 14.03 13.84 14.73 15.97 16.17 16.45 17.09 18.77 18.65 17.54 17.89 17.00 16.44 16.10 13.11 11.40 10.84
24.46 24.70 24.33 24.07 24.69 23.93 26.67 25.38 25.67 24.14 25.32 24.70 22.86 21.81 18.29 18.30 11.63 14.23 17.55 17.13 15.09 13.59 13.14 13.95 15.10 15.99 16.92 17.72 16.71 16.28 15.71 16.06 15.49 14.78 13.53 11.57 10.53 10.85 10.54 11.97 10.67 10.64 12.75 15.19 15.71 15.18 13.85 13.04 12.46 11.33 9.81 8.25 6.86 5.58

GFSWCAN_sfc_wetblb_006.txt.gz
Wetbulb
50.06 50.03 49.98 50.08 50.17 50.17 50.45 50.65 50.71 51.03 51.28 51.89 51.05 50.76 50.61 50.19 50.34 55.40 59.69 60.38 59.05 54.48 53.82 55.68 55.33 54.16 53.45 53.38 49.17 51.43 49.90 51.54 50.26 38.13 39.76 42.52 38.67 42.40 41.49 42.55 37.91 35.32 35.14 32.87 35.82 32.31 29.69 46.44 45.11 39.02 45.01 47.84 46.89 45.93
48.62 48.85 49.18 49.52 49.70 49.88 49.76 49.88 50.12 50.43 50.55 50.80 51.44 50.69 50.69 50.59 50.28 51.74 59.39 59.44 60.61 58.00 54.61 58.25 57.07 57.54 56.18 55.85 54.84 54.09 50.89 50.45 50.93 46.20 44.60 45.12 38.21 37.29 39.72 38.18 45.34 38.90 42.96 40.39 39.76 38.85 47.09 48.36 46.42 48.52 47.60 46.91 45.36 45.25
47.32 47.66 48.09 48.81 49.26 49.07 49.07 49.09 49.53 49.85 50.20 50.40 50.48 50.72 50.69 51.08 50.89 52.12 60.12 60.24 61.60 58.61 54.76 54.29 53.05 56.55 58.82 58.43 61.17 52.59 55.78 54.53 53.22 55.33 47.24 42.66 33.96 43.71 34.94 40.22 42.89 44.96 47.23 44.07 43.25 45.09 45.89 47.63 48.76 48.27 48.35 47.02 46.70 46.49
46.87 46.76 47.01 47.52 48.54 48.81 48.85 48.87 48.51 49.19 49.82 50.17 50.48 50.42 51.44 51.10 50.93 51.92 59.31 59.96 59.45 53.19 38.49 53.11 56.50 55.02 57.62 58.50 58.31 59.35 57.42 57.53 56.36 52.40 40.78 37.58 36.13 48.17 42.19 44.07 43.78 45.91 46.34 44.22 43.31 45.92 46.97 47.39 47.31 47.71 46.73 47.32 46.42 46.46
46.51 46.53 46.73 46.80 47.16 47.96 48.33 48.45 48.33 48.27 48.94 49.14 49.74 49.31 49.65 52.43 51.15 55.91 60.56 60.01 60.04 57.01 45.25 52.41 54.50 55.49 56.61 57.80 56.61 57.36 56.71 54.80 52.91 45.06 36.86 38.62 48.35 48.35 48.35 45.34 43.38 46.23 43.50 41.64 40.45 46.65 46.04 45.82 46.53 46.54 45.48 45.13 45.93 44.72
46.33 46.19 46.33 46.33 46.64 47.05 47.61 47.68 47.90 47.81 47.46 47.88 48.96 49.21 49.76 50.59 50.40 58.98 54.41 59.47 59.76 60.10 50.63 42.99 54.13 52.52 54.47 55.89 55.70 54.87 55.29 54.97 53.55 48.06 42.17 48.27 51.67 48.64 37.76 38.60 45.10 47.20 48.20 48.16 45.77 48.29 47.55 47.11 47.12 46.94 45.23 44.57 44.16 42.69
46.28 46.17 45.99 46.08 46.30 46.40 46.99 47.39 47.37 47.66 47.59 47.34 49.05 49.21 48.96 49.66 57.04 54.24 51.81 53.44 51.39 58.97 49.55 42.48 47.66 50.58 52.08 54.01 54.33 53.93 55.35 54.04 52.68 51.34 47.53 46.71 49.10 47.86 37.40 37.42 44.69 46.74 47.59 48.10 48.37 47.66 44.68 45.36 44.14 46.40 44.53 43.68 42.81 42.93
45.68 45.94 45.80 45.69 45.87 45.99 46.17 47.07 47.53 48.00 47.79 48.57 48.55 48.86 49.10 49.12 50.53 54.17 55.56 53.15 53.30 56.10 52.61 43.57 41.75 45.65 50.68 49.06 46.61 49.49 47.48 48.78 49.64 48.56 47.22 45.09 48.29 46.10 39.76 44.41 46.35 47.44 47.87 46.81 46.12 46.54 46.02 46.38 46.48 44.08 43.46 42.29 39.68 38.38
45.14 45.15 45.46 45.22 45.78 45.80 46.06 46.73 47.41 47.75 48.09 48.38 48.80 48.78 53.67 53.25 52.70 54.90 48.78 50.73 59.09 54.49 47.82 36.50 37.04 36.86 49.26 43.03 42.94 44.48 46.39 39.03 47.37 39.40 42.42 43.88 41.21 37.20 42.50 44.33 45.39 47.06 45.73 45.06 45.77 45.68 44.76 42.75 41.85 41.26 40.09 38.91 37.43 37.23
45.35 45.38 45.46 45.35 45.80 45.80 46.33 46.40 46.85 47.44 47.88 48.08 49.41 46.56 39.03 44.45 48.63 49.33 53.36 51.63 50.11 52.44 49.51 38.67 47.01 41.09 45.98 41.03 38.67 39.02 39.21 37.93 35.41 38.59 39.90 35.23 37.32 44.30 46.00 46.91 47.45 46.14 46.58 46.36 43.04 40.61 41.21 39.60 39.07 38.07 37.57 38.18 38.00 36.78
45.88 45.78 45.62 45.67 45.87 46.10 46.98 46.83 47.26 47.48 47.93 45.71 40.30 37.22 43.81 47.17 49.75 46.35 39.94 40.66 41.54 38.49 42.61 42.50 44.97 40.26 45.62 38.24 36.13 39.58 35.05 36.13 33.34 36.63 36.13 34.12 33.88 40.34 44.98 45.87 45.53 45.92 46.04 45.58 44.99 43.48 40.88 39.05 37.52 37.22 37.77 37.56 36.03 35.46
45.70 46.10 45.84 45.82 45.87 46.78 46.31 46.85 47.26 47.28 44.89 44.00 43.69 44.82 43.75 40.54 36.19 37.22 35.05 34.86 35.77 38.11 38.75 35.74 39.36 43.19 41.01 45.37 39.43 35.12 33.96 33.05 31.78 37.89 32.51 32.66 38.95 43.78 44.35 43.06 43.89 44.72 44.07 41.99 41.30 39.27 38.67 38.01 38.27 37.95 36.91 36.05 35.33 34.36
44.31 45.87 45.91 45.75 45.89 47.03 46.33 46.08 46.24 46.02 46.21 42.76 38.03 34.82 35.82 32.49 31.22 31.78 30.88 32.33 32.87 33.78 34.44 34.46 33.38 36.13 36.64 38.24 33.41 32.87 31.42 31.96 35.69 32.67 31.38 36.28 40.37 42.24 43.08 43.20 42.47 40.84 38.00 38.14 38.31 38.45 38.16 37.30 36.44 35.08 33.88 34.68 33.15 34.04
43.49 45.42 45.93 45.52 46.11 46.53 46.06 45.11 45.45 46.67 43.03 35.28 32.69 31.60 31.96 31.60 32.51 32.33 32.51 32.33 33.41 33.78 33.96 34.32 32.87 33.78 32.87 32.69 32.33 31.60 32.87 34.09 30.10 28.96 30.19 37.06 39.81 41.54 42.23 42.38 40.46 36.64 31.97 34.38 35.36 36.48 34.46 35.33 34.76 33.44 33.04 32.57 31.17 32.17
43.57 45.26 45.95 45.55 44.89 44.71 44.54 44.05 43.94 46.75 42.63 35.81 34.68 30.88 31.78 33.05 33.59 32.87 32.51 33.59 33.90 36.04 34.49 33.41 33.41 34.97 32.33 31.42 32.51 31.77 29.07 28.36 30.30 31.13 33.83 37.05 37.82 37.98 37.10 38.20 35.69 34.13 31.79 33.60 36.33 34.15 31.88 32.34 33.07 33.72 34.42 34.59 35.01 32.75
43.74 44.07 45.91 45.23 44.77 44.46 44.12 45.10 44.99 43.95 40.63 36.98 35.20 32.69 33.41 33.23 32.33 32.33 32.33 32.51 36.74 35.01 36.86 36.50 32.69 32.14 31.40 32.28 30.02 29.88 29.27 28.13 32.49 36.43 37.77 36.22 35.59 36.15 35.77 36.14 36.18 36.05 34.65 34.95 34.90 34.06 33.42 32.32 31.77 34.22 35.21 34.14 33.04 32.59
42.70 44.12 45.08 43.95 43.12 42.94 43.43 43.18 42.51 37.20 35.38 33.84 32.61 36.50 34.86 34.68 33.41 33.78 35.23 35.95 39.27 35.23 32.33 33.96 31.42 28.40 31.72 29.99 29.26 32.29 30.61 33.72 36.71 37.68 35.84 35.84 34.98 35.99 36.65 36.43 33.90 34.47 35.15 35.44 35.06 34.72 34.69 34.50 33.65 33.73 32.94 34.80 34.97 34.80
43.12 44.96 44.37 44.33 45.46 43.51 40.89 41.76 39.32 37.30 33.24 35.47 34.32 34.32 35.93 35.95 34.14 34.68 36.13 38.38 37.45 35.40 35.68 32.36 33.70 29.50 29.17 27.77 30.03 34.66 35.98 37.57 36.85 36.07 35.63 36.25 36.78 36.62 36.71 36.22 37.02 36.56 35.84 34.90 34.04 34.52 34.49 33.00 33.59 34.19 35.27 36.06 35.22 34.73
43.52 45.44 44.24 43.85 44.51 41.82 36.75 36.71 38.40 33.46 33.69 34.96 34.38 35.50 35.09 34.48 35.51 36.08 35.41 36.49 37.67 37.29 36.08 34.10 30.86 29.60 31.80 33.97 35.48 37.04 37.71 37.51 35.11 35.52 36.39 36.53 36.06 35.23 34.66 34.92 34.58 35.04 34.77 34.61 34.70 34.92 35.63 35.53 35.64 36.31 36.81 36.46 35.37 35.89
43.49 43.61 43.25 42.22 42.49 39.03 34.57 35.64 39.92 35.18 32.98 34.38 35.09 34.08 33.19 32.82 33.47 33.22 33.78 34.50 35.21 35.59 32.51 31.59 32.83 35.65 36.27 37.05 38.30 38.37 38.62 38.47 37.02 35.22 34.87 36.14 37.03 36.19 35.68 36.11 36.05 36.29 35.74 35.43 35.61 33.70 35.97 36.35 37.23 36.87 36.77 36.18 35.42 34.88
42.35 41.37 40.93 41.19 39.02 40.06 37.69 35.49 34.74 35.89 34.73 33.06 33.66 34.77 30.54 32.49 32.10 33.05 33.59 35.51 33.05 33.02 31.83 35.74 39.04 39.00 38.74 38.72 38.91 38.97 37.56 37.52 35.86 36.14 34.47 33.61 36.77 36.63 35.66 36.30 36.53 36.58 36.05 36.45 36.67 36.02 35.19 35.81 36.54 36.98 35.27 33.96 33.52 32.84
39.28 40.16 35.72 36.80 33.96 34.81 35.03 37.08 35.42 36.41 34.02 32.28 32.52 34.48 29.73 29.23 29.36 31.13 33.16 31.29 31.46 34.27 36.38 37.37 37.81 38.72 38.22 36.96 37.93 38.21 37.65 36.58 36.96 36.37 33.32 34.05 33.95 35.08 35.81 37.03 36.88 36.25 36.04 36.13 35.65 35.13 35.35 36.68 36.91 36.58 34.50 33.41 33.35 33.41
38.75 36.23 33.94 33.23 31.60 31.78 29.62 35.75 32.75 32.57 28.42 28.87 31.67 28.54 28.16 28.65 30.14 32.15 28.64 31.41 33.34 37.27 38.49 38.33 38.31 38.68 37.32 38.44 36.73 36.86 37.05 36.48 35.43 36.08 36.34 36.86 37.18 37.63 37.33 36.67 36.66 34.79 34.42 35.49 36.53 35.94 35.40 34.58 35.17 33.78 33.23 32.69 32.66 32.33
37.11 32.13 31.78 31.19 31.96 28.00 31.60 28.94 32.54 30.99 31.19 29.30 27.55 26.37 27.88 28.68 29.97 28.33 26.99 31.24 34.56 36.93 35.31 35.07 35.93 35.12 36.23 35.06 34.38 35.60 36.06 36.63 35.64 36.21 37.12 35.86 34.73 35.08 36.24 35.93 36.22 36.18 35.83 35.96 35.45 34.87 34.80 33.05 32.75 33.23 32.48 32.14 31.80 31.36
30.16 28.38 30.06 26.20 30.79 28.40 26.51 26.60 27.43 28.04 25.93 27.48 26.46 26.33 26.71 28.82 26.27 26.05 25.96 31.21 32.65 31.30 33.04 35.41 35.36 34.85 33.78 34.86 35.46 35.10 35.23 34.26 32.76 32.17 34.28 34.91 34.13 34.01 33.71 34.34 34.62 35.32 35.29 33.62 33.04 33.05 32.82 32.51 32.25 32.19 32.11 31.60 30.07 29.59
25.68 27.96 27.78 28.24 27.87 27.81 27.20 24.71 25.88 26.43 26.54 25.12 26.03 27.48 28.48 27.05 24.09 23.72 27.97 30.30 29.63 28.93 29.40 30.47 31.23 31.81 32.23 31.92 30.58 29.71 28.71 29.91 28.17 26.71 29.21 29.59 28.27 27.46 26.95 27.32 27.97 29.66 28.21 29.11 29.15 29.29 30.15 31.25 31.55 31.13 30.68 29.97 30.09 29.83
24.84 25.73 28.37 30.11 30.20 29.03 27.33 28.95 29.55 27.59 24.91 24.22 26.12 24.86 24.61 21.08 22.07 27.38 28.47 26.73 27.03 27.61 28.89 29.01 28.06 27.59 27.15 27.56 27.40 27.54 27.66 26.56 24.98 24.42 26.94 28.82 29.66 26.74 25.22 22.89 22.34 24.32 27.24 28.10 28.15 27.99 27.74 28.43 29.12 29.36 29.13 30.10 30.01 29.27
28.23 28.80 24.10 27.88 28.48 30.26 26.07 26.38 25.36 25.08 26.76 29.84 28.42 23.46 22.78 23.63 24.33 25.04 24.10 25.35 26.11 27.35 28.08 28.08 26.57 25.53 25.50 24.70 25.88 25.85 24.12 24.22 24.72 25.70 26.83 28.96 29.76 25.69 23.09 23.82 23.96 23.45 24.42 24.70 25.08 25.72 26.26 26.71 26.91 27.34 26.85 26.51 27.67 27.93
26.86 30.07 28.77 24.19 26.88 27.81 27.45 27.08 27.80 30.00 32.32 31.18 28.00 26.65 27.27 22.86 22.39 22.86 22.30 23.52 25.36 24.74 22.88 22.34 22.55 24.79 24.46 24.81 25.93 24.34 22.32 20.04 17.02 14.08 14.01 16.11 17.50 18.56 20.45 21.23 20.71 20.52 21.42 21.15 22.12 23.62 24.25 25.69 26.19 25.59 25.85 26.12 25.34 24.20
26.25 30.69 27.22 25.60 24.57 25.77 29.05 32.41 30.91 31.22 33.44 32.73 33.27 28.45 24.17 19.84 19.64 22.44 22.12 21.39 20.15 19.69 21.00 21.68 21.58 20.18 19.29 18.65 18.69 19.59 22.16 19.49 17.35 14.44 11.61 11.44 12.81 16.16 17.48 17.18 16.29 17.49 18.58 18.84 19.18 20.30 22.90 22.64 24.43 25.53 22.41 19.91 18.80 19.60
28.73 28.84 27.20 27.49 26.96 29.06 29.28 29.22 29.75 29.74 30.95 31.33 31.35 29.60 21.18 17.71 18.00 18.67 18.92 20.77 20.42 19.31 18.59 17.65 18.28 19.22 16.90 16.43 15.77 14.67 14.37 17.85 17.31 16.32 15.28 15.32 14.69 14.49 14.30 14.04 14.22 15.90 16.06 16.47 16.47 18.34 18.60 18.68 20.01 19.70 17.15 14.95 14.12 13.32
28.06 26.72 27.22 25.10 27.33 28.57 28.99 28.19 27.70 27.57 29.27 27.26 28.17 24.55 23.01 22.06 16.47 15.81 16.90 18.44 17.65 15.41 14.35 15.19 13.99 14.10 16.29 16.92 18.75 18.13 16.17 16.34 16.57 15.87 14.52 14.02 12.96 12.64 12.46 11.90 12.85 12.84 11.43 11.79 14.66 16.70 15.88 15.34 15.24 13.30 13.18 10.62 9.24 8.02
26.18 26.13 25.40 25.09 25.20 24.63 27.27 26.63 25.73 24.79 26.11 25.07 24.31 22.49 18.67 18.25 13.06 15.15 18.37 18.62 16.35 14.46 13.65 14.11 14.85 16.10 16.85 16.74 14.86 17.35 15.36 15.61 14.75 15.58 14.69 13.33 11.35 10.66 10.08 10.80 11.22 8.92 7.86 8.07 13.61 14.31 11.87 10.66 9.31 8.80 7.03 5.71 3.89 2.32

GFSWCAN_sfc_wetblb_009.txt.gz
Wetbulb
50.45 50.09 49.75 49.66 49.80 49.95 50.37 50.61 50.77 51.14 51.61 50.96 50.37 50.29 50.43 50.53 50.37 54.62 54.55 55.55 55.14 46.64 48.39 52.05 52.70 48.95 48.65 47.09 39.14 44.91 41.64 41.44 35.98 33.20 30.95 31.64 30.19 31.67 32.31 37.04 32.53 29.11 26.10 28.37 29.13 22.67 22.08 43.22 42.09 33.85 38.14 43.19 43.28 41.59
49.84 49.38 49.18 49.29 49.61 49.95 49.99 49.93 50.02 50.50 50.84 50.98 50.09 50.13 50.49 50.53 50.50 51.59 54.39 55.85 56.91 52.64 50.23 53.71 52.77 52.71 51.70 51.27 48.62 46.65 42.55 46.13 44.02 37.70 34.20 35.60 31.29 34.70 31.09 27.54 40.44 31.61 34.89 31.22 32.31 30.84 39.71 43.55 42.14 44.25 44.52 43.36 41.69 42.92
48.55 48.92 48.80 49.28 49.68 50.02 49.48 49.39 49.56 49.75 50.38 50.65 50.31 50.14 50.49 50.81 50.84 51.74 55.06 55.10 56.37 48.41 48.77 49.48 49.16 53.42 55.69 54.21 55.24 45.67 45.67 50.08 48.03 48.11 40.16 39.56 31.97 36.04 29.09 32.32 32.36 39.44 43.40 33.69 36.09 41.04 42.29 42.74 45.33 45.96 45.13 43.64 43.78 43.78
47.01 47.23 47.92 48.40 49.30 50.55 49.13 48.53 48.82 49.32 49.76 50.25 50.17 49.97 49.60 50.84 50.83 51.57 54.94 55.36 53.19 47.05 36.05 45.88 53.27 51.46 54.60 55.10 54.91 54.56 52.04 52.31 50.51 44.50 37.70 36.23 32.09 42.04 32.95 35.85 33.34 38.54 41.55 38.81 35.74 41.17 42.53 43.92 44.40 44.40 44.32 45.19 44.84 45.98
46.49 46.58 46.78 47.21 47.81 48.56 48.78 48.85 48.26 48.55 49.02 48.10 48.30 48.78 49.04 50.27 50.52 52.51 56.17 55.43 55.43 50.69 38.19 40.44 51.02 52.77 54.35 54.04 53.27 53.65 51.62 49.91 45.16 38.52 35.14 34.11 34.48 36.98 33.01 34.34 32.65 42.85 39.27 34.19 32.41 42.01 41.55 41.81 43.75 45.87 44.74 44.75 45.58 43.82
46.31 46.33 46.37 46.55 46.84 47.55 48.04 48.22 48.33 47.72 47.09 47.59 48.64 49.10 49.33 48.84 49.51 54.45 50.32 54.62 52.94 55.41 43.68 36.53 48.74 48.48 50.61 51.65 51.34 50.94 51.09 49.74 47.86 39.65 34.76 41.53 47.16 39.15 33.78 31.93 41.29 45.16 46.01 45.46 41.14 45.31 44.68 44.34 44.49 45.00 43.63 42.15 41.04 40.04
45.73 45.89 46.05 46.14 46.42 46.93 47.34 47.72 47.99 47.66 46.47 47.47 48.74 49.32 49.53 49.53 52.47 49.48 48.02 50.34 49.54 53.04 40.91 37.05 37.91 46.08 47.71 49.80 48.50 48.83 50.19 48.05 46.59 40.56 36.01 35.86 39.56 43.04 32.71 33.94 41.79 44.87 45.26 45.21 45.96 44.68 41.73 43.03 42.32 44.37 42.33 41.11 41.71 40.02
45.49 45.40 45.59 45.76 46.07 46.17 46.66 47.18 47.83 48.28 47.79 47.48 48.11 49.38 49.75 49.35 48.96 50.19 52.02 50.10 49.92 50.27 44.86 37.34 37.83 37.14 47.06 38.17 38.55 44.82 40.20 43.13 44.21 42.20 41.00 37.32 39.03 34.65 32.22 40.78 43.73 45.60 45.71 44.24 44.24 44.64 44.20 44.88 44.23 43.00 41.71 38.35 35.89 34.58
45.21 45.21 45.42 45.71 45.81 46.10 46.12 46.57 47.54 48.19 48.48 48.50 49.18 49.32 52.18 49.73 45.60 48.61 48.33 49.00 54.38 49.13 38.01 34.04 35.08 33.33 44.57 39.59 39.24 38.41 42.40 35.49 42.64 35.50 37.45 39.77 35.30 35.38 39.61 41.71 43.20 43.73 42.87 42.32 43.82 44.58 44.54 42.76 40.24 38.00 36.41 35.23 33.87 32.96
45.31 45.11 45.28 45.58 45.85 46.25 46.34 46.16 47.18 48.12 48.13 48.50 49.69 46.76 39.11 43.08 47.54 48.37 49.38 43.86 40.69 40.38 40.54 35.67 39.37 36.72 42.12 35.85 34.76 35.65 34.40 33.84 33.66 35.39 39.10 33.30 36.01 40.38 43.20 43.54 43.42 43.28 44.23 44.60 41.42 39.54 39.24 37.79 35.16 34.82 34.57 34.65 34.06 32.73
45.78 45.45 45.50 45.87 45.96 46.12 46.73 47.18 47.54 47.70 48.14 45.46 39.82 36.94 43.27 47.11 47.75 42.06 38.04 36.16 37.94 35.35 39.26 38.96 39.14 37.20 40.60 35.00 34.20 35.11 33.11 33.30 31.49 31.09 34.11 31.20 32.14 36.55 41.25 42.23 42.85 44.31 44.46 43.08 40.92 39.71 38.40 36.57 34.89 34.08 33.61 32.31 31.66 30.85
45.98 45.89 45.82 46.26 45.80 46.03 46.64 46.80 47.05 45.79 43.59 43.67 43.22 44.50 42.90 39.52 36.19 35.85 34.40 34.20 34.58 34.85 35.24 35.11 36.74 39.08 36.72 41.61 34.49 33.66 33.25 32.56 29.65 35.22 32.19 28.99 32.39 39.73 40.64 40.50 41.84 40.82 39.90 38.46 38.34 36.71 36.44 36.31 35.33 32.73 31.66 31.25 31.44 30.93
44.88 45.68 45.84 46.37 46.21 45.89 45.75 45.75 45.53 45.15 45.03 42.38 38.19 34.53 36.86 32.16 31.24 31.44 30.11 31.61 32.22 32.56 33.81 33.45 32.93 33.82 35.16 36.58 32.75 32.53 31.62 30.57 33.40 31.45 29.30 29.23 38.54 40.22 40.66 35.62 35.08 36.09 34.85 35.04 35.62 35.78 35.01 34.28 33.66 30.62 29.35 30.71 26.78 30.16
44.21 45.54 45.59 45.78 46.08 45.51 45.00 44.60 45.11 45.41 41.16 34.77 33.46 30.64 31.42 30.69 30.69 30.32 31.05 31.61 32.21 32.39 32.57 32.93 32.18 32.74 32.21 32.39 31.98 30.29 31.06 31.24 28.11 25.20 22.67 33.19 36.88 38.00 38.32 35.22 33.78 32.25 30.79 30.94 31.89 32.41 30.69 30.40 29.98 28.44 28.50 28.11 23.86 28.02
44.00 45.08 45.58 44.53 44.78 44.38 44.67 44.69 44.77 44.29 39.26 33.43 33.39 29.72 30.13 31.44 31.83 32.00 32.19 32.19 32.69 34.49 33.30 32.54 32.37 33.43 31.45 30.13 31.09 29.56 26.97 26.20 27.91 28.11 30.74 32.98 34.77 35.26 33.57 33.62 31.42 29.97 29.25 30.45 31.70 30.51 27.71 27.05 28.25 29.96 30.06 29.96 30.40 26.81
43.75 44.27 44.49 44.60 44.10 44.37 44.39 45.09 43.20 40.68 33.38 32.74 32.53 30.05 32.18 32.19 31.85 32.06 32.06 31.88 35.01 32.93 33.66 33.28 31.27 31.26 29.21 29.78 28.10 28.08 27.12 25.86 29.24 31.29 31.86 32.85 32.65 32.37 32.68 32.69 32.33 32.58 31.60 31.69 31.84 31.35 30.27 27.07 25.31 30.19 30.32 29.41 26.74 28.86
43.41 42.55 44.58 43.45 43.33 43.53 43.85 41.24 38.41 33.36 32.88 32.00 30.70 33.43 32.51 32.28 32.11 32.42 32.77 33.30 36.91 33.30 31.62 31.83 29.14 26.57 29.45 27.37 27.14 30.17 28.11 31.05 32.48 31.64 31.80 32.51 32.28 32.41 32.64 32.90 31.11 31.72 31.98 31.90 31.90 31.43 30.93 30.76 26.99 27.57 28.70 31.66 30.81 30.98
41.49 43.77 44.36 44.44 44.62 43.68 39.18 39.49 35.12 32.54 28.80 29.95 31.34 31.83 32.66 32.93 32.39 32.72 33.31 34.22 34.02 31.34 30.66 29.12 30.82 27.36 26.97 25.27 26.45 30.11 30.59 31.33 31.60 30.68 30.98 32.13 32.53 32.54 33.51 31.75 33.63 31.64 31.21 30.82 29.98 30.63 30.60 26.79 29.26 30.23 31.13 32.01 31.04 30.00
42.97 44.24 44.03 43.50 42.26 39.25 34.10 34.63 36.47 30.02 30.35 31.94 31.75 32.00 31.96 31.96 32.69 32.92 32.75 33.48 33.99 33.78 32.14 29.27 26.89 25.66 26.42 28.09 29.70 30.22 29.83 29.63 29.43 30.48 31.46 32.33 32.41 31.95 32.04 31.77 31.34 30.75 30.95 30.85 31.05 29.94 30.28 31.56 30.81 30.79 30.74 30.30 29.77 29.82
42.87 42.78 42.78 42.58 42.14 34.92 32.56 32.88 36.54 30.74 30.32 31.53 31.83 31.07 30.93 30.44 31.48 32.03 32.57 32.93 32.81 32.48 30.35 25.35 26.07 28.62 29.02 30.12 30.83 31.19 31.27 31.03 30.27 28.58 29.29 30.52 31.18 31.99 31.10 30.49 30.03 31.44 30.89 31.43 30.75 27.64 29.26 29.57 29.76 30.14 29.45 27.21 24.17 28.14
41.95 40.37 40.75 40.40 36.26 37.57 33.38 32.44 32.07 32.91 29.61 29.41 31.49 31.19 28.38 30.26 30.30 31.04 31.83 32.53 32.37 31.44 29.67 27.32 27.89 29.74 32.27 31.05 31.09 30.97 31.59 31.83 30.14 28.84 28.11 28.01 29.69 29.28 29.45 30.28 30.79 29.31 28.27 27.14 25.98 28.48 26.01 28.81 31.68 30.35 30.00 28.79 32.29 32.38
38.72 40.07 34.86 35.88 32.50 32.33 31.44 33.33 31.45 29.74 30.54 29.58 30.31 30.18 26.37 27.21 28.16 29.18 30.68 29.76 29.56 27.53 30.29 28.45 30.31 29.90 30.53 31.72 32.01 32.46 32.44 31.55 31.33 29.52 28.34 27.51 27.25 27.59 27.83 28.29 27.02 25.30 25.47 26.04 27.85 28.74 28.96 29.92 27.98 26.69 31.26 32.30 32.50 31.26
38.09 36.31 33.10 32.37 30.66 30.27 27.68 32.45 30.63 30.50 24.70 26.93 29.78 27.07 26.53 26.67 28.14 29.51 26.84 28.30 27.08 30.91 30.99 31.98 32.87 32.78 31.78 32.19 31.29 31.25 31.42 31.00 27.77 27.58 29.07 28.51 27.88 27.32 27.55 28.44 26.22 24.28 27.29 28.70 28.52 28.71 28.94 28.39 30.91 28.75 27.35 31.24 30.89 31.03
37.33 32.54 29.90 30.08 30.29 26.44 30.88 27.19 29.89 28.77 28.30 26.66 25.82 24.44 26.37 26.56 24.74 24.49 22.74 21.56 26.87 29.90 30.15 30.40 29.88 28.47 28.88 29.76 28.91 28.73 29.13 30.02 28.93 28.80 29.44 28.40 27.43 27.93 28.78 28.55 28.41 28.00 28.12 28.85 28.37 28.89 30.02 31.42 27.02 27.43 30.18 30.01 30.00 29.70
29.08 23.35 25.06 25.60 29.92 25.15 18.59 24.94 26.18 23.67 23.09 24.10 23.69 23.47 20.48 20.86 18.42 15.07 16.52 23.15 27.21 27.14 28.65 28.26 29.45 29.29 27.94 27.45 27.27 26.70 26.78 25.66 23.93 23.22 25.10 24.99 23.27 22.50 23.36 24.33 24.56 24.29 25.17 24.22 24.49 25.30 24.75 26.85 27.46 27.70 28.24 27.50 27.37 23.10
25.08 23.93 20.76 26.42 26.72 23.90 22.29 22.97 23.85 22.79 21.19 23.97 22.91 24.16 20.98 17.84 13.30 12.89 24.12 26.57 25.87 25.92 26.15 25.57 23.17 23.91 25.13 25.41 23.92 23.60 23.97 24.04 22.51 20.19 21.84 22.68 23.56 23.03 20.24 19.08 18.27 18.13 20.48 22.28 21.83 21.01 20.19 20.56 22.11 23.25 25.60 27.71 26.39 25.75
23.52 24.43 28.03 29.76 29.57 28.44 26.79 26.97 26.39 24.03 22.03 20.67 23.29 21.23 14.63 10.03 10.96 22.04 25.03 24.65 25.19 26.03 27.62 26.83 25.54 24.27 23.83 23.83 24.33 25.17 22.57 20.29 18.96 20.63 22.31 23.85 21.93 20.17 18.20 15.49 15.04 17.29 18.97 19.78 18.34 17.96 18.42 19.57 20.25 20.33 22.46 23.42 24.99 25.78
27.69 28.01 23.53 26.91 27.52 27.79 23.67 22.76 21.91 20.68 21.69 25.26 22.56 15.17 13.20 12.79 17.77 22.56 22.79 24.17 24.40 26.39 26.49 24.04 23.75 21.97 23.59 22.02 23.89 18.07 13.36 13.80 14.70 15.31 16.51 22.63 19.26 15.04 14.13 14.66 15.76 16.77 14.57 16.56 15.22 16.50 17.40 17.91 18.94 20.18 21.69 22.29 23.12 20.41
26.53 28.70 25.98 20.41 22.27 23.10 21.00 19.97 20.35 24.66 27.69 23.87 17.40 16.19 19.18 19.66 19.06 21.25 21.56 22.22 23.52 22.57 19.58 17.86 15.57 18.18 17.73 15.87 18.79 17.03 9.14 7.43 7.06 3.23 0.61 0.76 6.53 7.84 12.37 12.97 12.12 10.93 11.87 13.64 14.45 16.26 16.39 17.91 18.88 18.59 21.04 19.32 17.47 14.26
25.48 27.97 21.10 17.74 15.75 19.65 25.66 27.98 28.50 29.18 25.90 26.91 25.05 21.59 19.19 17.18 17.62 18.07 18.06 16.72 14.34 14.08 16.74 17.79 12.20 7.49 5.85 4.38 5.04 7.45 14.60 9.37 3.14 3.00 0.33 0.33 7.35 9.82 10.04 9.40 9.43 8.79 9.95 10.92 9.78 10.99 14.15 16.83 17.64 19.74 14.60 14.44 14.35 10.38
27.27 27.45 25.67 24.11 25.32 26.84 27.52 27.34 28.08 27.85 28.45 28.73 27.11 19.48 13.77 12.76 12.67 14.29 13.32 16.13 13.74 9.94 8.77 5.89 6.14 6.62 2.25 3.36 6.75 2.13 1.66 2.47 4.91 9.86 5.76 2.77 4.76 1.32 3.63 7.23 6.88 7.69 8.76 6.46 6.47 7.83 10.08 13.27 14.87 13.45 9.01 9.27 8.59 6.63
26.74 24.46 24.94 21.43 24.58 26.86 27.59 25.69 25.67 25.61 26.36 25.18 23.37 21.10 17.49 13.02 6.29 8.04 6.98 10.59 6.28 3.81 4.08 2.59 1.93 4.95 3.43 5.61 7.90 5.08 13.19 8.29 6.22 2.46 3.27 5.77 3.84 2.08 2.10 4.37 6.02 7.01 2.82 3.42 5.25 5.48 10.89 10.03 9.32 7.72 6.83 4.50 3.45 2.57
22.54 19.15 19.39 15.62 14.67 14.13 21.79 15.17 14.69 13.34 14.18 13.20 16.96 13.86 9.24 8.07 2.99 6.92 11.39 10.09 5.10 1.79 1.71 1.52 1.14 1.67 8.43 3.46 0.18 6.73 1.84 -0.36 2.11 11.43 10.73 10.44 6.23 3.51 0.41 2.77 6.13 5.12 0.24 2.93 3.38 8.23 7.64 6.81 3.98 2.92 1.51 0.28 -1.30 -2.18

GFSWCAN_sfc_wetblb_012.txt.gz
Wetbulb
50.20 49.75 49.48 49.22 49.33 49.60 49.99 50.18 50.10 50.37 49.67 49.44 49.60 49.75 49.74 49.86 50.46 53.48 51.77 53.73 51.51 44.14 46.49 50.81 50.69 46.59 46.57 43.82 38.48 43.14 40.50 39.17 35.27 29.63 26.76 31.28 30.12 31.04 30.76 34.73 31.59 28.78 25.86 24.06 22.99 17.01 21.66 40.06 40.74 33.62 36.31 40.65 42.18 40.91
49.77 49.22 48.84 48.97 48.96 49.42 49.83 49.76 49.80 50.25 49.97 49.27 49.37 49.64 49.86 50.03 50.28 53.12 50.85 54.63 54.83 48.89 47.82 51.67 51.42 50.78 50.51 49.05 46.46 43.93 41.24 41.96 40.05 34.97 34.18 35.43 31.37 33.80 28.99 27.74 37.83 30.97 32.28 29.81 31.97 31.00 37.94 40.91 40.51 41.49 43.29 42.02 40.95 40.25
48.88 48.76 48.79 48.76 48.78 49.06 49.86 49.10 49.28 49.63 50.03 49.38 49.35 49.12 49.61 50.11 50.67 53.49 52.44 52.83 51.98 43.55 45.23 47.48 47.84 52.25 54.04 52.73 52.21 44.01 42.44 48.21 45.48 42.77 37.09 33.29 27.22 32.53 29.69 31.62 32.77 38.04 41.01 33.03 34.58 39.14 39.96 41.61 42.77 44.06 43.81 42.35 42.64 42.64
48.61 48.44 48.57 48.55 48.64 48.93 48.69 48.46 48.55 49.15 49.28 48.34 47.78 47.78 48.09 49.08 50.28 52.92 52.39 52.90 48.50 42.80 34.83 43.35 51.97 50.13 53.65 54.13 53.72 51.54 50.45 49.45 46.08 41.24 36.17 35.53 29.32 38.34 29.80 33.18 31.99 36.25 39.65 37.67 34.18 38.79 40.86 42.55 42.72 43.00 42.40 42.63 42.93 43.95
47.13 47.40 47.64 48.09 48.61 48.74 48.77 48.23 48.02 47.67 47.37 48.09 48.25 48.63 49.21 48.83 49.59 53.29 53.15 51.78 52.68 46.68 37.62 39.11 48.86 51.44 52.31 52.80 52.29 51.57 50.36 47.58 41.95 36.52 33.16 33.13 31.52 34.89 31.95 31.44 31.85 40.18 37.83 33.42 33.67 39.67 39.36 40.65 42.73 43.77 42.80 43.29 45.61 43.32
46.45 46.66 46.74 47.15 47.62 48.08 48.48 48.26 47.33 46.17 47.18 47.94 48.45 49.51 50.09 49.58 50.13 53.37 48.06 52.41 50.78 51.89 41.42 34.71 45.30 46.34 48.92 51.06 50.51 49.70 49.19 47.43 43.90 38.63 35.10 37.87 43.96 35.98 33.70 34.89 39.41 43.40 44.38 43.35 40.21 44.01 43.98 43.69 43.49 44.62 43.37 42.61 40.95 38.40
46.01 46.14 46.32 46.72 46.92 47.38 47.98 47.90 47.65 46.50 46.86 47.94 48.98 49.06 49.68 48.49 50.07 48.74 44.90 49.53 48.95 49.69 39.60 36.56 36.11 43.63 46.52 47.93 45.07 45.88 46.93 45.87 44.80 38.53 35.25 35.72 36.78 40.28 33.46 32.04 39.89 43.17 44.60 44.34 45.09 43.95 40.94 41.81 40.70 43.42 40.83 40.86 38.12 35.74
45.59 45.80 45.87 45.86 46.34 46.77 47.22 47.54 47.92 47.46 46.55 47.96 49.26 49.48 49.82 48.68 49.98 49.13 49.89 48.75 49.48 46.84 41.23 34.84 33.22 35.83 44.98 36.69 37.51 42.18 38.96 42.34 41.88 40.14 38.40 36.76 37.12 34.20 34.23 39.91 42.74 44.44 44.96 43.61 44.31 43.26 43.12 43.15 42.67 40.41 39.99 36.65 34.71 33.14
45.29 45.34 45.46 45.73 45.69 45.44 46.39 47.46 47.96 48.25 47.78 48.56 49.03 49.78 48.83 47.58 45.21 49.10 47.51 47.20 51.53 46.26 37.80 32.96 34.10 32.57 42.04 39.04 37.11 35.49 39.47 33.87 39.66 35.89 35.86 38.09 34.59 35.31 39.02 40.33 41.94 43.12 42.53 42.36 42.98 42.63 43.11 41.84 39.67 36.63 35.84 35.10 32.89 31.89
45.09 45.30 45.35 45.42 45.84 46.02 45.73 47.01 47.74 48.14 48.00 48.57 47.76 43.45 39.48 43.27 47.18 47.91 45.86 40.76 40.87 41.82 38.53 34.21 37.89 35.81 41.15 34.42 34.06 34.03 33.83 33.32 33.68 35.75 38.88 33.50 34.96 39.21 40.43 43.08 43.00 42.38 42.99 43.08 39.40 37.46 35.71 35.26 34.35 34.77 34.47 34.49 33.19 32.27
45.49 45.66 45.53 46.11 46.37 46.39 46.59 47.06 47.64 48.23 47.96 45.87 40.93 37.51 43.39 46.84 45.26 40.55 36.59 34.92 36.90 34.97 38.21 37.08 37.21 36.35 37.78 34.83 34.05 33.82 33.14 32.78 32.10 31.03 34.38 30.45 31.81 34.98 39.47 40.23 41.33 41.36 40.86 40.28 40.50 38.49 37.21 36.16 34.95 34.42 32.81 31.90 31.53 31.09
45.86 46.00 45.65 45.49 45.77 45.56 45.99 46.84 46.56 44.72 43.60 43.96 43.55 44.42 42.62 39.47 36.64 35.66 34.21 34.05 34.05 33.80 34.47 34.77 35.30 38.91 35.86 38.29 35.09 33.83 33.08 32.58 29.47 34.52 32.22 29.34 33.03 37.10 37.93 36.87 36.68 37.97 37.95 37.02 37.48 36.41 36.31 35.87 34.95 32.11 30.83 30.37 30.67 30.24
45.27 45.68 46.23 45.54 45.14 45.15 45.50 45.52 45.52 45.32 44.70 42.63 38.53 35.11 37.68 32.66 32.39 33.35 32.52 32.02 32.20 32.33 33.64 33.32 33.68 33.67 35.34 36.61 32.78 32.75 31.50 30.61 32.61 31.12 29.72 30.93 37.58 34.77 35.27 35.69 35.03 36.12 35.50 35.31 35.71 35.95 34.88 33.55 32.32 30.36 29.29 30.05 26.09 29.11
45.04 44.83 45.34 45.36 44.98 44.53 44.62 44.92 45.41 44.22 41.11 35.11 33.64 30.49 31.65 29.76 29.96 29.96 30.60 31.62 32.02 32.22 32.42 32.60 32.01 32.57 32.22 32.40 32.02 30.55 31.09 31.10 28.14 25.73 23.86 32.39 35.71 35.03 35.74 35.58 34.07 32.54 31.52 31.35 31.51 31.34 30.53 29.53 29.17 27.54 25.30 25.09 23.95 26.17
43.57 44.72 44.84 44.19 44.54 44.71 44.87 44.79 44.58 41.86 35.22 33.19 31.48 28.82 28.16 30.62 31.83 32.15 32.22 32.20 32.57 33.80 32.78 32.39 32.02 33.29 31.28 30.14 30.73 29.03 26.76 25.47 27.36 26.66 30.00 31.86 35.01 34.39 32.58 32.20 31.14 29.88 29.33 30.29 30.65 29.74 27.32 26.38 26.98 28.33 28.20 27.36 28.88 24.05
43.70 44.50 43.06 43.65 43.72 44.26 44.22 42.99 41.10 38.19 31.97 33.11 32.06 30.08 31.83 31.41 31.48 32.07 32.07 31.90 34.14 32.58 32.96 32.57 31.10 30.35 28.11 29.04 26.80 26.95 26.00 24.57 28.15 30.39 32.07 32.90 32.93 32.27 32.91 32.19 31.69 32.25 31.69 31.29 31.08 31.03 29.74 25.33 23.30 29.07 29.07 27.06 24.83 23.61
43.52 39.88 43.99 43.83 44.35 44.06 43.14 38.78 34.57 32.68 31.78 30.42 30.26 32.55 31.59 32.04 31.63 32.26 32.63 32.96 35.87 32.94 30.53 31.09 25.62 24.91 28.84 26.62 26.41 29.78 26.44 29.26 31.48 32.40 31.94 32.06 31.77 32.10 32.02 32.44 30.95 31.63 31.67 31.40 31.39 30.96 30.26 29.91 26.21 26.43 26.99 30.54 30.05 30.18
40.22 43.10 44.18 43.74 43.79 42.17 37.20 38.07 33.17 29.85 28.74 30.87 30.00 31.24 31.54 32.23 32.23 32.42 32.79 32.96 32.49 29.05 30.11 28.41 29.06 26.62 25.87 24.36 25.88 29.78 31.06 32.09 31.97 31.20 30.96 31.80 31.99 31.75 32.45 31.03 32.17 30.78 30.31 30.02 28.92 29.75 29.67 25.77 28.41 29.34 30.22 30.86 29.55 29.12
42.16 42.98 43.18 43.44 42.17 34.87 32.57 33.74 33.96 25.46 27.12 30.75 30.73 31.30 31.24 31.47 31.57 32.37 32.42 32.93 32.81 32.04 29.00 24.27 20.55 20.93 23.17 25.97 25.21 29.15 27.08 27.95 28.84 29.71 30.53 31.33 31.49 31.34 31.64 31.25 30.81 30.50 30.37 30.36 30.61 29.27 29.51 30.67 29.79 29.80 29.91 28.44 27.60 26.73
42.13 41.90 42.31 42.37 41.11 29.77 29.98 29.47 34.78 29.25 28.37 28.97 31.31 30.31 29.89 29.87 30.64 31.83 32.23 32.42 32.09 31.24 29.70 21.12 22.00 23.91 25.22 27.21 27.72 26.70 27.05 27.47 27.54 25.95 27.76 29.43 30.18 31.11 30.63 30.02 28.92 30.14 29.78 30.59 29.78 25.54 28.42 28.95 29.66 29.70 28.42 26.41 27.04 30.10
39.73 40.01 39.95 37.09 35.50 34.66 32.22 30.16 31.34 31.68 31.35 30.01 30.62 30.06 27.84 29.82 29.48 30.41 31.65 31.06 31.47 29.82 24.24 25.64 24.48 27.68 29.36 28.29 27.22 27.21 29.14 29.63 27.98 25.93 25.50 25.39 27.07 26.75 27.50 28.50 29.10 27.35 25.80 25.50 22.71 26.15 23.44 25.34 29.10 29.44 24.40 30.23 29.71 27.38
38.29 39.79 34.35 35.71 32.13 31.86 31.27 31.99 30.99 30.74 30.02 29.31 29.63 28.97 26.61 26.21 27.30 28.40 29.87 27.19 25.13 25.13 28.05 25.97 29.04 28.00 29.19 30.77 30.59 30.67 30.56 29.92 29.80 27.80 26.63 25.99 27.02 26.86 26.93 27.09 26.93 23.48 24.31 23.28 25.84 25.50 26.22 27.64 28.22 28.94 30.75 30.93 29.32 30.35
37.65 35.35 32.90 32.31 27.15 27.50 21.29 32.69 29.43 29.56 25.49 26.62 28.79 26.38 25.41 25.26 27.66 29.22 26.35 28.46 28.53 28.40 28.73 29.53 31.00 31.79 30.33 29.57 29.37 28.69 28.75 28.85 27.15 26.51 26.81 25.45 25.70 24.56 23.55 23.96 22.40 20.14 22.83 24.98 26.00 24.76 24.06 23.11 26.86 27.54 28.62 29.29 30.38 29.95
36.84 32.12 28.36 26.76 27.98 20.03 27.12 26.62 29.05 27.76 26.83 25.40 25.05 23.35 24.81 25.62 25.81 24.74 15.89 21.98 29.26 27.58 27.07 27.41 27.64 28.98 27.94 26.94 24.89 24.31 24.56 25.13 24.26 23.91 24.06 22.32 21.35 21.75 22.84 22.75 22.61 21.17 20.90 21.77 21.09 20.05 20.65 20.78 20.31 21.38 23.14 24.02 25.07 26.28
28.22 21.57 23.64 12.49 20.11 16.15 14.58 19.09 24.58 24.17 19.49 19.79 19.29 20.86 17.38 20.23 14.65 10.15 12.32 23.06 26.01 25.79 22.86 24.00 25.81 26.98 26.53 24.98 24.35 23.64 23.47 22.34 20.48 20.13 21.00 21.48 16.95 16.94 19.25 19.97 19.62 17.97 17.28 15.57 16.18 15.30 15.39 15.84 16.95 17.71 19.35 20.22 21.22 23.29
22.06 20.10 22.79 15.80 18.54 18.90 20.73 21.31 18.33 19.33 18.91 23.24 22.67 21.50 19.94 17.97 16.78 10.47 21.40 24.37 24.26 24.20 23.42 23.92 18.75 20.94 22.70 23.11 21.82 21.28 19.64 20.62 19.61 17.29 20.09 20.34 17.59 13.82 11.99 11.07 11.48 12.01 14.26 13.34 14.50 11.89 11.58 12.99 13.77 14.82 14.71 16.34 19.24 21.65
19.29 15.72 24.39 28.93 27.84 26.86 25.86 26.40 26.76 24.55 21.95 21.19 18.42 21.45 19.69 14.06 8.85 20.58 23.26 23.11 23.93 25.21 24.82 24.51 24.40 23.24 22.08 21.67 21.44 18.07 16.41 15.95 14.62 15.51 18.35 17.15 15.04 14.08 11.67 9.05 8.87 11.04 11.92 10.22 11.41 10.74 10.04 10.77 11.58 12.23 13.83 16.04 17.53 19.50
22.63 23.77 20.30 24.65 26.61 27.34 23.79 23.44 22.88 22.68 23.61 25.55 22.33 16.38 16.17 10.48 14.77 19.22 21.17 23.64 24.45 23.34 22.80 22.51 21.80 20.55 20.04 18.41 16.11 12.16 11.62 10.53 10.44 11.81 16.81 14.31 12.08 7.95 6.03 3.99 5.73 11.86 6.49 6.56 8.48 9.98 9.20 9.69 10.78 11.97 14.12 14.71 14.96 12.94
25.66 28.08 25.98 22.65 22.79 21.90 21.37 21.40 20.61 25.40 27.83 22.69 16.63 14.95 17.33 17.01 16.19 19.19 19.47 19.93 20.30 20.54 16.82 14.93 12.82 13.99 14.34 13.61 10.62 7.39 3.90 3.44 2.51 -2.94 -6.53 -7.62 -5.44 -0.08 4.24 -0.14 -1.55 1.34 4.55 5.26 8.10 9.30 8.64 10.49 11.90 14.64 15.83 12.28 10.83 9.54
22.90 24.14 17.25 14.61 17.93 20.46 24.49 25.94 26.34 26.94 25.23 24.50 20.69 18.87 16.50 14.49 15.36 16.42 15.21 14.90 14.64 12.34 13.95 11.19 6.50 5.35 -3.09 -1.27 -2.91 1.20 3.71 -3.99 -2.45 -2.78 -7.07 -6.35 -0.59 5.09 -1.31 0.60 3.74 3.40 3.48 5.15 3.42 3.51 6.42 5.76 9.49 13.63 11.37 10.94 8.29 5.99
25.88 26.01 24.02 22.58 22.58 24.93 24.75 26.58 27.37 27.52 27.98 27.16 19.76 15.15 8.92 10.48 11.37 12.03 11.98 9.82 7.11 4.97 5.63 0.34 0.90 -6.17 -2.18 0.52 -1.27 -4.54 -2.38 2.55 1.52 0.65 -2.36 -1.45 -1.31 -4.90 -5.81 -2.11 -1.45 -1.56 2.43 2.96 0.69 1.09 2.83 3.75 7.02 6.52 4.52 4.15 3.46 2.42
24.30 22.39 19.90 17.14 16.09 19.13 26.43 25.12 24.66 24.54 25.51 24.10 19.20 13.82 9.84 3.86 -1.45 3.36 5.77 4.63 2.12 -1.82 -5.08 -8.16 -5.62 -0.55 -0.93 0.11 0.49 -2.01 -1.49 -4.00 -4.35 -3.63 2.30 0.68 -2.90 -5.81 -4.54 -2.46 -2.80 -2.02 0.96 -5.12 -4.80 0.26 3.50 1.68 1.28 0.15 -0.17 -0.42 -0.76 -1.63
9.03 5.88 9.00 2.05 9.77 12.38 13.00 8.13 5.36 6.04 12.81 16.64 14.19 10.25 4.33 3.52 0.74 4.83 5.65 -1.14 -0.42 -3.47 -5.26 -5.62 -7.62 -8.52 -3.27 -4.18 -5.01 -6.40 -4.91 -7.62 -7.07 2.35 2.90 5.22 -0.78 -2.18 -4.01 -5.99 -7.07 -10.34 -11.79 -10.34 -8.34 -3.14 -4.00 -4.02 -3.69 -3.21 -3.39 -3.76 -3.93 -4.45

GFSWCAN_sfc_wetblb_015.txt.gz
Wetbulb
49.77 49.51 49.28 49.09 49.05 49.42 49.65 49.69 49.51 49.34 50.26 49.40 49.40 49.61 49.72 49.92 51.29 52.01 51.20 51.99 49.38 42.52 45.82 49.05 48.80 45.30 44.70 42.94 37.72 41.94 39.84 38.34 32.18 29.20 25.98 26.68 26.44 30.21 29.83 32.96 31.59 29.62 27.23 23.02 24.24 17.91 22.17 38.31 38.47 33.71 36.70 37.58 41.65 40.61
49.09 48.99 48.80 48.69 48.97 49.21 49.33 49.40 49.43 49.02 48.89 50.38 49.08 49.59 49.85 49.99 50.59 52.19 50.94 53.14 52.23 47.38 46.95 49.89 50.19 50.22 49.16 47.68 44.73 41.91 41.57 40.01 39.26 32.47 29.09 32.10 29.96 32.83 28.50 26.92 35.53 29.15 31.38 29.33 30.45 30.28 36.92 39.03 38.80 40.22 41.18 41.02 40.96 40.82
48.49 48.44 48.53 48.71 48.55 48.71 48.90 49.18 49.18 49.17 48.45 46.70 46.61 47.26 48.07 49.54 51.41 52.58 51.65 51.22 48.12 42.60 45.18 46.70 46.86 51.26 52.79 51.37 50.55 42.56 40.63 45.45 42.61 40.67 37.08 31.26 26.20 30.66 28.75 29.92 30.85 36.17 38.48 31.33 33.23 36.98 37.78 39.12 40.54 41.70 42.34 41.93 41.48 41.75
48.38 48.31 48.40 48.42 48.40 48.40 48.39 48.63 48.49 47.82 46.92 47.31 47.96 47.87 48.24 49.21 51.42 52.47 51.49 50.52 45.93 40.85 35.02 42.63 50.64 49.09 52.70 53.16 52.35 49.77 48.14 46.17 43.23 39.74 33.99 32.38 27.63 36.24 29.57 32.70 31.83 35.78 37.89 35.58 33.35 37.26 39.29 41.78 42.05 42.92 42.68 42.42 42.24 42.57
47.89 47.96 47.87 47.91 48.07 48.00 47.96 47.73 46.50 47.12 47.95 48.38 48.85 49.35 49.68 50.12 51.58 52.46 50.72 49.84 50.54 45.22 36.67 37.80 47.34 49.98 50.65 51.95 50.95 50.13 48.39 45.52 40.75 35.73 33.00 32.42 30.51 33.51 32.73 30.97 31.75 38.43 37.23 31.94 32.70 38.39 39.49 39.38 42.42 42.72 41.55 41.72 42.57 42.13
47.77 47.86 47.87 48.05 48.07 48.05 47.40 45.98 46.57 47.10 47.64 48.32 48.99 48.78 48.85 49.50 52.00 49.54 44.28 50.67 50.38 48.73 40.53 34.93 43.70 45.19 47.41 49.41 49.33 48.77 48.02 44.97 42.11 38.30 34.07 35.99 39.93 35.00 33.39 34.29 38.88 41.49 42.69 41.09 39.53 40.94 40.76 41.63 42.48 43.02 42.50 42.80 42.87 36.79
46.70 46.94 47.17 47.37 47.75 48.01 48.01 46.95 46.18 47.24 47.73 48.68 48.56 49.30 48.15 49.32 49.98 46.19 41.76 47.39 47.84 47.42 38.81 36.03 34.29 42.42 44.63 45.98 43.46 44.98 45.35 44.32 43.07 38.93 34.80 36.06 36.61 38.89 33.27 32.08 39.66 41.84 43.03 43.49 43.64 42.91 39.56 40.97 41.18 43.21 41.32 38.42 37.80 35.77
45.91 46.24 46.47 46.58 47.10 47.39 47.35 47.46 46.92 46.61 47.75 48.48 49.03 48.83 48.55 49.29 49.47 48.59 48.96 47.22 47.57 44.16 39.31 33.77 32.61 35.24 43.83 37.10 37.55 42.20 38.42 41.44 41.39 39.59 37.73 36.35 35.86 34.52 33.15 38.90 40.98 43.12 43.30 42.67 43.04 43.68 42.66 42.75 41.46 38.28 36.26 35.73 33.90 33.22
45.55 45.64 45.37 45.39 46.04 46.92 47.12 47.40 47.55 46.57 47.55 48.94 49.41 48.38 47.92 46.68 45.83 48.53 47.33 47.30 48.25 44.50 35.88 32.77 31.85 31.39 41.01 38.19 36.61 36.41 39.11 33.90 39.57 35.37 35.50 36.46 34.22 33.74 38.54 40.07 40.80 41.99 41.66 42.02 42.37 41.71 41.64 40.43 38.32 35.35 35.02 35.00 33.89 32.84
45.28 45.33 45.40 45.53 45.28 45.75 46.83 47.35 47.57 46.21 47.80 48.22 46.88 41.52 39.39 43.64 47.38 47.42 45.12 39.30 39.26 41.49 37.63 32.64 37.29 35.11 41.01 34.10 33.92 34.04 33.72 32.97 32.64 34.72 38.88 33.56 34.85 37.92 38.61 39.20 40.53 41.91 42.61 42.20 38.38 37.02 34.84 33.91 34.77 35.56 35.18 35.49 34.76 32.32
45.79 45.89 45.70 45.75 46.27 46.32 46.83 47.30 47.66 48.10 47.91 43.52 42.66 37.73 44.25 46.28 43.24 39.88 36.17 34.84 36.86 35.55 37.63 36.41 36.02 36.30 39.51 35.10 34.45 33.10 32.82 32.64 32.34 30.20 34.43 32.37 30.68 33.96 36.85 34.81 35.87 36.91 38.80 38.09 38.15 36.99 36.68 35.81 34.33 33.39 32.94 32.67 31.08 30.89
46.01 45.50 45.21 45.28 45.67 46.07 46.60 46.67 46.33 45.07 43.75 43.06 41.88 43.25 39.57 37.05 35.40 35.14 33.26 33.90 34.02 33.29 34.18 34.45 35.14 38.45 35.88 36.87 35.29 33.90 32.61 32.24 30.89 33.60 32.26 29.37 30.53 31.79 33.47 34.37 35.25 36.16 36.04 35.87 36.65 36.57 37.02 36.93 36.94 34.52 31.67 30.49 30.64 30.52
45.50 45.38 45.21 44.94 45.00 45.36 45.67 45.68 45.59 45.24 44.40 42.98 39.12 35.59 38.38 33.60 33.33 33.33 32.21 31.50 32.03 32.02 33.38 33.36 33.72 33.36 35.27 36.40 32.82 32.95 31.69 30.65 32.73 30.96 29.80 31.13 33.13 35.21 34.92 35.18 35.24 37.13 36.26 35.96 36.70 37.53 35.70 32.83 31.47 29.82 29.17 29.81 28.12 29.70
44.80 44.63 44.49 44.53 44.37 44.76 44.87 45.22 45.05 43.70 41.63 35.62 33.92 31.76 32.05 29.80 29.82 30.19 31.08 31.66 31.88 32.24 32.27 32.46 32.24 32.43 32.26 32.59 32.06 30.93 31.28 30.93 28.55 24.93 23.55 31.13 33.63 34.46 35.28 34.90 34.15 33.78 31.45 31.86 31.21 30.69 30.20 29.83 29.33 28.47 27.47 26.70 25.18 27.04
44.38 44.29 43.99 43.79 44.35 44.48 44.44 43.94 43.95 41.53 36.71 32.92 32.04 26.76 25.99 30.34 31.46 31.69 32.08 32.43 32.26 33.50 32.97 32.41 32.23 33.12 31.31 30.50 30.57 28.87 25.01 24.42 25.35 22.10 29.67 31.72 32.98 32.94 32.07 32.52 31.47 30.40 29.27 30.01 30.49 29.74 27.86 27.19 27.45 28.91 28.79 28.23 28.74 24.02
44.25 43.44 42.57 44.17 44.38 44.24 43.74 41.82 38.65 35.86 30.67 33.26 31.89 29.98 31.36 31.18 31.34 32.12 32.11 32.12 33.99 32.64 32.64 32.41 31.13 29.41 27.94 28.88 26.81 26.04 22.06 18.88 23.89 28.97 32.61 33.56 32.72 32.31 33.04 32.88 31.29 31.81 31.56 31.10 30.73 30.54 29.57 25.98 25.09 29.25 28.31 26.34 22.87 22.07
43.30 40.58 43.72 43.49 43.95 42.88 42.72 37.30 32.66 31.23 27.44 31.42 30.15 32.41 32.14 31.60 31.72 32.12 32.67 32.82 35.41 32.98 30.21 30.50 22.84 23.10 28.16 25.74 25.53 29.23 25.37 28.37 31.35 32.05 32.31 33.04 32.61 32.79 32.77 32.42 30.87 31.90 31.80 31.61 30.99 30.11 29.97 29.61 25.48 25.70 26.56 30.29 29.50 28.91
40.64 41.44 43.52 43.83 42.57 39.53 36.12 35.33 29.60 29.22 29.79 30.69 29.83 30.61 31.10 31.88 32.09 32.09 32.46 32.46 28.79 30.18 29.77 28.48 28.66 24.79 22.83 22.40 25.21 29.67 31.32 32.10 32.32 32.41 32.04 32.35 32.09 31.43 31.66 30.59 31.13 30.25 29.90 29.84 28.58 29.57 29.51 25.60 28.39 28.81 29.99 30.37 28.68 28.27
40.61 40.42 42.41 42.98 40.52 32.95 29.98 33.35 31.66 25.28 29.37 30.68 30.51 30.66 31.04 30.95 31.03 31.87 32.27 32.80 28.90 27.20 26.61 22.48 18.39 19.42 21.57 26.41 25.67 29.14 26.98 26.33 28.52 28.37 29.05 29.88 30.38 30.39 30.30 30.23 30.21 29.78 29.89 29.90 29.95 28.55 28.55 29.41 28.52 28.50 28.86 28.08 26.98 26.35
41.87 41.59 41.01 41.29 40.37 30.03 29.10 27.45 33.00 27.81 27.59 29.78 30.73 29.77 29.55 29.56 30.26 31.40 32.29 32.26 31.60 29.45 22.84 19.69 21.71 23.29 24.28 25.88 26.37 25.29 25.51 26.05 26.53 24.24 25.43 27.01 28.32 28.60 28.11 27.93 27.29 27.94 27.86 27.93 27.32 24.46 26.95 27.05 28.18 28.41 27.83 26.40 26.41 28.16
37.85 37.89 38.41 36.15 34.47 33.47 32.24 30.64 30.95 31.28 30.81 29.63 29.94 29.54 27.62 29.65 29.14 29.40 31.14 31.26 25.90 27.87 25.52 24.98 22.37 25.17 28.01 27.12 26.38 26.30 28.32 28.93 26.90 24.66 24.30 24.65 26.22 27.44 27.30 26.81 26.79 26.11 24.08 25.37 25.81 25.41 25.16 24.44 25.66 26.49 26.70 27.20 28.55 29.38
36.16 38.93 33.51 35.44 31.47 31.69 30.23 31.72 30.78 30.73 29.79 29.14 29.08 28.94 26.56 25.70 26.48 27.97 29.39 27.41 24.55 24.47 27.47 24.98 27.66 27.33 29.89 30.22 29.25 28.86 28.74 28.62 27.97 26.67 25.82 25.17 24.08 23.71 23.71 24.41 22.70 20.59 22.47 23.25 22.98 21.66 21.18 22.32 22.73 21.63 21.80 23.05 25.09 26.27
37.77 35.87 33.24 32.26 27.75 26.69 19.53 32.20 29.01 29.18 25.21 25.96 28.72 25.74 25.17 25.37 27.33 29.48 25.46 28.04 28.41 28.08 27.48 28.48 30.04 30.51 28.41 27.73 26.76 25.09 26.03 25.69 23.77 23.45 23.87 23.83 23.84 20.31 20.13 21.79 20.39 18.03 17.07 18.59 19.90 18.90 16.57 15.60 16.86 15.44 16.98 19.05 19.62 20.75
35.81 29.03 27.18 26.19 26.90 19.18 23.26 17.95 26.44 24.75 23.63 24.45 24.48 22.77 24.25 25.05 26.35 24.41 20.32 23.10 28.37 28.36 27.01 26.70 28.06 27.38 27.18 25.68 23.17 21.49 22.02 23.05 22.76 20.96 21.13 20.06 19.93 20.65 20.46 19.43 16.58 14.63 14.30 14.40 14.67 11.69 11.87 10.80 10.42 13.03 13.17 13.93 13.97 14.62
24.29 17.93 25.95 15.26 25.58 24.01 11.28 7.45 17.40 17.84 13.60 13.98 21.80 19.87 19.15 22.29 16.70 20.17 13.84 23.78 25.11 24.11 24.05 25.19 26.70 26.28 23.95 23.20 23.49 21.48 20.89 20.96 20.02 19.08 19.43 18.80 14.64 13.35 14.50 15.36 15.06 13.51 11.79 7.46 6.30 8.45 8.33 8.35 8.68 9.43 10.11 10.16 10.31 12.17
21.00 19.12 22.29 19.09 13.89 21.89 12.02 8.92 9.27 12.84 14.50 19.91 22.68 21.13 19.73 20.35 18.54 17.20 20.97 23.06 23.34 23.24 22.95 22.84 23.29 22.64 21.93 22.92 20.33 17.94 16.84 18.02 18.74 16.45 15.85 14.80 12.48 6.79 3.75 4.28 5.83 6.55 10.33 5.12 4.78 4.38 5.58 6.10 6.29 5.97 7.51 8.25 9.35 11.15
14.81 12.98 20.52 27.66 26.02 25.39 25.33 25.12 24.56 20.45 20.02 21.55 19.07 16.83 20.42 18.48 17.03 18.84 21.89 22.00 22.96 22.80 24.35 24.65 24.30 22.76 21.26 17.60 16.05 14.52 13.14 12.70 11.68 15.38 14.64 13.12 12.06 11.09 6.06 -0.71 1.96 5.92 8.72 5.32 0.87 1.81 2.97 3.59 3.12 4.07 5.68 7.42 10.94 10.82
19.07 21.27 19.43 23.02 25.34 27.02 23.12 22.76 22.38 22.18 23.48 25.27 23.41 19.61 18.48 16.47 15.19 17.90 19.84 22.37 21.53 22.08 20.32 19.32 19.06 17.94 15.89 14.18 11.93 8.99 9.78 9.26 13.19 12.35 11.91 8.92 7.19 1.81 1.00 -0.95 0.12 8.42 0.89 -1.56 -4.86 0.53 1.51 2.68 2.84 4.52 6.48 8.18 6.58 8.43
19.77 23.39 23.33 20.53 18.56 21.49 22.76 21.69 22.36 25.63 26.98 24.75 17.28 16.99 13.82 14.90 13.86 15.93 17.06 17.73 18.59 16.69 13.83 12.42 12.18 12.12 11.07 10.18 7.94 5.78 1.96 -0.17 -0.98 -5.42 -9.21 -11.20 -8.85 -2.70 1.93 -6.31 -7.03 -5.48 -6.00 -5.04 1.49 6.09 6.05 6.64 7.06 8.17 9.77 7.42 3.35 1.21
18.89 19.65 14.68 8.94 16.62 19.41 22.49 24.52 23.94 25.56 26.06 21.08 19.63 16.95 14.47 12.06 13.14 14.67 14.35 13.83 11.88 9.45 7.72 5.57 1.39 2.79 -7.76 -6.13 -6.13 -1.10 -0.01 -5.58 -6.69 -5.41 -9.75 -10.30 -2.93 -0.12 -8.30 -7.07 -6.69 -7.22 -6.85 -8.85 -3.42 -1.53 0.73 -2.41 -2.32 -3.27 -1.84 -0.74 0.82 0.66
25.62 25.21 23.20 21.28 19.86 22.33 23.75 23.56 26.84 26.73 26.83 21.70 18.31 13.31 9.16 8.87 8.00 10.59 10.04 6.36 6.30 3.78 1.44 -3.80 -2.50 -10.66 -5.04 -7.58 -9.39 -9.75 -6.50 -7.45 -9.39 -4.32 -4.32 -6.85 -9.39 -11.02 -9.75 -7.22 -8.12 -9.39 -10.30 -8.67 -9.94 -11.20 -7.22 -7.94 -11.75 -12.11 -11.02 -10.12 -8.49 -4.92
23.12 21.29 16.57 12.95 14.06 17.19 13.77 18.41 23.24 23.05 22.20 21.83 15.21 9.09 4.56 -2.44 -4.50 2.44 4.40 -0.83 -2.78 -5.40 -9.21 -13.38 -9.03 -5.04 -6.13 -5.04 -7.94 -9.03 -4.50 -8.13 -9.94 -10.48 -8.49 -6.13 -9.57 -11.75 -10.66 -9.75 -13.38 -14.83 -15.92 -15.92 -14.83 -13.92 -13.56 -15.01 -15.74 -15.92 -16.28 -14.83 -12.65 -8.32
6.63 4.73 8.51 1.83 7.32 8.88 10.19 2.99 1.31 6.34 8.35 13.05 4.11 2.62 -0.05 1.23 -1.32 2.70 4.55 -4.68 -3.90 -5.96 -7.40 -8.67 -9.75 -11.57 -9.57 -8.92 -8.65 -10.13 -9.04 -11.93 -11.93 -2.87 -2.50 -1.78 -5.58 -5.95 -12.47 -15.56 -17.91 -19.36 -18.09 -18.46 -17.55 -17.91 -15.74 -16.28 -18.09 -17.73 -17.55 -16.64 -14.83 -11.57

GFSWCAN_sfc_wetblb_018.txt.gz
Wetbulb
49.52 49.35 49.04 48.82 49.03 49.16 49.57 49.59 49.55 49.85 49.24 49.23 49.25 49.23 49.86 51.37 51.44 54.24 50.67 51.71 47.67 42.32 44.92 47.86 47.48 43.49 43.10 41.29 37.25 40.97 39.48 37.95 31.71 29.25 26.44 26.17 23.44 29.38 29.58 31.71 31.11 29.62 27.58 21.66 21.64 14.66 21.57 36.52 38.58 33.03 36.17 36.13 39.51 39.29
49.03 48.63 48.28 48.53 48.62 48.88 49.11 49.11 49.53 49.64 48.79 47.32 47.07 48.12 49.31 50.82 51.46 54.03 52.02 52.98 50.59 46.90 46.06 49.11 49.58 49.09 47.98 45.94 43.10 40.77 41.25 39.45 38.84 31.72 26.30 26.78 29.31 28.97 27.86 26.10 34.01 28.91 31.23 27.97 29.10 29.27 35.47 37.39 37.82 39.20 39.11 38.76 40.08 39.86
48.32 48.28 48.46 48.46 48.36 48.59 48.77 48.48 48.35 48.12 47.09 47.59 47.75 48.30 49.40 50.65 51.53 52.55 51.73 49.10 46.62 42.54 44.69 45.97 45.99 50.40 51.78 50.23 48.72 41.76 38.85 43.55 40.29 38.77 32.42 28.62 25.25 29.36 26.83 28.51 29.32 34.66 36.18 30.09 32.13 35.86 36.19 37.47 39.08 39.94 40.31 40.44 41.02 41.61
48.12 48.25 48.07 48.18 48.25 48.22 48.33 47.52 46.67 47.07 47.56 47.52 48.28 48.84 50.35 50.71 51.21 51.80 50.35 48.84 44.16 40.29 35.21 42.09 49.30 47.99 51.19 51.98 50.88 48.24 45.88 43.44 41.21 38.55 31.88 31.41 27.08 34.47 28.21 31.44 30.75 34.79 36.26 34.09 32.06 36.55 36.75 39.25 40.45 40.90 40.93 41.94 41.80 42.26
47.93 47.79 47.73 47.82 47.91 47.92 46.92 46.71 47.05 47.37 47.92 48.58 48.53 49.27 51.09 51.08 51.15 51.56 49.66 48.80 48.44 43.48 36.19 37.03 46.13 47.47 49.16 50.49 48.87 47.87 46.15 43.50 39.59 34.59 32.69 31.52 29.45 32.38 32.48 31.91 30.34 37.03 35.82 31.46 31.16 37.73 37.50 37.91 40.49 41.98 41.77 41.93 42.49 41.58
47.59 47.59 47.46 47.63 47.12 46.72 46.69 46.69 46.81 47.41 47.81 47.83 48.33 48.30 49.17 50.23 49.90 45.89 43.31 48.35 49.70 46.05 40.71 35.46 42.52 43.93 46.37 48.05 47.62 47.00 46.39 43.23 40.99 37.79 32.94 35.06 37.96 33.91 32.92 31.70 37.48 39.53 40.41 39.45 38.57 38.42 39.45 40.04 41.31 41.99 41.98 41.28 40.95 37.39
47.63 47.70 47.64 47.55 47.36 46.31 46.16 46.72 47.05 47.37 48.15 48.39 48.58 48.56 49.15 49.45 49.55 43.41 40.40 46.02 47.34 45.75 38.68 35.57 34.02 40.80 42.83 44.41 42.50 43.55 44.67 42.50 41.46 38.21 33.03 34.16 35.68 36.32 30.49 28.39 39.62 40.56 41.45 42.13 42.38 40.87 39.67 40.37 40.93 41.93 41.90 37.12 35.89 34.91
46.83 47.09 47.19 47.16 47.37 47.03 46.16 45.77 46.71 47.45 48.42 48.91 48.31 48.37 48.76 48.85 48.63 47.23 48.06 47.61 47.30 42.03 38.21 32.18 31.71 34.88 42.24 37.10 37.65 41.90 38.17 40.71 41.08 38.88 37.01 34.13 36.35 34.69 33.25 37.61 39.99 41.56 42.27 42.01 42.07 42.26 41.44 41.13 39.25 35.26 35.45 34.78 33.29 34.25
45.48 45.66 46.15 46.58 47.03 47.19 46.83 45.64 45.95 47.37 48.73 48.88 47.53 48.15 48.24 46.58 46.31 46.89 47.23 47.05 46.76 43.57 34.29 31.88 31.31 30.65 41.05 37.75 36.38 37.05 38.69 34.22 39.29 35.32 35.13 38.28 33.30 33.51 35.96 35.39 37.03 38.39 39.19 40.33 41.62 41.28 40.84 36.58 33.34 33.58 34.51 35.47 35.13 34.35
45.30 45.03 45.10 45.63 46.28 46.53 46.83 46.56 45.93 47.94 48.48 47.30 46.48 41.92 38.62 43.81 47.14 46.52 44.01 39.67 38.95 38.11 39.15 33.31 36.83 34.49 41.63 34.22 34.23 33.98 33.86 33.83 34.01 33.28 38.65 33.68 33.81 36.26 33.23 33.91 34.48 35.14 37.40 40.03 36.22 33.93 32.19 32.98 34.52 35.22 35.25 36.04 35.60 34.15
45.43 45.66 45.84 46.08 46.38 46.67 46.98 46.65 47.41 47.90 47.29 43.71 39.21 37.86 44.71 45.05 42.69 37.15 34.11 34.22 37.18 34.50 37.19 36.00 35.92 35.21 39.41 35.39 34.42 32.38 33.61 32.41 32.04 32.24 33.84 31.94 31.22 30.31 33.63 33.85 34.95 35.52 35.87 35.62 35.81 35.99 36.59 36.12 35.15 35.08 34.47 33.43 32.10 31.25
45.34 45.32 45.46 45.72 46.11 46.65 46.53 46.32 46.59 44.15 42.01 43.07 42.68 42.58 39.51 37.28 35.25 33.72 32.54 33.66 33.92 33.16 33.81 34.39 35.08 38.42 35.13 35.82 35.10 33.86 32.15 32.18 29.79 33.91 32.20 28.50 29.43 32.80 33.79 34.73 36.07 36.32 36.25 35.80 36.39 35.92 36.60 36.67 36.40 34.48 33.26 31.65 30.82 30.46
44.53 44.71 44.78 44.88 45.09 45.82 45.67 45.64 45.26 44.98 43.88 41.40 37.70 33.82 36.62 33.46 33.27 26.99 30.86 31.97 32.04 32.18 33.12 33.13 33.31 32.94 34.89 35.95 33.13 32.91 32.00 30.99 32.66 30.36 29.41 30.37 34.56 35.85 35.12 35.51 34.80 35.92 34.94 34.35 34.52 34.87 34.27 33.08 31.79 30.34 29.29 29.92 28.37 29.29
44.21 44.32 44.67 44.74 44.52 44.64 44.93 45.33 44.77 43.73 41.75 35.97 34.22 33.10 31.74 30.55 29.95 30.15 31.07 31.62 31.46 32.18 32.39 32.59 32.20 32.74 32.23 32.91 31.85 31.44 31.28 31.07 28.34 25.29 24.78 30.70 32.91 33.24 33.93 34.38 34.74 31.85 30.07 31.07 30.79 30.47 30.16 30.17 29.71 28.40 27.36 27.11 26.47 27.73
44.15 43.71 43.75 43.67 44.43 44.11 44.18 43.55 43.36 41.59 37.37 33.09 32.32 27.97 27.68 30.17 31.23 31.46 32.02 32.18 32.20 33.45 32.59 32.39 32.38 33.37 31.44 30.62 30.33 29.18 22.43 18.82 21.41 19.60 29.07 31.47 32.39 32.92 32.48 32.57 29.91 29.26 26.56 28.84 30.11 29.68 26.93 26.65 27.18 28.43 28.62 28.36 28.69 26.29
43.29 42.75 41.74 43.78 43.89 43.60 42.94 40.66 39.02 37.88 33.95 32.57 31.64 29.79 31.09 30.69 30.73 32.04 32.07 32.06 33.96 33.39 32.75 32.71 31.23 28.96 27.71 29.00 25.65 23.09 21.05 16.51 19.85 28.86 31.67 32.38 31.62 32.00 32.80 32.52 30.83 31.69 31.43 30.74 30.83 30.98 29.75 25.84 24.26 28.49 28.00 26.31 22.37 21.32
43.18 40.20 42.94 43.59 43.24 41.78 41.93 35.82 32.32 30.79 28.23 31.08 30.49 32.38 31.97 32.18 31.86 32.07 32.44 32.59 35.23 32.74 30.69 30.36 22.07 23.65 28.22 24.24 23.59 27.21 23.76 26.07 31.09 31.85 32.51 33.01 32.42 32.77 32.97 32.61 30.62 31.13 31.20 30.54 30.01 29.74 29.63 28.90 24.08 24.88 26.86 29.73 28.87 28.31
38.03 38.70 42.59 43.28 41.36 37.82 35.02 32.58 28.28 29.39 29.95 30.70 29.85 30.19 31.26 31.85 32.03 32.02 32.23 32.18 28.72 31.22 29.82 27.29 28.14 20.43 18.80 18.17 19.25 26.90 30.20 31.11 30.72 30.90 32.02 33.66 33.39 31.97 31.21 29.80 29.74 29.22 29.19 29.21 27.81 28.87 28.00 26.40 26.94 27.07 27.88 27.99 26.76 26.78
39.64 39.82 41.47 41.77 38.94 32.30 30.01 30.98 30.40 26.20 29.35 30.52 30.31 30.13 30.49 30.15 30.80 31.62 32.02 31.61 26.36 25.72 25.11 20.45 17.19 18.84 20.48 23.50 22.95 28.32 29.66 26.69 31.45 31.45 29.50 28.80 29.15 29.36 29.12 29.11 29.16 28.54 28.17 27.97 27.36 26.52 26.23 27.23 26.55 26.06 25.98 25.59 24.79 26.26
40.74 40.67 40.15 40.22 38.85 30.18 28.87 27.74 30.98 28.71 27.96 30.01 30.35 29.35 29.18 29.18 29.89 31.14 31.99 31.99 27.47 24.17 22.42 20.28 21.33 22.69 22.86 24.49 25.79 25.43 26.53 26.02 26.23 24.00 24.40 26.18 27.09 27.88 26.95 26.56 26.20 26.65 25.85 26.42 25.74 24.45 23.65 22.88 23.54 23.25 22.54 22.59 22.95 22.96
36.99 37.37 37.69 34.87 32.02 31.26 29.04 28.96 29.26 30.71 30.78 29.58 29.71 29.31 27.40 29.22 28.81 29.07 29.91 30.81 29.87 27.07 25.27 23.75 20.67 24.73 27.24 26.78 26.72 26.13 27.77 27.80 25.85 24.37 24.06 25.05 26.22 25.49 24.77 24.23 23.56 23.09 21.38 20.25 18.85 20.60 20.12 19.30 19.81 19.52 15.87 15.32 16.80 19.96
35.52 37.76 30.51 31.42 30.08 27.20 27.75 32.00 29.85 29.97 29.30 28.97 28.17 28.69 26.04 25.32 26.01 27.40 29.24 27.54 27.64 26.36 28.25 24.92 27.49 29.56 29.08 27.66 27.49 27.91 27.51 27.01 26.62 25.43 24.19 22.56 21.10 21.18 21.04 20.31 19.41 17.97 18.20 15.67 16.98 15.27 13.59 16.08 15.20 13.87 12.45 13.08 14.76 16.69
35.42 32.29 26.02 25.77 19.56 19.00 23.84 31.28 21.45 25.44 21.68 24.94 27.42 25.00 24.25 24.69 26.76 28.87 24.03 27.94 28.28 28.72 28.26 29.79 28.87 28.95 26.74 26.56 25.30 24.47 25.01 23.40 21.40 21.38 21.69 21.44 21.72 21.15 19.13 16.69 14.22 9.93 10.27 12.60 13.83 14.22 11.83 8.77 10.36 8.49 9.97 10.09 10.96 10.44
33.01 24.01 26.29 25.92 26.04 22.99 24.32 16.80 27.81 24.27 19.15 17.24 18.89 20.04 20.95 22.49 23.46 22.43 22.42 23.83 27.77 28.08 27.66 28.68 28.11 26.08 25.86 24.04 20.96 20.60 21.50 22.76 20.10 19.32 19.96 19.47 18.11 17.13 17.52 15.40 12.93 10.75 10.35 9.71 8.63 5.72 6.38 2.73 3.07 5.97 5.59 5.26 5.74 6.67
17.75 16.91 21.54 21.37 25.95 23.07 18.13 15.17 21.43 24.01 11.59 10.11 15.20 12.63 19.03 17.99 17.11 18.77 19.94 23.19 23.36 23.32 23.88 26.63 26.69 25.81 22.86 21.77 20.67 18.79 19.04 20.72 18.92 16.16 15.89 15.41 12.56 12.04 12.18 12.68 11.94 10.65 9.23 2.36 1.42 -0.10 0.13 1.12 0.08 1.27 2.54 2.14 4.00 5.10
16.03 17.93 21.08 18.13 15.12 21.10 10.42 9.20 15.74 17.81 13.51 15.00 16.06 19.29 16.58 16.03 14.08 18.10 19.67 20.27 22.00 21.89 21.61 22.33 21.97 21.07 20.11 21.00 18.48 16.59 15.53 16.32 18.17 13.98 12.70 12.25 9.91 5.10 1.06 -0.46 -0.15 2.36 6.86 -3.09 -6.72 -6.00 -2.23 -0.78 -0.27 -1.59 -0.64 0.83 3.05 5.25
11.41 10.21 18.94 26.57 24.97 23.54 19.84 19.08 23.28 22.71 21.20 20.63 20.14 19.41 20.31 18.10 16.47 17.87 21.62 21.12 21.46 21.24 21.57 21.99 23.78 21.20 17.67 15.34 14.21 12.98 12.31 12.49 13.21 12.91 12.78 11.56 10.42 8.68 0.82 -5.45 -3.82 2.51 5.59 0.23 -8.53 -11.98 -7.99 -3.09 -2.24 -1.78 -0.39 1.69 2.43 3.05
17.78 20.55 14.50 16.88 19.70 23.13 19.67 15.73 16.46 19.26 21.98 24.50 22.70 18.27 17.38 15.51 13.87 16.96 18.50 21.17 19.95 19.29 17.61 16.88 15.81 14.72 12.70 11.47 10.45 9.04 8.71 11.16 10.92 9.74 7.28 6.17 5.82 0.15 -2.42 -4.55 -3.58 4.52 -4.93 -9.26 -11.62 -8.17 -7.45 -3.10 -0.52 1.02 2.13 1.64 -2.04 -5.09
18.40 20.13 19.41 14.26 14.01 15.81 16.30 17.01 18.61 22.92 25.34 23.49 16.22 13.96 12.98 13.33 12.40 13.34 15.94 16.98 17.01 15.45 12.45 11.40 10.32 10.64 9.66 8.00 4.76 3.47 2.14 -2.83 -3.46 -6.11 -9.26 -12.16 -11.25 -4.51 -3.84 -10.89 -11.45 -9.99 -12.52 -11.43 -4.54 2.33 2.65 3.17 1.77 -0.92 -7.26 -3.64 -2.19 -6.36
15.01 18.00 10.78 5.15 9.98 12.99 17.10 21.11 16.89 22.43 21.49 19.75 18.42 15.31 13.16 10.70 11.94 13.84 13.69 12.57 9.83 6.24 4.71 3.63 3.08 1.71 -5.48 -6.90 -7.99 -4.55 -7.08 -12.34 -10.03 -7.69 -11.43 -13.07 -7.66 -4.45 -13.79 -13.79 -11.62 -9.98 -13.07 -17.96 -13.97 -11.54 -5.28 -11.28 -9.10 -13.48 -12.83 -13.32 -14.56 -16.70
24.69 23.89 22.00 19.78 19.75 18.42 21.50 21.78 25.83 24.44 23.45 15.76 14.65 9.60 8.42 6.53 7.59 9.12 7.12 4.52 4.50 1.27 -0.98 -7.99 -7.99 -15.42 -10.35 -10.89 -12.70 -12.34 -8.90 -10.56 -13.61 -9.44 -9.08 -11.43 -11.80 -15.06 -15.24 -13.07 -14.70 -18.50 -21.40 -21.40 -22.31 -21.59 -20.14 -19.41 -21.77 -22.13 -20.14 -17.24 -16.87 -18.14
19.77 9.59 7.96 10.06 12.54 11.09 10.23 11.04 6.50 18.90 18.30 18.18 7.69 5.20 -0.81 -0.79 -4.36 1.66 2.06 -0.67 -5.70 -6.73 -10.16 -16.69 -11.43 -7.45 -9.08 -10.89 -15.06 -15.06 -8.19 -11.62 -12.16 -12.34 -12.70 -11.62 -11.25 -11.25 -14.15 -14.88 -20.50 -21.95 -21.59 -21.40 -22.31 -21.95 -21.77 -21.95 -22.49 -22.86 -23.04 -21.95 -20.68 -20.32
6.60 7.38 9.36 9.05 11.22 14.53 7.55 -0.11 -2.43 1.08 10.55 9.85 0.10 -1.69 -3.47 -0.55 -1.95 0.88 2.37 -2.27 -3.85 -7.19 -9.48 -11.25 -10.53 -13.79 -12.34 -11.81 -11.18 -13.07 -12.34 -14.88 -13.07 -4.54 -3.64 -3.64 -8.90 -9.62 -15.60 -19.59 -22.13 -22.13 -20.32 -21.77 -23.04 -24.49 -21.22 -20.50 -21.77 -22.49 -22.86 -23.76 -22.86 -22.31

GFSWCAN_sfc_wetblb_021.txt.gz
Wetbulb
49.43 49.16 48.95 48.60 48.80 49.28 49.47 49.42 49.36 49.12 49.05 49.17 49.06 49.43 49.75 50.06 51.37 53.38 51.59 52.41 50.01 44.09 47.18 49.71 47.73 44.04 43.93 44.03 40.77 42.82 42.36 41.57 36.60 34.58 34.52 32.36 33.14 33.68 33.05 34.59 33.72 32.92 31.20 29.84 25.36 26.43 28.04 38.78 41.07 37.88 41.97 41.72 41.96 42.76
48.75 48.32 48.21 48.37 48.62 48.77 48.91 48.95 48.69 47.19 47.05 48.06 49.03 49.64 49.56 50.19 50.78 52.74 51.83 53.17 50.78 48.49 47.54 50.22 50.85 51.28 50.90 48.11 44.80 42.96 44.30 41.65 41.82 36.74 33.31 32.32 32.49 31.76 31.55 32.55 36.10 32.68 35.92 34.76 33.59 35.07 40.03 40.47 42.78 43.92 42.54 42.23 43.55 43.50
47.94 48.15 48.26 48.30 48.43 48.41 48.62 48.47 46.92 46.78 47.24 47.90 49.03 50.01 50.47 50.92 51.22 53.37 52.96 51.00 47.99 44.83 46.54 47.96 47.83 51.28 51.98 50.97 50.85 44.27 41.60 45.22 42.02 41.73 36.30 34.58 33.29 34.33 32.38 32.67 34.88 36.96 37.75 36.10 35.51 39.26 37.98 40.15 42.50 42.58 43.77 43.87 44.41 45.12
47.92 48.15 48.10 48.25 47.95 47.33 46.63 47.15 47.71 47.48 47.86 48.64 49.16 49.60 50.26 50.80 51.18 52.66 51.56 50.26 45.89 42.78 36.73 44.05 49.26 48.61 51.05 52.31 51.52 49.41 45.90 43.85 42.35 41.18 35.76 34.17 34.57 36.12 32.85 35.46 35.29 37.83 37.67 36.18 35.47 38.81 40.14 41.49 42.37 44.66 44.83 43.87 43.66 44.80
47.67 47.59 47.77 47.68 46.65 46.45 46.79 46.96 47.57 47.71 47.97 49.58 49.84 49.70 50.32 50.84 51.23 52.26 51.02 50.08 48.73 45.70 38.42 39.91 46.62 47.59 49.50 49.69 47.85 47.46 46.08 44.46 41.95 37.84 34.67 35.70 34.34 35.70 34.35 34.70 34.05 38.73 38.65 36.84 37.08 42.10 41.95 42.28 43.42 44.34 44.16 44.51 44.96 44.28
47.51 47.53 46.76 46.11 46.45 46.63 46.81 47.05 47.39 47.59 47.79 48.19 49.29 50.40 50.93 50.47 49.05 49.77 46.23 49.05 48.64 46.44 42.85 37.25 43.28 43.87 46.26 47.89 47.48 46.74 46.72 44.17 42.92 40.68 36.28 37.36 39.57 37.98 33.62 33.68 39.50 40.45 42.05 41.83 41.61 42.16 42.31 43.51 43.41 45.01 44.70 44.61 43.53 42.25
47.30 46.92 46.41 46.18 46.40 46.61 46.79 46.81 47.41 47.97 48.41 48.27 49.03 49.66 50.08 49.39 50.35 43.85 42.21 47.08 46.96 46.02 40.15 35.86 36.82 41.51 43.16 44.88 44.14 44.77 46.26 43.50 43.67 39.86 35.65 36.65 38.78 37.68 33.51 34.12 39.43 40.77 41.85 42.86 43.85 43.50 42.57 43.28 43.43 43.26 39.53 36.37 36.47 36.13
47.35 47.37 47.03 46.43 46.09 46.05 46.23 46.83 47.52 48.29 48.03 48.16 48.62 48.71 49.11 48.73 48.54 48.03 48.31 47.26 47.10 42.07 39.71 33.96 33.69 37.35 42.80 39.76 38.22 42.26 40.04 42.60 41.94 39.52 37.32 36.08 37.99 37.35 35.00 37.32 36.30 37.18 38.07 42.86 41.62 43.71 43.01 39.48 37.13 35.34 36.66 37.85 36.95 36.10
46.40 46.54 46.74 46.72 46.67 45.53 45.91 46.65 47.70 48.03 47.44 47.58 47.67 47.92 48.54 47.12 45.85 46.72 47.07 46.69 46.53 43.83 35.42 31.53 33.14 33.50 42.44 38.07 37.10 38.61 39.83 35.81 39.79 36.19 37.24 39.97 34.34 33.04 32.16 33.05 33.38 34.64 34.83 36.01 38.74 35.75 35.62 35.21 35.70 37.03 37.14 36.25 34.17 33.25
45.33 45.57 45.95 46.22 46.48 45.98 45.56 46.68 47.59 47.69 47.26 47.09 46.67 43.44 38.67 44.67 46.58 46.60 43.86 40.26 39.76 38.46 40.09 33.29 36.81 34.66 41.24 35.64 34.92 35.26 35.28 34.74 34.52 36.55 39.15 34.72 33.42 32.49 34.29 34.99 35.40 35.27 35.90 37.55 36.76 32.57 34.49 34.92 34.72 34.86 34.56 34.89 34.71 33.55
45.82 45.89 46.15 46.58 46.63 46.50 46.58 46.46 46.37 47.13 47.83 44.68 41.13 39.43 44.65 45.22 43.77 38.18 34.94 35.45 36.28 33.96 37.08 36.09 37.20 36.58 39.58 36.96 34.55 34.72 34.37 33.65 33.21 34.58 34.90 33.21 30.40 30.63 34.34 35.33 36.23 36.63 36.91 36.79 37.19 36.87 36.61 35.79 34.33 33.75 33.56 33.81 34.58 34.33
45.31 45.54 45.86 46.07 45.97 45.85 45.62 46.01 46.41 44.80 42.77 43.92 43.65 43.37 41.58 39.07 35.70 35.11 32.91 33.83 34.23 33.31 34.31 34.72 35.25 38.76 35.99 38.60 36.56 34.51 33.29 33.10 31.99 35.60 32.92 29.43 29.95 34.22 34.34 34.69 34.69 35.48 35.81 35.47 36.09 35.43 35.51 35.36 35.62 34.94 34.44 33.56 32.59 32.12
44.53 44.74 44.87 44.99 45.40 45.57 45.31 44.89 44.91 44.87 43.94 42.16 38.36 34.79 37.22 34.17 32.23 26.92 31.09 32.33 32.15 32.74 33.44 33.63 33.63 34.01 36.12 35.90 33.47 34.55 32.92 31.75 34.01 31.82 30.12 30.03 33.84 34.34 34.54 35.03 33.82 34.52 34.36 34.85 34.75 34.88 33.73 32.92 32.42 31.65 30.73 31.34 30.90 31.46
43.75 44.05 44.27 44.39 44.51 44.62 44.77 44.64 44.14 43.80 41.10 34.36 33.33 31.45 29.63 32.18 30.77 31.17 32.18 32.56 32.00 32.38 32.74 33.47 32.92 33.65 33.10 33.29 32.38 32.74 31.04 31.73 29.96 27.41 26.75 31.40 32.68 33.24 34.81 35.47 34.25 32.99 31.00 32.03 31.71 31.82 31.14 31.00 31.08 30.07 29.06 29.11 28.18 30.07
43.67 43.33 43.32 43.44 43.89 43.99 43.30 43.39 43.39 41.89 38.02 32.83 33.42 27.11 27.96 30.49 31.72 31.58 32.17 32.50 32.30 33.57 33.10 33.10 32.92 34.41 32.20 31.63 31.39 30.42 26.10 24.71 25.63 24.59 29.25 31.43 32.61 33.59 32.98 32.95 30.78 30.63 27.54 30.09 31.65 30.97 26.87 27.04 28.23 29.27 29.98 30.06 29.61 26.63
43.14 42.15 40.65 43.01 43.29 42.78 42.37 41.45 39.49 38.48 34.49 32.73 31.84 29.83 31.22 30.95 31.11 32.02 32.02 32.02 34.27 32.71 33.07 33.39 31.35 30.43 28.94 30.56 28.32 27.39 25.04 22.33 24.41 30.07 31.85 32.32 32.47 33.06 33.22 32.68 32.27 32.88 32.11 32.04 31.76 31.06 30.15 28.27 27.54 29.28 29.56 29.50 27.81 28.26
41.41 36.67 41.15 42.89 42.23 41.56 40.97 37.01 35.98 32.62 32.09 31.23 30.63 32.38 32.20 32.20 31.64 31.84 32.56 32.20 34.76 33.07 31.65 31.22 28.03 26.61 29.53 26.96 26.08 28.83 26.38 28.29 31.60 31.87 32.58 32.71 32.97 33.31 34.28 34.09 32.03 31.47 31.00 30.64 30.68 30.12 29.22 28.99 27.03 27.47 26.60 27.68 27.15 27.74
36.04 37.43 41.47 42.16 39.77 37.90 35.17 32.88 30.84 31.75 29.96 30.59 29.75 30.12 31.54 31.97 32.02 31.99 32.17 32.03 32.25 32.16 31.12 28.92 30.17 25.77 24.34 20.68 24.07 28.27 30.02 32.20 33.15 32.78 33.66 33.66 34.17 34.18 33.25 30.80 30.30 30.45 29.56 28.60 27.73 27.49 26.88 25.81 24.84 24.36 24.40 24.14 24.84 25.48
38.67 38.77 40.32 40.97 37.94 32.42 30.86 30.90 30.96 28.40 29.53 30.62 30.42 30.56 30.77 30.43 31.00 31.69 32.14 32.12 30.33 28.37 28.51 24.78 21.72 23.15 24.91 26.58 27.20 29.21 30.01 30.76 32.07 31.94 29.78 29.89 30.41 30.10 29.85 29.74 29.41 28.43 26.59 25.83 25.18 24.38 24.29 24.08 23.33 22.74 21.02 20.72 20.04 21.48
39.68 39.46 39.03 39.41 38.19 30.55 28.32 27.83 31.27 30.45 28.66 30.17 30.59 29.16 29.16 29.36 30.14 31.42 32.09 32.18 29.71 26.99 24.85 22.74 24.08 25.63 26.19 27.49 28.13 29.34 32.00 31.40 30.54 28.01 26.69 27.52 27.72 27.16 26.27 25.96 25.66 25.49 23.75 23.63 22.91 21.26 20.97 20.53 20.77 19.63 17.70 16.61 16.11 15.52
35.82 35.97 36.50 34.63 30.92 31.05 30.06 28.03 28.51 30.66 30.61 29.49 29.87 29.43 27.86 29.66 29.34 29.32 30.07 30.87 31.15 26.89 25.40 27.64 26.57 27.69 28.58 28.23 28.55 28.80 28.92 29.60 27.83 28.27 26.84 25.22 25.46 24.52 23.03 22.90 22.92 20.82 19.10 18.36 18.29 16.80 15.87 15.82 16.03 15.38 13.96 13.43 14.15 15.00
34.26 36.69 29.58 30.85 26.28 27.07 29.06 31.16 29.29 27.58 29.42 27.85 25.10 27.85 23.36 24.75 26.04 28.08 29.51 28.62 27.94 27.75 29.43 28.48 29.86 30.17 28.30 26.74 26.34 26.94 27.41 27.28 26.76 25.60 24.71 23.99 22.31 20.82 18.70 18.15 17.54 15.92 15.19 14.03 14.84 13.76 13.18 13.74 12.72 11.87 10.80 11.13 11.51 12.65
33.37 29.85 24.64 23.82 21.07 22.43 24.57 30.84 22.59 25.56 22.67 20.40 26.87 22.32 23.85 26.00 27.21 28.65 24.51 27.94 28.11 29.14 29.42 29.82 28.08 28.33 26.02 25.99 25.21 24.38 24.67 23.97 22.38 22.35 21.98 21.39 20.84 18.87 16.24 14.74 13.78 11.84 11.32 11.36 11.75 10.82 9.41 6.80 8.83 7.44 8.46 8.48 8.99 8.84
31.72 25.72 21.33 16.67 18.13 19.76 21.18 21.82 27.34 25.37 21.24 17.40 18.11 14.56 18.79 19.23 22.41 21.76 22.79 24.22 27.04 27.61 27.94 28.29 27.19 24.77 24.02 22.24 20.59 21.30 22.28 21.93 19.83 18.65 20.05 18.89 17.07 16.64 16.24 14.23 12.03 10.47 9.73 9.14 7.67 5.57 5.21 4.35 2.07 4.99 4.48 4.08 4.95 6.09
18.37 21.32 17.14 18.58 19.62 13.46 18.13 18.17 22.59 23.64 21.28 16.60 14.42 12.06 21.44 21.80 14.78 15.06 20.27 21.44 21.75 22.01 23.52 26.07 26.96 25.27 20.90 19.60 19.47 18.93 19.48 21.36 18.29 14.91 14.75 15.37 14.06 13.48 12.41 11.52 10.80 9.31 8.80 5.69 3.76 2.50 1.88 2.13 2.10 2.30 2.89 2.72 3.31 4.53
14.53 21.40 20.99 20.52 20.62 20.53 17.62 7.72 14.72 17.33 12.66 10.05 15.76 17.75 18.45 19.96 15.92 14.75 16.16 18.14 20.41 20.17 20.00 22.36 21.86 19.56 17.67 19.39 17.59 16.51 15.67 17.58 17.20 13.22 12.09 12.35 10.80 8.50 6.23 4.77 4.38 5.99 7.71 4.19 1.53 0.43 1.10 0.78 0.67 0.50 1.49 3.06 2.01 3.69
15.51 17.64 22.96 26.65 25.53 21.80 13.73 13.68 21.02 18.66 15.07 17.20 18.64 17.00 17.74 15.31 10.38 15.50 20.32 19.40 19.34 18.66 19.02 18.12 21.12 18.79 16.05 14.68 14.28 13.97 14.51 14.56 14.49 12.81 12.38 11.17 10.01 8.45 5.73 3.18 1.99 5.15 6.09 3.72 -0.15 -2.06 -2.43 -2.25 -1.36 0.38 1.45 3.51 4.61 3.11
23.05 20.47 14.59 12.68 13.69 18.87 11.86 12.04 13.85 15.37 18.76 23.57 21.69 14.27 12.97 14.91 14.19 15.35 16.68 19.46 18.73 17.61 15.75 14.92 14.59 13.86 12.24 10.84 11.10 12.28 11.76 11.49 10.18 9.30 8.65 7.89 6.88 5.12 3.18 2.69 1.62 3.01 -0.90 -2.07 -1.91 -1.70 -0.90 -1.16 0.37 2.04 2.37 1.72 1.33 1.54
18.22 18.64 14.51 9.09 10.79 15.36 15.27 14.70 15.12 20.93 23.61 20.63 14.12 12.31 11.52 12.35 11.79 12.16 14.67 15.69 16.32 15.50 12.69 11.31 10.43 11.09 9.37 7.71 4.98 3.73 3.30 5.37 4.76 -0.31 -1.64 -0.20 -0.42 3.54 3.59 0.67 -0.96 -1.49 -2.67 -3.92 -2.63 1.66 4.36 5.44 4.21 1.38 -1.82 -2.39 -2.11 -2.18
13.80 19.72 11.31 7.53 12.62 9.52 15.26 22.02 13.65 17.51 19.59 18.11 16.82 14.25 11.93 9.89 10.50 12.31 12.27 11.55 9.31 6.50 4.53 3.81 2.60 5.50 0.74 1.01 0.46 1.83 0.18 -2.07 -0.08 1.20 0.13 -0.82 0.25 2.36 -0.48 -1.88 -2.43 -2.30 -5.51 -5.73 -5.40 -4.59 -2.81 -3.65 -2.55 -4.40 -5.73 -5.72 -6.03 -5.84
20.31 21.29 13.90 10.97 10.65 12.43 14.91 10.26 21.52 23.89 16.67 12.18 11.22 9.33 6.56 7.70 7.95 7.88 6.51 4.64 4.29 3.27 3.40 -0.63 -0.53 -6.60 -0.87 -2.61 -1.70 -2.31 -0.51 -0.77 -7.32 -3.52 -2.61 -2.44 -2.43 -1.89 -2.06 -2.61 -3.88 -6.42 -7.32 -7.22 -7.49 -7.72 -8.05 -6.54 -7.78 -8.90 -7.94 -8.30 -9.73 -10.24
8.98 6.64 10.81 8.17 10.52 9.67 7.76 7.25 5.01 15.44 16.18 13.42 4.65 4.93 2.59 1.86 -1.90 4.89 4.39 2.63 0.14 0.54 -5.69 -9.50 -5.33 -0.26 -3.88 -4.42 -6.96 -5.88 -7.15 -3.52 -2.79 -3.70 -5.15 -4.06 -2.06 -1.70 -2.25 -3.37 -7.32 -8.59 -7.14 -7.14 -8.14 -8.90 -9.86 -9.14 -8.82 -9.44 -9.77 -10.35 -11.09 -11.62
8.13 6.96 9.75 11.67 12.42 14.68 7.68 -0.33 -1.96 3.18 9.34 4.81 0.55 -1.60 -1.44 0.97 -1.28 3.47 3.57 -0.11 2.03 1.87 -0.31 -2.72 -2.90 -4.60 -6.42 -7.50 -3.72 -3.55 -8.83 -5.21 -8.23 -4.24 -1.70 -0.98 -2.79 -1.34 -2.25 -4.97 -7.68 -8.41 -8.05 -7.87 -8.41 -10.25 -9.07 -9.52 -8.93 -10.33 -11.21 -13.12 -13.08 -13.49

GFSWCAN_sfc_wetblb_024.txt.gz
Wetbulb
46.82 46.52 45.59 47.36 48.71 48.75 48.80 48.81 49.06 49.37 49.42 49.11 49.11 49.35 49.69 50.08 51.03 57.52 57.01 57.82 58.00 52.93 51.52 53.06 52.19 50.52 49.96 51.99 48.85 48.15 47.98 47.26 46.46 44.72 44.65 42.40 41.70 40.99 39.66 40.81 39.44 39.05 38.24 37.25 34.96 34.92 33.25 43.90 44.67 41.09 46.09 48.58 47.77 48.39
45.71 47.49 48.50 48.33 48.50 48.83 49.10 48.98 48.87 48.80 48.73 48.82 48.89 49.09 49.53 50.19 51.25 55.04 55.49 56.91 58.69 55.71 52.97 55.44 54.66 54.88 54.48 54.95 52.83 50.56 51.14 49.43 50.58 47.33 44.74 43.17 38.39 36.54 40.68 39.40 41.71 38.40 42.82 42.32 41.04 42.16 44.69 46.43 47.74 49.38 48.63 47.86 48.80 48.75
48.25 48.17 48.28 48.46 48.37 48.25 47.63 47.60 47.45 47.62 48.00 48.28 48.53 49.14 49.68 50.44 51.40 54.36 56.39 56.40 57.65 54.47 52.91 54.16 52.52 55.02 56.58 55.74 56.39 51.20 51.05 52.03 49.81 50.64 47.82 46.10 37.74 44.18 37.60 41.31 41.50 42.94 43.67 42.08 40.42 44.50 45.19 46.36 47.69 48.43 49.04 48.66 49.44 50.09
47.88 48.03 47.94 47.56 47.42 47.63 47.27 47.27 47.17 47.42 47.74 48.34 48.84 49.15 49.48 50.56 51.53 54.25 56.63 55.45 56.26 53.47 42.81 50.31 54.06 52.65 54.79 56.25 55.48 54.43 53.31 51.18 49.76 51.37 47.72 41.44 42.70 44.62 43.23 43.34 43.24 44.74 43.52 42.16 41.60 44.81 46.13 47.30 48.01 48.32 48.86 49.99 49.88 50.54
47.53 46.98 46.84 46.68 46.89 47.27 47.98 47.18 47.24 48.43 48.61 48.68 49.01 49.33 49.91 50.96 51.38 55.02 54.95 54.04 54.71 52.54 46.40 49.80 51.87 51.71 53.46 53.91 52.88 53.62 52.78 51.56 50.68 47.45 42.43 45.23 44.42 43.99 41.84 42.66 42.09 44.26 43.38 41.96 41.89 45.58 45.50 46.56 48.63 49.57 48.30 48.82 49.52 48.83
46.41 46.17 46.21 46.57 46.84 47.09 47.13 47.31 48.41 48.86 48.83 49.37 49.93 50.33 50.50 50.78 51.98 58.79 53.24 53.66 52.72 55.00 52.79 46.15 50.04 49.30 51.91 53.10 52.42 51.86 51.91 51.31 51.54 50.02 44.79 45.31 43.61 46.06 38.73 41.65 43.46 44.48 45.51 45.78 44.36 47.50 47.93 48.74 48.82 48.62 47.50 44.59 44.31 43.81
46.24 46.41 46.46 46.32 46.71 46.93 47.44 47.29 48.32 49.51 48.80 49.22 49.75 49.08 49.13 50.14 55.32 52.05 49.87 51.56 49.01 52.63 51.63 44.36 46.54 48.05 48.54 50.96 48.41 50.80 51.79 50.46 51.42 46.53 41.68 44.06 45.07 46.39 38.93 41.71 40.35 41.38 42.46 44.03 45.66 46.95 46.80 45.24 43.05 42.96 42.44 42.35 41.95 41.54
46.05 46.10 46.14 46.15 46.69 47.07 47.18 47.08 47.77 48.83 49.35 49.45 49.52 49.36 49.30 49.34 50.48 53.42 51.95 48.14 48.97 51.04 51.59 42.84 41.90 47.14 48.65 45.71 43.07 45.66 45.86 49.23 45.62 42.04 41.60 40.98 41.78 43.38 40.46 37.74 39.10 39.82 41.23 44.61 41.78 44.26 43.83 42.31 42.36 41.91 42.63 40.73 37.05 34.97
46.80 46.50 45.77 45.77 45.99 46.37 46.80 47.00 47.16 47.27 47.64 48.29 48.65 49.48 53.95 51.68 52.70 53.23 47.13 47.32 53.16 52.32 45.97 37.92 41.91 39.50 45.73 41.47 41.99 43.91 45.49 38.81 44.14 41.30 42.17 44.39 38.33 35.83 33.51 34.82 35.71 36.74 37.62 39.61 40.10 41.68 41.67 40.16 38.11 37.15 36.07 35.09 34.07 34.32
46.19 46.30 46.01 45.65 46.04 46.17 46.07 46.52 46.90 47.53 47.39 47.71 52.39 50.67 47.09 49.10 46.43 48.25 50.36 49.89 48.09 46.84 44.98 36.65 41.97 39.09 44.21 41.59 38.82 41.13 41.01 38.23 36.98 40.32 41.54 39.37 31.81 33.95 34.84 35.57 36.46 37.37 39.94 42.03 38.28 35.07 35.23 34.13 34.43 34.73 35.13 35.81 36.45 36.71
46.26 46.17 46.37 46.35 46.01 46.23 46.36 46.25 46.42 48.41 50.14 51.26 48.19 45.25 50.61 46.78 50.73 46.20 41.50 41.52 43.28 38.10 40.40 39.54 42.19 39.92 42.75 40.02 37.69 39.65 37.37 37.92 35.56 38.48 38.17 35.56 30.63 32.04 35.39 35.74 37.23 38.24 38.49 38.12 37.51 36.58 36.22 36.23 35.86 35.66 36.33 37.35 37.52 36.49
45.87 45.80 45.59 45.31 45.28 45.43 45.79 45.92 46.86 49.44 48.33 48.35 48.78 47.82 48.32 45.49 43.85 37.24 35.56 37.34 38.13 36.14 38.12 38.56 38.68 41.01 39.83 42.28 39.80 37.90 36.29 36.29 34.56 39.84 35.50 32.93 31.02 34.25 34.59 34.84 36.29 37.41 38.02 38.09 38.77 37.76 37.94 37.53 37.82 37.13 36.18 35.08 34.37 33.63
44.68 44.80 45.16 44.95 44.95 45.05 45.02 45.32 45.20 45.13 45.47 49.24 45.50 39.40 43.06 38.07 35.02 35.74 32.28 34.82 34.44 35.20 35.27 35.68 35.18 38.58 40.27 41.57 36.63 37.90 34.66 34.66 38.60 34.24 32.77 31.88 32.80 34.26 34.60 36.14 36.43 37.16 37.10 36.91 36.16 36.11 35.89 35.21 35.21 34.30 33.51 34.18 34.24 34.43
43.55 43.92 44.06 44.27 44.34 44.43 44.42 44.13 44.47 46.34 46.29 40.39 38.07 33.39 34.84 33.93 33.01 33.57 35.20 35.02 33.39 34.11 35.38 37.92 35.74 39.17 36.83 35.20 35.74 34.66 32.30 33.14 31.94 30.59 30.25 31.11 32.90 34.14 34.77 35.86 35.80 34.61 33.45 34.24 34.77 34.89 33.57 33.04 32.87 33.54 33.01 32.62 32.80 32.61
42.83 42.76 43.12 43.10 43.64 43.56 43.39 43.02 43.44 45.16 41.02 35.84 37.15 29.93 30.67 31.92 32.84 32.48 32.84 33.37 33.73 35.03 35.56 35.92 35.92 39.10 34.84 33.39 34.11 33.21 31.21 30.41 31.69 31.46 31.06 32.62 33.48 34.54 35.26 35.42 34.94 33.42 32.48 34.57 35.38 33.04 32.14 32.39 33.10 33.27 33.31 32.31 31.36 31.02
42.64 42.57 40.93 42.85 42.78 42.48 42.48 42.84 42.00 41.17 36.39 35.42 33.90 32.30 32.84 32.66 31.94 32.30 32.48 32.12 34.89 34.29 34.84 35.20 33.39 33.39 32.12 34.11 32.30 31.74 30.68 29.42 31.10 33.19 33.25 34.15 33.49 34.71 35.06 34.36 35.28 35.95 35.19 34.62 34.33 33.95 32.73 31.52 31.46 31.71 31.54 29.24 28.76 28.74
41.82 39.29 40.60 42.51 41.80 41.43 41.75 41.16 40.68 35.99 34.92 33.36 32.30 33.02 32.48 32.66 31.94 31.94 32.84 33.21 35.46 34.47 32.30 35.33 32.48 30.04 33.70 31.65 30.14 33.54 31.77 33.74 34.32 34.04 34.59 34.16 34.61 34.89 35.70 36.36 34.13 34.05 34.30 34.25 33.30 32.05 31.20 30.25 29.08 27.93 26.48 27.07 27.17 27.64
38.92 40.64 40.81 41.67 41.93 41.59 39.60 38.73 37.44 35.11 30.90 32.52 31.63 31.76 33.21 32.84 33.39 33.02 34.26 34.12 36.57 35.69 35.38 32.82 34.66 31.60 30.93 29.26 31.18 33.85 32.80 33.59 34.54 33.99 34.38 34.89 35.24 35.38 36.41 34.52 34.65 34.07 32.37 30.59 29.75 29.03 27.90 27.37 27.09 26.76 25.36 24.88 25.50 25.62
39.40 39.78 39.92 40.54 41.55 40.45 36.31 35.47 36.93 30.95 31.13 32.99 32.98 33.14 33.55 33.55 34.46 34.40 33.94 34.24 35.38 36.90 36.32 34.57 32.18 31.84 32.35 35.25 35.37 31.53 33.19 33.71 33.39 32.25 30.51 32.66 34.38 33.42 33.39 32.96 31.08 29.81 29.22 28.21 27.89 27.38 27.11 25.58 25.12 24.51 23.65 23.12 22.21 23.08
38.74 39.18 38.85 39.22 41.67 38.12 33.35 33.84 38.74 32.83 30.18 31.74 32.98 30.93 31.47 31.72 32.96 33.17 33.75 35.27 35.86 35.88 33.38 31.80 31.59 32.63 33.60 34.20 35.21 36.39 36.19 37.83 34.19 30.40 28.26 29.26 31.96 32.05 31.45 31.12 29.85 28.35 27.94 26.77 24.65 23.54 24.79 24.62 23.37 22.04 20.73 19.80 19.79 19.23
39.49 38.90 38.39 40.18 38.03 36.19 32.19 32.21 31.95 32.77 32.76 30.77 32.26 32.13 31.30 33.09 32.26 32.44 32.26 33.30 34.64 30.61 29.36 29.69 30.66 30.74 31.56 32.80 34.05 36.09 35.22 33.69 31.57 32.29 30.20 28.42 29.08 29.09 27.67 26.95 25.91 25.62 24.86 24.28 23.44 21.53 20.66 20.34 19.81 19.17 18.74 18.88 18.16 19.16
37.39 36.90 37.16 36.22 33.70 33.59 32.27 33.53 31.99 34.33 33.29 32.65 32.78 33.13 31.79 31.46 31.29 31.56 33.40 32.86 29.84 29.68 30.63 31.46 31.63 31.93 29.42 27.99 29.18 31.25 31.21 31.27 31.12 29.62 28.52 27.65 25.73 24.81 23.85 23.83 24.06 21.75 20.39 19.97 19.83 18.66 18.50 17.47 16.28 16.25 16.58 16.19 16.62 17.97
35.98 36.09 34.49 33.31 29.19 29.82 27.24 34.10 30.00 29.59 27.89 28.64 30.38 28.23 29.42 30.30 30.81 32.56 29.53 30.27 29.25 29.85 31.25 30.71 29.55 29.86 28.07 28.19 27.48 27.17 28.55 28.66 27.13 26.16 25.58 24.41 23.17 22.51 21.15 19.63 19.62 18.86 18.27 16.77 16.80 16.32 15.42 11.60 14.16 13.23 14.90 14.90 15.56 15.81
34.66 29.61 26.71 26.97 27.30 23.84 27.75 26.10 28.36 27.24 28.34 26.00 26.16 24.16 26.01 28.01 29.88 29.15 24.84 24.94 24.92 27.49 27.56 29.50 28.69 26.50 26.17 24.56 22.67 22.55 23.69 24.55 23.41 23.44 24.44 23.31 21.14 20.04 19.50 17.47 16.33 15.23 14.43 14.45 14.15 13.73 13.34 12.89 10.32 12.88 12.37 12.43 12.51 12.46
26.35 24.08 26.33 22.90 26.68 23.81 21.97 22.26 24.55 25.46 23.08 23.29 23.47 24.58 25.34 28.43 25.57 23.50 21.94 21.54 23.85 23.81 24.78 26.67 26.36 25.24 22.56 21.83 21.68 20.80 21.56 23.03 20.36 17.50 18.39 20.13 19.02 18.19 16.44 15.75 14.32 13.33 13.74 13.22 11.82 11.00 11.16 10.60 10.61 10.50 10.36 11.01 9.58 9.59
21.05 24.71 23.90 23.84 24.47 23.82 22.43 21.65 21.53 22.86 23.30 22.48 23.83 26.21 27.73 26.28 20.34 16.78 19.26 21.38 22.29 21.73 21.86 22.23 23.90 21.44 18.85 19.69 18.92 17.67 17.37 20.36 19.81 16.23 15.27 15.92 15.54 15.29 13.67 12.83 13.68 13.44 13.02 11.90 9.80 8.58 8.67 8.68 8.31 7.55 8.94 9.82 8.73 8.85
20.83 22.05 25.27 28.28 26.36 25.37 25.73 26.37 27.04 25.73 22.61 22.34 25.12 24.43 24.59 18.53 16.25 18.41 21.57 20.78 20.98 20.57 20.32 20.24 21.11 19.35 17.71 16.67 16.39 16.43 17.28 17.60 17.18 15.23 14.90 14.23 13.69 13.07 12.39 10.41 8.57 9.80 10.86 9.75 8.20 7.78 6.74 6.13 6.79 7.64 8.32 9.98 9.91 8.71
24.38 25.54 21.64 24.04 25.44 26.75 23.02 23.40 22.60 21.67 23.93 26.11 25.88 20.07 18.33 18.08 17.08 18.44 18.97 20.95 20.92 20.26 18.97 17.76 17.07 16.71 15.55 15.07 16.37 17.02 15.99 15.07 14.23 14.00 14.14 13.37 13.02 12.37 10.67 11.34 9.85 7.05 7.10 7.36 6.50 6.62 7.04 7.01 7.07 7.96 8.04 6.94 6.57 7.37
25.01 26.60 25.77 18.34 21.58 24.44 23.93 23.06 23.60 25.64 26.04 25.83 23.67 19.69 15.69 15.37 15.98 16.95 17.79 18.87 20.77 20.66 17.98 16.51 15.47 16.21 14.68 13.18 12.69 12.83 13.99 14.56 12.81 9.23 8.70 10.60 10.90 11.77 11.48 10.32 9.76 9.05 8.43 7.30 5.92 6.14 7.27 8.38 7.55 6.31 5.05 5.07 5.34 5.45
24.53 26.74 23.60 18.57 19.66 21.49 25.35 26.31 26.52 26.80 24.31 22.76 20.64 17.55 15.33 14.46 14.41 16.66 17.22 17.03 15.54 13.53 12.48 12.07 12.75 14.96 12.33 13.82 12.39 11.07 10.84 10.54 9.65 9.02 8.14 7.12 8.08 9.50 9.38 8.83 8.33 8.22 6.74 6.23 5.51 5.58 5.51 5.40 5.67 5.78 3.95 3.82 4.23 2.56
27.01 27.37 23.24 23.07 21.92 24.51 23.44 22.26 25.22 25.10 22.90 19.25 18.05 16.87 13.35 13.05 14.14 13.89 12.41 12.29 12.39 13.03 13.53 12.28 10.97 10.91 11.40 10.04 10.41 9.72 9.43 9.87 6.03 6.18 6.28 7.25 8.03 8.38 8.76 7.94 8.26 7.13 5.96 4.67 4.14 3.79 2.45 2.76 3.89 2.06 1.95 0.41 -0.80 -1.24
22.72 19.26 20.30 18.51 22.01 21.80 21.36 22.16 22.07 23.55 21.59 19.14 13.92 13.97 12.00 12.72 9.36 11.83 11.21 13.23 13.39 11.25 4.70 8.79 10.55 10.16 9.24 9.95 7.94 8.94 0.49 7.05 7.89 6.17 5.36 6.31 7.64 8.76 8.27 7.81 6.80 5.63 4.61 3.47 3.39 2.41 1.36 0.53 0.78 0.70 0.21 -0.58 -1.97 -3.19
20.08 19.63 19.74 19.85 19.79 19.21 17.93 17.17 14.77 15.73 16.57 14.39 11.36 11.26 10.53 11.11 6.63 10.43 11.33 10.70 10.84 10.43 9.89 9.67 10.12 10.12 7.57 5.14 7.36 8.11 3.53 7.60 4.33 3.52 2.70 2.34 1.65 3.72 5.47 7.10 6.09 4.73 2.89 2.65 2.72 1.88 0.18 -0.41 -0.22 -0.78 -1.34 -3.55 -4.15 -4.55

GFSWCAN_sfc_wetblb_030.txt.gz
Wetbulb
43.89 43.96 44.00 44.40 45.01 45.56 45.89 46.24 46.52 46.79 47.14 47.59 47.50 47.31 47.36 47.57 47.62 47.20 50.87 54.53 54.33 51.44 54.67 56.17 55.59 52.91 53.48 53.76 48.87 51.67 50.22 51.30 52.23 46.59 47.43 47.90 44.47 46.24 44.58 44.90 41.72 39.83 40.09 36.76 41.68 34.82 32.46 47.68 46.30 41.57 47.76 50.30 49.34 49.28
43.86 44.06 43.94 44.22 44.85 45.73 46.00 46.21 46.65 46.83 47.17 47.46 47.77 47.43 47.36 47.55 47.74 50.35 48.89 53.55 55.22 54.83 55.25 59.02 57.84 58.52 57.59 57.91 55.56 53.75 53.24 51.95 52.54 50.22 50.64 51.31 40.39 39.91 45.09 40.89 47.33 41.69 45.48 43.75 42.97 42.29 49.20 49.46 48.27 49.88 50.87 49.24 49.75 50.16
44.71 44.87 45.11 45.25 45.21 45.40 45.80 45.87 45.77 45.22 46.31 47.42 48.01 48.10 49.17 49.75 50.36 51.57 50.56 52.95 55.76 55.95 54.55 55.04 54.18 57.27 59.18 59.80 61.95 53.34 56.33 56.65 55.45 59.09 53.91 51.50 39.41 49.49 38.80 45.21 46.92 47.34 49.13 46.16 45.11 46.52 47.37 48.68 49.44 50.18 50.79 50.30 50.70 51.30
44.59 44.76 44.52 44.43 45.25 45.04 44.86 44.85 45.20 45.36 47.37 48.24 48.49 48.56 49.37 49.79 50.24 50.66 50.81 53.72 58.63 56.00 45.76 51.41 57.78 55.31 58.21 59.38 59.79 60.47 60.08 60.25 59.59 58.02 54.33 43.24 42.64 52.05 48.37 49.11 47.84 47.91 47.89 45.05 45.22 47.19 48.28 49.08 50.11 50.35 50.48 51.02 49.98 50.54
42.93 43.20 43.26 44.00 44.50 44.49 45.10 44.96 45.63 46.86 47.78 48.64 48.86 48.82 49.36 50.08 50.73 51.95 53.46 57.51 60.35 55.63 47.67 50.39 54.84 56.07 57.19 58.01 57.22 58.72 59.14 57.54 55.79 51.58 41.86 49.06 51.63 50.05 49.56 49.22 47.55 48.78 46.42 45.27 44.27 47.54 47.56 47.70 47.94 49.14 46.98 46.13 46.27 46.08
43.95 44.81 44.69 44.60 44.94 45.63 46.88 47.28 47.47 47.78 47.94 48.28 48.80 49.08 49.47 49.95 50.17 52.14 53.20 58.50 59.24 60.57 53.69 47.80 53.28 53.54 55.67 56.84 56.01 56.44 57.21 57.30 55.99 53.56 50.08 51.57 51.37 51.43 41.81 44.38 47.38 47.63 48.40 48.04 46.88 48.43 48.70 48.07 47.20 46.23 42.79 42.65 42.65 42.04
46.59 46.77 46.73 46.75 46.72 46.88 46.90 47.06 47.20 47.37 47.82 48.07 48.57 49.07 49.61 49.25 52.54 52.20 50.39 51.99 49.50 58.62 54.04 44.92 45.45 51.92 55.21 54.93 54.45 54.23 56.31 55.82 55.17 52.93 50.88 49.80 48.55 50.17 41.69 44.55 45.56 45.48 46.21 47.72 47.35 47.85 44.77 46.44 43.26 43.70 41.54 40.48 40.19 39.57
46.68 47.44 47.60 47.40 47.19 47.01 46.84 46.84 47.33 47.62 47.73 48.16 48.71 49.09 49.33 49.25 51.15 52.81 52.72 49.78 50.42 55.91 55.49 43.92 39.88 48.34 53.14 51.24 48.39 52.51 52.60 53.48 50.57 47.56 49.01 48.94 46.86 49.94 44.37 44.03 44.26 44.76 46.08 45.27 45.58 46.68 44.70 43.54 42.22 41.01 41.08 40.09 37.79 37.04
46.24 45.99 46.77 47.76 47.80 47.85 47.31 47.17 47.66 47.98 48.01 48.64 49.18 49.05 52.04 53.75 54.26 52.64 49.30 49.67 58.25 53.62 48.84 38.83 40.95 38.10 51.35 46.59 46.72 48.10 50.89 43.26 48.26 43.81 47.44 47.07 41.91 40.59 41.73 42.03 42.14 43.14 43.73 42.76 43.12 42.92 41.71 39.88 39.00 39.00 38.78 38.40 36.80 36.66
46.00 45.32 45.48 45.48 46.22 47.92 48.71 48.37 48.26 48.54 49.19 49.19 51.83 52.67 45.60 53.42 49.37 49.20 52.68 51.16 51.79 51.16 48.24 41.91 47.16 43.06 46.76 44.07 41.18 42.60 44.29 40.90 38.64 42.32 45.99 40.64 35.77 37.49 39.21 40.88 41.79 42.29 43.75 42.36 37.81 36.39 37.41 36.99 37.22 37.68 37.93 38.13 37.10 36.58
45.34 45.22 45.09 45.28 45.80 46.26 46.90 48.01 48.59 49.51 49.62 56.73 52.72 46.23 51.51 48.84 52.72 49.56 42.67 43.69 45.51 42.41 42.88 43.18 46.50 42.80 46.51 41.53 38.38 42.71 38.57 40.49 37.19 39.98 39.98 37.12 35.27 35.04 38.43 39.30 40.40 41.38 43.00 41.73 40.37 40.08 39.45 38.78 37.60 37.33 36.59 36.67 35.53 35.23
44.98 44.87 44.47 44.61 45.50 46.05 46.45 47.11 48.13 52.37 53.19 52.39 51.68 52.68 52.18 48.14 45.24 38.37 37.56 39.37 39.77 37.91 38.95 39.95 41.62 42.87 43.62 47.02 41.38 41.15 36.48 39.44 35.24 41.75 37.35 35.35 34.24 36.07 37.26 37.93 39.27 40.30 40.21 39.43 39.62 38.81 39.08 38.43 38.13 36.72 35.70 34.86 34.88 34.32
43.84 43.99 44.11 44.10 44.70 45.55 46.07 46.35 46.12 46.52 47.63 53.96 48.12 41.55 43.81 39.19 35.38 35.57 32.83 35.53 33.95 35.62 36.89 38.73 36.23 41.48 42.13 43.02 38.83 38.95 35.02 36.47 42.28 35.49 34.27 33.85 34.52 35.81 37.34 38.31 38.52 39.68 40.02 38.98 38.39 38.26 36.94 35.54 35.90 35.18 33.26 33.87 34.60 33.76
43.25 43.34 43.23 43.59 43.85 44.57 45.35 45.66 46.22 49.58 50.25 43.47 38.10 33.03 33.57 33.03 32.12 32.30 33.39 33.57 33.39 34.30 36.29 39.19 37.38 39.01 38.28 35.93 37.38 33.21 33.75 37.33 32.85 31.30 33.11 32.47 34.09 35.90 37.75 38.45 37.81 36.20 34.82 36.22 35.96 35.47 34.26 33.73 32.91 32.51 31.45 31.01 29.15 29.23
42.96 42.69 43.09 42.82 43.48 44.32 44.88 45.35 45.80 47.30 42.95 37.16 37.15 30.66 30.82 32.11 32.66 32.66 33.21 33.93 34.39 37.09 38.28 39.45 40.10 40.49 35.57 34.48 36.47 33.63 31.94 31.60 33.42 32.86 32.92 33.18 34.72 36.43 36.60 36.94 34.61 34.34 33.88 35.24 34.75 33.43 32.89 33.13 32.94 31.64 30.28 30.13 29.09 26.76
44.23 43.74 41.39 42.73 43.28 44.53 44.94 46.15 45.72 44.18 38.84 34.97 33.60 31.71 32.66 32.47 31.70 32.29 32.30 32.30 35.08 35.02 38.98 41.14 36.65 34.30 33.21 34.66 33.50 33.74 33.33 31.79 32.09 33.64 33.64 34.44 35.12 36.14 36.74 36.18 35.96 36.74 36.54 35.50 34.85 33.83 32.79 31.75 31.29 30.35 29.15 28.58 26.96 25.63
44.28 41.87 41.15 42.66 43.34 43.98 44.42 44.41 42.82 37.60 35.71 34.11 31.94 32.66 33.03 32.09 31.58 31.94 32.66 32.82 36.03 34.84 33.03 35.38 33.21 31.38 35.41 33.58 31.53 34.25 31.40 32.98 33.27 33.30 34.43 35.16 35.38 36.34 36.83 36.10 35.34 35.95 36.24 35.66 34.77 34.00 32.40 31.35 30.35 29.46 27.77 27.51 28.39 27.96
42.13 43.58 42.40 43.41 45.14 44.40 43.58 43.32 38.13 35.80 31.81 32.89 31.19 32.12 33.03 32.66 32.85 33.21 34.64 36.86 36.56 35.01 34.61 33.21 35.50 32.48 31.76 30.64 31.50 33.37 32.42 32.89 34.32 34.23 34.59 35.98 36.72 36.39 37.05 36.37 36.33 36.43 34.36 33.46 32.18 31.24 30.60 30.37 29.91 28.29 27.36 26.17 26.90 26.51
40.38 42.01 41.95 43.00 44.63 42.28 37.51 38.26 39.79 31.59 32.44 33.92 34.10 35.21 35.53 35.06 36.49 36.45 36.42 39.44 40.46 40.83 37.95 35.88 31.39 29.44 29.45 30.78 31.34 32.85 33.18 32.68 31.75 32.35 33.31 35.02 35.68 35.69 35.55 35.14 34.10 33.41 32.81 32.37 31.99 30.63 28.06 27.46 26.41 26.12 25.08 24.35 23.27 24.01
41.27 40.50 41.44 42.77 44.06 39.52 34.23 35.62 41.47 34.49 31.07 32.95 34.98 33.24 34.08 34.12 36.09 34.40 35.75 38.42 36.88 35.48 30.64 28.27 27.47 28.30 28.48 29.90 30.91 32.32 34.14 34.34 32.93 31.18 31.58 32.82 35.30 34.28 33.94 33.76 33.06 31.63 29.35 27.88 27.29 28.44 28.48 27.19 25.21 23.96 22.72 22.39 21.81 20.43
41.57 40.70 42.11 43.75 41.63 38.54 35.36 35.14 34.05 35.17 34.49 32.67 34.99 34.78 33.11 36.30 34.72 33.93 34.69 37.21 32.34 29.73 27.97 29.22 30.28 30.53 31.90 30.93 30.45 32.10 31.76 33.49 34.40 34.40 33.46 32.36 33.75 34.02 32.61 31.94 31.61 30.98 29.57 28.31 26.65 24.37 24.23 21.79 21.47 21.35 21.90 22.30 20.54 21.21
39.88 40.56 41.78 41.29 36.93 35.58 34.77 36.75 34.48 36.80 33.98 33.44 33.48 34.65 32.44 31.69 31.99 33.10 36.05 29.64 26.24 27.52 29.52 28.31 27.93 29.52 28.20 27.41 28.38 29.66 32.11 31.49 31.76 31.41 32.22 32.19 29.97 28.89 28.21 28.76 27.39 24.63 23.28 22.87 22.62 21.73 21.12 19.29 18.68 18.59 19.38 19.48 19.23 21.15
40.26 40.59 39.25 37.28 31.32 31.08 28.78 36.51 30.87 31.58 27.99 28.95 32.15 29.05 29.42 29.52 31.81 36.11 28.14 27.17 27.10 28.81 30.32 29.94 29.01 29.23 27.76 28.05 27.72 27.50 28.69 28.55 27.20 26.92 26.57 25.86 25.25 24.38 22.94 22.30 24.10 23.50 20.23 19.22 20.61 19.79 18.64 16.88 17.88 17.22 19.11 18.62 18.44 18.85
38.52 32.70 30.94 30.88 31.54 26.37 33.69 29.03 32.50 29.93 29.60 27.11 26.83 25.05 25.75 27.97 32.55 29.07 23.15 24.48 25.38 26.80 27.22 27.63 28.51 29.30 27.18 24.85 22.27 22.50 25.80 26.15 24.46 25.23 25.89 23.68 21.31 20.86 21.24 20.10 19.00 18.65 19.14 19.77 18.92 18.54 18.77 18.11 15.46 17.05 16.71 15.24 15.95 15.09
30.03 27.06 30.59 27.17 32.60 29.03 26.76 26.85 27.86 27.74 24.40 26.58 26.47 25.66 26.34 30.57 26.51 24.23 22.25 23.51 23.51 22.92 24.06 26.96 26.00 25.10 24.35 23.71 22.97 22.05 24.12 23.89 21.61 18.85 21.09 24.18 22.15 21.06 19.05 18.33 17.07 16.92 18.26 17.23 15.96 15.63 15.72 15.95 15.62 14.31 12.96 13.44 12.67 12.47
23.58 26.37 25.81 26.22 26.65 26.28 26.20 23.72 23.97 24.63 25.38 25.49 24.60 27.15 29.90 28.17 23.61 20.55 20.61 22.51 21.65 21.24 21.35 22.28 23.81 23.15 20.53 20.57 19.69 18.78 19.58 23.17 22.73 18.21 17.58 18.85 19.07 19.55 18.38 17.69 17.42 14.84 16.13 15.98 13.86 12.39 12.71 12.77 12.02 11.38 11.51 12.01 11.29 12.27
23.09 24.89 27.57 30.27 28.58 28.72 27.26 28.18 29.20 27.60 24.97 24.08 25.68 26.12 26.33 22.42 20.08 20.10 22.18 22.43 21.62 21.96 22.14 22.25 22.19 21.29 20.16 19.61 19.73 19.95 19.94 19.31 18.53 17.80 18.85 18.28 17.56 17.18 15.82 13.28 11.42 11.12 13.37 13.44 12.04 10.35 9.04 9.55 9.79 10.08 10.51 12.37 12.78 11.72
26.70 26.82 23.28 26.86 27.26 29.25 25.12 25.51 24.70 23.97 24.97 26.18 27.47 22.89 21.04 18.76 16.82 20.34 21.15 23.05 23.96 23.18 21.95 21.20 20.53 19.93 19.13 19.33 20.32 20.50 21.09 20.43 18.82 19.96 19.37 18.79 18.53 17.39 16.23 15.81 14.29 12.36 13.04 13.20 11.61 11.15 10.23 9.50 8.67 8.71 9.43 9.16 8.74 10.83
25.00 27.53 28.78 22.26 26.70 26.28 24.95 24.40 24.78 25.38 26.19 25.73 24.02 22.51 18.98 17.83 19.10 20.54 20.95 23.03 24.93 23.88 21.21 20.11 20.55 21.77 20.26 19.32 18.53 17.94 16.76 15.51 15.06 12.33 12.58 13.33 15.11 14.61 15.28 14.61 14.44 13.97 13.99 12.81 12.93 12.56 12.06 10.47 9.54 9.03 8.78 8.44 8.85 10.13
24.84 28.76 26.51 24.76 23.63 23.28 24.38 26.24 26.83 27.02 25.88 25.46 24.30 20.75 18.13 17.11 18.48 21.09 20.27 19.77 18.82 17.69 18.20 18.37 18.85 18.37 16.80 17.59 16.07 15.49 14.97 12.96 11.42 9.83 8.67 8.17 8.98 12.42 13.32 13.40 12.94 12.49 12.68 11.40 10.53 10.39 11.49 10.69 10.16 9.35 9.79 9.72 9.09 7.92
27.56 28.23 25.59 25.41 23.82 24.80 26.04 27.14 28.41 27.16 25.81 23.46 23.74 21.01 17.25 15.69 17.02 17.90 17.34 19.22 18.51 18.55 18.64 17.09 15.42 15.54 14.09 12.72 12.29 11.93 12.77 13.66 11.70 11.34 9.52 9.69 11.05 11.76 12.62 12.60 12.79 12.53 11.58 10.42 9.58 8.46 8.09 7.76 7.22 6.62 6.66 6.29 6.09 5.82
26.15 23.09 23.22 21.57 24.47 26.21 26.49 25.17 25.21 26.76 24.86 23.29 19.60 19.77 18.22 18.93 13.62 14.04 15.45 17.95 17.27 15.14 13.23 15.12 14.12 13.29 13.65 13.73 14.40 14.59 8.03 11.96 12.66 11.18 9.61 8.70 8.89 9.15 9.78 10.58 10.72 11.14 10.63 9.48 8.60 8.03 7.65 6.87 6.18 5.73 5.14 4.95 4.36 2.57
24.73 25.44 24.63 23.98 23.42 22.95 24.87 23.29 22.43 21.24 21.23 18.91 16.77 18.03 15.66 14.71 9.70 13.36 16.94 17.11 14.67 13.78 13.36 14.07 14.98 14.95 14.07 12.71 12.68 12.55 11.31 13.38 11.84 12.39 11.94 10.41 5.53 6.80 6.54 7.94 8.31 7.57 6.85 6.89 6.57 6.37 6.00 5.87 5.82 5.23 3.77 2.52 2.18 0.85

GFSWCAN_sfc_wetblb_033.txt.gz
Wetbulb
43.50 43.62 43.96 44.23 44.39 44.81 44.61 45.25 45.60 46.24 46.31 46.77 47.17 47.76 48.17 48.03 48.53 46.37 45.51 48.77 48.54 48.13 50.33 51.18 51.20 49.43 49.50 48.45 42.43 47.14 46.67 45.27 42.88 36.43 35.13 33.03 30.76 35.32 36.09 41.29 36.28 33.25 31.42 27.07 30.91 29.10 27.35 44.89 43.07 36.01 41.28 43.23 44.22 43.86
43.63 43.84 43.87 44.23 44.45 44.99 45.26 45.46 46.16 46.46 46.74 46.97 47.31 47.25 47.71 47.99 48.30 47.95 43.73 49.26 51.32 47.93 49.63 54.97 54.00 54.45 54.69 53.08 49.35 47.64 47.35 46.93 47.43 42.55 39.70 37.59 35.58 34.26 34.62 29.86 42.93 33.84 39.14 34.53 35.88 34.15 43.16 43.63 43.10 45.02 44.93 43.98 44.33 44.88
43.63 43.74 43.87 44.43 44.77 45.14 45.45 45.79 46.07 46.37 46.63 47.04 47.25 47.06 47.07 47.46 47.96 47.32 45.04 49.65 50.44 47.91 46.94 50.80 49.62 53.97 56.83 55.94 56.00 46.93 49.75 51.44 49.56 51.22 44.88 41.11 35.12 36.86 30.65 33.20 36.50 41.93 45.56 38.73 38.65 42.37 42.81 44.17 47.10 47.63 47.42 45.84 46.33 44.10
43.73 43.78 43.92 44.11 44.47 45.16 45.49 45.73 45.98 46.19 46.63 47.08 47.08 47.13 47.16 47.30 47.80 47.76 45.26 48.47 51.00 47.51 40.57 48.99 56.38 52.34 56.49 56.80 57.64 55.82 54.63 54.55 53.73 50.90 41.06 37.27 35.90 44.34 34.44 38.99 38.54 41.61 42.68 41.06 39.40 42.73 44.82 44.92 45.82 45.13 44.72 44.95 42.32 41.93
44.45 44.53 44.65 44.93 45.07 45.28 45.54 45.57 45.41 45.30 45.34 46.56 47.17 47.63 47.63 47.73 48.01 48.86 49.08 50.42 53.05 49.45 43.76 46.45 52.23 54.28 55.85 55.18 55.36 57.00 54.58 52.32 48.76 41.28 34.39 36.80 42.75 40.93 39.18 38.96 37.09 42.99 41.52 35.01 33.92 44.16 42.37 41.72 43.27 43.66 41.61 40.86 41.62 39.85
44.20 44.07 44.11 44.28 44.44 44.83 44.72 44.53 44.74 45.44 45.85 46.37 47.04 47.79 48.20 48.98 49.99 49.97 45.26 51.39 52.77 52.64 47.17 38.89 50.20 51.10 52.24 52.45 52.95 53.12 52.81 51.34 50.55 45.24 39.68 43.99 46.18 40.34 33.45 31.20 42.26 43.36 44.59 44.88 43.00 44.91 43.55 41.63 40.74 41.08 39.56 39.30 39.16 38.23
42.63 42.91 43.43 43.85 43.70 43.78 43.94 44.14 44.77 45.44 45.65 47.58 47.97 48.02 48.49 49.53 51.04 47.67 46.08 51.32 51.30 51.22 47.26 38.86 40.29 49.35 51.60 51.27 49.11 49.84 51.90 50.46 49.13 46.02 40.28 41.66 41.68 43.12 33.65 31.99 41.43 43.17 44.13 44.43 45.20 45.03 41.25 41.43 37.59 39.22 38.39 37.89 37.61 36.79
43.83 43.98 43.40 43.40 44.31 44.21 44.56 44.48 45.27 46.86 47.47 48.16 48.44 48.55 49.13 50.30 51.60 49.21 53.53 50.51 49.38 52.16 48.43 38.33 37.62 43.42 51.27 44.96 40.95 47.42 45.80 46.04 44.82 41.77 40.72 38.31 40.43 35.87 32.38 39.35 41.72 43.45 43.41 42.51 41.43 43.06 40.49 39.85 39.29 38.09 37.92 37.15 35.53 35.29
46.30 46.30 46.25 46.03 45.61 44.96 45.12 46.17 47.06 47.71 47.91 48.27 48.70 49.34 51.12 51.31 48.98 50.87 50.47 48.21 53.39 49.69 38.64 34.93 36.71 35.81 48.06 42.92 41.52 44.05 44.41 36.88 45.01 36.32 37.45 39.24 32.62 32.63 38.28 38.98 40.21 41.45 41.25 39.75 40.18 39.63 38.90 37.34 37.07 36.79 35.94 35.22 34.41 34.52
45.79 46.54 46.27 46.08 46.21 46.23 46.59 46.65 47.13 47.89 48.44 49.08 50.77 49.70 42.71 49.74 48.58 48.99 49.34 44.06 43.57 44.37 41.75 37.29 42.52 37.98 44.19 37.46 36.38 36.52 36.71 35.64 34.86 37.07 40.80 35.25 32.53 36.95 37.42 38.71 39.69 40.63 41.51 39.88 35.22 33.66 34.63 34.43 34.91 36.35 35.67 35.51 34.99 34.13
45.53 45.94 46.52 46.99 46.56 46.57 46.74 46.93 47.64 48.42 48.90 50.59 46.64 42.55 48.07 48.48 49.04 43.26 35.36 34.88 37.11 33.91 35.76 38.67 41.10 39.35 43.84 36.36 34.90 36.55 34.56 34.48 31.93 33.63 34.10 33.29 31.96 35.52 39.47 39.30 39.96 40.15 41.47 40.35 39.27 38.63 38.20 37.41 35.69 34.51 33.45 33.38 32.22 30.58
45.04 45.27 45.85 46.83 47.53 47.51 47.33 47.60 48.20 50.32 50.57 50.01 49.04 50.20 48.09 46.11 38.09 34.22 32.49 33.87 34.67 33.60 34.60 36.17 37.48 41.47 38.17 43.82 34.42 36.36 33.56 32.25 30.77 37.73 33.44 31.06 32.66 36.03 37.02 37.61 38.83 39.72 39.32 38.75 39.10 38.05 37.77 37.14 35.85 34.25 33.59 32.33 30.68 29.51
44.05 44.43 44.98 45.32 46.09 46.96 47.88 48.00 48.33 48.89 48.73 48.48 43.30 38.04 41.25 35.20 32.67 31.74 29.16 32.13 32.10 33.09 34.87 35.10 34.56 35.82 37.75 39.61 34.92 34.61 33.98 32.41 34.59 32.86 30.81 30.83 34.21 35.87 36.98 37.55 37.56 38.73 38.57 37.18 35.48 35.32 34.78 33.34 33.03 32.05 30.98 31.43 29.25 27.59
43.38 43.78 43.83 44.41 45.20 45.58 45.75 46.10 46.45 47.82 46.10 38.21 34.72 30.91 32.38 30.79 29.70 29.59 30.86 31.82 32.02 32.56 33.30 34.92 34.01 34.19 33.85 33.60 33.47 31.75 32.16 33.38 30.18 25.05 25.37 31.16 33.96 35.63 36.63 37.33 36.45 35.17 33.20 33.75 32.95 32.02 30.65 30.47 29.87 29.34 27.40 26.49 26.78 26.68
43.28 42.64 43.11 43.05 44.55 45.35 45.16 45.14 45.33 44.28 39.26 33.14 32.72 28.12 28.25 30.90 32.14 32.19 32.38 32.55 32.85 34.69 34.19 34.92 34.54 36.27 33.11 32.87 32.70 32.01 30.65 28.65 30.05 29.10 30.72 32.99 34.69 35.72 34.91 34.04 33.24 32.06 31.56 32.30 33.38 31.83 30.67 29.50 27.91 27.53 27.70 27.29 26.02 23.22
44.69 42.71 40.62 43.39 44.46 45.08 45.11 44.45 43.62 40.90 36.01 33.21 31.72 30.55 31.94 31.73 31.03 31.57 31.94 32.02 34.61 33.29 34.56 34.15 32.91 32.47 31.76 32.32 31.39 30.95 27.06 26.10 29.11 30.72 32.50 34.52 34.74 34.21 33.36 33.66 34.78 34.72 32.90 32.69 32.43 31.68 30.85 28.66 26.64 26.55 27.10 25.24 21.17 19.62
43.40 39.41 42.69 43.61 44.39 44.44 44.56 42.23 39.13 34.44 32.47 31.65 30.27 31.84 31.82 31.60 30.53 31.46 31.84 32.53 35.55 33.45 32.03 32.19 30.19 29.40 32.41 30.48 28.80 30.26 27.36 29.82 30.75 31.81 33.54 34.70 34.79 34.40 33.71 33.73 33.74 33.64 33.04 31.85 31.31 30.32 28.60 28.56 27.23 25.94 24.02 24.96 25.34 23.67
39.07 41.36 43.41 44.10 44.92 43.15 42.35 40.88 35.07 33.03 30.00 31.21 29.51 30.86 31.92 31.84 31.81 31.82 32.17 33.82 34.16 32.93 32.88 31.24 33.23 30.44 26.95 26.20 26.39 30.33 30.47 31.42 31.96 32.49 33.65 35.56 35.69 34.90 35.86 35.44 35.84 33.97 31.46 30.58 29.85 29.16 28.32 26.49 25.45 23.69 23.56 24.14 23.90 23.10
39.88 40.72 42.72 43.64 43.25 39.01 33.34 34.71 36.53 29.54 30.48 31.63 31.63 32.19 32.56 32.38 33.42 34.54 34.99 35.34 36.32 35.55 33.27 31.28 25.97 24.37 24.47 27.20 26.70 29.90 31.45 31.08 30.65 31.39 33.18 34.55 34.94 34.66 35.14 33.83 31.77 30.62 29.64 28.85 27.61 25.07 24.35 23.96 23.00 22.08 21.96 22.16 20.40 19.72
41.73 41.25 42.25 42.32 43.03 34.00 31.91 32.42 38.05 32.31 29.84 31.43 32.53 31.36 31.93 31.94 32.86 32.93 32.54 32.11 32.71 31.09 27.81 25.75 24.97 25.91 26.10 26.55 27.67 29.46 31.37 32.67 32.20 30.56 30.47 32.08 32.87 32.81 32.52 32.13 28.84 26.94 26.18 25.74 25.59 25.26 23.32 21.72 22.10 21.55 20.08 18.76 14.63 13.34
39.63 38.87 41.84 41.69 37.21 35.64 32.44 31.11 31.21 32.03 31.98 31.18 31.94 30.34 29.78 30.91 31.08 30.01 28.25 29.60 26.07 26.41 24.47 25.77 26.86 27.07 28.72 28.67 28.69 31.04 29.00 29.86 29.33 31.42 31.52 30.76 31.94 31.03 30.19 30.29 29.73 28.90 26.78 24.46 23.06 20.99 19.56 18.02 18.51 19.13 13.21 8.52 8.26 9.23
36.30 41.07 34.04 35.49 31.93 30.73 29.52 31.75 31.06 32.49 30.82 30.79 28.98 30.41 28.94 24.87 26.44 28.83 28.01 24.00 23.56 25.80 27.43 26.41 26.86 26.45 25.60 25.04 25.36 27.05 28.89 28.22 27.33 25.65 26.57 28.06 25.27 24.69 25.48 24.31 22.21 20.35 20.47 20.81 21.16 18.42 17.27 17.37 16.62 15.20 8.19 6.33 10.08 11.03
39.25 37.45 32.64 30.82 23.28 22.43 20.37 30.45 23.28 27.60 21.07 25.97 27.37 24.69 24.50 24.53 27.45 30.29 22.27 25.15 25.06 27.09 27.73 28.34 27.43 26.44 23.79 23.66 24.11 25.33 25.64 25.44 23.96 23.83 23.14 22.28 21.89 21.22 19.69 19.55 21.23 18.95 17.67 18.83 19.77 18.52 17.16 15.21 13.58 8.05 9.09 6.62 6.14 3.20
37.09 30.97 27.41 25.47 23.68 23.81 23.79 21.74 27.25 26.78 26.78 25.36 23.62 21.17 24.31 23.26 27.00 20.96 19.76 21.38 22.78 24.33 24.16 25.58 26.90 24.36 22.40 21.59 19.77 20.28 23.01 22.82 21.16 21.92 22.89 20.73 18.38 18.10 18.31 17.39 17.63 17.99 19.19 18.48 17.21 15.75 14.22 9.06 9.16 7.00 0.58 -1.56 -1.94 -0.62
21.61 21.21 23.45 17.02 24.09 19.28 15.90 19.39 19.18 23.13 22.78 23.13 18.98 18.15 23.99 24.92 17.08 20.40 18.54 20.35 18.46 18.34 19.96 22.94 21.52 20.34 20.12 18.98 18.88 18.86 20.58 21.35 18.20 16.09 17.28 21.28 18.90 18.10 16.90 16.22 15.33 14.79 15.56 12.02 9.85 6.31 2.29 1.05 -0.59 -1.58 -0.08 -4.06 1.77 -1.34
19.47 24.73 21.81 23.68 24.11 23.43 23.49 21.10 22.32 23.08 23.83 19.57 22.73 24.88 22.02 22.45 14.97 12.45 18.04 18.38 14.50 17.23 16.70 18.04 19.85 17.57 16.67 17.63 16.26 15.61 15.93 20.49 18.43 14.62 15.21 15.99 15.14 15.09 14.75 12.74 11.00 8.85 10.41 3.80 -0.88 -1.70 -0.06 -0.92 -3.53 -2.50 -4.23 0.43 1.98 2.71
21.24 22.67 26.81 29.52 28.45 27.47 25.43 26.90 25.25 20.30 19.26 17.24 21.23 21.41 16.08 17.69 9.85 16.57 19.69 19.98 18.62 18.02 19.43 19.22 19.72 18.61 17.75 17.89 18.37 17.82 16.47 16.53 15.22 15.60 16.47 15.48 14.71 13.51 8.75 1.97 0.26 4.47 7.38 3.46 -2.01 -4.61 -5.48 -5.48 -5.66 -4.93 -5.11 2.50 1.48 -1.54
24.75 26.00 22.12 24.97 25.51 26.32 23.06 23.09 22.28 20.68 21.76 24.65 22.90 12.87 12.09 13.01 10.45 17.34 19.02 21.51 21.43 20.56 19.46 18.87 18.28 17.97 17.15 16.45 15.99 14.52 13.34 14.47 10.90 12.70 14.02 14.08 12.95 9.88 7.04 4.79 5.68 10.11 6.47 4.40 -1.28 1.24 -2.25 -0.44 -4.93 -6.56 -6.20 -6.20 -6.93 -6.95
23.86 26.73 20.97 12.24 16.38 22.90 22.77 22.33 20.04 23.28 24.44 23.97 17.47 12.78 12.74 15.70 16.39 18.36 19.81 20.36 20.26 18.58 16.76 15.77 17.94 17.17 13.82 12.45 11.30 10.31 8.20 7.41 3.69 0.14 -2.57 -0.58 2.40 4.30 4.28 1.16 2.24 1.18 -0.22 0.11 5.55 7.21 4.32 2.98 3.74 -0.84 -5.48 -1.17 1.00 -2.32
21.64 26.44 17.87 13.41 11.89 17.89 21.89 24.75 23.09 23.76 24.65 23.97 18.64 16.56 15.01 13.29 15.34 17.51 16.97 16.68 15.14 12.08 11.72 15.05 13.98 11.84 9.33 10.40 8.07 6.32 2.71 0.14 0.08 -4.08 -7.47 -8.20 -5.66 0.98 0.51 5.55 3.44 -0.88 -0.62 -3.14 -4.58 -2.16 4.18 -1.92 -1.32 -5.35 -5.92 -5.54 -0.66 -3.14
26.35 23.15 16.90 17.02 15.03 18.57 23.84 25.37 24.61 23.44 22.98 19.42 14.90 11.82 9.87 10.61 10.33 12.69 12.73 14.97 12.26 13.81 14.49 9.28 7.87 6.14 3.73 2.23 -0.23 -2.58 -0.08 -0.30 0.01 1.21 -2.46 -4.42 -3.68 -3.48 2.95 1.05 4.79 4.91 -2.43 4.49 -0.46 -5.48 -7.65 -7.83 -5.30 -3.48 -7.83 -8.38 -5.68 -4.40
19.15 16.53 12.50 13.00 18.28 18.29 24.75 22.62 20.16 21.43 19.95 16.37 8.42 8.04 7.17 10.46 3.17 6.75 12.16 13.62 11.06 10.44 9.10 7.29 4.02 3.85 0.06 -0.54 -0.53 -1.16 -0.16 -1.17 4.01 -1.00 -2.56 -4.57 -5.84 -6.21 -6.02 -4.94 -4.76 2.34 2.44 0.32 0.22 0.74 -1.21 -3.85 -6.56 -2.28 -4.03 -4.93 -10.73 -12.92
16.94 16.21 14.94 13.44 14.16 16.25 16.77 12.41 15.69 14.35 12.24 10.58 7.83 10.61 6.50 5.16 1.71 6.35 12.20 11.24 5.95 2.66 3.57 6.03 8.46 7.69 3.85 -0.02 -1.28 -0.15 5.32 3.34 1.74 7.39 7.84 6.64 -0.58 -2.76 -6.93 -6.56 -8.01 -10.19 -10.01 -10.01 -8.92 -9.83 -8.01 -3.53 -0.08 -0.58 -4.03 -8.92 -10.92 -10.37

GFSWCAN_sfc_wetblb_036.txt.gz
Wetbulb
43.58 43.74 43.77 43.58 44.09 44.28 44.52 44.59 44.79 45.11 45.59 45.50 45.56 45.63 45.92 46.36 46.79 47.09 45.94 49.36 46.11 43.75 44.95 49.71 48.87 43.70 45.57 46.80 40.99 44.72 44.72 44.05 40.51 35.82 35.14 31.42 28.65 35.13 34.17 37.92 34.42 32.48 29.30 25.08 29.79 24.46 25.83 43.22 41.06 35.99 38.00 41.25 42.24 42.70
43.57 43.58 43.79 44.13 44.13 44.27 43.71 43.62 44.46 45.33 45.77 45.28 45.68 45.80 46.20 46.48 47.95 48.22 44.09 48.89 49.81 43.54 45.25 49.73 49.17 50.36 50.24 51.06 47.63 45.94 46.02 45.84 45.52 41.79 38.34 35.04 32.20 30.07 32.65 30.48 40.39 32.73 35.25 31.92 33.73 32.68 40.87 41.54 41.28 43.24 43.46 42.93 42.88 43.44
43.40 43.77 43.98 44.05 44.30 44.40 44.05 44.11 44.87 44.81 44.93 45.35 46.63 46.63 47.24 48.07 48.59 45.98 45.16 47.44 46.70 43.06 44.52 47.58 48.29 52.66 54.64 54.26 53.98 45.42 45.91 49.26 49.41 48.61 42.89 38.68 33.11 33.72 29.47 30.37 35.23 39.32 43.55 37.63 37.52 40.70 42.11 43.31 44.07 44.51 44.60 41.40 40.96 41.68
43.58 43.87 44.28 44.30 44.66 44.60 44.84 45.34 45.33 45.38 45.92 45.85 46.75 47.11 47.42 47.90 48.35 47.06 45.18 47.99 47.99 47.02 37.92 45.01 54.29 51.32 54.89 55.62 53.77 52.32 51.47 52.01 52.11 47.92 38.91 36.45 34.25 40.74 31.08 37.19 36.25 39.73 41.36 38.99 37.71 40.86 42.34 42.19 42.03 41.79 40.52 40.22 39.19 39.29
43.77 43.97 44.45 44.80 44.87 44.99 45.37 45.56 45.58 45.72 46.06 46.83 46.97 47.09 47.38 47.89 48.03 46.07 46.27 47.97 49.41 46.50 40.09 41.47 49.46 52.72 54.40 55.67 55.60 54.68 53.37 49.92 45.97 41.40 34.74 35.23 39.94 39.70 35.81 36.61 35.66 40.84 39.49 34.82 33.20 42.36 40.26 39.83 40.82 41.50 39.84 38.54 38.25 36.95
44.00 44.04 43.86 44.21 45.06 45.28 45.46 45.70 45.58 45.97 46.43 46.88 46.97 47.20 47.31 47.48 47.48 45.84 40.70 47.31 49.58 50.31 44.39 37.51 48.33 50.46 52.27 54.69 53.65 53.38 52.06 49.94 47.56 43.86 40.18 42.32 44.79 38.45 31.60 29.16 40.24 41.75 42.91 43.51 41.71 42.79 40.59 39.45 39.29 39.42 37.34 36.87 36.67 35.59
44.52 44.66 44.74 44.65 45.02 45.33 45.17 44.94 45.07 45.24 45.58 46.34 47.06 47.33 47.43 47.32 45.66 42.80 42.57 48.89 49.34 49.96 43.76 36.74 39.63 48.96 52.00 50.55 47.53 48.95 51.57 49.21 48.16 44.64 40.24 39.42 40.89 40.05 31.08 31.79 40.06 41.30 42.49 42.05 41.28 40.47 37.46 38.63 35.60 37.16 36.40 36.13 36.56 35.51
43.70 43.93 43.98 44.33 44.66 44.82 44.54 44.68 44.94 45.37 45.51 46.43 46.65 47.22 47.45 47.68 47.75 45.20 50.68 49.90 51.25 47.90 46.82 37.18 39.22 42.02 48.99 42.18 40.72 45.58 43.08 45.49 44.31 41.72 38.12 35.94 39.70 33.69 31.98 38.42 40.56 40.18 40.13 41.07 39.84 41.00 38.73 37.59 36.66 35.56 36.20 35.46 33.80 33.36
43.66 43.37 43.41 43.49 43.68 44.00 43.88 43.83 44.78 45.12 46.01 47.29 47.04 47.59 47.67 47.71 46.16 46.33 49.38 49.41 50.98 48.47 39.65 34.64 36.26 35.35 45.58 40.04 39.73 39.72 39.99 36.26 42.46 34.61 35.70 38.01 33.93 31.29 36.07 38.37 39.13 39.62 39.16 37.23 37.80 37.66 36.87 35.05 34.72 34.77 34.46 33.74 32.44 31.64
43.70 43.47 43.63 43.40 43.62 44.23 44.09 44.47 44.38 46.15 47.09 47.74 47.18 45.22 40.09 45.84 49.91 50.16 48.71 45.30 43.73 43.18 40.38 35.71 40.40 37.15 42.65 35.24 35.27 33.16 34.22 34.28 31.32 34.95 39.70 33.48 32.04 35.06 36.19 38.02 39.37 39.13 38.69 38.22 34.16 32.42 33.43 33.01 33.49 33.91 33.67 33.57 32.47 30.39
46.08 45.72 45.44 44.87 44.17 43.87 44.03 44.82 46.00 47.29 47.99 47.24 45.25 41.35 47.98 48.88 48.66 44.14 36.75 35.66 36.96 33.22 35.97 38.02 38.48 38.53 42.22 34.29 34.46 34.43 33.54 33.82 33.31 34.32 34.09 32.45 31.47 34.85 38.49 38.94 40.70 40.25 40.84 40.23 38.66 36.64 36.52 35.81 34.07 33.09 32.15 31.56 30.01 29.31
46.88 46.43 46.53 46.29 46.38 46.52 46.65 46.70 47.13 48.28 48.93 48.71 48.07 48.10 46.84 43.37 37.27 34.54 31.83 33.64 33.67 32.62 34.97 35.52 37.33 40.71 38.14 42.30 36.66 35.86 33.33 32.10 29.37 36.58 33.76 30.09 33.01 37.86 39.24 39.31 39.99 40.01 39.18 38.28 38.42 36.98 36.35 35.08 34.40 32.55 30.70 28.78 28.90 29.94
45.74 46.79 46.79 46.68 46.81 47.26 47.49 47.63 48.39 48.92 49.06 46.51 42.09 36.55 38.78 33.70 31.33 30.26 28.37 31.16 31.02 32.78 34.26 34.46 34.07 35.33 36.97 38.82 34.08 31.42 26.72 29.93 31.26 31.74 30.42 30.72 34.93 36.53 37.40 37.78 37.09 36.85 36.17 35.74 35.09 35.09 34.41 33.44 33.03 29.99 27.63 27.91 28.46 27.46
44.43 44.95 45.65 45.95 46.47 46.45 46.45 45.96 46.15 46.45 42.41 35.65 33.04 29.13 30.65 28.69 28.73 28.97 30.60 31.47 31.86 32.27 33.36 34.10 33.92 34.07 33.19 34.79 32.80 31.49 32.24 32.53 28.03 26.08 26.16 31.05 34.29 35.51 36.28 36.92 34.17 33.49 32.71 32.73 32.14 31.61 30.42 29.24 28.73 29.04 27.97 26.93 26.06 24.82
43.92 43.85 44.27 44.47 45.08 45.00 44.70 44.50 44.27 42.51 37.21 32.39 32.64 26.86 27.75 30.99 31.85 31.86 32.25 32.27 32.74 34.20 33.92 34.28 34.23 35.32 32.45 32.50 32.09 31.71 29.91 27.72 26.52 23.66 30.23 32.75 34.65 34.38 33.40 33.19 32.44 31.06 30.83 31.06 30.96 29.47 28.42 27.91 27.29 26.61 26.90 26.64 25.86 22.55
43.50 42.96 41.88 43.95 44.78 45.07 44.49 43.29 41.10 39.76 34.91 31.80 31.08 29.92 31.43 30.85 30.07 31.04 31.79 32.09 34.70 32.99 33.36 34.37 32.21 30.55 30.93 31.69 30.77 29.31 27.09 26.15 27.68 29.86 32.07 34.20 32.86 32.56 32.74 32.56 33.06 32.88 31.93 31.29 30.46 29.34 28.08 27.01 25.94 25.50 25.12 23.88 21.69 20.49
42.30 39.56 42.55 44.17 44.11 43.67 43.90 39.80 36.69 33.25 31.91 29.89 29.42 31.89 31.68 31.32 30.44 31.33 31.52 32.24 34.85 33.34 32.10 29.80 28.25 28.97 31.80 28.81 26.65 29.31 25.43 28.35 30.20 31.50 33.12 33.84 32.37 32.64 33.99 32.59 32.47 32.65 32.62 31.93 31.27 29.69 28.05 27.59 26.58 24.96 22.58 23.09 23.87 22.38
36.58 38.42 43.85 44.50 43.11 42.02 41.02 38.63 33.21 31.21 29.55 30.91 28.88 30.54 31.68 31.86 31.29 31.79 32.42 34.26 33.48 32.04 32.33 30.04 31.87 25.83 22.50 21.75 22.18 27.54 29.80 31.12 31.70 31.89 33.25 33.99 33.78 33.51 34.72 33.64 34.52 33.10 31.64 30.21 29.43 28.51 26.68 25.76 23.86 22.98 24.54 23.90 22.88 23.18
39.86 40.88 42.74 43.62 41.76 37.13 32.87 34.58 35.12 29.28 29.83 31.32 31.67 31.85 31.71 31.77 31.78 30.90 31.57 33.54 33.82 33.39 31.88 28.60 23.71 22.39 21.75 24.25 23.79 25.40 29.77 30.40 30.55 31.46 32.33 33.88 34.35 33.99 34.17 32.54 31.66 31.13 30.26 27.99 26.32 24.23 23.59 23.17 22.39 22.27 22.00 21.00 18.64 18.98
41.33 41.33 41.37 41.73 40.35 32.68 31.34 31.74 36.06 31.39 29.17 30.76 32.04 31.48 31.71 31.04 31.21 29.20 28.15 28.81 30.03 28.60 24.87 23.16 21.49 22.63 23.38 24.17 25.86 27.05 27.59 31.26 31.83 30.28 29.91 31.04 32.11 32.02 31.31 29.43 27.64 27.84 26.39 24.67 23.08 22.15 21.56 21.02 21.36 20.66 19.38 17.74 14.64 12.93
36.91 37.54 38.39 36.38 33.60 32.42 29.76 28.93 30.36 30.85 31.82 30.25 30.62 30.11 29.49 29.30 26.03 24.66 24.45 27.19 24.72 24.40 22.14 24.72 23.75 24.51 26.10 26.06 26.18 27.63 26.37 26.13 24.85 28.45 30.54 27.14 28.63 28.07 26.93 26.65 27.52 25.99 23.67 21.31 19.55 18.91 18.58 17.95 18.49 18.33 16.09 13.09 9.37 8.99
34.65 38.84 28.46 31.75 26.99 26.95 27.02 29.54 28.68 29.36 28.83 28.03 27.41 28.29 22.98 21.17 23.01 23.72 25.42 21.76 21.75 23.41 25.78 24.93 23.70 22.69 22.07 22.72 23.55 24.55 25.82 25.16 24.68 23.27 22.69 22.73 21.30 21.71 21.19 21.64 20.93 19.37 19.32 19.07 18.30 16.88 16.80 16.95 16.98 16.11 14.31 11.20 12.26 12.60
35.61 32.31 27.64 24.96 19.76 18.94 18.35 27.28 20.71 25.92 19.31 21.75 23.68 21.84 22.30 22.46 27.49 27.48 20.37 22.76 22.30 24.00 25.68 23.33 22.41 23.00 21.50 22.03 22.43 22.52 22.98 22.90 21.32 20.92 20.29 19.25 19.05 18.77 18.55 18.74 19.51 17.74 16.82 17.86 19.19 17.64 15.97 15.88 14.40 12.23 10.20 9.37 6.41 2.36
33.46 24.75 21.43 21.78 20.42 17.62 16.99 21.57 25.66 26.30 25.00 23.01 18.93 21.34 23.34 24.27 24.21 17.58 16.44 17.48 20.15 21.62 21.46 22.08 23.69 20.53 19.67 18.84 16.86 17.19 19.51 19.85 17.93 17.79 20.36 18.36 16.03 15.81 16.57 15.72 15.21 15.67 16.14 15.60 14.23 12.67 11.99 9.56 8.77 8.22 3.90 -3.46 -7.22 -7.95
20.04 18.41 16.92 12.34 16.68 15.28 10.76 11.45 14.91 18.28 13.75 13.89 12.36 14.51 19.68 19.53 14.02 11.66 12.81 15.82 15.45 14.80 16.26 18.85 18.34 17.91 15.80 14.87 15.37 16.09 18.87 17.86 15.01 13.55 15.22 18.30 16.42 15.18 13.85 12.93 11.48 12.05 12.77 8.66 5.86 3.53 2.71 1.25 -2.03 -5.59 -4.74 -11.39 -1.81 -4.14
19.24 21.81 18.86 22.84 23.22 21.70 20.81 17.85 19.13 20.38 15.10 13.84 17.99 19.19 19.07 11.89 4.87 7.37 14.93 13.31 11.26 14.77 12.66 14.26 15.30 14.33 14.23 15.11 13.21 13.22 14.82 18.20 16.26 12.49 12.95 14.13 13.43 12.18 10.72 9.47 6.52 6.79 7.96 1.58 -4.46 -7.95 -6.68 -7.60 -9.94 -8.49 -10.48 -3.96 0.17 -3.41
20.00 17.98 24.59 28.53 26.65 23.50 18.51 17.96 19.16 13.99 9.09 10.89 13.40 11.61 10.50 4.60 4.00 13.58 18.46 18.84 16.73 16.48 17.99 17.63 17.86 16.30 15.04 14.75 16.11 15.47 14.79 15.07 14.69 13.55 14.25 13.22 12.04 10.26 3.27 -2.52 -1.65 2.69 4.91 -1.24 -7.23 -9.04 -7.76 -10.12 -11.03 -11.21 -13.02 -12.84 -10.30 -10.66
24.34 23.87 19.67 21.30 21.00 18.89 12.54 10.36 8.46 11.87 12.18 21.20 17.31 7.06 2.58 2.82 6.92 15.07 17.29 18.91 18.99 19.48 18.02 17.36 17.00 15.86 13.43 11.20 9.86 8.92 7.98 9.56 13.00 12.24 10.84 9.84 8.77 7.01 4.20 4.86 2.98 10.35 1.64 -0.69 -4.50 -2.70 -5.23 -3.23 -3.59 -4.86 -6.86 -11.57 -8.31 -8.92
22.66 22.27 15.74 12.91 9.72 12.90 18.45 13.46 13.12 19.45 23.10 22.12 10.52 6.59 7.33 12.59 13.56 14.81 16.69 17.82 18.13 15.93 13.19 12.94 13.61 11.16 9.80 7.75 5.29 5.18 4.82 3.07 -1.49 -4.87 -10.30 -10.12 -8.31 -3.27 3.33 4.61 5.83 3.81 -2.89 -2.70 1.84 4.66 1.38 -1.10 -0.52 -6.13 -9.40 -10.66 -3.63 -5.77
14.08 16.31 10.64 3.61 5.36 11.23 16.63 20.85 17.40 18.90 19.44 15.05 13.79 12.73 11.83 10.45 12.69 13.83 13.12 12.74 11.71 10.19 9.67 8.58 8.59 7.10 3.36 -0.55 -0.70 2.36 0.84 -1.09 -0.31 -6.74 -11.75 -11.93 -7.41 -2.43 -5.41 -5.95 -4.32 -0.37 1.47 -0.44 -1.63 -0.31 1.65 -9.23 -7.41 -9.05 -7.45 -7.58 -14.65 -15.38
18.62 11.52 8.90 9.50 12.84 14.17 21.39 24.01 18.52 18.15 8.32 4.41 6.25 2.85 3.38 6.77 6.75 10.89 12.22 9.91 11.84 8.89 6.96 4.28 1.82 -3.59 -1.65 -2.51 -7.22 -10.48 -7.41 -2.76 -2.90 -2.23 -5.26 -8.14 -11.57 -13.20 -12.84 -12.66 -13.02 -11.39 -7.76 -7.95 -8.49 -6.31 -6.68 -8.49 -9.58 -10.12 -9.21 -5.43 -7.22 -11.93
6.21 4.63 5.27 9.37 11.62 16.33 14.23 13.98 18.58 17.91 8.22 5.18 1.64 -3.05 0.54 -0.68 -2.51 4.78 8.34 4.73 5.80 4.47 4.58 1.06 -2.33 1.21 -4.14 -9.21 -11.75 -7.76 -1.16 -1.98 -1.29 -1.62 -2.51 -4.68 -5.41 -4.32 -9.03 -11.75 -15.20 -15.38 -16.47 -17.37 -17.74 -15.02 -14.65 -14.11 -13.02 -7.76 -4.58 -5.99 -9.40 -12.48
9.25 3.10 0.71 2.69 10.98 10.29 7.51 5.44 12.44 9.01 5.79 5.50 3.17 2.48 -0.03 0.52 -1.66 3.11 9.05 6.68 3.33 -1.96 -3.59 -3.59 -2.33 0.03 1.54 -1.52 -4.50 -5.97 -4.51 -8.67 -9.58 -1.06 -1.60 0.21 -3.41 -3.59 -9.94 -12.66 -14.29 -14.29 -12.84 -15.38 -17.19 -19.00 -13.38 -13.75 -16.28 -16.10 -12.12 -9.40 -9.23 -13.38

GFSWCAN_sfc_wetblb_039.txt.gz
Wetbulb
44.06 44.21 44.21 43.98 43.93 43.91 44.11 44.43 44.17 44.27 44.26 44.36 44.89 45.20 45.36 45.55 46.00 45.15 42.17 47.64 45.45 41.58 42.12 47.01 46.43 43.97 44.14 42.84 38.43 42.82 45.26 43.33 38.22 34.68 34.19 32.27 29.38 34.56 32.54 35.76 33.40 33.10 29.37 24.80 25.43 21.59 25.74 40.56 39.58 34.47 36.63 39.10 40.88 40.36
43.10 43.40 43.70 43.58 43.53 43.60 43.57 43.57 43.60 43.91 43.93 44.25 44.75 45.03 45.34 45.93 46.46 45.46 40.65 46.48 49.49 43.64 42.55 47.07 46.65 47.71 47.06 46.66 44.65 44.34 43.87 44.32 43.85 39.92 36.93 34.88 32.79 28.59 32.70 29.36 38.29 32.41 35.20 32.27 33.43 32.22 39.15 40.06 39.53 40.75 41.41 41.31 41.39 42.22
43.71 43.65 43.66 43.65 43.68 43.74 43.89 43.96 44.13 44.17 44.35 44.54 44.94 45.41 45.62 45.86 46.26 45.67 42.85 47.46 45.99 41.57 41.39 42.83 43.97 48.86 51.00 49.87 51.27 44.14 44.08 48.32 47.28 47.45 42.36 38.55 34.62 33.66 30.24 30.54 34.05 37.95 40.57 35.23 36.03 39.03 39.96 40.69 41.12 41.60 42.33 41.56 41.49 42.77
43.93 43.93 44.00 43.93 43.96 44.01 44.25 44.36 44.56 44.78 44.73 45.13 45.24 45.36 45.45 45.86 46.25 46.41 44.21 47.66 45.77 43.77 36.80 41.70 51.96 48.92 53.21 53.32 52.22 50.79 49.81 50.82 48.98 47.21 40.19 35.83 33.08 40.12 31.03 36.22 35.62 38.21 40.23 37.14 36.16 38.80 40.10 40.12 39.15 38.76 38.32 38.63 37.77 38.05
43.74 43.90 44.00 43.76 43.95 44.10 44.73 43.76 44.54 45.10 45.41 45.24 45.29 45.45 45.94 46.18 46.51 46.55 47.03 47.27 48.86 42.51 38.49 41.88 47.51 50.21 53.23 53.12 51.66 51.89 50.79 48.79 43.83 39.70 32.86 35.07 39.45 40.20 36.73 36.02 34.10 39.96 38.51 35.29 33.76 40.95 39.49 39.29 39.27 39.44 37.68 36.78 37.03 36.12
44.08 44.17 43.94 44.10 44.62 44.81 44.96 44.93 44.84 44.76 44.84 45.79 45.88 45.74 45.97 46.42 47.19 45.13 39.68 45.24 48.85 49.21 42.06 35.73 44.93 48.14 51.34 51.68 51.40 49.60 50.19 48.34 45.80 42.34 37.72 42.08 44.53 41.64 34.93 30.96 39.44 40.97 41.99 41.49 40.48 43.70 39.95 38.81 37.86 37.90 36.14 35.52 35.56 34.63
44.05 44.28 44.47 44.58 44.87 45.23 45.30 45.53 45.51 45.79 45.79 46.14 46.75 47.02 47.11 46.77 45.48 40.83 38.31 42.50 47.08 48.99 41.73 35.80 36.61 45.18 51.23 48.60 47.86 48.19 49.05 46.31 47.70 44.85 39.76 40.65 41.31 39.29 32.57 30.37 39.89 40.61 40.84 39.76 39.49 38.95 35.87 36.65 34.36 36.08 35.69 35.47 35.57 34.43
43.84 44.12 44.54 45.02 45.19 44.94 44.97 45.09 45.68 46.25 46.23 46.55 46.50 46.66 46.75 46.71 45.13 40.44 48.46 46.78 48.33 45.96 44.53 35.23 35.28 39.57 48.83 43.78 41.16 46.65 42.56 45.86 44.54 42.13 38.02 36.33 39.40 34.06 34.59 37.86 38.38 39.78 39.59 39.16 38.16 39.71 37.86 35.94 35.18 34.43 34.78 34.25 32.79 32.06
44.34 44.30 44.53 44.73 44.80 44.47 44.61 44.93 45.20 45.83 46.23 46.70 46.59 46.86 46.21 44.23 38.62 41.78 49.15 49.50 51.37 47.25 38.14 34.15 34.49 34.04 44.60 40.03 41.15 39.47 42.39 36.67 42.39 36.32 37.05 39.13 33.92 33.96 37.39 37.97 37.85 39.11 38.33 35.60 36.15 35.63 35.37 33.97 33.21 33.31 33.04 32.17 30.23 29.29
43.64 43.84 44.08 44.27 44.20 43.98 44.15 44.37 44.97 45.65 46.41 46.78 45.10 42.86 36.29 43.18 47.89 47.36 46.64 42.05 43.70 44.24 42.54 35.25 40.22 37.05 43.48 35.78 35.53 36.41 35.37 34.67 34.67 37.05 38.16 34.97 34.01 35.44 35.83 37.67 37.76 37.44 37.07 36.33 33.55 32.20 32.86 32.88 32.31 32.34 31.99 31.69 30.52 28.91
43.68 43.69 43.66 43.84 43.74 43.65 43.92 44.40 45.20 45.96 46.57 44.52 40.27 38.99 47.43 48.57 45.80 40.73 34.90 34.84 36.31 33.37 36.23 37.71 39.17 38.38 41.89 35.53 34.11 34.43 33.93 33.15 33.12 35.15 35.01 32.30 32.42 34.26 37.00 36.94 37.92 38.26 38.39 38.86 38.51 37.10 36.64 35.31 33.51 32.69 31.04 30.02 29.48 29.23
43.88 44.00 43.74 43.54 43.78 44.35 44.36 44.27 45.41 44.88 45.69 44.38 46.87 47.83 45.42 42.50 37.51 32.97 31.37 32.48 33.19 32.35 34.65 35.04 36.50 40.27 36.59 40.66 35.12 34.93 32.95 32.16 31.05 36.10 33.71 31.19 33.13 35.08 37.62 37.73 38.58 38.84 38.22 37.95 38.26 36.88 36.40 35.29 34.05 31.65 29.91 29.26 29.23 29.59
44.95 44.10 43.81 43.79 43.94 44.43 44.37 44.61 45.50 46.82 47.65 46.64 41.36 35.83 37.87 32.82 30.92 30.25 28.34 30.43 31.14 32.24 34.13 34.11 33.77 33.95 35.58 36.83 32.03 28.66 28.61 29.88 33.22 32.38 31.00 31.01 34.91 37.23 37.59 37.14 36.93 38.15 37.46 36.28 35.33 34.88 33.71 31.89 31.13 29.94 28.77 29.22 27.68 26.92
46.13 46.12 45.41 44.78 44.60 45.03 45.20 45.71 46.30 46.53 43.45 36.21 32.09 28.12 29.85 27.45 28.61 28.62 30.49 31.17 31.74 31.93 32.86 33.41 33.22 33.57 33.22 32.58 31.76 26.09 31.77 31.53 27.97 25.76 26.69 31.32 34.13 35.70 35.74 35.56 34.54 33.50 32.95 32.85 32.27 31.59 29.97 28.54 27.39 27.75 27.23 26.62 25.01 24.09
44.41 44.76 45.21 45.94 46.37 46.37 46.33 46.32 45.88 42.82 37.04 32.06 32.00 26.66 27.98 31.20 31.52 31.71 32.11 32.29 32.77 33.71 33.22 33.90 33.74 35.01 32.45 31.99 31.69 31.22 30.11 27.18 26.58 20.98 29.90 32.30 34.09 34.15 33.15 32.44 31.62 30.76 30.72 30.78 30.66 29.45 28.48 27.20 26.28 26.18 26.66 25.70 23.67 21.82
43.96 43.31 42.74 44.80 44.86 44.78 44.13 42.75 40.61 38.44 32.40 30.65 30.74 29.01 30.57 30.08 30.29 31.22 31.49 31.94 34.57 32.85 32.67 32.29 29.53 26.69 30.61 31.07 29.77 27.36 27.39 24.63 26.79 29.32 31.73 32.76 32.32 32.33 32.07 31.92 31.95 31.69 30.55 29.76 29.55 29.08 28.06 27.20 25.96 25.72 25.72 23.20 21.03 19.34
42.76 39.19 42.39 43.97 43.59 43.14 42.90 39.06 35.47 31.82 31.21 28.63 28.90 31.88 31.19 30.81 30.07 30.93 31.28 31.60 34.65 33.21 31.52 27.91 28.97 27.19 31.72 26.72 24.86 27.37 23.81 26.90 29.64 31.34 32.44 32.57 31.96 31.84 32.16 31.84 31.40 30.99 29.81 29.21 28.59 28.35 27.24 26.47 24.54 23.47 22.37 22.65 22.65 20.71
37.79 39.63 43.55 43.88 43.27 42.07 39.94 37.17 32.90 31.53 28.97 30.75 28.52 30.00 29.16 28.76 28.02 28.52 30.15 32.06 32.58 31.93 31.04 27.43 29.44 22.50 18.73 18.50 19.10 23.26 25.78 31.11 31.52 31.53 31.69 32.15 32.61 32.52 33.34 32.62 32.91 32.37 31.26 30.49 28.71 27.14 26.32 24.67 24.15 22.93 23.45 23.54 21.85 21.36
38.70 39.57 41.86 42.58 41.29 37.62 33.68 33.75 33.79 28.52 29.50 31.19 31.43 31.50 30.15 28.45 28.66 28.74 29.22 30.96 32.03 32.08 29.89 26.70 20.93 19.29 19.05 21.88 21.43 23.01 24.12 27.70 30.01 30.92 31.46 31.90 32.56 33.01 33.03 32.35 31.76 30.24 29.57 28.37 26.76 25.07 23.82 23.69 23.06 22.86 21.46 21.18 19.74 19.13
40.56 40.06 40.19 40.59 40.39 32.65 30.53 30.54 35.19 30.81 29.07 30.45 31.18 27.05 27.70 26.44 27.03 26.52 25.92 27.39 27.65 26.70 22.75 19.62 18.78 19.93 20.66 22.02 23.31 24.30 23.85 26.22 30.54 29.30 27.98 27.69 29.26 28.98 28.54 28.66 26.60 25.64 24.31 23.48 22.95 22.29 21.40 20.61 20.64 19.44 18.49 17.70 16.93 16.11
36.32 36.74 36.38 35.40 32.35 31.81 29.48 29.38 30.37 32.18 30.96 29.61 29.41 28.38 26.90 26.06 22.69 21.44 21.52 24.95 21.89 21.96 19.98 21.78 21.03 22.49 24.68 24.04 23.81 24.83 23.77 23.32 21.44 24.43 25.90 22.51 23.86 24.01 23.77 24.09 23.67 22.56 20.93 19.98 18.57 17.91 18.08 17.54 18.29 18.00 16.10 13.52 13.21 14.69
32.43 36.26 26.25 29.22 26.12 27.20 27.00 28.55 27.90 27.73 27.91 26.94 26.00 27.19 22.96 20.37 17.54 21.13 22.98 18.78 18.69 20.30 21.57 20.94 21.16 21.22 20.23 20.12 20.82 22.18 23.80 23.18 22.15 20.88 20.43 20.68 18.75 18.96 18.67 20.07 19.54 17.59 17.55 17.31 17.31 15.66 15.81 17.07 17.18 15.82 13.42 12.61 14.52 12.75
33.52 30.96 26.02 25.07 20.33 19.28 17.84 26.41 19.62 24.56 17.96 18.86 21.25 19.45 19.29 17.95 22.43 24.36 16.32 19.71 19.16 21.77 23.63 21.90 20.79 20.76 19.39 20.02 19.92 20.37 20.77 19.98 18.72 18.59 18.06 17.27 17.08 16.80 15.86 16.41 17.54 16.15 15.06 15.56 17.07 15.48 14.19 14.69 12.86 11.14 10.60 10.32 8.75 5.15
31.01 20.67 17.07 15.62 18.75 11.37 14.70 17.44 23.69 22.22 18.58 15.38 16.37 18.99 20.72 20.50 19.41 14.20 12.50 14.19 17.23 19.37 19.43 19.05 19.88 17.66 17.34 16.68 15.09 15.98 17.47 18.39 16.36 16.31 17.72 15.82 13.43 12.75 13.45 12.79 12.61 12.73 13.04 12.64 11.10 9.27 8.31 6.96 6.76 6.36 3.22 -0.61 -2.17 -3.93
19.70 17.13 15.51 11.28 14.28 13.57 8.61 8.29 11.33 15.22 8.12 9.19 9.93 17.24 20.89 16.63 9.08 7.93 8.57 12.88 13.21 13.01 14.31 16.22 15.58 15.24 13.00 13.08 14.14 14.90 17.10 15.58 13.01 11.74 13.09 16.44 14.07 13.08 11.33 10.35 9.70 10.18 10.44 6.27 3.57 2.35 1.87 -0.13 -2.57 -4.69 -3.12 -10.44 -2.16 -6.81
14.68 20.19 17.77 16.71 14.99 13.14 10.30 10.23 9.69 12.70 9.76 11.73 14.73 18.36 13.94 5.53 1.86 3.84 12.57 10.92 10.09 12.84 10.23 12.00 11.37 13.02 12.89 13.49 11.72 11.64 12.55 14.96 13.13 9.25 9.88 10.94 9.98 7.99 5.87 3.87 3.95 6.05 5.24 -2.61 -6.39 -9.17 -8.44 -9.71 -12.43 -9.53 -12.07 -8.26 -6.81 -11.16
10.14 10.43 22.48 25.89 21.34 19.03 12.22 10.82 15.28 10.79 13.48 14.24 16.23 3.54 3.96 -2.33 -0.83 11.33 17.17 17.25 14.51 15.18 17.08 16.35 15.48 13.18 11.63 11.45 12.43 12.26 11.96 12.61 11.58 10.83 10.57 9.19 8.10 7.56 2.11 -3.00 -2.28 3.30 4.78 -2.91 -8.45 -8.80 -6.45 -8.80 -11.89 -10.80 -11.52 -17.51 -16.60 -15.69
17.35 16.43 9.72 11.01 11.93 14.74 4.15 3.34 6.23 10.89 10.05 17.32 11.80 0.38 -3.42 -3.00 3.93 13.14 14.15 18.40 17.45 17.23 15.36 13.47 11.79 9.89 7.77 6.80 6.45 7.48 8.84 8.86 8.00 6.66 5.49 5.74 4.64 3.81 2.01 4.81 5.87 8.91 2.25 -0.89 -3.37 -7.35 -12.07 -6.45 -5.54 -6.27 -10.80 -11.16 -8.26 -14.42
21.74 18.44 14.55 6.98 7.87 10.94 15.62 9.25 9.77 18.45 20.97 14.36 1.90 3.61 4.36 9.57 9.22 10.43 13.99 15.68 15.30 13.39 10.25 7.56 6.75 6.04 5.95 4.51 2.77 1.52 1.50 -2.15 -4.61 -8.61 -12.97 -14.61 -12.07 -6.05 -4.84 -7.72 -7.90 -7.17 -6.27 -4.82 -0.83 5.68 6.51 1.47 -3.55 -10.62 -10.62 -12.97 -8.08 -9.17
10.88 11.96 7.31 -0.51 5.49 11.04 13.80 11.97 5.87 6.96 14.11 9.60 10.90 10.31 9.21 7.43 10.58 13.19 12.23 10.53 8.20 5.61 2.75 0.43 -1.21 -0.12 -6.08 -6.99 -6.99 -1.62 -2.48 -8.29 -7.88 -8.91 -12.97 -11.89 -8.11 -6.68 -15.69 -15.51 -15.51 -13.15 -13.52 -13.52 -11.70 -9.38 -2.46 -9.89 -7.17 -11.16 -13.16 -12.79 -15.51 -18.23
10.10 8.21 6.24 6.56 10.52 11.45 11.98 6.22 8.29 5.77 1.32 -0.45 -2.34 -1.32 -0.02 4.98 5.54 9.38 9.28 6.76 5.68 2.29 1.28 -3.77 -7.72 -13.88 -9.89 -10.62 -13.52 -13.34 -10.07 -3.44 -5.90 -4.45 -5.90 -8.44 -9.17 -10.80 -9.17 -11.70 -17.14 -18.78 -20.04 -20.95 -21.49 -20.04 -16.60 -17.14 -18.23 -17.14 -14.42 -12.07 -10.65 -11.52
4.65 -0.83 4.12 5.15 9.18 12.13 17.37 12.96 10.30 3.31 2.16 0.76 -1.25 -7.35 -1.64 -5.63 -5.72 1.96 4.11 0.82 -1.52 -5.73 -4.09 -9.35 -8.62 -4.27 -7.17 -10.80 -13.34 -11.70 -6.63 -8.62 -10.44 -12.07 -11.89 -13.34 -11.89 -12.25 -13.88 -13.15 -17.32 -18.96 -18.23 -20.04 -22.04 -20.77 -19.32 -19.32 -19.14 -21.31 -21.86 -18.96 -14.61 -12.61
0.07 -3.21 -4.03 0.88 6.37 6.18 3.97 4.25 10.29 4.94 2.97 0.70 -0.69 -1.96 -3.21 -4.81 -7.02 -0.95 3.03 -2.32 -4.64 -8.39 -9.20 -11.34 -12.61 -10.80 -4.89 -6.96 -8.92 -12.25 -10.98 -14.61 -15.51 -5.90 -4.09 -2.28 -5.36 -8.99 -14.97 -18.05 -19.86 -20.04 -18.05 -19.86 -20.41 -19.86 -19.50 -19.32 -22.04 -23.49 -18.96 -14.79 -13.02 -11.94

GFSWCAN_sfc_wetblb_042.txt.gz
Wetbulb
46.61 46.52 46.36 46.36 46.24 46.54 46.64 46.15 45.95 46.03 46.29 46.01 45.88 45.68 45.95 46.19 46.40 42.40 40.72 44.29 40.28 40.04 41.71 45.44 44.75 41.06 41.61 41.58 35.87 38.96 40.04 41.34 37.18 34.83 34.48 32.39 29.29 34.27 32.78 35.62 34.59 34.03 30.00 25.09 24.81 22.32 27.11 39.07 37.98 34.19 36.81 37.47 38.94 39.18
43.75 44.18 44.53 44.73 44.89 45.23 45.40 45.55 45.69 45.76 45.68 45.42 45.48 45.67 45.79 45.74 46.09 43.87 39.25 44.56 45.72 40.55 42.16 45.77 45.03 45.45 44.35 45.03 42.51 41.55 40.38 41.45 41.68 38.64 34.97 32.71 30.57 27.94 32.55 30.58 37.03 33.24 36.17 32.90 34.03 33.70 39.24 39.26 38.33 39.27 39.78 39.16 39.51 40.13
42.48 42.84 43.30 43.90 44.25 44.66 44.90 44.84 44.93 45.21 45.07 44.74 45.00 45.59 45.48 45.52 45.93 44.35 41.38 42.94 41.38 39.07 39.84 41.09 40.49 47.07 47.46 47.38 48.51 41.35 42.03 46.48 43.87 44.79 39.34 37.10 32.41 33.94 30.75 32.02 34.50 36.07 38.29 34.78 35.40 38.17 38.90 40.28 40.28 40.59 41.20 40.57 41.51 41.77
43.76 43.69 43.66 43.68 43.68 43.80 44.00 44.02 44.04 43.99 43.85 43.94 44.27 44.89 44.96 45.28 45.57 44.78 40.26 44.14 41.28 42.07 33.70 36.96 48.64 46.54 51.54 50.22 48.71 48.30 46.84 48.48 47.27 44.62 38.43 34.82 33.77 39.12 32.33 37.13 36.21 37.52 38.34 36.33 34.91 38.51 38.64 39.89 39.13 38.58 37.91 38.51 38.02 37.44
43.89 43.73 43.90 43.89 43.90 43.85 43.83 43.69 43.73 43.71 44.02 44.30 44.51 44.58 44.89 45.47 45.80 44.29 43.59 44.16 46.32 41.38 35.86 37.86 44.58 46.97 50.65 51.48 50.51 50.27 48.93 46.18 42.89 39.48 33.23 34.71 38.91 38.29 35.27 37.25 34.07 39.22 37.58 35.22 35.03 39.99 39.52 39.11 38.21 38.41 37.52 36.30 36.72 35.83
43.42 43.63 44.13 44.27 44.03 43.90 44.10 44.16 44.17 44.05 44.28 44.49 44.44 44.84 45.10 45.19 45.55 42.86 37.78 45.18 45.80 47.07 39.56 33.59 44.37 44.26 48.40 52.00 51.28 49.04 49.32 45.80 43.28 39.98 35.66 40.93 44.40 41.79 35.76 33.60 39.88 40.75 41.92 41.16 40.78 42.12 38.55 37.99 36.71 37.11 35.80 35.25 35.52 35.09
43.59 44.01 44.19 44.29 43.63 43.81 44.51 44.77 44.68 44.43 44.57 44.59 44.71 45.08 45.19 45.43 43.03 39.74 38.26 43.14 48.14 48.35 40.48 33.77 33.99 43.64 49.87 50.44 47.87 47.25 46.43 44.55 44.34 41.08 36.10 39.72 40.12 40.93 31.49 32.84 39.44 40.44 41.76 40.23 39.46 39.17 36.07 37.33 34.86 35.47 34.81 34.60 34.95 33.58
44.20 44.49 44.61 44.89 45.14 44.73 44.95 44.72 45.29 45.10 45.11 44.82 45.01 45.31 45.47 45.64 44.88 39.97 44.43 47.04 47.91 44.22 42.15 32.74 34.54 38.53 46.97 43.54 42.38 45.99 41.62 41.77 42.55 39.05 36.08 36.20 39.22 33.69 34.28 37.53 38.40 38.45 38.90 37.92 37.44 38.07 38.17 35.54 34.97 33.74 33.85 33.48 32.09 31.34
44.16 44.51 44.41 44.55 44.89 45.06 45.17 45.00 45.42 45.77 45.18 45.01 45.26 45.20 45.23 43.00 39.09 39.79 46.80 46.89 48.34 43.16 33.48 32.06 33.14 33.06 43.41 40.00 41.95 40.84 39.92 34.90 41.56 34.22 36.96 38.24 32.92 34.54 35.64 36.62 37.91 38.14 38.50 34.91 35.48 35.32 34.97 33.19 32.41 32.61 32.45 31.81 31.08 30.99
44.15 44.48 44.13 44.20 44.45 44.51 45.04 45.56 45.58 46.11 45.95 45.90 44.26 41.65 35.25 38.42 46.45 46.56 44.14 41.14 41.05 43.28 42.33 34.60 39.69 37.11 40.49 34.36 35.49 35.82 36.04 34.59 34.59 36.45 39.77 34.00 34.52 36.49 36.31 37.95 38.18 36.79 35.97 35.98 32.64 31.20 32.09 31.30 31.11 31.38 31.56 32.21 32.19 31.25
44.52 44.34 44.18 44.21 44.25 44.30 44.64 45.38 45.84 46.03 45.52 40.49 38.46 36.94 41.98 47.41 44.02 40.09 34.16 33.47 35.91 33.59 36.09 37.17 38.13 38.46 41.90 34.43 33.66 34.18 33.15 33.50 32.76 35.19 33.62 32.19 32.68 34.91 37.19 37.92 38.30 37.78 37.41 37.68 37.36 36.04 35.46 33.76 32.15 30.91 30.77 30.82 30.86 30.89
44.64 44.56 44.32 44.16 43.96 44.27 44.52 45.13 45.69 43.50 40.31 40.93 44.67 46.47 44.12 39.74 35.74 32.88 31.45 32.08 32.08 32.49 34.31 34.75 36.19 40.10 36.56 40.97 35.27 34.55 32.41 32.19 31.28 36.11 33.82 31.48 32.88 35.88 36.66 36.71 37.27 37.99 37.25 36.79 36.62 35.08 34.55 34.14 33.04 31.31 30.13 29.72 29.70 29.00
43.99 44.04 44.13 43.99 44.03 44.35 44.45 44.74 45.42 45.57 46.29 45.59 40.07 35.82 35.69 31.96 30.35 29.05 27.12 30.21 30.72 32.03 33.86 33.86 33.50 34.71 35.98 36.94 33.12 32.20 31.28 30.71 33.66 32.47 30.35 30.37 34.81 36.78 37.23 37.02 36.46 37.48 36.81 35.99 35.41 34.50 33.10 31.73 31.73 30.56 29.24 29.33 28.25 26.75
43.69 43.67 43.97 44.10 44.53 44.58 44.67 45.07 45.17 45.16 42.61 34.17 31.76 27.32 25.08 23.83 28.07 28.46 30.01 31.10 31.49 31.82 32.58 33.14 32.96 33.63 32.61 32.88 31.79 31.86 31.48 32.00 27.95 25.84 26.46 31.04 33.63 33.83 34.74 35.49 34.52 33.35 32.96 32.66 31.82 31.37 30.22 29.68 28.83 28.74 28.19 27.42 26.55 25.45
43.73 43.92 43.96 43.84 44.24 44.54 45.00 45.06 44.41 42.07 35.93 31.60 31.42 25.92 26.88 30.92 31.46 31.48 31.85 32.20 32.53 33.45 32.59 33.14 33.38 35.00 32.32 31.09 31.43 31.21 29.68 26.05 26.56 25.35 28.85 31.82 32.82 32.82 32.30 32.16 31.73 31.12 30.88 30.19 29.72 28.01 27.42 27.56 26.73 25.57 25.44 25.36 24.56 22.99
45.23 44.51 44.26 44.78 45.46 45.52 44.27 43.29 41.46 39.04 33.17 31.66 30.14 28.01 30.32 29.37 28.30 29.64 30.23 30.83 34.09 32.71 32.91 32.78 30.84 30.98 30.32 30.30 26.69 24.50 25.61 21.34 24.92 28.63 31.36 32.17 31.76 31.57 31.68 31.56 31.33 31.08 30.30 29.76 29.18 28.35 27.44 26.23 25.35 23.90 23.28 22.28 21.43 20.56
42.88 40.10 44.60 44.77 44.16 43.62 43.33 39.66 36.50 31.98 29.98 28.53 28.03 28.66 27.69 28.60 26.23 27.32 28.59 29.46 33.06 33.29 30.89 30.67 22.18 22.16 27.82 23.63 20.03 22.61 19.97 24.84 26.26 30.44 31.63 31.99 31.37 30.98 31.30 30.86 30.52 30.45 29.76 29.17 28.78 28.12 26.66 26.26 24.62 23.01 20.81 21.42 22.01 20.51
38.61 41.48 44.15 44.57 44.03 41.99 39.76 37.97 32.01 31.04 28.70 30.06 25.19 26.55 26.19 25.68 23.84 24.49 27.46 30.14 31.87 31.13 27.53 24.74 27.32 18.54 15.55 15.46 15.82 20.15 22.63 24.23 30.24 30.65 30.83 31.60 31.81 31.81 32.31 31.18 31.17 30.33 29.27 28.71 27.77 26.57 25.77 24.86 24.11 22.82 22.52 21.70 20.90 20.79
39.77 41.28 43.65 43.78 42.57 37.71 32.58 32.83 32.54 26.62 26.71 28.60 27.37 28.38 26.65 25.37 26.38 26.63 27.49 28.97 29.65 29.64 27.46 23.39 18.11 16.06 16.40 19.40 18.40 19.81 21.08 22.00 26.13 27.94 26.64 28.42 30.91 31.52 31.33 30.89 30.31 28.95 27.74 27.33 26.23 24.64 24.29 24.17 22.58 22.39 22.10 21.61 19.53 17.86
40.17 39.46 40.69 42.32 41.81 34.27 31.26 31.04 34.34 29.67 28.03 26.83 27.03 23.07 23.00 22.29 23.29 23.47 23.85 25.21 25.62 23.86 19.80 17.12 16.32 17.84 18.58 19.58 20.64 21.63 21.36 22.79 25.43 25.08 22.05 22.57 24.87 24.64 24.65 24.90 24.07 24.13 23.18 22.97 22.47 22.22 20.89 19.43 19.65 19.24 19.29 19.30 18.22 16.27
35.51 35.18 35.41 34.88 32.21 31.76 29.64 29.63 30.68 31.34 30.94 28.48 28.48 26.63 23.61 22.72 19.86 18.46 18.67 22.29 18.88 18.58 16.25 19.11 18.92 20.53 22.01 21.91 21.67 22.89 21.25 21.25 19.12 21.00 21.04 18.70 20.99 21.90 21.53 21.64 21.44 20.49 18.70 18.10 17.05 16.74 17.03 16.55 16.98 16.70 15.46 14.66 15.22 15.54
31.16 34.77 27.29 29.59 26.20 26.86 26.01 27.18 27.23 26.38 26.53 25.32 23.43 24.62 19.41 14.12 13.59 18.04 20.29 15.64 16.00 18.01 19.58 18.78 19.06 19.86 18.70 18.78 19.47 20.69 21.56 20.74 19.49 18.19 17.77 17.73 15.39 15.74 16.18 17.60 17.10 15.64 15.59 15.20 15.39 14.28 14.25 14.84 14.89 14.06 12.93 13.05 14.36 12.33
32.06 29.70 24.44 24.18 19.94 18.93 17.42 25.76 18.92 23.83 16.41 16.08 18.97 17.98 16.10 17.06 19.75 21.55 11.26 16.30 16.60 19.78 20.37 20.63 19.55 19.38 18.04 18.41 18.13 18.25 19.04 17.94 16.22 15.81 15.02 13.94 13.74 13.65 12.71 12.43 13.72 12.92 11.67 12.20 13.52 12.16 10.68 11.67 10.44 9.16 9.10 9.06 8.31 5.63
29.47 19.07 14.73 13.68 17.10 8.96 12.43 13.18 21.82 19.72 15.99 13.51 13.85 14.21 18.03 16.61 16.14 10.72 9.56 11.45 15.32 17.44 16.90 17.06 17.79 15.71 15.65 14.89 13.41 13.58 15.16 15.88 13.93 14.24 15.11 12.87 10.46 9.95 10.36 9.57 9.41 9.24 9.88 9.63 8.38 6.48 5.75 3.99 3.73 3.28 0.66 -2.63 -2.99 -5.09
19.71 16.89 14.46 9.89 11.98 11.28 5.97 6.07 10.04 13.22 5.77 7.16 11.51 15.81 17.17 13.59 5.73 4.29 6.22 11.55 13.21 11.71 11.91 14.45 14.29 13.40 11.33 11.25 11.97 12.49 14.35 13.04 10.23 8.47 9.70 12.72 10.60 9.77 8.17 7.96 7.47 7.61 7.91 3.47 -0.60 -2.96 -5.27 -7.83 -9.80 -11.63 -9.10 -15.24 -5.27 -9.98
15.52 18.34 16.89 7.77 10.47 11.71 7.61 6.27 14.05 5.25 6.77 9.77 9.41 15.29 8.78 2.73 -0.74 2.14 11.04 9.90 8.52 12.17 9.20 10.29 12.18 11.12 10.69 11.34 9.45 9.14 10.34 11.98 10.38 6.54 7.31 8.15 6.90 3.05 0.88 0.26 0.13 4.48 4.18 -7.44 -9.81 -10.70 -8.71 -10.52 -13.97 -10.52 -13.97 -9.98 -11.07 -17.96
10.41 8.03 19.45 22.34 18.80 16.32 9.04 8.29 12.15 7.98 12.15 13.92 8.55 -1.22 -0.68 -6.19 -3.82 9.64 15.53 14.89 13.21 13.68 13.29 11.31 11.03 9.35 8.76 9.94 10.75 10.36 9.81 9.35 8.10 7.24 7.58 6.32 5.60 5.53 1.43 -3.82 -2.37 2.74 5.28 0.22 -4.92 -7.26 -7.26 -9.62 -11.79 -12.34 -14.51 -18.86 -19.23 -17.41
12.07 14.96 7.93 7.86 9.04 12.33 0.72 3.25 8.00 6.57 9.99 16.08 5.81 -2.03 -8.72 -5.81 1.32 10.39 13.30 16.10 13.94 13.03 11.35 9.88 8.30 6.92 5.30 5.29 6.25 6.08 5.24 3.66 4.84 2.84 2.24 2.02 0.76 -1.26 -3.69 -4.58 -4.20 2.89 -7.82 -8.17 -5.99 -8.35 -9.25 -8.71 -5.63 -7.44 -10.16 -11.61 -10.52 -13.79
11.54 10.84 11.76 3.23 5.45 9.53 11.92 5.77 11.13 16.14 15.89 8.79 -4.93 -0.91 1.59 7.65 6.56 7.70 12.13 12.94 13.64 11.08 7.49 5.81 4.19 2.80 1.89 1.47 -1.14 -1.14 -1.48 -6.75 -6.93 -10.61 -15.06 -15.42 -13.61 -6.44 -5.46 -13.42 -16.14 -14.87 -16.87 -13.24 -5.63 0.17 3.04 0.35 -2.18 -7.26 -8.71 -9.25 -8.19 -10.89
8.88 10.15 5.69 1.80 5.53 11.74 9.01 7.69 3.44 -1.28 9.61 6.17 8.55 8.48 6.92 5.19 8.58 11.72 9.88 8.24 5.42 -0.02 -8.53 -10.52 -10.89 -6.02 -11.97 -10.89 -10.34 -5.13 -6.00 -13.42 -13.26 -11.31 -15.42 -15.06 -10.36 -7.47 -12.88 -16.32 -17.96 -17.23 -20.86 -22.67 -22.13 -16.51 -7.80 -16.32 -12.34 -17.43 -17.98 -16.74 -18.88 -19.04
7.54 6.58 4.68 5.27 6.49 7.87 6.12 -2.18 -3.16 -0.95 -4.24 -3.73 -7.80 -6.02 -2.98 0.86 3.31 6.14 5.42 0.87 -1.11 -7.08 -6.72 -9.44 -9.98 -16.14 -12.70 -13.42 -16.51 -16.14 -12.34 -11.63 -13.24 -10.89 -11.79 -14.87 -14.69 -16.14 -17.05 -17.23 -18.14 -21.76 -23.58 -23.58 -23.94 -23.94 -23.03 -24.12 -25.21 -25.57 -23.58 -19.78 -18.71 -17.59
2.32 -2.55 2.78 2.89 10.53 8.50 7.05 6.71 -1.46 -0.56 -4.72 -7.26 -3.82 -12.34 -8.57 -9.49 -9.62 -1.87 -0.61 -3.71 -8.44 -9.07 -9.98 -14.69 -12.88 -8.53 -11.07 -12.70 -16.32 -17.41 -11.97 -15.06 -15.24 -15.06 -13.61 -14.33 -16.32 -18.14 -18.50 -18.14 -23.21 -23.76 -23.03 -23.94 -25.21 -24.30 -23.94 -23.03 -25.57 -27.20 -28.11 -25.57 -21.58 -21.76
-4.29 -7.27 -6.25 -0.77 5.06 5.98 4.85 6.52 5.05 2.42 -1.85 -2.57 -4.00 -6.35 -9.99 -9.06 -9.31 -3.23 -0.66 -8.59 -9.13 -11.40 -11.84 -14.15 -14.87 -14.51 -9.99 -12.70 -14.87 -17.23 -15.06 -18.50 -19.04 -8.89 -6.72 -5.08 -10.16 -11.25 -18.86 -22.67 -24.66 -25.03 -22.31 -23.76 -25.93 -26.48 -23.58 -23.03 -24.48 -26.11 -25.75 -26.66 -24.66 -24.30

GFSWCAN_sfc_wetblb_045.txt.gz
Wetbulb
46.30 45.66 45.76 45.65 45.95 46.30 46.55 46.48 46.38 46.51 47.07 46.50 46.16 46.09 46.38 46.70 46.69 44.29 41.51 44.99 41.39 38.57 40.32 43.18 44.05 41.34 41.54 40.74 36.36 40.03 40.83 41.36 39.91 35.00 35.41 35.31 33.94 37.87 36.93 38.21 36.68 36.30 34.20 32.79 31.82 32.74 32.58 42.28 40.11 38.83 44.36 42.60 43.23 43.60
45.18 46.00 45.71 45.78 45.87 46.02 46.30 46.42 46.76 46.53 46.07 46.13 46.04 46.18 46.47 46.31 46.53 44.58 39.62 44.33 44.65 38.90 39.64 44.42 45.56 46.39 44.91 46.21 42.49 43.00 41.14 40.95 41.72 39.43 37.76 36.42 35.22 33.80 36.94 34.94 38.85 36.61 39.52 37.89 38.71 39.18 44.71 43.02 45.71 44.74 43.94 44.41 43.35 44.41
44.06 44.71 45.02 45.60 45.97 46.29 46.45 46.32 45.91 45.30 45.46 46.34 46.30 46.15 46.27 46.51 46.53 43.52 41.19 42.11 40.36 35.20 37.48 40.89 41.12 47.26 48.29 46.82 49.58 41.40 42.70 46.37 44.04 46.54 41.35 40.45 35.51 37.21 33.22 34.50 37.42 38.87 40.78 40.33 40.79 42.65 42.68 43.39 44.22 44.50 44.45 44.46 44.12 45.38
43.67 43.88 44.47 44.89 45.09 45.04 44.97 45.17 45.08 45.61 45.49 45.65 46.04 46.06 46.36 46.02 45.36 44.29 41.34 42.24 40.90 38.77 32.57 37.05 47.36 44.26 50.21 49.75 48.16 48.83 47.90 49.43 48.65 46.27 39.82 37.23 36.99 41.18 36.70 40.20 39.17 41.00 41.17 39.29 39.29 41.07 42.04 43.88 43.89 44.30 42.43 42.78 41.71 42.02
43.85 43.75 43.70 44.00 44.53 44.79 45.03 45.19 45.31 45.33 45.43 45.38 45.67 45.76 46.01 45.64 45.15 43.36 43.16 43.02 43.50 38.21 34.02 36.12 44.01 46.75 48.40 49.93 48.35 48.75 48.30 47.59 45.43 41.86 36.74 38.60 40.10 39.34 37.63 39.18 37.06 41.46 40.35 38.11 38.66 44.27 44.89 45.22 46.10 42.38 41.38 41.16 41.12 39.16
44.12 44.00 43.77 43.78 43.73 43.83 44.12 44.05 44.09 44.41 44.71 45.10 45.11 45.27 45.41 45.12 44.34 41.28 36.20 43.84 46.20 44.61 36.57 32.03 42.87 42.94 47.73 50.12 50.26 49.42 48.76 47.46 46.64 43.57 40.10 42.91 44.45 42.13 36.42 36.27 41.92 42.89 44.07 44.66 43.52 43.46 40.14 38.78 39.58 41.02 39.98 39.49 39.05 38.92
43.96 43.43 43.60 43.82 43.86 43.85 43.80 43.85 43.93 43.98 44.25 44.55 44.90 44.94 45.10 45.15 42.25 38.42 36.17 41.57 44.84 44.48 37.88 32.77 34.21 41.75 46.81 49.33 47.91 48.32 49.14 47.11 46.46 43.60 40.49 42.25 42.77 42.60 35.20 36.08 42.15 42.35 43.52 42.40 40.79 41.27 39.14 38.72 38.71 38.00 37.75 37.28 37.25 36.59
44.54 44.71 44.43 44.17 44.45 44.41 43.93 43.74 43.99 44.25 44.29 44.40 44.63 44.89 45.08 44.91 43.81 40.66 44.48 45.21 44.82 40.99 41.26 33.30 32.86 37.85 47.30 43.24 42.54 46.85 44.80 45.33 44.43 42.90 39.69 40.39 40.35 37.11 36.65 40.84 40.74 40.26 40.38 40.06 38.54 39.50 39.82 36.89 36.09 35.20 35.66 35.70 33.95 33.05
44.42 44.61 44.37 44.60 44.68 44.67 44.34 44.21 44.32 44.43 44.50 44.71 44.61 44.97 43.52 41.55 38.28 40.04 46.04 47.32 48.06 41.76 33.48 32.24 31.85 33.19 43.88 39.97 40.81 40.52 42.72 37.10 42.64 37.45 39.70 41.00 35.65 37.13 39.26 38.92 38.88 38.74 39.45 36.73 36.23 36.58 36.73 35.66 34.06 33.87 34.40 34.11 32.61 31.92
44.14 44.28 44.33 44.76 44.72 44.75 45.01 44.40 44.30 44.64 44.73 44.86 42.28 38.58 34.02 38.24 45.53 46.27 44.03 40.52 40.08 40.45 40.61 33.33 38.92 36.52 41.00 36.01 36.41 33.42 36.36 35.30 35.32 37.88 40.34 35.50 36.63 37.55 37.30 38.30 40.29 38.11 37.06 36.67 34.09 32.76 32.76 32.67 33.03 32.88 32.59 33.55 33.07 32.51
44.20 44.21 44.25 44.63 45.12 45.04 45.04 44.84 44.67 44.74 44.32 40.75 35.06 33.63 40.24 45.93 42.29 39.64 33.66 33.19 35.10 32.74 36.81 37.25 38.51 38.81 42.30 36.25 34.20 34.52 33.51 32.93 33.11 35.05 36.30 34.59 34.50 35.87 37.97 37.90 38.16 38.18 38.36 38.60 38.20 36.61 36.33 34.71 33.32 32.34 32.15 32.91 32.65 32.38
44.42 44.50 44.47 44.48 44.86 45.41 44.78 44.58 44.30 43.28 41.68 41.72 42.53 44.37 43.91 39.82 34.86 32.11 30.88 31.97 31.26 32.54 34.90 35.09 37.37 40.54 37.79 41.40 35.53 34.17 32.59 32.59 31.88 36.12 33.30 31.82 32.65 36.70 37.14 37.37 37.92 38.64 37.90 36.91 36.67 35.28 34.79 33.91 33.86 32.47 31.76 31.54 30.71 29.56
44.24 44.14 44.08 43.96 44.17 44.73 45.07 45.02 44.74 44.67 45.71 43.99 38.37 34.85 35.49 32.66 29.33 28.39 27.93 30.29 30.53 32.16 33.63 33.85 33.49 34.88 36.09 37.39 32.95 33.33 32.24 31.68 33.60 31.92 29.13 30.07 33.40 34.53 36.63 36.86 36.40 37.23 36.20 35.34 34.14 33.79 32.88 32.18 32.19 31.36 29.47 29.51 29.60 28.12
43.96 44.00 44.21 44.40 44.42 44.42 44.33 44.05 43.60 43.75 39.83 33.14 31.80 25.61 28.15 26.02 28.09 28.93 29.54 31.11 32.95 31.83 32.21 33.11 32.93 33.64 32.95 32.87 32.22 32.42 31.86 32.90 29.44 26.09 26.28 30.36 31.80 32.19 34.06 34.62 33.54 32.37 32.01 31.72 31.44 31.14 30.50 29.94 29.13 29.37 29.13 29.06 27.32 25.79
43.84 44.12 44.43 44.08 44.41 44.73 44.77 43.42 42.30 40.70 34.58 31.41 29.99 25.54 27.40 31.08 31.06 31.44 31.86 32.04 31.97 33.25 32.90 33.30 33.82 35.10 32.24 32.01 32.06 32.01 30.44 25.11 25.15 23.98 27.97 30.75 32.36 32.92 32.36 32.30 31.38 30.44 29.76 29.31 29.27 28.23 27.84 27.76 27.32 27.09 27.74 27.28 25.69 24.36
44.08 43.57 42.02 43.85 44.33 44.44 43.42 42.77 40.99 38.79 33.85 29.63 25.66 24.29 27.25 26.16 24.39 26.10 26.30 28.21 32.62 31.95 33.31 33.62 31.53 31.22 28.23 27.82 24.28 21.32 23.17 19.56 22.52 25.08 26.96 31.82 31.58 31.35 30.90 30.65 30.29 30.04 29.24 29.01 28.76 28.26 27.26 26.18 25.34 24.39 24.35 23.36 22.55 22.50
43.68 40.94 44.10 44.19 43.58 43.22 42.90 39.17 36.62 32.18 30.89 28.66 24.46 25.62 24.29 24.72 23.08 24.35 26.16 27.12 31.25 32.54 27.73 28.28 20.86 20.55 26.37 20.99 18.00 20.43 16.97 19.94 22.78 24.17 30.72 32.00 31.17 30.83 31.22 30.90 30.47 30.09 29.14 28.65 27.89 27.03 25.37 24.57 24.37 23.53 21.87 22.40 22.56 21.43
40.07 43.47 43.91 43.67 42.70 41.61 39.02 37.15 32.13 30.26 25.69 26.74 23.37 23.71 24.37 23.66 22.45 23.89 26.03 27.94 30.80 29.27 26.90 22.84 24.78 17.18 14.90 14.53 14.73 17.90 20.01 21.76 24.79 25.23 24.26 28.86 31.34 31.53 31.38 29.98 29.80 29.12 28.12 27.43 27.09 26.87 26.08 25.26 23.44 22.55 21.97 21.81 21.58 21.42
43.18 43.25 43.79 43.64 42.36 37.00 32.42 32.43 31.88 23.49 23.48 25.66 24.52 25.77 24.14 22.42 23.56 24.26 25.16 26.86 28.04 28.20 25.75 21.83 15.47 13.94 14.67 17.28 16.17 17.86 19.34 20.02 21.31 23.14 22.59 23.62 25.10 26.06 26.02 26.00 25.58 25.02 24.74 24.42 23.49 22.92 22.92 23.47 23.29 22.75 22.59 21.51 19.32 18.90
44.13 43.51 43.70 42.41 41.21 33.82 31.12 30.83 33.97 28.33 24.38 24.95 25.13 21.57 21.39 20.44 20.94 21.03 22.00 23.50 22.74 21.29 16.76 14.40 14.36 15.75 16.64 17.67 19.36 20.00 19.53 21.29 25.22 20.84 19.05 20.17 22.44 22.11 21.77 22.10 21.80 21.88 21.06 20.66 20.40 20.94 20.12 18.88 19.56 19.62 20.26 20.22 18.71 17.14
37.57 37.63 42.12 38.52 32.67 31.25 28.91 29.17 30.13 30.65 30.31 28.55 28.52 25.48 21.41 20.90 18.20 16.84 17.10 21.31 17.55 16.25 14.19 17.15 17.75 19.17 20.88 20.42 21.30 21.33 19.31 18.99 17.02 18.75 18.23 16.17 18.83 19.48 18.91 19.07 19.19 18.76 17.36 17.02 16.34 15.66 15.78 15.28 16.12 16.76 16.84 16.22 16.53 16.41
32.38 35.00 29.36 30.60 27.86 27.37 26.30 26.90 26.84 26.52 25.31 24.66 22.84 24.35 20.32 14.96 11.79 16.12 18.90 13.93 13.80 15.61 18.44 17.41 18.03 18.36 17.32 17.19 18.14 19.89 19.95 18.46 17.26 16.18 15.59 15.56 13.11 13.24 13.50 15.32 14.83 13.40 13.69 13.84 13.58 12.33 12.16 12.46 13.40 13.46 13.11 13.09 13.64 12.74
32.30 29.06 23.97 23.49 19.36 18.94 17.47 26.19 19.77 23.33 16.59 16.67 19.68 18.12 15.17 15.23 18.29 19.64 11.09 14.23 14.71 17.71 18.90 19.33 18.42 18.43 16.82 17.14 16.57 16.66 17.31 16.28 14.63 14.31 13.51 12.49 11.97 12.01 11.07 10.59 11.96 11.43 10.10 10.26 11.44 9.86 8.36 8.54 8.20 8.10 8.70 8.18 8.48 7.33
29.03 18.18 13.60 12.52 16.39 9.04 12.60 13.42 21.08 19.00 15.95 14.55 15.28 12.70 17.06 14.32 14.96 10.61 8.25 10.76 14.21 16.05 15.52 15.99 16.62 14.77 14.44 13.46 11.88 11.97 13.56 13.90 12.01 11.56 12.77 10.73 8.45 7.88 8.88 8.22 8.39 8.21 8.21 8.25 7.05 5.78 4.78 3.71 2.47 4.11 2.51 3.17 2.52 3.02
18.73 16.25 14.67 9.71 12.18 11.68 7.18 8.31 10.78 13.40 6.50 9.81 12.52 13.07 11.06 13.34 6.14 5.23 6.14 10.94 11.95 11.30 12.02 14.19 13.45 12.52 10.41 10.03 10.42 10.69 11.75 11.27 8.60 6.96 8.35 9.27 8.75 8.89 7.78 7.61 7.08 7.03 7.97 6.02 3.16 3.11 2.62 1.57 1.22 1.67 1.69 0.57 1.33 0.44
10.67 13.23 13.83 6.45 9.32 13.00 7.55 10.67 11.93 7.04 8.55 11.64 9.04 12.23 6.81 3.86 0.77 3.34 9.80 10.57 10.19 11.59 10.41 10.77 11.73 10.40 9.56 10.24 8.90 8.94 9.63 11.46 9.62 6.15 6.15 7.33 6.50 5.32 3.75 2.76 3.31 3.87 5.69 2.54 3.17 2.69 2.71 1.67 0.61 0.23 1.07 1.35 -4.80 -3.11
8.76 5.36 15.62 19.67 17.41 14.58 8.06 7.26 11.06 8.17 10.98 12.18 5.89 -0.06 -0.63 -6.22 -3.47 8.60 13.56 13.86 11.78 10.70 10.29 9.08 10.51 10.28 9.67 9.30 9.16 8.42 8.70 8.50 7.24 6.18 6.41 5.66 5.10 4.80 3.15 1.11 0.08 2.35 4.11 2.02 1.12 0.34 0.22 -0.14 -0.97 -0.43 -0.93 -0.62 -0.80 -3.49
10.07 13.39 6.27 5.95 9.10 11.00 2.51 5.49 11.19 7.55 10.72 13.80 3.95 -3.32 -9.09 -5.18 1.82 9.14 12.37 12.99 11.50 10.87 9.13 8.07 7.18 6.73 6.26 5.71 6.49 6.43 5.87 5.22 4.64 4.53 4.49 4.03 2.36 1.55 -0.81 -1.64 -1.89 0.15 -2.70 -3.34 -1.01 -1.05 0.28 0.47 -0.17 -0.40 -0.95 -1.28 -2.52 -1.71
7.95 7.92 9.73 1.41 4.44 7.35 9.70 4.64 10.03 12.93 12.52 6.11 -3.97 -2.02 1.78 6.58 6.63 8.08 11.17 12.78 13.29 10.52 6.40 4.45 3.53 2.19 1.85 1.88 -0.31 -0.08 -0.20 1.10 1.27 -4.25 -5.57 -4.09 -3.91 -0.32 -0.97 -3.23 -3.47 -3.68 -6.01 -4.27 -3.14 2.55 4.51 1.49 0.29 -2.66 -4.72 -5.75 -5.93 -7.53
7.10 9.37 5.49 1.35 3.09 4.66 1.06 4.10 -0.77 -1.86 7.07 5.93 8.05 7.50 5.91 5.14 7.84 10.54 9.32 8.46 6.35 1.74 -2.57 -3.30 -5.29 -1.33 -3.17 -2.07 -2.39 -1.28 -2.46 -5.11 -3.12 -2.69 -4.02 -4.74 -3.01 -1.34 -4.58 -4.93 -4.20 -4.74 -8.55 -7.46 -6.74 -5.06 -4.76 -6.15 -3.78 -6.17 -8.76 -8.60 -8.53 -8.33
7.22 5.41 4.29 5.61 5.97 4.08 1.59 -4.93 -8.01 -3.11 -3.94 -2.55 -6.58 -4.66 -1.05 2.70 5.14 6.29 4.97 1.05 -1.95 -6.19 -1.39 -2.39 -4.20 -8.55 -3.70 -5.47 -4.58 -6.02 -4.13 -3.63 -11.09 -6.92 -5.65 -5.29 -5.83 -5.83 -4.93 -6.01 -6.92 -9.28 -10.18 -10.00 -9.82 -9.64 -9.46 -8.55 -9.64 -10.98 -10.06 -10.96 -12.40 -12.38
1.28 -1.12 2.52 2.51 7.62 4.61 1.75 3.62 -6.56 -3.12 -7.10 -5.48 -5.83 -11.81 -7.32 -6.42 -8.01 -1.23 -0.12 -1.83 -2.88 -4.20 -7.83 -9.28 -7.64 -3.29 -5.65 -6.56 -11.09 -9.46 -11.64 -6.74 -5.83 -6.92 -7.28 -5.29 -3.47 -4.56 -6.02 -7.19 -10.36 -10.73 -9.82 -10.36 -11.09 -11.27 -12.00 -10.91 -10.55 -11.29 -12.06 -12.65 -13.62 -14.00
-5.41 -8.20 -4.81 1.39 4.32 4.57 3.96 4.14 3.67 0.27 -2.78 -4.74 -4.56 -7.83 -11.09 -6.43 -6.90 -2.48 -0.40 -7.36 -3.35 -3.70 -5.64 -6.23 -6.74 -8.19 -9.28 -10.19 -6.97 -7.10 -11.48 -8.56 -12.00 -6.74 -5.83 -4.20 -8.19 -5.47 -6.92 -8.19 -9.91 -10.40 -9.46 -9.46 -10.36 -11.83 -11.00 -11.64 -10.86 -12.14 -12.22 -14.46 -14.68 -14.53

GFSWCAN_sfc_wetblb_051.txt.gz
Wetbulb
45.51 46.33 46.67 46.72 45.98 45.25 45.86 45.97 46.00 46.19 47.02 46.62 46.87 46.62 46.75 47.24 47.82 45.73 44.40 48.88 46.72 42.36 43.24 43.70 45.01 43.48 42.48 43.39 39.73 43.67 43.20 44.17 43.41 39.33 39.01 38.71 39.62 40.34 39.95 41.84 41.03 39.68 38.93 39.59 41.47 38.97 36.63 50.84 49.55 45.53 50.64 54.00 53.28 53.17
45.68 46.57 46.28 46.41 45.48 45.32 45.49 46.00 46.66 46.14 45.95 46.11 46.41 46.28 46.62 47.11 47.36 46.95 43.19 48.29 50.76 44.44 41.98 46.63 48.37 49.88 47.58 48.21 45.98 46.72 44.57 44.76 45.34 41.96 43.47 43.28 42.69 43.43 41.07 37.65 44.76 39.66 44.14 42.57 44.02 44.19 51.23 51.32 51.77 53.32 54.45 53.66 54.56 54.13
45.64 46.23 46.30 46.16 46.09 45.93 45.88 45.82 46.18 46.18 46.11 46.09 46.27 46.45 46.66 47.13 47.08 47.12 47.70 48.61 46.85 41.65 42.92 44.33 44.29 47.69 49.52 51.59 53.79 45.58 47.31 49.25 47.98 50.31 46.13 45.09 41.11 44.29 40.98 41.63 43.02 46.22 48.58 46.08 45.70 48.65 50.28 52.31 52.68 54.00 54.69 54.61 55.30 55.30
45.44 45.72 46.28 46.12 46.09 46.09 45.77 45.63 45.81 45.96 45.91 46.02 46.16 46.08 46.56 46.46 46.71 47.04 45.78 47.93 46.34 42.87 37.13 39.99 47.48 45.14 49.41 50.30 51.36 52.15 50.54 52.22 51.15 49.86 46.96 45.63 43.07 46.44 43.76 44.41 43.08 45.80 47.09 45.56 45.60 47.81 49.99 51.74 52.68 53.75 54.20 54.38 53.94 53.37
45.17 45.12 45.65 45.79 45.97 45.98 45.77 45.51 45.41 45.79 46.19 46.28 46.49 46.16 45.96 46.57 46.76 47.03 47.02 48.16 48.49 42.74 38.39 40.03 44.25 46.54 48.02 47.28 48.53 49.60 50.70 49.20 48.52 46.31 46.26 43.08 45.91 44.94 46.71 46.72 43.91 46.73 45.73 43.70 43.73 48.36 50.31 51.25 53.51 54.48 54.37 53.74 53.07 52.32
44.66 45.23 45.30 45.21 45.28 45.61 45.94 45.89 45.70 46.14 46.48 46.14 46.18 46.69 46.18 46.14 45.95 44.75 38.31 45.72 48.14 47.59 41.01 37.30 44.23 44.33 46.32 46.54 45.86 47.09 49.87 49.72 48.99 46.47 46.63 47.10 48.57 46.49 44.21 41.42 45.78 46.82 49.17 50.33 48.75 51.93 51.85 52.25 50.07 50.30 53.09 54.59 53.98 52.61
44.69 45.03 45.03 45.01 45.32 45.31 45.05 45.16 45.64 45.23 45.61 45.66 45.91 45.63 45.63 45.44 45.20 41.54 40.14 44.95 46.64 48.89 42.19 36.36 36.61 44.13 45.86 44.34 43.53 45.88 49.34 48.35 48.96 47.90 46.58 46.90 47.50 47.55 46.28 41.02 44.71 47.30 50.00 50.96 52.42 49.85 47.97 48.60 48.59 48.60 51.10 53.36 50.20 51.98
43.95 44.60 44.58 44.78 45.35 45.34 45.18 44.87 45.08 44.62 44.84 45.11 45.01 45.32 45.60 45.58 45.23 44.38 47.15 45.99 47.81 44.88 43.73 33.06 35.24 38.30 43.48 39.40 37.85 47.31 45.89 47.58 47.15 45.52 47.18 45.81 47.87 47.82 41.66 45.39 47.15 48.32 49.32 49.91 50.12 49.24 48.31 46.99 46.65 46.58 48.07 47.36 47.94 48.08
43.71 43.80 44.05 44.34 44.32 44.79 44.81 44.54 44.58 44.91 44.82 44.54 44.22 44.47 44.98 43.10 41.24 43.98 45.86 45.79 49.90 45.35 36.65 35.19 33.00 34.16 42.94 38.42 41.48 42.52 45.90 41.03 47.23 43.96 44.33 46.04 43.49 40.65 43.14 45.16 45.35 45.79 47.32 46.56 47.69 46.06 45.87 44.69 45.73 44.56 44.44 44.70 44.53 44.47
43.72 43.58 43.53 43.76 43.75 43.72 44.19 44.42 44.56 44.48 44.34 44.05 43.90 40.70 37.23 42.69 45.50 45.26 43.40 39.34 40.86 43.36 40.58 35.47 40.48 36.63 42.02 41.96 40.13 39.74 39.52 40.29 36.80 42.82 47.17 42.34 42.22 39.64 37.46 40.75 44.67 44.74 45.24 45.70 44.23 44.20 44.97 44.21 44.11 43.33 43.37 44.32 43.83 42.97
44.18 43.97 43.88 43.87 43.96 44.06 44.22 44.30 44.64 44.05 44.00 44.67 41.26 38.07 43.32 45.33 43.01 38.98 33.89 34.40 34.81 34.11 37.58 40.00 40.92 38.96 43.91 38.81 37.53 42.61 35.17 37.48 35.53 38.28 41.24 39.83 35.08 32.18 35.68 37.04 41.18 43.75 44.97 45.02 45.31 46.14 46.00 45.58 44.99 43.21 41.99 41.60 40.82 39.52
44.75 44.22 44.10 43.84 44.11 44.17 44.38 44.00 44.06 45.31 44.00 42.54 43.78 44.80 42.66 39.13 37.61 34.44 33.30 35.32 35.61 35.03 38.34 38.50 40.89 43.34 44.07 43.57 36.66 38.93 36.42 35.52 33.00 36.61 34.60 28.36 30.98 33.01 34.38 34.23 35.35 37.88 39.43 39.43 41.27 41.84 42.10 42.69 42.76 40.81 38.37 36.00 34.15 32.37
44.31 44.31 44.40 44.19 43.97 44.07 44.08 44.17 43.65 43.35 45.58 47.28 42.84 38.42 37.05 35.93 30.33 30.40 28.27 32.37 32.95 34.99 34.40 37.17 37.70 41.87 42.01 39.46 34.81 35.35 34.08 33.00 34.22 32.27 29.37 29.53 32.46 32.90 34.22 34.53 34.02 33.97 33.64 33.60 32.62 32.39 32.11 31.99 32.32 31.96 30.30 30.74 30.69 29.44
43.65 43.46 43.28 43.34 43.32 43.52 43.73 43.80 43.99 44.48 41.12 36.97 35.17 30.46 31.52 29.30 28.25 27.78 28.46 31.31 32.81 33.18 33.54 34.08 36.08 36.38 34.99 32.81 32.09 33.18 32.45 35.02 32.09 28.98 25.77 28.64 30.16 32.98 34.17 34.19 32.22 30.65 30.88 30.78 30.18 30.12 29.40 29.33 29.22 30.18 30.53 30.74 29.80 29.00
43.98 44.17 43.26 42.88 43.14 43.32 43.51 43.75 43.52 44.26 37.92 32.33 33.06 25.99 27.85 30.88 30.13 30.78 32.27 33.01 32.60 32.98 32.63 33.36 34.20 34.76 33.54 32.27 32.63 33.66 31.18 25.55 25.15 23.80 26.34 29.08 30.64 33.13 32.11 31.95 31.51 31.16 31.14 31.25 31.20 29.92 29.54 29.48 28.94 28.53 29.30 29.43 28.44 27.23
44.10 43.84 44.17 44.04 44.17 43.50 43.14 43.06 44.29 42.71 36.06 29.88 25.95 25.76 27.22 28.73 25.71 26.55 27.12 28.94 32.92 33.25 32.81 33.90 33.18 30.30 28.75 29.74 26.49 25.16 24.42 20.26 22.83 26.05 27.71 29.88 31.24 31.36 31.18 31.31 31.07 31.35 30.74 30.16 29.58 28.66 28.29 27.66 27.45 27.30 27.63 27.14 26.70 26.23
44.27 42.29 44.07 43.17 42.70 42.60 42.75 41.28 37.85 30.93 28.92 26.66 24.60 25.82 25.74 24.62 23.66 24.96 26.57 27.39 31.87 32.54 30.62 30.76 25.55 24.42 29.93 24.31 20.51 22.72 20.62 23.04 25.73 25.73 27.31 27.95 28.11 29.38 30.20 30.19 29.92 29.83 29.20 29.10 28.98 28.75 28.49 28.37 27.65 26.31 24.18 24.78 24.67 24.47
43.34 43.87 43.36 43.56 43.73 42.31 40.02 38.49 32.71 28.91 23.25 24.63 23.74 24.14 25.02 25.00 23.83 25.70 27.53 28.51 31.63 29.50 27.67 24.61 27.77 20.72 19.95 18.85 18.34 22.39 25.23 27.73 25.93 25.31 24.55 26.22 26.74 27.16 28.00 27.17 27.34 27.76 27.73 28.07 27.91 27.90 27.55 26.13 24.87 24.85 24.88 25.08 24.45 24.16
44.18 44.35 43.16 43.15 43.12 41.00 35.73 34.40 33.20 23.58 23.99 26.05 25.72 26.19 26.32 25.37 26.49 27.43 29.04 29.29 29.75 30.80 28.26 24.54 19.75 17.61 18.16 21.11 21.84 23.58 25.55 27.23 24.06 23.94 23.96 24.26 24.84 25.97 25.69 25.19 24.75 24.70 24.73 25.02 24.60 23.82 24.49 25.07 25.60 25.90 26.10 25.45 24.11 25.36
41.60 41.32 40.24 40.43 42.57 39.00 32.77 32.21 36.03 29.15 25.29 26.50 28.45 25.95 25.56 24.37 26.68 27.70 27.61 28.72 26.88 24.34 19.75 17.31 16.96 19.16 20.05 21.53 22.92 22.83 24.64 28.79 26.47 22.42 21.14 22.74 24.22 23.67 23.85 24.28 24.18 24.53 23.42 22.76 22.64 23.20 22.76 22.09 22.65 22.50 22.84 22.79 21.81 20.67
41.02 40.66 40.26 41.05 38.26 36.40 35.06 34.17 32.57 31.87 31.35 28.98 30.29 28.91 26.87 28.08 25.08 24.36 24.07 25.49 22.50 19.75 18.00 20.31 20.22 21.53 23.54 23.71 24.24 23.56 22.51 23.10 21.96 22.56 21.58 20.20 22.66 22.79 22.42 22.53 22.65 22.17 20.89 20.39 19.50 18.34 18.62 18.76 19.72 20.72 20.38 20.18 19.08 19.70
40.27 37.03 39.88 38.48 34.92 34.35 33.21 35.29 33.15 35.03 32.19 30.87 29.74 29.56 26.40 24.30 23.17 22.79 24.31 19.32 18.13 19.26 21.08 21.01 21.73 21.80 20.65 20.89 22.61 23.53 23.29 22.67 22.40 21.77 21.27 21.06 19.27 19.26 19.56 20.61 19.34 17.59 17.39 17.47 16.96 15.97 15.49 15.39 17.87 18.06 18.34 18.81 18.49 16.34
36.99 38.63 36.28 35.55 32.53 32.91 28.45 36.53 29.73 30.18 26.76 27.76 29.38 24.51 23.73 23.40 23.43 26.64 18.85 18.93 18.66 22.27 22.94 21.94 21.65 22.06 21.09 21.50 21.54 21.95 22.84 22.36 21.19 21.00 20.37 20.24 20.09 19.89 18.97 18.57 19.17 17.57 16.47 16.68 17.83 16.84 15.24 14.75 14.97 16.30 17.10 16.54 16.83 16.25
35.55 31.00 28.51 28.87 30.34 25.85 31.29 27.79 30.80 28.40 28.56 26.53 23.99 20.67 21.08 22.87 25.65 20.75 15.18 16.76 19.23 21.45 20.94 21.68 23.05 21.30 21.24 20.09 18.79 19.17 20.93 21.58 20.26 20.30 21.16 19.92 17.82 17.18 17.60 16.72 16.88 17.27 17.43 17.57 16.68 15.55 15.05 14.82 14.03 14.77 13.76 13.11 12.26 12.46
27.62 23.75 28.41 24.82 29.90 26.77 24.74 24.72 24.86 25.54 22.38 24.31 21.31 20.54 21.17 25.62 19.08 16.73 14.99 16.85 18.64 18.92 20.03 20.75 21.20 21.11 19.19 19.11 18.99 18.03 19.53 20.19 17.89 15.82 17.57 20.00 19.83 19.67 17.81 16.20 14.29 13.77 15.32 14.82 13.52 13.92 12.96 13.21 12.33 12.02 11.85 10.18 8.06 9.30
20.61 23.30 24.01 24.96 24.94 24.77 24.19 21.50 21.56 21.92 22.48 20.31 19.70 22.38 24.57 20.92 15.46 13.34 15.77 18.47 18.35 18.17 18.85 19.82 19.79 18.67 17.91 19.08 17.41 16.05 16.75 20.12 19.32 15.06 14.03 15.27 14.84 15.29 14.00 12.51 12.41 10.86 13.23 12.92 12.09 11.27 10.86 10.44 9.85 9.21 9.63 10.23 8.10 8.16
20.26 21.56 24.20 27.46 26.70 25.54 24.22 24.69 25.06 22.76 19.56 18.69 21.03 19.10 19.66 13.01 11.76 13.68 17.64 20.06 17.74 18.64 19.52 20.63 20.27 18.72 17.39 16.69 16.78 16.69 16.78 15.94 14.54 13.71 14.56 13.91 13.45 13.23 12.15 9.71 7.35 8.27 12.01 10.79 10.82 10.21 9.39 8.78 8.59 8.36 8.25 9.17 8.90 7.47
22.39 22.90 17.82 21.29 21.67 23.92 19.21 20.06 19.13 17.83 18.90 20.62 20.90 12.38 11.85 12.29 12.64 17.63 18.04 18.72 19.37 19.32 18.45 18.32 18.74 18.80 17.93 17.18 17.35 17.67 16.19 15.03 13.91 14.65 15.02 14.19 13.51 12.24 11.17 11.63 9.13 7.68 9.55 8.58 8.65 9.51 9.27 8.47 7.81 7.40 6.23 5.84 5.84 7.22
21.86 23.88 21.10 14.18 18.38 17.67 17.03 18.34 17.98 17.28 17.92 20.54 17.03 13.33 11.68 13.46 17.87 16.89 17.80 18.78 19.75 19.07 16.63 15.49 15.32 16.59 15.60 15.38 15.05 15.20 15.16 14.61 11.89 6.81 6.01 9.67 11.12 9.87 11.04 10.69 10.54 10.25 10.03 9.82 8.22 7.54 7.56 7.31 6.83 5.61 4.92 6.20 7.13 7.91
20.61 25.23 18.89 15.11 13.87 13.60 15.09 18.03 15.84 16.63 17.78 17.84 16.22 14.09 13.01 13.51 15.50 20.32 18.90 18.68 18.01 16.78 16.53 16.46 16.43 17.25 15.19 15.38 13.08 11.27 11.95 11.44 10.03 9.85 9.18 8.15 8.14 9.32 9.90 9.25 8.93 8.92 8.94 8.42 7.87 7.90 6.04 7.31 7.71 7.97 6.32 5.68 6.28 4.05
24.95 24.51 19.67 18.20 14.74 16.01 16.96 18.10 18.59 18.33 17.48 16.32 17.70 15.69 12.93 12.98 14.74 16.51 16.61 16.75 16.54 15.86 15.09 13.60 13.59 15.49 14.14 13.35 13.98 11.69 10.18 9.97 6.36 6.85 7.89 9.94 9.96 10.11 8.81 7.76 8.83 8.21 8.27 7.18 6.18 6.16 4.84 4.85 6.26 5.33 4.79 3.13 2.28 1.86
21.75 20.38 17.76 13.98 14.12 16.97 19.43 19.91 19.34 17.79 18.02 16.82 14.25 14.90 14.02 14.69 11.71 13.26 15.72 16.92 15.68 15.12 9.74 14.43 14.04 12.72 12.60 11.59 10.68 9.02 4.74 9.47 9.51 7.93 3.87 8.61 9.76 8.85 8.65 8.39 8.20 7.76 6.72 5.20 6.01 5.30 4.39 3.39 3.68 3.74 3.44 2.81 1.82 0.37
20.77 20.32 19.34 17.64 15.14 14.74 18.17 19.24 16.77 14.37 16.53 15.17 14.04 14.39 14.27 14.97 10.33 14.14 14.34 16.46 16.61 15.88 14.67 15.00 14.35 12.89 10.01 8.89 9.85 9.04 7.10 9.80 3.90 2.66 1.43 2.43 1.10 3.49 4.94 8.08 7.40 6.39 5.15 4.58 5.03 5.13 3.71 2.84 2.25 1.85 1.20 0.71 0.54 -0.28

GFSWCAN_sfc_wetblb_057.txt.gz
Wetbulb
45.01 44.92 44.92 45.27 46.03 46.49 46.92 47.04 46.99 46.83 46.82 47.04 47.09 47.16 47.34 47.09 47.20 45.87 43.44 45.23 41.06 37.00 40.00 42.36 43.71 39.12 39.52 39.32 34.70 37.37 37.51 39.04 37.45 30.65 30.21 29.09 27.06 34.43 34.56 37.07 35.56 33.45 31.31 30.68 33.14 30.16 28.76 46.31 46.46 40.30 42.68 46.94 48.22 48.70
45.09 45.03 45.71 46.24 46.31 46.69 46.77 46.65 46.31 46.26 46.37 46.33 46.81 46.95 47.27 47.41 47.12 47.06 41.97 45.87 45.37 40.80 41.27 45.02 45.68 46.38 45.80 44.56 41.76 40.16 38.58 38.79 38.74 34.53 33.29 33.96 28.60 31.38 32.40 29.07 40.88 33.82 37.10 35.16 36.82 34.85 44.61 46.09 47.53 48.12 47.85 46.80 49.55 49.17
44.97 45.55 46.24 46.22 46.46 46.44 46.37 46.28 46.17 46.15 46.31 46.46 46.42 46.82 47.18 47.42 47.49 46.92 43.71 44.59 43.38 40.09 40.38 40.99 39.31 45.85 48.20 47.41 48.19 39.83 39.57 43.35 41.92 42.68 38.75 36.58 30.30 35.20 28.65 32.00 36.09 40.58 43.41 38.29 39.32 42.05 42.94 45.30 47.73 48.81 49.38 48.77 49.96 50.82
45.75 45.77 45.86 46.01 45.89 45.71 45.94 44.86 45.03 46.08 46.08 45.86 46.26 46.93 47.03 47.29 47.51 47.09 43.68 45.25 43.87 40.56 33.94 38.61 46.82 44.89 48.27 47.67 47.92 47.80 46.09 47.44 45.00 43.60 38.35 37.39 34.70 39.65 33.81 37.01 36.20 39.31 41.81 39.87 40.03 43.40 44.63 46.98 46.77 48.05 49.03 50.16 49.05 50.55
45.45 45.62 45.95 45.85 45.61 45.80 45.58 45.09 45.79 46.05 46.03 46.35 46.16 46.47 46.86 47.23 47.52 46.30 46.42 46.16 46.65 39.98 32.49 36.25 43.36 46.01 47.03 46.36 45.99 47.08 46.14 44.04 43.57 37.50 33.20 34.88 38.88 39.32 39.05 38.53 35.90 41.00 38.51 35.94 36.67 43.86 43.84 46.37 48.24 49.82 48.45 47.92 48.30 49.07
45.58 45.41 45.84 45.55 45.64 45.74 45.67 45.81 45.83 45.98 46.00 45.96 45.69 46.90 47.10 46.92 47.61 45.29 39.15 45.39 47.88 46.06 38.46 31.89 41.70 42.11 45.12 46.19 45.25 44.92 44.79 43.98 42.34 40.61 37.71 42.17 44.98 40.76 30.04 32.32 40.89 42.49 42.99 42.77 41.53 46.18 45.86 46.84 47.44 47.42 47.83 47.58 48.83 48.89
45.08 45.55 45.80 45.62 45.60 45.71 45.73 45.80 45.97 45.83 45.92 46.14 45.71 46.06 45.71 45.87 45.53 40.79 37.32 41.80 46.81 45.38 39.00 31.97 32.35 40.89 43.16 43.34 40.75 41.26 43.47 42.40 41.44 41.92 39.47 39.30 40.28 41.01 30.44 30.26 38.59 41.60 43.59 45.25 45.76 46.28 44.70 44.59 43.53 45.63 45.88 46.94 46.91 47.91
44.92 45.39 45.51 45.56 45.46 45.39 45.44 45.59 45.71 45.84 46.07 46.05 46.24 46.03 46.28 46.59 45.96 42.04 44.59 46.55 46.60 42.24 39.56 28.51 28.02 34.74 42.01 36.22 35.75 41.15 38.46 40.47 41.56 39.57 39.32 39.78 41.76 40.34 30.22 34.83 37.00 38.70 41.25 42.68 43.21 44.93 44.17 44.53 45.06 44.56 44.29 43.82 43.51 43.22
44.51 44.68 45.36 45.20 45.39 45.38 45.50 45.48 45.54 45.66 45.82 45.73 46.01 45.84 44.22 42.96 38.07 40.69 46.37 46.85 46.10 42.31 32.58 30.45 28.03 29.59 40.10 37.50 37.31 37.78 39.36 30.22 40.91 34.81 37.28 38.95 34.94 28.74 31.09 32.71 33.91 35.85 36.90 38.83 43.01 43.80 43.93 43.13 43.79 42.77 42.36 41.96 40.56 38.35
44.35 44.26 44.58 44.70 44.55 44.75 44.88 44.79 45.07 45.54 45.94 46.11 44.93 40.39 34.73 40.15 45.49 45.30 42.36 38.95 39.12 39.79 38.43 29.50 34.43 30.34 37.83 35.02 34.66 32.61 30.06 29.30 31.33 34.68 40.91 34.10 28.75 33.62 32.56 33.66 34.48 34.58 36.48 38.78 39.14 37.94 38.85 39.46 41.11 37.88 36.90 36.17 34.66 32.34
44.50 44.46 44.36 44.65 44.72 44.61 44.77 45.03 45.20 45.25 44.57 42.53 38.46 36.06 40.52 45.03 40.67 37.18 30.50 31.49 34.03 29.63 32.78 33.22 35.10 33.86 38.80 32.80 32.90 33.17 30.63 31.05 26.25 31.11 33.20 30.68 24.82 28.13 32.48 32.44 32.51 33.45 34.82 34.91 37.21 36.96 37.30 36.54 36.24 34.39 32.05 31.10 29.89 28.24
44.76 44.27 44.22 43.79 43.83 43.83 43.69 44.07 44.84 42.64 41.30 41.39 41.30 42.76 41.52 38.10 34.75 31.73 30.04 31.50 28.73 28.39 33.30 32.41 32.40 37.81 36.70 39.14 33.67 33.86 31.51 32.31 28.25 35.62 29.79 22.42 25.85 29.90 30.88 30.49 30.67 31.14 31.56 31.27 31.94 31.70 32.01 31.93 31.81 30.23 28.71 27.01 26.42 25.99
44.01 43.95 44.26 44.19 43.91 44.07 44.12 44.41 44.45 45.11 44.85 43.59 40.21 34.93 35.83 32.79 26.74 21.14 23.86 28.91 28.27 30.45 31.60 32.90 33.08 32.86 35.91 35.29 31.66 32.08 29.55 29.55 33.54 27.71 21.00 22.08 27.77 29.49 30.02 30.02 29.21 29.76 29.62 29.22 28.96 29.05 28.42 27.57 27.81 26.93 25.48 25.74 25.28 24.22
43.55 43.77 44.03 43.76 43.58 43.81 44.09 44.41 44.22 43.37 40.53 33.15 31.75 21.65 24.52 20.23 23.24 23.10 24.65 26.04 30.53 30.48 30.05 31.31 32.65 32.87 32.20 31.82 31.46 30.62 30.18 30.68 24.87 19.28 16.90 23.29 25.92 27.84 28.99 29.25 27.89 26.59 26.70 26.05 25.91 25.79 24.96 24.53 24.09 24.59 24.62 25.00 23.94 22.73
43.79 43.89 43.62 43.28 43.70 43.81 43.82 43.38 43.80 38.31 32.06 25.37 25.63 21.03 20.76 26.70 24.56 25.63 27.38 28.59 29.77 30.73 30.56 31.63 32.02 33.94 30.65 29.49 28.96 29.27 24.75 18.15 19.16 15.87 20.64 24.80 26.78 27.42 27.28 27.62 26.87 25.91 25.18 24.41 24.59 24.18 23.88 24.15 23.60 23.29 24.24 24.19 23.88 23.22
44.16 43.68 42.67 43.08 43.05 43.66 43.08 41.97 37.90 36.66 31.40 25.21 22.71 19.86 22.63 21.40 20.65 22.68 23.94 25.49 30.11 29.13 30.03 31.81 31.34 24.91 24.09 23.22 19.50 19.15 17.88 14.35 16.65 20.80 23.50 24.85 24.31 25.83 26.20 26.33 26.16 26.13 25.73 25.16 25.12 24.50 23.88 23.14 22.75 23.04 23.81 23.63 23.24 22.96
44.29 41.20 43.34 42.75 42.69 41.84 41.95 37.63 32.34 27.85 26.09 25.05 21.40 24.27 23.23 22.62 22.17 23.59 26.04 25.44 29.46 28.66 26.82 26.83 20.55 19.61 25.94 18.67 16.46 19.87 15.38 17.69 20.03 21.98 22.63 22.83 23.23 23.63 24.12 24.04 25.03 25.91 25.65 25.45 25.18 24.97 24.43 24.98 24.39 23.10 21.60 23.06 23.54 23.23
40.55 42.42 43.19 43.29 43.44 42.48 36.35 34.61 28.21 25.77 21.06 22.95 19.60 22.10 23.69 23.40 22.01 24.01 26.70 26.69 28.10 27.45 26.01 22.10 22.79 14.26 11.30 12.73 15.34 18.96 19.43 20.51 21.19 21.01 22.68 22.66 22.63 22.63 23.49 22.79 23.47 23.58 22.96 22.58 21.91 22.43 23.83 23.73 22.76 22.80 23.62 23.70 22.56 21.96
42.07 41.91 41.64 41.77 40.80 37.63 31.02 30.56 30.17 22.14 23.92 24.85 25.00 25.07 24.29 23.59 24.09 24.64 25.95 26.51 26.12 26.12 24.00 19.63 13.54 12.90 13.73 17.49 17.68 20.77 20.93 20.45 19.19 20.29 20.73 21.51 22.79 22.99 22.58 21.90 20.56 19.67 20.17 20.56 20.27 19.58 19.28 19.06 18.40 19.58 19.91 19.07 17.79 20.42
41.70 41.11 41.19 41.17 40.54 34.81 30.13 29.12 33.25 27.07 24.24 24.40 25.21 22.20 21.25 20.50 22.41 22.35 21.97 24.03 23.38 21.12 16.64 14.40 14.55 16.42 17.09 18.90 20.63 21.79 23.22 23.40 21.29 18.54 18.40 19.84 20.92 19.81 19.05 19.22 18.84 18.59 17.48 17.44 17.23 17.64 17.65 17.19 17.15 16.44 15.73 16.17 15.05 14.43
41.46 40.60 40.97 40.76 36.72 36.21 32.24 30.55 29.39 29.35 28.50 27.62 27.76 25.97 23.17 23.01 19.20 18.06 18.72 21.77 18.04 16.45 15.18 18.04 18.27 20.05 22.03 22.16 22.47 21.68 21.01 20.99 19.98 19.55 18.12 17.27 20.11 19.50 18.51 18.52 18.20 17.00 15.11 13.89 12.48 11.69 12.80 13.69 14.90 16.21 11.10 7.94 9.52 13.55
38.34 39.45 36.73 37.27 32.43 32.68 30.63 32.41 30.57 31.04 28.59 27.78 26.19 26.47 21.17 15.66 15.22 17.08 19.96 15.82 15.84 16.96 18.76 18.41 19.23 20.00 20.61 21.30 21.47 21.70 21.64 21.42 20.77 19.33 18.89 18.32 15.65 15.39 15.47 15.93 14.58 12.77 13.51 12.48 11.10 9.49 10.34 11.78 12.91 11.38 10.65 11.74 8.35 7.71
38.56 38.16 33.27 32.34 26.98 26.46 24.11 32.32 25.22 28.34 21.65 22.53 24.02 20.36 17.97 16.18 20.88 22.49 13.60 17.33 19.29 20.96 20.87 20.41 20.76 21.56 20.01 20.88 21.35 21.43 21.79 20.17 17.42 16.35 15.35 14.18 13.57 12.58 11.64 11.88 12.81 10.70 10.50 11.41 12.65 11.21 8.40 8.99 8.42 5.24 5.01 6.77 6.74 5.03
36.38 29.80 25.59 24.80 24.41 18.33 23.88 20.20 26.57 24.96 22.15 18.98 16.99 13.66 16.26 17.28 20.26 13.34 12.13 15.61 18.05 21.35 22.53 21.60 20.11 17.55 17.32 17.08 15.34 16.54 18.02 17.48 14.66 14.05 16.85 13.92 10.81 10.06 10.76 10.03 10.06 10.91 12.46 13.51 10.88 6.22 7.28 0.73 3.84 5.48 -3.43 -4.24 -3.08 -4.76
20.83 19.11 22.56 19.30 24.84 18.30 14.64 14.69 16.98 18.68 12.70 16.54 12.26 14.51 15.76 20.76 11.11 11.80 11.05 15.03 17.89 17.26 16.45 19.91 19.87 17.87 13.95 13.00 14.29 14.66 16.54 15.03 11.42 9.52 11.27 12.72 13.84 12.18 9.92 9.27 8.69 9.14 10.16 4.53 6.34 -1.63 -4.06 -3.66 -1.43 -0.26 -0.31 -8.54 -1.08 -3.37
14.62 18.14 19.71 19.23 18.08 16.96 18.22 11.81 12.06 12.75 13.22 11.80 14.91 19.55 16.73 10.21 4.98 7.30 14.51 14.64 10.23 15.14 16.68 18.51 12.50 12.61 12.59 13.65 11.18 10.59 11.62 15.22 12.42 8.64 9.69 10.75 9.29 6.12 3.94 4.56 2.25 4.59 6.57 3.74 -3.13 0.18 -2.58 -2.58 -5.60 -4.78 -3.20 0.32 -5.35 -8.80
12.76 15.41 23.09 26.94 25.19 23.93 17.58 18.80 21.01 15.44 10.77 9.47 11.92 13.29 7.75 -0.19 0.69 12.02 17.07 16.41 12.66 15.60 17.61 17.84 17.50 14.62 12.88 12.47 13.13 12.16 11.44 11.51 9.80 10.41 11.17 10.55 10.02 8.45 3.11 -3.89 -4.75 0.41 7.03 -0.60 -4.47 -2.41 -6.02 -6.56 -6.93 -5.69 -9.76 -8.66 -9.18 -9.35
20.59 20.51 12.65 16.87 16.02 19.92 12.04 11.87 9.64 8.39 9.76 16.86 13.05 2.35 0.60 3.68 7.31 14.92 14.44 15.11 13.73 16.27 15.57 15.00 15.17 15.03 14.23 14.40 14.77 13.35 11.31 8.79 6.22 9.47 9.57 8.53 6.19 2.43 3.35 3.35 2.73 7.23 3.73 -1.95 -5.74 -6.89 -7.29 -8.38 -9.28 -9.47 -11.12 -10.01 -8.39 -7.42
18.00 20.21 16.59 9.46 11.64 12.71 13.81 11.76 10.16 14.06 16.38 17.23 4.32 4.65 5.31 14.94 12.84 13.41 13.88 13.53 14.59 14.47 10.67 7.85 6.08 5.69 8.61 9.06 7.42 7.24 4.49 2.97 -1.48 -4.92 -6.51 0.10 -0.96 -0.84 -1.42 -2.20 -1.58 -2.74 -3.95 -2.68 4.56 3.39 -1.60 -5.56 -6.25 -6.95 -8.36 -9.26 -7.87 -3.69
17.11 20.76 11.98 8.00 6.11 7.75 12.29 13.76 15.71 13.52 13.67 11.29 12.34 12.37 11.53 12.18 16.13 15.06 15.72 17.49 15.84 12.40 7.93 7.16 10.37 9.01 9.19 7.17 0.14 -2.23 -1.54 -4.93 -5.84 -4.93 -4.57 -4.75 -4.04 -4.40 -3.19 -6.08 -3.66 -5.85 -5.31 -4.95 -6.44 -5.33 5.08 -6.16 -3.54 -2.19 -3.92 -5.16 -8.51 -12.69
22.51 17.86 11.78 10.91 8.43 9.83 9.06 10.39 15.34 14.85 11.87 12.09 9.89 4.80 6.05 5.85 8.18 13.38 10.70 7.64 6.40 4.40 4.34 3.00 4.90 5.75 3.56 0.09 0.65 0.27 -4.93 -4.75 -6.95 -6.10 -5.78 -5.87 -3.49 -0.82 -7.11 -6.43 -3.71 -6.33 -6.03 -5.90 -9.02 -8.58 -7.67 -10.26 -11.34 -11.12 -10.08 -10.12 -9.41 -8.08
18.12 11.81 7.75 4.40 9.59 14.23 16.19 17.94 12.77 11.27 10.02 3.79 1.83 3.31 4.97 6.52 1.77 3.68 6.30 7.98 9.16 7.65 5.44 10.56 6.40 -0.22 -2.04 -2.42 -5.66 -6.97 -2.89 -2.76 -3.50 -4.77 -6.03 -5.66 -3.49 -8.92 -8.74 -6.40 0.74 -1.44 -7.36 -8.78 -8.77 -8.74 -6.76 -8.01 -10.38 -10.92 -12.55 -12.55 -13.69 -13.50
15.83 14.49 12.05 10.24 9.98 9.06 14.36 12.99 9.17 10.09 8.19 5.41 2.75 5.96 4.71 5.75 1.21 4.43 5.88 8.93 12.95 10.57 8.53 4.91 2.36 -1.62 -2.89 0.68 -2.11 -5.30 -1.71 -7.30 -5.48 2.68 -1.49 -3.48 -6.56 -6.20 -11.83 -11.10 -11.68 -12.61 -11.89 -12.55 -12.00 -10.01 -7.47 -7.29 -7.65 -9.47 -12.00 -13.63 -13.82 -15.09

GFSWCAN_sfc_wetblb_060.txt.gz
Wetbulb
45.04 44.94 45.04 45.08 45.06 45.39 45.74 45.86 45.83 46.02 46.16 46.55 46.69 46.79 46.74 46.63 46.71 45.05 41.96 44.36 40.48 35.16 36.70 40.88 41.54 36.67 37.02 36.59 31.90 34.67 35.20 36.03 35.85 30.53 29.03 27.44 25.06 32.00 31.77 34.56 32.86 30.42 28.64 28.98 31.78 30.70 27.13 44.57 44.98 38.13 40.98 45.30 47.23 47.48
45.00 44.92 44.48 44.96 45.52 46.17 46.48 46.64 46.67 46.73 46.69 46.78 46.78 46.89 47.05 47.13 46.72 46.39 40.55 44.79 45.14 39.13 38.13 44.48 44.10 45.84 43.46 42.28 38.36 37.04 36.14 36.53 38.00 34.23 31.19 30.47 25.68 26.03 30.56 27.35 38.21 30.94 35.69 32.59 34.71 33.94 43.11 45.27 45.53 48.11 47.13 45.47 46.80 46.32
44.63 45.10 45.85 46.08 46.24 46.14 46.21 46.36 46.32 46.41 46.57 46.50 46.60 46.87 47.04 47.15 47.24 46.18 43.01 43.92 42.64 38.27 37.03 38.45 39.96 46.04 47.34 46.53 47.63 38.26 38.22 41.94 42.02 41.45 36.86 34.05 28.83 32.43 27.10 27.88 32.04 37.13 41.88 37.69 38.02 41.40 43.39 44.72 46.56 48.20 47.84 47.01 48.94 47.81
45.53 45.72 45.99 46.31 46.37 45.96 45.86 46.00 45.62 45.55 45.95 46.16 46.39 46.37 46.83 47.20 47.27 46.99 42.84 44.61 42.08 39.23 31.77 36.47 44.09 42.63 46.70 47.05 46.97 47.18 44.61 45.89 45.50 42.89 36.88 31.66 29.71 37.32 29.73 33.81 33.73 37.59 40.77 39.14 38.55 41.60 43.38 44.27 46.29 46.76 47.44 49.16 48.69 48.70
45.67 45.63 45.87 45.58 45.68 45.80 45.69 45.78 45.21 45.78 45.87 46.14 46.32 46.64 46.85 47.13 47.18 46.55 45.54 45.27 44.63 37.51 31.55 35.35 42.50 44.29 46.17 45.29 44.91 45.48 43.39 42.44 42.45 38.84 35.57 31.83 35.62 35.09 35.27 35.84 33.98 38.91 38.00 36.23 35.82 42.10 40.94 42.29 45.95 48.54 46.35 46.81 47.93 47.61
45.48 45.70 45.47 45.58 45.73 45.85 45.96 45.73 45.66 45.70 45.72 45.60 46.55 46.69 47.08 46.87 47.26 44.06 38.96 44.51 45.65 44.39 37.65 30.97 39.84 42.23 43.36 44.21 43.22 42.77 43.02 42.30 41.35 39.73 36.27 37.79 41.87 36.63 29.49 30.31 37.97 39.05 39.81 42.06 39.81 42.73 43.26 44.24 44.52 45.82 45.85 45.64 47.38 47.32
45.78 45.71 45.62 45.69 45.71 45.86 45.82 45.73 45.33 45.18 45.71 45.95 46.47 46.51 46.60 46.67 44.65 39.52 36.03 41.86 46.39 46.11 37.82 32.14 32.10 39.54 43.42 43.09 41.65 42.35 43.62 43.48 42.76 41.21 38.30 39.01 39.44 40.96 29.58 29.92 35.56 37.82 38.84 41.45 41.61 43.41 42.49 41.88 41.36 43.68 43.93 44.62 45.31 45.24
45.51 45.44 45.42 45.55 45.48 45.57 45.17 44.69 45.06 45.75 46.21 46.00 46.09 46.34 46.23 46.02 45.78 42.29 45.67 46.01 46.28 41.97 39.06 29.61 29.36 33.13 41.25 36.02 36.62 41.41 39.73 40.62 40.64 39.07 40.31 38.16 40.20 39.05 31.68 31.51 34.38 36.02 37.06 39.65 39.18 41.93 41.73 43.00 42.73 41.87 42.57 42.49 39.68 36.07
45.03 45.06 45.02 45.00 45.11 45.18 45.25 45.54 44.83 45.35 46.02 45.99 46.02 45.64 44.05 42.78 39.75 41.62 46.30 46.06 45.96 39.92 29.84 25.84 25.16 28.46 39.34 37.04 36.86 37.40 37.97 30.53 38.21 30.20 35.27 37.99 32.76 24.62 28.46 30.58 31.95 32.89 34.50 36.57 39.97 39.40 40.08 39.57 37.54 36.94 37.87 36.67 33.22 30.98
44.47 44.65 44.64 44.69 44.85 44.97 44.89 45.13 45.09 45.37 45.67 46.16 43.83 38.45 33.22 40.46 45.41 44.65 40.66 36.25 35.89 37.10 36.17 27.98 32.68 30.06 37.07 33.28 32.32 32.02 29.96 28.83 31.29 33.56 37.95 29.52 25.88 30.51 30.57 31.87 31.33 31.94 33.92 35.26 35.96 35.10 36.37 37.26 34.11 32.65 31.31 30.83 29.54 28.05
44.42 44.23 44.01 43.82 43.68 43.70 44.02 44.26 44.61 44.67 44.80 39.29 35.23 35.90 41.00 44.57 39.43 35.37 30.91 30.34 33.21 28.90 31.14 31.59 33.55 31.55 36.97 32.16 32.70 31.16 31.45 31.56 26.63 31.34 29.54 24.27 21.99 26.38 30.09 29.28 30.49 31.21 32.42 32.51 34.10 33.98 34.67 34.35 33.56 31.27 28.94 27.83 26.71 25.74
44.53 44.09 43.91 43.89 44.08 44.29 44.37 44.74 44.75 40.72 38.77 39.67 40.28 41.21 39.41 38.23 35.04 29.39 29.02 29.64 28.54 30.19 32.75 32.57 34.65 36.56 35.43 36.93 33.09 33.61 29.28 30.92 25.95 32.53 21.76 16.37 24.30 28.41 28.70 27.78 28.17 29.04 29.48 28.99 29.42 28.54 28.54 28.20 27.78 26.59 25.35 24.31 24.14 23.94
44.25 44.10 44.11 44.05 44.12 44.18 44.29 44.47 44.49 44.27 44.11 41.66 37.85 34.89 31.82 27.24 19.17 17.97 22.13 26.22 25.96 29.54 29.87 31.51 32.34 33.05 34.78 35.22 31.83 31.71 29.00 28.73 32.53 22.59 17.66 20.62 25.17 26.68 26.74 26.40 25.91 26.67 26.58 25.65 25.22 25.67 25.27 25.07 25.84 25.14 23.60 24.07 23.78 22.48
43.46 43.49 43.79 43.85 43.69 43.61 43.03 43.39 43.43 40.58 37.22 30.10 27.05 18.42 19.06 14.87 19.84 19.63 20.03 20.60 27.05 28.08 27.81 30.46 31.22 31.99 31.83 31.06 31.06 28.51 26.98 26.97 17.03 14.17 13.22 21.62 23.91 25.10 25.88 25.81 24.34 23.32 24.04 23.76 23.50 23.49 22.97 22.74 22.44 23.12 23.14 23.35 22.48 21.27
43.36 43.29 42.99 43.00 43.21 43.00 42.35 41.59 40.27 34.08 28.66 23.35 23.03 14.80 17.46 22.55 20.52 21.85 22.95 24.53 26.78 26.89 28.94 30.06 31.81 32.04 28.16 26.44 25.37 26.47 20.47 13.20 15.30 11.36 18.36 22.25 24.36 24.83 24.78 25.18 24.40 23.72 22.79 22.58 22.92 22.54 22.42 22.74 22.45 22.21 23.32 23.64 23.17 22.32
44.28 42.44 41.17 43.18 43.05 41.85 41.84 37.87 35.32 34.23 29.00 24.62 22.27 17.50 20.34 17.02 17.38 18.07 18.07 22.51 27.52 28.09 29.49 30.37 27.60 23.13 22.05 21.05 18.82 17.10 14.79 11.08 14.85 18.23 21.49 22.45 21.73 22.65 23.78 24.49 24.34 24.31 23.87 23.67 23.64 23.45 23.04 22.48 21.94 22.05 22.43 22.06 21.44 21.56
42.87 39.23 42.95 43.07 43.38 40.69 40.40 34.01 30.59 27.15 25.25 23.46 20.08 23.28 21.56 21.62 20.36 21.43 23.33 23.13 28.12 26.91 22.56 23.89 16.32 17.04 22.99 17.88 15.16 16.98 12.83 16.07 18.55 19.40 20.40 20.60 20.82 21.21 22.08 22.00 21.63 21.14 20.52 21.43 23.09 24.01 23.80 24.47 23.63 21.94 19.87 20.97 21.41 20.98
39.30 40.15 42.67 42.74 41.88 39.38 34.77 31.41 27.57 25.53 20.70 22.91 20.04 20.79 22.46 21.74 19.84 21.02 23.54 24.41 24.69 24.71 23.12 18.00 21.14 12.27 11.17 11.29 10.64 15.70 17.20 17.93 19.18 19.90 20.26 20.26 19.87 19.69 19.94 19.08 19.97 20.37 20.14 19.98 19.73 19.44 19.94 19.73 18.75 18.75 20.75 20.51 19.74 19.22
40.96 39.65 41.64 42.11 39.98 34.01 29.23 29.43 29.02 22.02 22.01 22.67 21.49 21.48 21.52 21.59 22.87 24.18 24.47 23.90 23.19 23.42 20.75 16.56 9.42 9.70 10.09 15.40 16.05 17.46 18.12 18.12 17.09 18.09 18.38 19.19 20.21 19.54 18.91 18.82 18.46 17.57 17.70 18.29 18.16 16.78 16.54 16.86 16.56 17.06 17.24 17.69 16.34 16.94
41.81 41.38 41.39 41.59 40.26 31.32 28.43 28.70 31.92 25.67 22.37 22.36 22.87 19.85 19.73 19.58 21.00 20.59 20.84 22.19 21.35 19.65 15.17 11.90 12.31 13.86 13.67 18.41 21.04 19.86 20.32 20.70 18.82 15.88 15.37 17.08 18.46 18.18 17.25 17.01 16.06 15.99 15.12 14.78 14.47 15.65 14.95 13.31 13.19 13.45 13.16 12.54 11.39 11.57
39.22 37.72 39.67 37.87 34.54 32.96 30.12 29.48 27.36 26.56 25.20 24.86 25.38 23.71 20.09 20.49 17.43 16.37 16.73 20.84 16.13 14.89 14.38 16.79 16.84 19.17 21.04 21.06 21.01 20.59 20.32 20.23 18.45 17.72 16.44 14.88 17.31 16.78 16.00 15.56 14.94 13.80 11.75 10.65 9.76 9.75 11.09 10.19 12.11 10.85 6.42 4.16 6.99 8.54
35.13 39.31 34.29 34.60 30.91 30.22 28.80 30.68 29.38 29.09 26.98 25.87 24.73 24.98 18.54 13.56 13.64 16.75 19.47 15.29 14.85 16.08 18.01 17.81 18.93 20.04 18.97 18.80 19.16 19.79 19.37 18.59 17.54 15.84 15.47 15.13 12.40 12.21 12.25 11.92 11.68 10.58 9.69 8.28 8.25 5.30 6.40 7.72 8.09 8.11 6.37 2.63 4.14 3.49
36.77 35.69 30.94 29.17 25.34 23.52 22.07 29.39 23.53 27.25 19.49 20.22 20.89 16.81 13.27 9.95 16.79 20.12 10.08 17.04 17.12 19.52 18.95 18.10 18.19 19.72 19.21 19.74 19.46 18.81 19.00 16.85 13.73 12.49 11.43 9.95 9.66 8.57 8.52 9.16 10.23 6.23 7.08 8.94 9.11 6.38 5.99 3.29 1.73 -1.20 1.24 2.74 0.99 -2.99
34.35 28.21 26.05 20.21 21.14 17.50 19.16 17.62 24.74 22.61 18.26 15.24 13.79 10.36 14.63 12.41 16.68 10.24 10.24 12.88 18.24 20.67 18.50 17.74 16.91 14.73 15.13 14.99 13.01 14.04 14.77 14.10 12.14 12.12 12.04 9.63 7.49 7.09 8.05 7.91 8.12 8.99 9.76 8.86 5.98 1.64 1.02 -3.86 -2.81 -3.01 -7.27 -6.15 -8.07 -8.75
20.40 18.42 19.11 14.69 19.44 14.59 7.56 6.69 10.47 14.50 8.51 10.86 8.65 9.03 10.86 15.69 6.15 4.36 6.33 13.24 13.62 13.64 14.40 16.40 15.48 14.37 11.20 10.17 10.50 11.43 13.52 12.23 9.19 8.14 10.13 11.85 8.50 7.48 6.65 6.78 6.05 6.93 7.17 0.99 -3.14 -7.66 -10.93 -7.13 -5.31 -7.74 -7.78 -11.14 -5.22 -13.65
11.60 14.15 14.62 12.52 12.91 14.14 12.08 6.75 6.17 7.30 7.64 7.70 10.67 15.73 10.56 3.61 -0.17 3.20 11.30 9.37 7.65 11.01 8.37 4.47 9.72 10.36 10.15 10.95 9.13 8.56 9.70 11.68 10.06 6.76 7.74 8.92 7.61 1.57 -0.12 -4.08 -4.04 -0.07 2.08 -6.21 -6.99 -9.66 -7.85 -10.95 -11.49 -7.85 -10.20 -9.31 -11.47 -14.37
8.28 10.09 20.11 24.20 23.20 20.69 13.55 13.68 16.39 10.83 6.84 7.24 6.67 5.76 0.13 -6.76 -6.03 9.23 14.50 12.96 12.10 9.68 12.25 13.15 13.57 11.66 10.14 9.91 10.74 10.14 9.60 9.74 8.52 8.34 9.18 7.99 6.87 5.29 -2.15 -7.22 -6.03 0.18 0.87 -5.43 -8.40 -10.56 -11.83 -12.56 -13.28 -15.28 -16.37 -15.10 -16.73 -13.47
18.68 15.12 8.10 9.31 11.07 15.30 6.15 5.98 4.67 4.30 6.09 14.99 7.35 -2.80 -4.94 -3.68 3.90 10.31 9.71 11.57 10.15 13.94 13.77 13.43 13.47 13.03 11.39 10.88 9.54 6.85 5.93 4.37 6.40 6.87 7.35 5.86 3.55 -1.71 -2.27 -2.26 -1.93 4.48 -1.89 -7.54 -10.20 -14.06 -13.65 -14.92 -14.19 -16.00 -16.91 -14.92 -15.28 -8.75
10.55 14.77 12.04 3.96 6.77 8.44 9.61 5.03 5.75 11.74 14.15 12.39 -2.65 -1.86 3.54 12.71 5.89 10.17 11.89 10.79 10.41 11.24 8.37 7.61 2.49 2.87 4.52 3.91 0.29 -0.90 -5.49 2.22 -0.09 -5.13 -7.12 -9.30 -7.48 -1.90 -7.66 -8.75 -7.66 -10.56 -12.38 -9.33 1.37 0.68 -2.09 -10.44 -11.47 -8.93 -7.50 -8.21 -8.24 -8.21
11.95 15.04 7.35 2.03 2.38 5.35 8.23 8.55 2.87 0.57 10.36 7.33 11.29 11.85 10.12 10.10 14.08 11.93 12.98 14.52 6.59 -0.30 -1.74 -0.85 -0.96 -0.09 -4.58 -5.51 -10.38 -6.23 -9.13 -14.73 -12.38 -6.82 -8.94 -10.56 -7.51 -4.28 -13.83 -12.74 -10.75 -13.28 -14.37 -13.28 -14.37 -10.76 -2.04 -11.85 -8.09 -13.16 -13.00 -12.21 -14.75 -17.09
16.78 10.26 6.45 6.14 5.50 5.79 2.93 -0.51 7.97 7.50 1.38 -0.34 -3.71 -2.47 0.76 4.83 6.93 10.37 7.72 4.90 4.14 0.72 2.06 -0.96 -0.08 -9.30 -1.23 -4.76 -11.83 -14.19 -11.47 -10.56 -14.46 -12.38 -11.29 -9.11 -6.21 -14.37 -15.46 -14.92 -11.29 -10.56 -10.56 -14.55 -16.73 -17.09 -13.47 -12.56 -17.45 -18.54 -18.36 -17.09 -17.64 -20.54
7.99 2.03 3.48 3.42 7.40 8.42 6.56 5.88 -1.50 -2.05 -6.21 -5.13 -6.03 -8.93 -3.14 -4.59 -5.31 -2.23 4.32 -0.81 1.56 -1.50 -4.40 -5.31 -3.31 -6.03 -11.29 -13.47 -16.00 -14.92 -7.69 -10.57 -12.38 -12.38 -10.75 -13.28 -15.46 -17.45 -16.55 -13.28 -16.37 -16.55 -17.27 -18.00 -18.54 -18.18 -17.09 -13.83 -14.37 -14.19 -15.10 -17.09 -19.81 -19.99
6.66 9.36 3.39 4.57 4.37 3.39 4.70 4.99 1.75 3.84 0.56 -3.86 -0.81 -1.19 -1.41 -0.79 -4.78 1.56 5.16 -0.05 0.64 1.91 -2.44 -6.03 -9.84 -9.84 -7.87 -8.23 -8.77 -11.29 -9.11 -12.56 -12.74 -0.96 -5.85 -7.12 -11.32 -10.20 -18.18 -19.99 -20.54 -20.54 -18.18 -19.45 -20.54 -18.72 -15.28 -15.10 -18.54 -19.63 -21.99 -23.26 -23.26 -24.71

GFSWCAN_sfc_wetblb_063.txt.gz
Wetbulb
45.32 45.16 45.17 44.98 45.05 45.13 45.39 45.60 45.74 45.91 45.82 45.81 45.96 45.84 46.24 46.70 46.49 45.84 43.33 44.89 40.45 34.53 36.79 40.73 41.23 37.92 36.99 36.25 30.74 33.55 34.38 33.75 31.32 27.14 27.22 26.71 23.06 28.76 29.32 31.55 31.06 29.76 27.89 26.10 28.79 27.00 25.60 42.89 40.93 35.84 40.59 44.03 45.91 45.99
45.12 44.96 45.08 44.81 44.65 44.81 45.47 46.01 46.08 46.28 46.26 45.96 46.07 46.44 46.33 46.31 46.48 46.00 40.37 44.95 44.76 38.47 36.25 42.75 42.06 42.42 42.19 41.58 37.77 37.02 35.47 36.00 35.72 30.42 28.72 29.37 24.72 23.89 29.05 25.48 35.15 29.29 32.65 29.66 31.88 32.51 40.94 42.64 41.96 43.88 44.97 45.75 45.52 45.53
45.08 45.32 45.53 45.69 45.90 46.12 46.40 46.47 46.42 46.38 46.40 46.39 46.37 46.55 46.77 46.95 46.87 45.37 41.91 43.36 42.29 37.40 37.53 37.50 36.83 43.74 47.10 47.16 45.32 35.51 36.59 39.85 38.67 38.71 33.44 31.66 26.26 29.86 24.03 26.51 30.72 33.65 38.04 33.81 35.21 38.36 40.11 42.25 44.74 46.81 48.06 47.53 47.39 47.13
45.65 45.90 45.83 46.01 46.33 46.26 46.29 46.05 45.87 45.94 46.30 46.30 46.60 46.76 46.81 47.04 47.14 46.28 42.44 43.67 40.76 38.65 32.38 32.66 42.41 39.62 45.34 46.96 47.17 46.36 42.58 43.81 42.04 40.04 34.44 31.83 32.06 35.38 28.09 32.03 31.38 33.76 35.90 34.97 35.42 39.66 41.67 43.60 44.37 46.02 46.03 47.79 48.12 48.67
45.70 45.84 45.81 45.73 45.91 45.96 45.99 46.04 45.96 45.82 45.91 46.30 46.47 46.78 46.90 47.11 47.41 46.47 44.34 44.44 42.97 36.69 29.54 30.40 40.79 41.75 42.96 45.47 44.70 45.17 44.07 42.61 39.30 36.31 34.36 34.10 34.20 36.93 37.03 35.62 30.95 37.43 35.67 32.74 31.12 39.71 38.98 41.62 44.32 45.35 45.67 44.95 46.80 46.71
45.83 45.68 45.57 45.74 45.79 45.78 45.78 45.69 45.62 45.72 45.20 45.58 46.51 46.72 46.70 46.90 46.86 44.14 37.72 43.89 44.58 44.35 36.13 27.34 38.08 40.09 41.29 43.73 42.92 41.78 41.62 41.08 41.61 39.42 34.18 38.42 41.37 37.67 29.40 30.72 36.70 38.42 38.92 38.96 38.32 40.08 40.23 42.58 43.71 43.74 43.78 43.88 45.02 44.22
45.53 45.60 45.61 45.02 45.40 45.35 45.30 45.20 45.05 45.43 45.77 46.03 45.94 46.60 46.60 46.58 45.18 38.50 36.24 41.48 45.35 45.17 36.60 31.39 29.09 40.22 43.01 41.71 40.80 39.76 43.07 41.51 39.60 38.08 35.65 36.02 37.76 40.45 30.86 27.88 33.76 35.74 36.16 37.88 40.41 40.21 41.15 42.22 40.60 41.69 42.14 41.33 39.34 36.59
45.27 45.38 45.26 44.88 44.97 45.43 45.51 45.41 45.39 45.57 46.07 46.05 46.51 46.51 46.47 46.19 45.65 42.61 44.43 45.46 45.77 41.58 39.06 31.27 31.55 34.58 43.00 37.01 36.02 40.76 38.25 39.52 40.28 37.02 38.85 37.18 38.75 36.87 26.43 29.95 32.40 33.59 35.26 38.01 37.15 40.74 40.10 40.62 38.44 36.87 37.18 36.43 32.91 30.63
44.82 44.57 44.40 44.21 44.29 44.59 45.21 45.21 45.43 45.94 46.23 46.12 45.75 45.26 43.65 42.55 38.68 41.38 46.01 45.81 45.03 40.58 31.96 28.35 25.89 29.24 39.45 36.20 36.36 37.53 38.35 32.01 38.94 33.20 34.31 37.31 29.95 22.79 26.69 29.00 29.15 30.63 31.57 33.31 35.39 38.94 39.03 35.82 34.30 33.75 31.93 31.80 28.79 26.67
43.75 43.55 43.47 43.71 44.23 44.38 44.64 44.58 44.90 45.65 45.34 45.13 42.22 37.97 32.93 40.87 46.08 45.40 41.93 36.88 35.72 38.22 34.46 26.67 30.74 33.23 37.39 32.91 29.65 32.43 32.67 31.95 30.35 32.75 35.69 27.36 24.17 28.19 28.97 28.44 29.42 30.01 32.42 33.75 33.17 33.33 33.83 35.32 32.05 29.82 28.49 28.34 27.17 25.92
44.10 44.01 44.04 44.12 44.44 44.64 44.73 44.88 44.41 45.66 44.01 40.02 37.37 34.87 41.47 44.87 40.01 36.09 31.03 31.00 32.21 26.66 29.55 30.66 31.64 31.18 36.25 32.51 31.95 32.72 31.60 30.77 27.13 31.23 27.66 23.10 20.99 25.35 27.07 26.04 27.46 29.20 30.48 30.47 31.86 30.26 29.96 29.79 28.82 27.25 25.86 25.64 25.14 24.74
44.46 44.37 44.02 43.73 43.82 44.43 44.57 44.59 44.49 40.92 38.63 38.64 39.87 40.34 39.83 35.06 29.35 27.00 22.66 26.26 28.13 28.28 31.71 33.41 34.69 34.98 33.24 37.86 32.69 33.23 31.24 30.70 23.40 29.04 22.40 16.83 22.42 25.36 25.07 24.52 25.12 25.91 26.31 26.02 26.54 25.96 25.99 25.23 25.07 24.04 23.18 22.51 22.57 22.71
43.67 43.78 43.93 43.42 42.84 42.68 42.75 43.65 43.17 44.29 43.35 39.35 34.66 29.03 27.10 22.62 16.04 15.20 20.81 24.82 24.29 27.81 27.89 31.16 32.35 33.03 34.76 35.38 32.31 31.52 28.42 27.74 28.93 19.93 16.34 18.47 23.45 24.55 24.65 24.13 23.51 24.46 24.41 24.17 23.88 24.01 23.78 23.26 23.86 23.11 21.58 21.95 21.68 20.82
42.96 43.09 42.95 42.63 42.90 41.98 41.70 41.09 40.73 38.18 34.24 27.51 24.10 15.72 16.66 12.63 17.61 18.73 19.62 21.30 24.55 26.55 27.03 29.83 31.42 31.72 31.63 30.47 29.20 24.53 24.18 24.39 15.41 11.82 11.73 18.82 22.08 22.93 23.91 24.09 22.59 21.66 22.53 22.37 21.87 21.96 21.63 21.33 21.07 21.59 21.35 21.35 20.02 18.97
43.10 42.86 42.89 43.17 41.99 42.18 40.58 40.73 38.75 33.56 28.80 23.10 21.77 12.66 15.70 21.44 21.22 21.27 22.87 25.38 26.82 28.20 28.57 30.48 30.82 29.37 25.37 23.85 23.51 22.54 15.77 10.14 12.90 8.13 14.07 20.79 22.52 22.61 22.64 23.14 22.36 21.85 21.64 21.45 21.94 21.31 20.86 20.58 20.21 19.89 21.16 21.57 21.32 20.38
43.45 41.64 40.70 43.22 42.72 41.12 39.06 36.35 34.06 32.60 27.52 23.72 20.56 15.69 18.09 14.16 15.03 15.74 17.46 20.36 26.06 26.40 27.88 27.35 23.49 22.64 20.21 20.34 17.22 15.29 12.07 8.93 11.03 14.45 19.72 20.18 19.50 19.69 19.53 20.63 21.39 22.63 22.66 22.42 22.64 22.13 21.79 20.63 19.82 19.77 20.55 20.08 19.74 19.27
41.63 38.06 42.58 42.74 42.62 39.79 38.75 32.88 30.62 27.15 24.93 22.47 19.20 22.00 17.59 11.26 12.46 16.03 19.32 21.35 26.28 23.80 21.51 21.18 14.39 14.93 22.69 17.15 11.40 14.58 11.05 14.26 16.38 16.88 18.26 19.18 18.82 19.05 20.10 20.44 20.45 20.39 19.76 20.26 20.63 21.34 21.81 22.49 21.56 19.68 17.71 19.18 19.53 19.12
35.56 37.81 41.99 42.77 40.70 37.14 34.14 31.93 28.12 25.14 18.59 19.56 17.09 17.87 20.10 16.46 14.12 14.94 21.33 21.82 21.97 22.29 21.53 16.51 19.71 11.25 10.31 9.92 7.41 13.42 14.92 17.28 18.85 18.68 18.50 18.14 18.11 18.28 18.93 18.02 18.69 19.19 18.65 18.28 18.42 18.23 18.76 18.23 17.63 17.74 17.99 17.85 16.93 16.41
39.86 38.88 41.72 42.27 38.44 33.27 29.90 29.07 29.23 18.66 19.07 20.69 20.11 20.78 19.62 17.95 20.37 20.80 21.03 21.66 21.91 22.51 19.55 15.58 9.32 8.59 9.02 12.55 12.39 14.53 15.95 16.56 14.96 16.10 16.74 18.10 18.26 17.52 17.12 16.97 16.14 15.25 16.18 15.91 15.36 14.55 14.29 15.06 14.98 15.10 15.45 14.39 11.63 12.19
41.71 40.98 40.96 40.61 39.38 31.24 28.75 28.74 30.99 23.84 20.22 20.71 22.28 19.09 18.87 18.64 19.57 17.37 19.75 21.47 21.18 19.00 14.39 10.48 9.70 10.11 13.31 17.29 17.83 18.10 18.15 19.11 17.34 14.70 14.13 15.39 16.25 15.50 14.55 14.83 14.07 14.44 13.44 13.36 12.65 12.80 12.19 11.08 11.32 11.03 10.81 10.08 8.22 6.88
37.37 36.98 38.67 36.45 33.46 32.83 29.31 28.38 25.70 25.08 23.92 22.37 22.57 20.91 18.33 19.93 17.09 16.40 16.71 19.70 15.18 14.27 12.65 15.45 15.33 18.14 19.72 19.75 19.93 19.34 18.95 18.89 16.80 15.56 13.68 12.32 14.87 14.47 13.14 12.82 12.00 10.64 8.37 7.21 6.82 7.38 7.53 7.61 8.68 7.28 4.49 0.50 2.31 3.45
32.96 39.08 32.62 32.09 29.77 29.42 27.44 28.98 27.40 26.88 25.33 24.03 23.63 23.36 15.55 8.73 10.29 14.10 18.11 12.93 13.89 14.70 16.86 17.12 17.94 17.70 17.43 17.34 17.84 18.15 17.32 16.38 15.13 13.20 12.57 12.60 9.33 8.82 8.16 8.31 8.53 6.24 6.08 4.54 4.45 0.05 3.07 6.72 6.02 3.86 -0.35 -6.74 1.21 -0.28
35.28 33.19 27.64 26.94 22.83 22.30 21.79 27.84 22.02 26.29 18.51 18.25 18.68 15.13 11.16 8.08 15.67 18.84 9.73 15.37 15.69 17.72 16.80 16.94 17.95 18.90 16.84 17.13 16.92 16.74 16.60 14.35 11.18 10.17 9.13 8.24 8.03 6.73 6.56 7.49 6.37 2.24 4.18 6.12 6.38 4.06 -0.03 -0.62 0.48 -0.14 -1.03 -2.49 -4.40 -9.48
32.53 25.03 22.05 18.01 21.00 15.10 17.28 16.31 24.40 20.57 16.14 13.51 12.07 10.20 12.18 9.66 14.65 9.34 9.33 12.76 15.82 18.03 16.84 16.51 16.13 13.79 13.59 12.99 11.55 12.10 12.85 12.44 10.43 9.50 8.93 7.31 5.59 5.86 6.85 6.86 6.94 6.11 6.18 5.65 2.74 -1.72 -1.92 -10.20 -7.87 -5.62 -9.51 -12.91 -16.90 -14.00
19.90 17.51 18.51 12.16 16.50 12.44 6.06 4.55 8.14 12.64 5.98 8.62 7.84 9.75 7.94 13.25 3.59 2.92 4.70 10.73 12.22 11.41 9.57 14.19 13.62 12.14 8.66 6.77 8.89 10.22 12.69 11.96 8.77 7.61 8.54 8.08 5.68 5.21 4.92 4.92 4.73 6.05 5.59 -2.96 -10.73 -12.36 -11.46 -15.45 -15.08 -13.63 -14.00 -17.44 -8.46 -15.63
11.48 12.83 13.87 11.45 13.26 13.35 11.28 7.38 6.01 5.79 5.34 4.96 8.04 10.86 7.12 1.18 -3.50 1.20 9.07 6.75 5.27 8.22 -0.77 3.41 7.52 8.81 8.90 9.91 7.96 7.30 7.92 10.00 9.08 5.93 6.81 8.98 6.69 -0.03 -4.77 -6.41 -5.85 -1.34 0.85 -7.48 -11.11 -14.36 -13.09 -14.91 -14.90 -12.91 -15.81 -13.63 -14.90 -19.07
8.30 8.87 18.78 21.00 20.85 18.45 11.49 11.81 14.53 9.71 5.48 6.08 6.52 -0.52 -2.36 -9.65 -9.83 5.84 12.69 12.02 10.47 9.98 13.15 12.06 11.81 9.82 8.34 8.13 8.70 8.19 7.99 7.83 6.59 6.14 6.81 5.97 4.95 3.71 -3.19 -8.42 -7.11 -1.57 -1.24 -8.24 -12.91 -13.82 -13.63 -16.17 -17.62 -18.17 -17.98 -18.71 -18.35 -17.62
14.92 13.59 6.23 5.07 7.43 11.87 1.21 0.78 -0.76 0.14 3.03 12.80 4.94 -6.03 -8.92 -6.43 1.92 8.13 9.23 10.94 9.44 13.31 12.60 11.94 11.96 11.24 9.42 7.69 5.16 4.81 2.21 3.00 3.81 4.05 4.49 3.93 2.13 -4.39 -6.38 -7.47 -5.66 2.14 -8.94 -14.19 -15.45 -18.35 -17.08 -17.26 -16.72 -17.80 -19.44 -17.08 -16.35 -18.35
8.04 10.44 8.05 -2.07 1.63 5.10 7.55 3.20 4.65 10.84 12.55 7.03 -6.08 -4.39 3.18 10.47 5.97 7.53 10.43 8.35 8.25 10.49 7.04 4.85 0.65 -2.09 -0.09 -0.83 -4.61 -3.31 -4.39 -2.05 -5.50 -9.46 -12.55 -13.82 -14.18 -4.59 -6.02 -12.91 -13.45 -14.54 -15.81 -11.29 -2.76 -1.49 -7.11 -14.36 -13.09 -14.54 -15.81 -14.54 -11.10 -14.00
7.50 10.88 2.63 -3.58 -0.97 2.32 2.29 3.83 -0.05 -2.22 7.71 5.67 9.78 10.95 8.48 7.11 9.67 6.93 7.89 4.50 2.03 -1.77 -5.11 -4.77 -6.94 -5.90 -9.58 -8.84 -12.37 -9.77 -14.38 -14.54 -7.85 -4.69 -11.83 -15.45 -9.77 -11.15 -17.08 -16.72 -15.81 -16.72 -17.80 -18.71 -17.08 -13.84 -4.39 -13.82 -10.39 -16.73 -17.45 -19.07 -21.43 -21.79
12.18 6.15 3.37 3.67 3.93 3.54 1.87 -6.03 -3.25 2.02 -4.50 -3.59 -6.74 -4.06 -0.46 2.23 6.29 9.80 8.93 3.46 -1.87 -2.24 -0.61 -5.29 -7.65 -11.46 -9.28 -15.27 -16.17 -15.63 -11.65 -13.82 -18.17 -15.27 -14.55 -15.09 -16.90 -17.08 -17.44 -17.98 -18.71 -18.89 -19.25 -20.16 -20.89 -20.34 -18.71 -18.89 -19.98 -19.44 -20.16 -18.89 -21.07 -24.51
2.65 -1.98 2.46 3.02 4.91 4.88 2.54 -6.02 -7.47 -8.38 -11.46 -6.93 -8.74 -13.09 -7.11 -6.77 -8.01 0.91 2.71 0.57 -0.28 -4.75 -8.56 -11.28 -6.38 -6.76 -14.36 -16.53 -18.89 -18.35 -11.48 -11.83 -15.27 -14.54 -11.28 -15.27 -16.90 -20.16 -20.16 -18.17 -22.70 -21.97 -21.61 -22.34 -23.61 -22.52 -20.70 -20.16 -20.89 -20.70 -21.07 -21.61 -24.15 -25.24
3.09 6.27 2.53 2.35 0.98 -1.49 0.79 0.96 -0.98 -2.76 -6.02 -7.83 -3.66 -7.47 -8.02 -8.06 -6.96 -1.52 2.31 -3.66 -2.26 -1.12 -3.17 -6.63 -11.10 -10.96 -12.20 -12.36 -10.91 -14.90 -14.18 -16.17 -16.35 -4.21 -8.74 -9.83 -14.76 -14.72 -22.15 -24.51 -24.69 -23.42 -21.07 -22.88 -24.51 -23.42 -21.61 -19.98 -22.52 -23.97 -25.24 -26.32 -26.69 -27.78

GFSWCAN_sfc_wetblb_066.txt.gz
Wetbulb
45.59 45.60 45.47 45.24 45.12 45.14 45.03 44.97 45.31 45.18 45.24 45.24 45.49 45.73 45.94 46.45 46.99 45.68 42.68 45.47 40.61 35.19 38.63 41.08 41.21 37.73 37.55 35.98 30.95 33.66 34.21 34.64 33.00 28.71 28.24 28.58 24.12 27.77 27.46 30.92 30.58 29.45 28.16 28.18 29.17 28.21 24.01 40.46 39.94 35.33 39.89 40.92 41.15 42.49
44.94 45.13 45.22 45.25 45.28 45.35 45.34 45.53 45.03 45.50 45.28 45.18 45.38 45.66 45.80 45.57 45.67 46.74 39.18 45.43 45.17 38.64 37.22 41.60 42.86 43.12 41.08 41.36 37.57 36.94 35.23 34.60 33.49 28.91 27.55 28.30 24.01 22.91 27.91 24.27 33.14 27.56 31.46 28.63 30.58 29.24 37.23 40.33 39.84 43.16 42.69 41.53 42.24 44.85
45.07 45.23 45.49 45.72 46.09 46.04 46.08 46.04 45.77 45.59 46.03 46.04 45.94 45.63 45.78 45.89 46.01 44.31 40.61 42.98 41.76 35.25 36.04 38.46 36.92 42.02 44.35 43.57 44.21 36.51 36.70 40.16 36.13 36.46 31.91 30.09 25.69 28.24 22.81 25.83 29.12 32.04 35.89 32.77 32.63 35.61 37.89 39.06 41.02 43.28 43.88 44.09 45.86 47.14
45.48 45.82 45.52 45.70 45.97 45.90 46.12 46.20 46.08 46.40 46.24 46.56 46.56 46.18 45.92 46.17 46.21 45.20 41.49 43.70 41.28 37.99 32.00 33.62 42.15 41.45 45.55 45.26 45.38 44.54 41.70 43.85 43.01 40.17 33.07 29.29 27.30 32.95 26.39 29.70 28.78 32.04 34.00 33.14 33.36 36.67 38.64 39.90 40.81 42.20 43.10 45.62 47.05 48.41
45.66 45.83 45.65 45.88 45.95 45.91 45.91 45.87 45.88 45.97 46.08 46.29 46.56 46.51 46.49 46.43 46.43 44.85 43.99 43.93 42.61 36.65 30.50 31.23 39.50 41.23 44.57 44.30 43.25 44.73 43.56 41.52 40.02 36.59 33.05 30.18 32.51 33.10 32.66 33.84 32.75 36.69 33.36 30.65 31.12 37.62 37.50 38.13 41.09 42.76 41.94 42.85 43.54 44.53
45.77 45.26 45.08 45.41 45.48 45.57 45.47 45.61 45.62 46.06 45.87 45.96 46.40 46.79 46.77 46.68 46.68 43.01 36.56 43.41 43.27 41.77 34.72 26.20 36.49 37.28 39.44 40.92 42.41 42.62 43.27 42.11 40.99 38.03 33.98 35.92 38.50 34.69 24.95 26.58 35.11 37.88 37.68 37.95 37.10 40.12 38.56 39.60 40.85 39.50 40.46 39.11 37.73 35.62
45.47 45.27 44.79 44.90 45.29 45.43 45.28 44.89 45.04 45.61 46.11 45.94 46.08 46.40 46.83 46.49 44.72 37.74 35.90 40.64 43.84 43.67 35.51 28.24 27.89 39.97 39.63 41.48 40.83 40.17 42.72 41.44 39.79 38.32 36.19 37.04 36.44 38.49 31.96 26.19 31.58 33.98 34.79 35.80 39.11 37.40 37.86 38.64 37.23 35.95 36.15 36.75 34.57 32.09
44.70 44.29 44.66 44.82 44.94 45.15 45.22 45.07 44.96 45.60 45.43 45.55 46.10 46.26 46.52 46.33 44.93 41.02 42.76 44.82 44.19 40.62 38.16 30.33 31.01 35.96 40.17 36.37 36.26 40.97 37.48 38.86 39.81 37.73 38.08 34.64 36.88 35.19 28.53 28.42 30.62 31.16 32.01 34.78 35.76 36.20 39.06 38.32 35.42 33.54 33.38 32.43 28.98 27.27
44.09 44.34 44.50 44.48 44.67 45.13 45.19 45.62 46.08 46.20 45.81 46.36 46.13 46.19 44.25 42.20 39.04 41.72 45.19 45.30 44.85 40.30 31.00 30.15 27.34 29.58 40.23 36.56 37.76 37.54 38.29 32.53 37.89 33.65 34.90 36.51 28.59 22.28 25.25 26.30 27.42 28.54 28.94 29.98 32.87 34.80 36.67 34.62 32.45 30.87 29.87 28.43 27.04 26.02
43.98 43.89 44.11 44.24 44.49 44.76 44.93 44.68 44.78 45.30 45.04 44.79 42.74 37.92 33.88 40.63 45.75 45.11 39.73 35.39 36.16 36.89 36.61 30.70 32.46 32.59 36.57 34.18 32.22 33.51 33.45 31.16 28.03 33.78 33.56 26.51 22.72 26.99 26.22 26.55 27.06 27.91 29.80 30.70 29.74 30.50 29.78 30.93 28.76 26.46 26.13 26.36 25.72 24.86
44.04 43.65 43.41 43.88 44.37 44.60 44.70 44.93 44.91 44.87 44.46 40.87 37.69 33.47 41.85 45.27 39.51 34.94 30.51 30.83 31.78 29.55 31.60 32.39 32.20 33.35 37.62 30.89 30.21 32.05 31.07 31.34 28.10 30.72 28.49 22.68 20.07 23.87 24.98 24.52 25.52 26.07 27.06 27.45 29.19 27.90 27.45 27.65 26.44 25.28 24.10 23.97 23.47 22.74
43.58 43.40 43.19 42.65 42.65 43.21 44.27 45.03 44.29 41.46 39.99 40.62 40.00 40.85 39.81 32.64 30.18 29.83 27.46 29.30 28.95 27.70 31.01 33.09 34.18 32.30 34.69 37.55 33.18 32.34 30.89 30.45 21.98 28.03 21.67 15.03 20.50 23.78 23.67 23.02 23.69 24.45 24.69 24.01 24.80 24.44 24.53 24.16 24.32 23.28 22.12 21.18 21.15 21.20
43.34 43.40 43.00 42.61 42.00 41.73 42.71 44.00 44.51 44.44 42.36 36.76 32.74 26.93 25.93 20.23 13.68 15.28 22.41 23.19 22.59 26.26 27.32 30.97 31.78 33.08 34.17 35.16 32.20 31.28 28.10 23.62 27.04 18.54 15.10 17.16 21.33 22.62 22.81 22.43 22.07 23.24 23.31 23.10 22.69 22.60 22.40 22.01 22.55 21.34 19.91 20.43 20.19 19.43
42.99 43.23 43.59 42.50 41.24 41.69 40.59 39.36 40.49 37.94 33.89 26.71 22.04 11.68 10.96 7.42 14.80 16.59 18.00 19.13 23.76 26.16 26.45 29.28 31.40 30.08 30.66 28.68 26.23 22.83 21.63 21.97 13.90 10.84 10.30 17.22 19.80 21.71 22.47 22.82 21.51 20.99 21.33 20.71 20.17 20.35 20.23 20.15 19.70 20.14 19.60 19.65 18.72 17.42
42.81 42.86 42.64 42.35 41.54 40.29 39.86 39.43 37.43 33.39 28.60 22.66 21.47 10.95 12.75 18.58 18.76 18.76 20.90 22.57 25.54 27.09 28.05 30.69 27.55 27.07 23.90 22.58 21.75 20.64 14.60 11.42 11.94 7.08 12.54 18.69 20.60 21.66 21.44 22.00 21.49 21.18 20.83 20.59 20.77 20.02 19.70 19.66 19.17 18.40 19.34 19.67 19.25 18.39
42.42 41.42 40.48 42.60 40.38 39.75 37.67 35.90 34.01 32.35 27.75 22.75 19.34 14.97 16.95 15.24 14.86 16.29 17.93 17.18 24.26 24.99 28.35 26.80 24.86 21.59 19.31 19.43 15.71 13.32 11.57 7.90 9.91 15.06 18.09 19.42 19.40 19.58 19.41 19.74 19.95 21.23 21.59 21.19 21.14 20.56 20.01 19.09 18.13 18.06 18.64 17.91 17.10 16.68
41.35 36.93 41.78 42.63 39.52 38.91 38.31 32.12 29.91 25.05 23.50 20.71 15.44 17.06 11.13 11.37 11.90 14.97 17.70 19.89 24.76 24.70 19.98 21.79 15.76 14.75 21.96 14.72 10.40 13.00 9.98 12.65 15.32 16.18 17.54 18.15 17.79 17.99 19.07 19.36 19.20 19.16 18.91 19.29 19.82 20.69 20.17 20.52 19.78 17.85 15.60 16.89 17.19 16.97
36.36 37.64 41.26 42.70 39.90 36.87 33.55 31.77 26.93 22.31 16.66 18.68 13.90 14.04 13.23 13.01 12.70 14.22 19.28 21.85 22.83 22.48 20.55 16.15 19.16 12.22 10.27 9.78 7.73 12.44 14.81 15.87 17.42 16.70 16.52 16.88 16.86 16.67 17.34 16.64 17.53 18.00 17.45 17.43 17.72 17.85 17.87 17.61 16.35 15.63 15.53 15.01 13.87 13.36
38.71 38.83 41.23 41.36 37.59 33.04 29.11 28.08 26.68 16.86 17.70 17.90 17.48 17.21 15.25 16.25 17.80 19.57 20.27 22.05 22.44 22.68 19.30 16.15 10.03 8.51 7.29 11.89 11.84 12.82 14.55 15.58 14.13 14.69 15.17 16.13 16.64 16.44 16.45 16.54 15.94 15.26 14.77 14.97 14.73 13.66 13.08 13.36 13.11 12.88 12.15 11.28 8.91 9.85
40.87 40.10 40.60 40.37 38.81 30.37 28.26 27.74 28.56 21.11 17.89 19.72 21.07 18.52 18.56 17.72 18.71 14.53 18.80 20.31 20.31 17.88 13.57 11.41 10.30 10.28 11.43 15.16 15.99 16.24 16.61 17.90 15.94 12.75 12.34 13.77 15.00 14.22 13.35 13.76 13.01 13.65 12.55 11.83 10.68 11.27 10.92 9.62 9.48 8.89 8.26 7.31 5.15 3.98
35.75 36.26 38.17 36.18 31.84 31.70 29.17 26.78 24.32 23.64 22.96 20.45 21.11 20.08 17.84 18.72 15.79 15.15 14.93 18.99 14.21 13.79 11.30 14.26 14.44 16.70 18.39 18.38 18.46 17.72 17.06 17.32 14.93 14.57 12.28 10.43 12.73 12.50 11.26 10.98 10.47 8.74 6.47 4.33 4.72 5.37 5.17 4.66 5.69 4.80 1.60 -4.56 -3.83 -0.93
32.41 37.73 31.00 30.90 28.78 28.89 26.96 28.08 25.52 25.83 24.97 23.77 22.03 21.37 14.22 8.42 9.78 13.77 17.01 11.67 11.48 12.50 15.97 16.30 16.47 16.43 15.99 15.56 16.06 16.42 15.81 14.70 13.72 11.90 11.49 11.65 8.41 7.08 5.48 4.44 5.66 2.70 2.49 -1.65 1.28 -3.11 2.13 4.57 3.01 0.65 -4.11 -10.54 -2.37 -3.25
34.25 32.28 26.98 26.01 22.50 21.73 22.05 27.71 22.03 25.39 15.71 16.38 18.28 13.91 9.10 7.52 14.80 18.26 9.71 14.55 14.38 17.75 17.26 16.47 16.30 16.60 14.98 15.54 15.21 14.84 14.83 12.70 9.70 8.53 7.46 6.44 6.25 4.37 4.72 5.08 2.35 -0.81 0.85 3.16 3.88 1.00 -0.25 1.02 -1.54 -6.37 -8.00 -7.90 -10.09 -15.26
31.37 23.25 18.12 14.30 19.15 14.03 16.59 14.94 22.75 18.61 14.94 12.98 11.82 9.54 8.42 8.84 13.68 9.04 7.47 9.91 14.94 17.50 16.00 15.92 15.15 12.52 12.50 11.99 9.97 10.53 10.98 10.63 8.57 7.55 7.35 5.94 4.11 4.38 5.28 5.18 4.70 3.13 4.06 4.16 0.87 -4.45 -5.35 -14.53 -10.90 -7.65 -16.88 -18.88 -20.87 -19.24
19.13 16.33 15.73 8.92 13.54 11.03 4.74 2.88 6.82 11.54 5.42 7.44 7.11 6.60 6.50 12.46 4.59 2.76 2.27 7.33 8.83 4.33 6.14 11.89 12.07 10.87 7.49 6.79 8.42 9.53 11.26 10.66 7.55 5.82 5.99 6.51 4.10 3.79 3.81 4.01 3.64 4.36 3.16 -7.83 -13.26 -15.25 -16.34 -19.60 -19.06 -17.06 -14.54 -20.15 -9.45 -16.34
10.41 13.58 13.81 9.60 10.41 11.15 9.71 5.53 4.71 5.08 5.02 5.47 6.86 7.87 6.10 2.19 -2.10 0.12 7.37 2.13 1.22 4.10 -2.92 1.47 4.31 7.33 7.77 8.71 6.62 6.16 6.86 8.89 8.14 4.97 5.90 7.96 4.71 -2.79 -6.55 -7.47 -6.37 -1.88 -1.24 -10.54 -14.35 -16.88 -14.89 -16.88 -17.61 -14.89 -17.06 -14.71 -16.16 -20.51
7.42 6.97 16.93 18.17 18.61 15.82 8.08 8.74 11.81 6.07 1.06 3.40 4.01 -3.54 -4.52 -10.73 -10.72 4.55 11.00 8.81 7.34 8.10 11.05 9.98 10.62 9.19 7.60 7.14 7.30 6.42 6.22 6.04 4.74 4.59 5.09 4.23 3.64 2.65 -4.34 -9.86 -8.18 -3.17 -2.64 -9.31 -15.25 -15.98 -15.61 -17.97 -18.70 -19.24 -19.06 -18.33 -22.68 -21.96
11.99 12.31 5.64 2.27 5.22 9.03 -2.60 -3.29 -4.74 -2.02 3.02 11.15 3.26 -7.65 -9.63 -8.26 1.84 7.06 9.41 10.56 10.62 11.77 10.18 8.77 9.01 8.69 7.02 5.10 3.22 2.74 0.45 -0.64 1.46 1.04 1.35 1.25 0.02 -5.82 -8.91 -9.81 -5.28 0.70 -11.82 -16.90 -17.98 -20.15 -18.52 -19.06 -18.70 -20.51 -21.96 -18.88 -17.79 -20.87
7.05 8.80 7.16 -2.24 1.21 2.66 3.47 -1.31 1.96 8.65 10.29 4.55 -6.97 -4.92 1.76 8.25 4.72 6.77 9.99 8.53 7.22 8.67 5.24 2.74 -2.40 -4.56 -1.91 -2.29 -6.55 -5.46 -6.91 -6.91 -7.51 -11.63 -14.16 -14.71 -17.06 -8.40 -11.26 -14.89 -15.98 -17.25 -19.42 -13.98 -5.82 -5.64 -12.71 -17.06 -17.61 -19.42 -18.70 -16.70 -16.52 -21.23
3.42 7.39 -0.62 -7.17 -4.27 -1.65 -2.92 1.62 -1.15 -2.06 5.70 4.96 8.72 9.63 7.10 6.05 8.75 7.89 3.98 2.69 0.72 -3.30 -6.55 -6.19 -12.89 -12.14 -12.54 -11.83 -12.71 -9.11 -12.73 -16.34 -11.09 -4.95 -9.27 -13.98 -11.01 -14.02 -18.70 -18.15 -17.97 -19.78 -22.50 -20.69 -18.70 -15.08 -4.92 -15.07 -12.53 -20.15 -21.42 -22.50 -25.40 -25.95
7.90 1.13 -0.94 0.18 -0.39 -0.88 -2.01 -9.27 -8.54 -1.58 -5.93 -4.83 -8.18 -4.77 -1.88 -0.59 4.69 6.12 3.49 -4.19 -6.55 -6.39 -4.78 -10.72 -12.17 -17.25 -12.45 -17.06 -16.72 -15.43 -11.50 -15.45 -21.05 -17.61 -16.89 -20.15 -21.60 -20.15 -19.42 -20.15 -21.78 -20.87 -21.05 -21.96 -22.32 -22.32 -22.14 -22.87 -24.68 -23.41 -22.50 -21.42 -23.59 -26.67
-1.68 -5.29 0.33 -0.44 0.34 1.70 -0.49 -11.08 -11.44 -9.09 -15.07 -8.54 -10.90 -16.16 -10.18 -8.41 -9.27 -1.58 0.41 -1.39 -1.87 -4.19 -7.27 -12.17 -11.26 -7.82 -11.08 -15.25 -20.15 -20.15 -14.35 -15.26 -17.25 -17.79 -14.53 -18.15 -18.52 -21.42 -22.50 -21.60 -26.49 -25.59 -25.04 -25.22 -26.13 -24.86 -22.50 -22.50 -23.77 -24.68 -25.22 -24.86 -26.85 -27.76
1.14 0.83 0.72 0.61 -2.39 -3.11 -1.32 -0.82 -2.42 -6.01 -10.18 -10.54 -9.09 -12.89 -13.80 -10.26 -7.36 -2.38 -0.69 -4.38 -3.33 -3.69 -5.66 -8.56 -13.62 -17.43 -15.80 -17.06 -15.61 -18.15 -17.25 -18.88 -18.33 -5.10 -10.72 -11.08 -16.35 -17.06 -25.04 -27.40 -27.04 -25.59 -23.05 -24.68 -26.31 -25.95 -23.77 -22.32 -24.14 -25.59 -26.85 -28.49 -27.04 -28.12

GFSWCAN_sfc_wetblb_069.txt.gz
Wetbulb
44.75 44.92 45.14 45.23 45.31 45.50 45.45 45.62 45.42 45.59 45.57 45.59 45.40 45.38 45.97 45.75 45.82 44.05 41.90 45.02 40.30 34.41 37.91 40.35 40.71 37.94 37.97 36.59 32.31 35.14 34.49 34.89 34.40 30.22 29.91 28.85 28.31 30.77 30.07 32.70 32.02 30.46 29.52 29.64 30.66 28.38 25.52 41.12 41.73 37.16 40.82 44.80 44.35 45.30
44.46 44.83 44.93 45.20 45.27 45.55 45.80 45.85 45.43 45.34 45.22 45.08 45.19 45.17 45.16 46.15 46.34 45.85 40.03 45.20 44.99 38.16 37.85 42.80 43.88 44.65 43.09 41.42 38.32 37.68 35.94 35.25 36.36 32.62 31.72 32.12 29.20 29.39 30.96 26.75 35.25 30.12 34.73 32.88 34.30 34.21 40.32 42.97 42.68 44.29 44.74 43.62 44.68 45.01
44.77 44.98 45.51 45.65 46.00 45.49 45.74 45.90 46.38 46.11 45.71 45.37 45.28 45.00 45.26 45.46 46.24 45.90 41.25 43.93 41.93 34.08 36.90 38.66 37.88 42.99 44.89 44.69 45.42 36.24 37.70 39.96 37.57 39.66 34.88 33.19 28.95 32.28 28.57 29.77 32.92 35.26 38.01 34.86 34.75 37.91 39.69 41.82 43.20 44.40 44.39 43.67 45.14 46.45
44.95 45.29 45.52 45.88 45.86 46.05 45.77 46.01 45.83 46.00 45.92 45.83 45.88 45.16 45.03 45.39 45.45 43.01 40.60 43.92 40.45 37.76 32.98 35.31 42.24 41.29 45.48 45.45 45.03 44.81 42.56 44.33 43.49 41.68 36.46 32.57 31.06 34.69 31.40 33.12 32.91 35.62 36.58 35.35 35.61 38.56 39.59 41.78 42.17 42.37 42.40 44.04 42.54 42.06
44.93 45.45 45.40 45.31 45.45 45.55 45.95 45.97 45.95 45.87 46.04 46.33 46.24 46.30 45.81 45.46 45.46 43.27 43.54 43.74 44.21 38.32 31.52 33.31 39.56 41.73 43.96 43.58 43.10 44.76 43.62 42.18 40.55 36.74 34.07 34.14 35.14 36.37 35.90 35.99 33.10 37.68 35.85 34.12 33.38 37.70 37.12 38.03 41.76 40.95 39.63 39.26 37.82 36.45
45.26 45.07 45.07 45.20 45.10 45.29 45.40 45.31 45.90 45.79 45.83 46.41 46.38 46.45 46.24 45.67 45.42 41.06 34.13 42.77 44.61 44.06 35.75 30.02 38.40 38.49 41.44 42.55 41.81 41.01 41.95 41.87 40.91 37.91 35.92 37.70 40.12 37.45 32.67 30.94 35.89 37.33 37.42 37.74 36.92 38.98 39.52 40.50 41.77 37.62 36.87 37.25 35.90 33.82
44.97 45.11 45.23 45.02 45.36 45.52 45.21 45.07 45.19 45.63 45.87 45.85 46.36 46.59 46.32 45.58 42.68 37.81 36.03 41.02 44.55 44.17 35.35 29.91 31.44 38.88 41.13 40.93 40.23 40.21 40.88 39.26 39.45 37.46 35.80 36.97 38.51 39.71 33.49 30.23 31.62 32.98 33.13 34.11 36.69 37.25 38.51 39.11 37.06 36.17 34.87 34.61 33.28 31.36
44.68 44.81 44.85 45.15 45.13 45.34 45.07 45.07 45.04 45.70 46.04 45.83 46.29 46.36 46.14 45.67 44.34 40.90 43.70 44.45 43.94 40.33 38.21 31.37 31.23 34.91 40.11 35.73 35.58 41.44 38.57 39.66 38.81 36.32 37.50 36.17 37.79 36.73 31.73 28.51 28.92 29.68 30.63 33.46 32.31 34.36 34.81 37.99 35.24 32.61 32.56 32.43 29.51 27.61
44.11 44.43 44.73 44.84 44.76 45.41 45.22 44.89 45.49 46.11 45.85 46.11 46.31 46.27 44.07 41.82 36.67 40.44 45.08 45.34 44.87 39.92 31.42 31.67 29.87 29.79 38.78 36.65 37.92 37.93 39.36 32.45 39.06 34.18 35.55 37.32 30.94 28.74 24.29 24.31 24.85 26.06 26.03 27.96 30.54 32.57 33.89 33.42 29.37 28.59 28.54 28.11 26.99 25.19
43.46 43.11 43.45 44.31 44.48 44.58 44.85 45.35 45.16 45.56 46.13 45.46 42.99 37.92 34.67 40.85 45.39 44.37 39.89 36.15 36.61 37.58 37.09 30.53 33.49 32.07 36.94 35.03 33.54 33.18 34.23 32.80 30.26 32.94 33.93 27.94 23.19 24.77 24.83 25.07 25.00 25.24 26.36 27.60 26.95 27.02 27.38 28.53 27.03 25.60 25.21 25.58 25.36 23.67
43.50 42.97 42.63 44.02 44.60 44.66 44.79 44.71 44.89 44.87 44.26 41.98 36.19 34.23 42.01 44.28 39.57 36.04 31.55 30.89 32.36 30.08 33.01 33.40 34.49 32.64 37.50 32.17 32.24 33.76 32.42 31.96 27.44 30.00 28.58 23.02 20.57 22.18 24.83 24.03 24.60 25.25 25.84 25.91 26.92 26.11 26.05 26.22 25.28 23.93 23.19 23.39 22.77 21.61
43.67 42.93 42.46 42.60 44.32 44.68 44.87 44.62 44.32 41.37 39.39 39.44 38.38 39.84 36.23 31.85 30.89 30.29 28.70 30.09 29.58 27.63 30.65 33.12 33.89 34.96 35.35 35.98 33.91 32.61 31.60 31.22 25.37 28.49 21.60 16.01 20.07 22.62 22.92 22.22 22.82 23.93 24.29 23.51 24.34 23.58 23.54 23.13 22.67 21.96 21.23 20.40 19.79 19.64
43.26 42.72 42.02 41.68 43.91 45.03 44.62 44.79 43.95 43.35 40.96 36.83 31.60 26.02 26.51 21.00 13.70 14.30 22.46 22.31 23.58 25.51 27.19 30.70 32.10 33.19 34.38 35.79 32.83 32.29 27.54 22.04 26.88 19.28 14.39 17.16 20.44 21.86 21.95 22.12 21.80 22.97 22.71 22.32 22.04 22.40 21.57 20.69 21.04 20.40 18.92 19.61 19.25 18.20
42.99 42.79 41.96 41.22 41.30 40.35 40.22 41.27 40.21 37.32 33.77 26.82 22.65 12.43 13.08 10.09 16.03 17.12 18.05 19.20 24.26 26.40 26.29 29.32 29.76 29.10 29.15 27.47 25.98 22.14 22.12 22.62 14.97 11.47 10.87 17.55 20.04 21.18 22.34 22.72 21.23 20.17 20.59 20.17 20.22 19.98 19.50 19.26 19.02 19.53 19.35 18.99 17.54 16.22
42.62 42.50 41.33 41.10 40.35 40.04 39.55 38.25 36.80 32.87 27.75 21.61 20.12 10.81 13.73 18.69 19.39 19.68 21.65 23.06 24.75 26.47 28.03 30.49 26.77 26.74 23.71 21.01 21.83 20.76 16.46 11.70 12.33 10.81 15.10 18.77 20.73 21.58 21.39 21.85 21.14 20.45 20.22 19.91 20.03 19.09 18.45 18.25 17.68 17.34 18.47 18.44 18.15 17.52
42.22 41.60 39.87 39.84 39.94 38.53 37.39 35.80 33.69 31.82 27.27 21.23 17.40 13.19 15.67 14.70 15.21 16.87 18.30 19.39 24.35 23.97 28.65 27.89 24.40 21.11 18.56 17.99 14.75 12.10 12.55 8.74 11.31 15.78 18.69 19.89 19.11 19.16 19.19 19.69 19.96 21.06 20.98 20.45 20.09 19.83 18.95 18.06 17.31 17.21 17.59 17.03 16.45 16.01
41.16 36.72 41.31 40.23 38.71 37.78 37.46 31.72 28.54 23.47 21.47 18.05 14.44 16.18 13.49 15.03 14.90 16.72 17.94 19.71 23.82 24.38 20.22 21.63 16.05 15.08 20.79 13.85 10.00 13.10 10.02 13.06 15.58 15.71 17.09 17.73 17.39 17.79 18.72 18.83 19.19 19.30 19.03 19.49 19.67 19.63 19.00 19.30 18.49 16.76 14.74 16.05 16.48 16.00
36.25 37.62 40.98 42.31 39.66 36.07 32.88 29.79 24.92 20.81 15.53 17.25 12.67 14.45 15.50 16.01 16.14 17.25 19.31 22.18 22.97 22.24 20.93 17.49 19.83 13.18 10.91 10.04 9.50 13.53 14.24 15.60 16.11 15.88 16.07 16.47 16.68 17.05 17.88 16.58 17.30 17.90 17.25 16.95 17.29 17.25 17.17 16.42 15.41 14.67 15.00 14.79 13.80 12.98
38.75 39.34 41.29 40.63 37.25 32.60 28.00 25.88 24.95 14.82 15.78 18.56 19.13 17.26 16.67 15.76 18.18 19.62 21.03 23.10 23.30 23.28 20.74 17.34 12.23 10.33 10.48 13.45 13.14 14.18 15.34 15.62 13.85 14.30 14.64 15.58 16.43 16.40 16.20 16.30 15.72 14.98 14.93 15.13 14.93 13.38 13.17 13.70 13.45 13.29 12.86 12.59 11.02 11.43
39.89 40.57 40.12 40.21 38.63 31.61 27.07 25.16 27.20 20.35 16.38 18.81 20.78 18.22 18.12 17.84 19.64 17.81 18.35 20.19 19.65 17.77 13.39 11.17 10.61 12.51 14.01 15.84 16.69 16.40 16.95 17.22 15.70 13.01 12.33 13.57 14.85 14.15 13.78 14.11 13.79 14.14 13.32 12.65 11.67 12.42 11.78 10.26 9.97 9.53 9.44 9.03 8.74 6.91
36.74 37.01 37.26 35.51 32.75 30.15 26.74 24.81 22.79 21.98 21.78 19.15 20.76 19.99 17.52 18.09 16.02 15.38 15.47 18.41 14.32 12.94 11.28 14.04 14.09 16.17 18.04 18.30 18.70 18.54 17.91 17.86 15.89 15.20 12.44 10.82 12.84 13.06 11.89 11.62 11.18 10.29 8.72 8.11 8.03 6.98 7.26 6.88 7.35 6.95 6.13 4.79 5.07 6.61
32.97 36.34 29.69 30.13 28.05 27.54 25.91 26.56 24.07 24.95 23.67 22.04 20.97 19.30 14.42 12.88 13.41 14.34 16.95 11.59 11.31 12.88 15.62 15.37 15.98 16.10 15.52 15.21 15.81 16.35 15.76 14.83 13.80 13.00 12.77 12.24 9.68 8.57 7.20 7.59 7.78 5.95 5.76 5.93 6.57 5.65 6.26 6.43 6.10 5.17 4.55 3.95 4.27 4.65
33.94 31.84 26.01 27.01 21.55 20.31 22.69 28.49 21.25 24.06 16.57 17.41 18.10 13.44 11.30 10.44 14.93 17.91 11.09 13.54 14.16 17.23 17.00 16.22 16.24 16.29 14.76 15.25 14.92 14.46 14.39 12.50 9.85 8.77 8.27 7.73 7.45 7.21 7.34 6.73 6.64 5.51 5.11 5.53 6.76 6.20 5.18 2.89 0.98 2.80 2.64 3.29 3.35 2.13
30.45 21.53 15.10 14.20 19.45 13.72 15.39 13.82 21.97 17.99 15.44 14.40 13.01 10.21 9.84 10.42 13.96 10.46 8.28 10.60 14.81 17.09 15.89 15.30 14.53 12.77 12.46 11.64 10.46 10.46 10.88 10.68 9.17 8.50 8.87 7.94 6.35 6.09 7.07 6.54 6.69 6.53 6.87 5.94 4.11 2.78 1.32 0.20 -1.24 1.46 -1.10 -0.76 -2.02 -0.06
18.51 15.08 14.57 7.71 13.31 10.92 6.43 4.55 8.47 11.82 7.12 8.85 8.99 7.50 8.11 13.34 6.42 5.49 5.23 9.96 12.19 11.02 10.23 12.63 12.62 11.64 8.77 8.75 9.56 9.93 11.62 11.10 8.93 6.97 7.73 8.15 6.40 6.25 5.57 5.59 5.24 5.58 5.45 3.33 1.20 0.69 -1.82 -3.80 -2.31 -0.42 -0.74 -0.59 0.92 -1.71
10.06 12.64 12.55 8.74 9.13 11.01 8.58 3.48 2.64 4.98 5.93 4.20 4.90 7.81 7.09 4.39 1.37 2.01 8.09 8.56 8.81 8.66 4.60 6.22 8.89 9.23 8.82 10.01 8.67 8.33 8.49 10.68 9.79 7.04 6.97 8.50 6.67 4.48 2.90 2.21 2.33 3.47 2.65 1.11 0.34 0.57 -0.40 -3.03 -2.26 -1.84 -1.89 -4.32 -11.92 -3.49
5.37 4.52 14.41 15.58 15.99 13.66 5.85 6.82 10.44 6.07 1.66 2.94 3.23 -1.73 -1.16 -5.61 -7.02 5.00 11.42 11.04 10.32 9.86 11.10 11.52 12.32 10.60 8.72 7.37 7.32 6.70 6.91 7.10 7.08 5.89 5.97 5.51 4.99 5.16 3.32 1.70 0.76 3.51 3.01 0.66 -0.04 0.83 1.00 -1.17 -1.91 -2.95 -2.60 -3.04 -3.96 -4.12
10.16 9.23 2.11 0.49 3.63 7.16 -3.22 -1.43 -1.04 -0.86 4.63 9.70 3.27 -6.88 -8.16 -5.79 2.83 8.38 9.83 11.08 10.74 10.27 8.73 7.70 8.25 9.08 7.71 5.87 5.05 4.42 3.42 3.27 3.65 4.42 4.89 4.41 2.38 0.74 -0.08 0.74 0.55 0.99 -0.80 -2.88 -1.42 -3.64 -1.44 -1.12 -1.13 -2.51 -4.12 -2.39 -2.37 -5.95
4.34 6.39 6.12 -3.44 -0.54 0.69 1.58 -2.16 1.97 7.74 9.09 3.78 -4.96 -2.13 3.12 7.25 5.80 8.74 10.25 10.24 10.53 9.23 6.10 3.82 0.33 0.83 1.09 0.49 -1.73 0.21 1.79 2.67 2.28 -3.08 -3.76 -1.60 -2.24 1.35 -2.09 -2.50 -2.13 -3.43 -3.76 0.03 -4.30 -0.71 -2.19 -2.10 -2.78 -2.88 -4.49 -3.76 -4.68 -7.76
1.90 6.33 -1.95 -9.12 -5.99 -2.13 -3.41 2.15 0.52 0.66 5.13 6.13 9.23 9.03 6.66 6.47 8.81 10.10 9.06 8.72 7.20 3.34 -1.36 -1.01 -4.12 -0.20 -0.68 0.59 -1.23 -0.89 -4.18 -5.21 -1.71 1.06 -0.51 -0.92 -0.26 -1.61 -3.58 -2.25 -1.89 -4.67 -6.31 -2.63 -1.09 -0.18 -2.20 -2.91 -2.23 -5.79 -5.77 -5.39 -5.27 -5.46
6.03 0.72 -1.43 -0.34 -1.05 2.20 -0.27 -6.87 -7.57 -2.08 -4.24 -2.86 -3.66 -1.91 0.15 2.27 6.82 6.21 1.91 -3.29 -2.95 -4.41 -1.25 -2.51 -5.25 -8.69 -3.70 -5.00 -2.65 -3.59 -1.61 -4.41 -12.46 -8.84 -7.37 -6.61 -7.23 -5.21 -5.21 -6.66 -8.29 -8.29 -7.02 -5.57 -5.21 -5.03 -5.39 -6.12 -6.84 -6.66 -5.75 -5.96 -8.02 -11.56
-3.67 -8.30 -2.60 -3.22 -0.68 0.46 -0.82 -7.75 -9.56 -6.14 -9.56 -3.23 -6.66 -11.01 -5.52 -3.37 -4.85 2.83 1.67 0.61 -1.29 -1.31 -4.86 -4.14 -1.95 2.55 -4.06 -3.75 -7.94 -8.31 -11.75 -5.23 -5.94 -7.57 -6.66 -5.57 -4.49 -7.57 -8.47 -9.13 -12.13 -10.03 -8.44 -8.49 -9.02 -8.66 -8.84 -7.93 -7.25 -8.19 -8.59 -8.91 -10.52 -12.13
-2.58 -3.44 -1.18 -0.18 -1.99 -2.49 -1.96 -2.59 -3.99 -5.94 -8.11 -8.47 -8.66 -13.19 -13.19 -6.42 -4.38 1.40 0.48 -2.13 2.21 2.62 0.19 -1.97 -3.80 -7.39 -7.57 -8.49 -5.31 -7.39 -10.83 -7.02 -10.29 -0.86 -8.66 -8.66 -12.82 -9.20 -9.81 -10.41 -10.76 -9.85 -8.27 -7.81 -8.89 -9.71 -8.93 -10.04 -8.97 -10.21 -10.92 -13.18 -13.02 -13.42

GFSWCAN_sfc_wetblb_072.txt.gz
Wetbulb
44.01 44.58 44.47 44.80 44.98 45.20 45.52 45.77 45.92 45.87 45.98 45.94 45.93 45.84 45.82 46.01 46.06 44.71 41.45 43.83 39.13 34.78 36.57 39.93 41.54 39.06 39.51 38.92 34.17 37.30 36.01 35.29 34.18 32.18 31.87 31.48 31.24 33.46 32.55 35.41 32.39 31.38 29.47 29.67 32.69 28.79 26.73 44.29 43.97 38.89 43.50 45.94 46.23 47.05
44.19 44.26 44.47 44.89 45.22 45.62 45.92 46.06 45.82 45.92 45.84 45.77 45.86 46.00 45.87 45.66 45.94 45.69 39.63 44.16 44.09 39.94 37.54 44.08 44.01 45.47 44.15 43.33 40.32 38.86 37.29 36.88 37.97 34.74 35.93 35.76 32.95 35.79 33.72 29.28 39.31 32.78 37.72 35.95 36.49 36.29 44.12 46.15 45.36 46.93 47.58 45.98 46.83 47.47
44.24 44.48 44.95 44.80 45.32 45.46 46.22 46.40 45.85 46.01 46.13 45.77 45.70 45.68 45.89 45.71 46.03 45.30 41.32 43.10 41.86 36.74 36.85 38.86 38.93 44.51 47.83 47.21 47.16 37.60 38.90 41.06 40.71 43.40 39.36 37.77 32.73 37.27 31.61 33.11 36.07 39.15 41.97 38.03 38.21 40.98 42.75 44.01 45.84 46.87 46.89 46.43 46.95 46.81
44.27 44.49 44.41 44.94 45.60 45.74 45.74 46.01 46.10 45.89 45.98 46.29 45.91 45.59 45.59 45.51 45.89 45.58 41.65 44.07 41.06 37.56 33.68 36.33 43.84 42.18 47.45 48.09 46.43 45.55 43.37 43.77 43.31 42.72 38.04 36.85 34.08 39.49 35.63 37.48 36.68 39.67 40.58 38.27 38.48 41.59 43.04 43.78 45.32 45.63 45.52 46.61 45.00 44.54
43.92 44.09 45.15 45.39 45.44 45.42 45.67 45.74 46.00 46.01 46.10 46.28 46.36 45.96 45.31 45.31 45.61 45.52 44.09 44.49 44.64 39.71 34.20 36.16 41.65 44.19 46.18 45.85 44.13 44.37 43.18 42.36 41.06 37.84 36.49 35.86 39.16 38.65 39.82 39.39 36.70 41.02 38.68 36.95 36.01 42.05 41.27 41.72 44.92 44.89 43.61 43.92 43.21 41.03
44.84 45.10 45.25 45.40 45.31 45.61 45.68 45.49 45.77 45.88 46.08 46.24 46.35 46.17 45.67 45.41 44.32 40.99 33.70 42.06 44.71 45.05 37.57 32.49 41.40 40.64 43.11 43.95 42.18 41.75 42.48 42.07 40.98 38.37 37.18 38.62 42.77 39.93 35.40 34.14 39.93 42.05 41.11 40.52 39.44 40.19 40.15 41.64 43.71 41.62 41.05 42.01 40.47 38.69
44.84 45.03 45.17 45.26 45.02 45.59 45.56 45.42 45.44 45.96 46.14 46.08 46.26 46.21 45.74 45.35 41.94 38.67 38.48 41.04 45.43 45.29 38.22 34.17 35.05 40.63 42.76 42.63 42.12 42.09 42.21 39.08 38.81 36.79 37.25 38.06 39.87 40.39 36.21 33.58 36.36 36.28 36.60 36.66 38.40 37.81 38.63 39.23 36.70 36.91 36.93 39.04 38.42 36.82
44.43 44.94 45.08 44.91 45.08 45.38 45.27 45.02 45.43 45.99 45.82 46.29 46.22 45.93 45.51 44.12 43.89 41.01 43.46 45.16 45.86 42.21 40.10 33.03 32.83 35.49 41.28 37.16 37.05 41.92 38.12 38.44 37.44 37.42 38.51 37.78 40.01 37.86 33.88 30.97 31.92 32.29 33.98 36.28 33.67 34.76 34.11 36.24 33.57 31.50 32.36 32.83 31.33 29.57
43.61 43.66 44.56 44.75 45.00 45.11 44.96 44.82 45.59 46.04 45.89 46.33 45.97 45.27 42.64 40.32 37.35 41.32 44.88 45.16 47.55 41.38 34.54 33.49 31.43 30.34 40.46 37.63 39.07 38.92 39.13 33.52 39.00 33.32 36.43 38.22 35.68 30.73 24.95 26.28 27.01 27.64 27.56 28.78 31.93 34.65 33.16 31.35 29.33 28.55 28.17 27.09 26.49 24.94
43.10 43.26 44.37 44.50 44.65 44.84 45.15 45.46 45.63 45.95 45.49 44.19 42.58 37.22 33.35 39.81 45.19 44.60 40.92 34.47 35.68 37.93 38.99 35.35 37.87 34.06 37.76 37.00 35.09 35.13 37.14 35.09 32.57 36.55 35.20 32.22 25.79 26.29 26.48 26.60 26.84 27.02 27.43 28.21 28.18 30.24 29.49 29.12 28.83 26.87 26.00 26.48 25.62 24.03
43.09 42.94 43.77 44.66 44.36 44.31 45.15 45.33 45.30 45.03 45.51 43.12 37.06 35.48 42.09 44.73 41.11 37.62 33.68 33.49 33.37 31.88 34.71 37.24 35.92 34.29 39.19 34.32 33.56 36.06 34.11 34.41 30.22 30.64 33.07 28.80 24.48 24.56 26.54 25.90 26.57 26.96 27.51 27.13 27.33 26.80 27.60 27.02 26.91 25.51 23.97 24.08 22.48 21.91
43.00 42.91 43.54 44.25 44.70 44.55 44.45 44.22 44.11 44.25 43.37 41.63 39.10 39.07 37.61 34.08 36.04 33.34 31.47 32.94 32.50 30.14 33.50 34.03 34.71 37.28 35.88 37.05 34.49 34.95 33.11 32.79 27.90 31.86 28.86 23.86 22.13 23.96 24.77 24.06 24.54 25.64 25.90 25.39 26.19 25.29 25.28 24.88 24.96 23.74 22.93 21.57 20.79 20.41
42.51 42.24 43.26 43.11 43.90 44.96 43.99 43.09 43.14 42.50 42.84 40.16 35.18 29.66 31.02 26.32 23.95 25.00 24.86 27.32 28.30 30.50 31.96 32.36 32.99 35.48 36.44 34.00 33.17 34.01 29.25 25.80 30.92 26.35 21.61 20.93 22.71 23.76 24.01 24.38 23.49 24.72 24.66 24.33 23.63 23.80 23.33 22.59 22.96 21.83 19.77 20.34 20.20 19.13
42.07 41.76 41.68 41.55 41.58 42.00 41.03 39.72 39.85 39.18 37.16 30.00 27.07 19.43 21.29 19.60 21.73 22.59 24.86 26.22 28.38 29.86 30.23 33.70 33.35 33.46 33.59 31.28 30.45 27.08 26.25 28.18 21.75 19.26 16.09 21.15 21.97 22.82 24.13 24.25 22.74 21.48 22.07 21.68 21.00 20.64 20.01 19.93 19.72 20.02 19.53 19.42 18.53 17.18
41.30 41.34 41.24 40.46 40.44 39.34 38.87 38.04 37.09 36.01 31.39 25.05 24.88 17.93 19.56 23.31 24.49 24.49 26.51 27.86 28.73 29.97 32.51 33.49 32.41 33.34 28.40 26.13 26.49 25.30 20.47 16.61 17.72 16.95 19.51 22.01 22.39 22.49 23.03 23.02 22.26 21.35 21.06 20.78 21.06 20.02 19.58 19.34 18.87 18.56 19.22 19.40 18.80 17.86
42.45 40.78 38.36 40.60 39.39 38.00 37.07 36.60 36.22 34.65 28.82 23.66 21.51 20.99 23.35 24.51 22.95 24.27 24.75 26.06 28.19 29.33 33.28 33.82 28.61 25.36 22.15 22.66 19.39 16.38 16.43 13.81 15.64 19.09 21.22 21.66 20.62 21.05 21.26 22.02 22.27 22.49 22.12 21.49 21.16 20.71 19.93 18.74 18.19 18.25 18.47 17.74 17.22 16.75
41.81 39.40 40.03 38.25 37.04 36.38 36.44 33.45 31.17 25.81 23.29 21.03 19.83 22.62 22.35 22.48 20.98 22.21 23.45 24.50 27.89 29.91 27.29 27.36 21.60 19.20 23.79 18.26 13.13 16.41 13.68 15.93 17.55 18.25 19.79 20.67 20.48 20.36 21.10 21.06 21.12 21.40 21.63 21.44 21.18 20.76 20.13 20.47 20.01 18.54 16.56 17.62 17.83 16.99
38.73 40.73 40.64 42.42 41.16 36.34 33.35 31.62 26.62 23.41 18.81 21.94 19.65 20.32 22.19 22.50 22.64 22.93 24.61 26.45 27.85 26.95 25.85 20.97 23.41 17.75 15.61 12.53 14.19 16.11 17.25 18.66 19.31 19.03 19.39 19.81 19.77 20.00 20.66 19.91 20.12 20.54 19.78 19.66 19.94 19.75 19.81 19.23 18.00 17.05 17.15 17.05 16.50 16.14
39.92 41.36 41.19 40.40 39.62 34.94 28.90 27.49 27.96 19.16 20.29 22.29 23.04 23.95 23.41 22.98 23.80 24.28 25.51 26.21 26.16 26.82 24.83 21.64 16.67 14.38 14.79 18.12 17.74 18.38 19.60 19.80 18.13 18.17 18.26 18.92 19.46 18.94 18.94 19.06 18.85 18.47 18.25 18.37 17.96 16.65 16.44 16.81 17.12 17.72 17.60 17.51 16.11 16.42
40.54 40.60 40.20 40.06 39.97 33.01 26.30 25.72 30.46 23.25 20.26 21.74 23.65 21.95 21.99 21.35 22.68 23.14 22.79 23.38 22.95 20.80 17.07 15.41 15.47 17.32 18.73 20.12 22.15 21.40 21.13 21.49 20.79 18.60 18.01 18.88 19.56 18.87 18.76 19.03 18.38 18.45 17.45 16.92 16.94 17.07 17.00 15.72 15.54 15.20 15.60 15.62 15.00 13.35
39.07 38.52 37.84 38.91 35.82 33.51 29.41 26.89 24.66 24.91 24.15 22.28 23.80 23.65 21.22 23.19 21.39 20.35 19.10 21.10 18.25 16.71 15.21 17.87 18.50 20.11 22.11 22.48 23.65 23.72 22.35 23.13 21.86 21.94 19.27 16.88 17.91 18.41 17.52 17.21 17.49 17.36 16.77 16.54 15.45 13.71 13.92 13.62 13.96 14.37 14.29 13.56 13.53 13.23
38.43 36.66 37.85 37.41 32.86 31.15 29.02 30.64 26.81 28.03 25.29 24.02 23.74 23.74 21.18 19.30 19.21 18.56 20.95 17.21 15.64 16.64 18.96 19.39 19.59 20.29 19.81 19.14 19.53 20.28 19.53 19.06 18.35 17.65 16.90 16.99 15.99 15.31 15.00 16.10 16.28 14.57 14.40 14.59 14.59 13.70 13.12 13.34 13.44 13.17 12.54 11.79 11.87 12.08
36.51 36.19 33.16 32.34 28.31 28.38 25.95 31.86 25.79 25.57 21.18 21.77 22.99 18.29 17.84 18.08 18.96 22.05 16.18 16.70 16.99 19.59 19.90 19.35 18.73 19.47 18.00 17.90 17.65 17.49 18.05 17.52 16.42 15.90 15.53 15.32 15.19 15.25 14.98 14.55 15.11 13.63 12.53 12.61 14.42 13.85 11.92 8.77 9.34 11.48 11.70 12.29 11.81 10.59
32.75 26.02 23.60 24.17 26.85 21.27 25.23 23.35 25.62 22.83 23.25 20.79 18.19 14.40 15.28 17.98 20.02 16.92 12.67 15.25 17.35 19.59 18.69 18.03 18.79 16.97 16.93 16.81 16.30 15.75 16.06 16.98 15.63 15.24 15.97 15.40 13.84 13.09 14.08 13.62 13.75 13.61 13.37 13.28 12.71 12.16 11.60 10.62 8.43 11.52 10.14 10.17 9.22 9.59
24.38 18.53 22.88 19.50 23.34 21.17 19.51 19.12 18.74 19.86 16.92 17.68 15.45 15.11 15.46 19.17 13.97 12.46 11.19 14.49 16.87 17.74 17.61 18.64 18.18 17.83 16.03 15.10 15.78 15.32 15.71 17.76 15.92 13.64 14.43 15.48 13.96 13.30 12.58 12.71 12.25 12.12 13.74 13.10 11.04 10.55 8.99 9.54 9.93 9.98 9.30 9.73 7.06 5.29
14.93 16.69 18.84 19.18 20.32 20.12 19.34 16.45 16.70 16.71 17.11 14.33 13.49 14.45 16.87 14.35 10.61 9.31 12.83 16.32 17.20 17.91 17.87 18.61 17.86 16.68 15.89 17.09 15.45 15.33 14.82 17.17 16.92 14.34 13.02 14.59 14.20 14.49 13.12 11.59 10.97 10.28 12.08 13.14 11.45 10.32 8.45 8.20 8.14 4.63 7.33 3.42 -0.41 4.22
14.45 14.40 17.39 18.53 20.36 19.42 17.66 18.31 18.88 17.31 14.14 13.21 13.28 11.31 12.42 7.42 6.89 10.71 15.81 17.40 17.58 18.01 18.67 19.28 19.53 18.32 15.78 14.37 13.94 13.88 14.56 14.41 13.90 12.84 12.53 12.33 12.05 12.18 12.88 11.41 6.98 10.02 11.31 10.40 10.83 10.70 9.63 7.91 7.40 6.81 6.84 8.45 7.47 6.36
15.19 14.87 11.65 10.63 11.47 13.81 10.19 11.57 11.43 10.52 12.38 13.53 13.13 5.89 6.65 6.81 8.90 14.82 15.94 17.06 17.98 17.21 15.87 15.85 16.81 16.57 15.11 13.41 13.10 12.24 11.37 10.74 10.18 11.26 11.61 11.22 10.85 10.59 8.99 10.14 9.41 6.60 9.42 8.77 9.45 8.78 9.11 8.71 8.07 7.04 5.71 5.97 6.50 6.81
12.13 13.60 12.03 2.13 7.29 8.38 7.50 8.47 10.35 11.41 12.26 13.47 9.73 7.79 8.39 11.20 12.92 15.26 15.51 16.45 17.01 16.56 14.24 12.38 11.00 12.42 11.72 11.27 11.38 13.52 13.27 13.88 9.13 4.55 3.46 8.92 9.91 9.35 9.82 9.94 9.83 9.42 10.16 10.33 1.59 5.64 6.25 7.28 6.62 6.73 3.19 6.21 6.58 5.37
10.70 14.38 7.71 4.87 3.45 5.16 7.77 9.87 9.92 10.62 12.02 13.20 13.55 11.74 11.34 11.85 13.13 16.46 16.48 16.64 16.37 14.90 13.87 13.41 12.43 14.90 12.45 13.01 10.27 9.03 10.92 10.68 9.35 9.59 8.81 8.17 8.86 9.22 9.19 9.10 9.05 8.24 8.46 9.22 8.36 7.25 2.71 6.37 4.25 5.24 4.29 4.88 5.68 4.83
14.40 13.34 9.33 9.01 7.13 9.72 10.53 10.13 12.06 12.95 12.25 11.90 13.69 11.57 9.72 12.13 14.01 12.54 12.00 12.17 12.09 11.38 12.51 11.19 9.65 11.35 11.06 10.58 12.52 10.60 10.39 8.29 1.97 1.74 4.96 7.22 7.45 8.14 7.70 6.00 6.67 7.30 7.24 6.25 5.29 5.14 4.62 4.48 4.95 3.26 3.48 2.42 1.67 -0.29
11.66 8.60 7.87 6.02 7.63 11.15 11.65 12.50 12.68 11.71 12.30 12.46 10.90 11.95 10.76 12.66 9.76 12.30 11.02 12.76 12.92 13.29 8.24 11.92 12.92 13.49 10.67 10.13 7.94 7.39 -0.81 6.56 5.76 4.53 4.86 6.72 7.62 4.78 5.28 4.64 3.15 4.57 4.47 3.62 3.68 3.35 0.35 0.48 1.97 1.46 1.28 0.29 -0.39 -1.51
11.74 12.10 11.70 10.42 9.20 9.56 10.58 11.73 10.81 9.66 11.00 10.65 8.87 7.18 7.58 9.97 7.38 10.59 9.03 9.57 12.45 13.95 13.77 13.42 11.07 9.60 6.94 6.45 7.49 5.45 5.60 5.47 2.76 2.91 -0.34 -0.68 -1.90 1.12 4.56 5.02 4.54 3.34 1.21 2.90 3.19 1.83 0.32 0.25 0.40 -0.09 -0.68 -2.00 -2.54 -2.90

GFSWCAN_sfc_wetblb_075.txt.gz
Wetbulb
43.12 43.68 43.98 44.20 44.54 44.81 45.19 45.58 45.75 46.00 46.09 46.05 46.00 45.77 45.48 44.66 45.04 42.79 39.64 45.07 40.76 36.66 38.28 40.51 40.74 38.25 39.63 38.89 35.43 37.71 37.22 36.65 34.76 32.77 32.65 33.14 32.94 35.23 34.52 36.75 35.10 33.70 31.49 30.71 32.98 30.14 27.80 44.42 44.59 39.57 44.87 47.53 47.57 47.87
43.25 43.60 43.80 44.40 44.75 44.89 45.35 45.54 45.89 46.14 46.26 45.96 46.05 46.02 45.63 45.38 45.38 45.04 39.47 43.18 45.13 38.18 38.75 44.24 43.55 44.58 43.77 42.67 39.83 39.18 37.83 37.18 38.65 35.32 37.00 37.70 34.53 37.24 35.27 30.85 40.75 33.52 37.46 35.54 36.34 36.62 44.55 47.44 46.44 47.70 48.34 46.85 47.22 47.26
42.97 43.45 43.93 44.35 44.45 44.69 45.13 45.50 45.75 46.26 46.58 46.09 46.07 46.10 46.16 46.12 46.00 45.19 41.75 42.38 41.19 36.73 38.18 40.02 39.95 45.11 47.07 46.81 48.80 38.03 39.83 41.14 41.48 45.11 40.19 38.44 34.38 38.44 32.73 34.64 36.74 40.66 41.88 38.63 37.65 42.94 42.26 46.26 46.84 48.55 48.12 47.11 47.89 47.89
43.20 43.65 43.71 44.01 44.27 44.64 45.73 45.80 45.96 46.00 46.33 46.07 46.23 46.16 46.02 46.24 46.19 45.93 41.70 42.70 41.34 38.01 32.61 37.56 45.59 42.43 47.47 47.07 46.18 45.93 43.23 44.29 43.26 43.32 38.47 37.92 35.97 41.32 36.88 38.53 37.65 40.41 41.55 39.76 39.44 42.31 43.91 44.68 46.70 46.80 46.48 47.44 46.92 46.52
43.37 43.62 43.77 44.24 45.27 45.53 45.66 45.73 45.71 45.91 46.28 46.28 46.44 46.33 46.16 46.16 46.16 45.36 43.67 44.14 45.14 40.23 35.08 36.18 43.21 45.68 45.57 44.97 44.89 45.61 44.36 42.36 40.16 37.12 35.88 35.83 40.33 39.73 40.73 40.29 37.70 42.26 39.60 37.38 36.10 43.05 43.49 44.13 45.21 45.43 44.39 43.88 44.26 43.14
44.11 44.57 45.01 45.27 45.45 45.48 45.62 45.50 45.64 45.69 46.12 46.26 46.49 46.56 46.32 45.84 45.67 43.36 33.74 43.12 47.04 47.23 39.43 34.40 43.39 41.75 43.37 43.79 43.44 43.47 43.98 41.72 39.96 37.32 37.00 41.71 43.40 39.99 36.01 34.73 41.05 43.13 43.89 42.54 40.60 42.62 42.84 44.26 43.80 41.43 40.11 39.74 41.13 42.11
44.93 45.07 45.15 45.11 45.14 45.33 45.21 45.26 45.62 45.87 46.10 46.16 46.42 46.39 45.94 45.40 43.26 38.42 38.30 41.93 45.67 46.28 37.53 33.64 35.79 41.24 44.16 43.70 43.38 42.79 42.74 40.86 39.23 36.68 37.06 38.89 40.83 41.10 37.21 33.72 36.38 38.97 39.89 40.84 40.48 40.01 40.98 40.28 37.29 38.27 38.24 37.25 37.69 38.08
44.23 44.28 44.47 44.91 45.13 45.48 45.60 45.74 45.81 45.79 46.10 46.17 46.21 45.71 45.39 44.16 43.53 40.58 45.13 45.53 45.56 40.56 40.49 34.49 35.03 37.40 42.57 37.26 37.26 41.77 36.02 38.18 38.34 37.56 37.85 38.24 41.01 39.69 34.23 33.38 34.77 34.44 36.55 38.20 36.40 38.35 37.62 36.54 34.64 32.92 33.29 33.92 33.08 30.61
43.41 43.63 44.47 44.59 45.02 45.03 45.00 45.26 45.61 45.82 46.21 46.26 45.58 45.04 42.61 40.03 37.67 40.27 45.58 45.54 46.58 41.13 35.96 36.06 32.58 31.12 41.00 38.04 39.70 39.22 40.48 34.81 39.28 34.97 36.45 39.21 37.00 31.12 26.98 28.32 29.62 30.34 30.53 30.85 33.41 37.00 34.92 33.44 33.07 32.08 31.86 31.13 29.76 27.79
43.13 43.69 44.03 44.13 44.68 45.00 45.28 45.72 45.90 46.25 45.79 43.79 41.57 37.48 33.56 39.77 45.04 43.64 39.54 35.61 36.71 39.33 40.60 35.91 40.39 34.06 38.93 38.32 36.78 37.27 38.48 34.27 32.23 34.48 37.51 34.46 26.10 28.18 29.30 29.96 30.01 29.68 29.97 30.18 29.41 30.64 30.00 30.44 30.06 28.36 27.11 27.06 26.58 25.10
43.14 43.61 44.14 44.40 45.29 45.33 45.15 44.20 43.83 44.06 44.58 42.13 36.07 36.23 41.98 44.89 40.98 37.54 33.54 34.44 35.33 33.69 37.43 38.64 37.42 36.00 40.81 34.89 34.71 36.39 34.18 35.95 31.23 32.91 34.25 32.34 25.67 25.15 28.24 28.12 29.18 29.76 30.32 29.89 29.62 28.32 28.49 28.72 28.19 27.26 25.48 25.03 24.36 23.51
43.08 44.71 44.89 44.31 44.35 44.77 44.58 44.26 44.82 45.37 44.20 42.11 39.38 40.89 39.30 37.13 35.65 33.72 32.35 34.09 33.12 31.16 36.13 34.66 36.21 38.15 38.32 39.77 37.15 35.74 33.36 35.28 29.10 36.16 32.97 27.04 24.01 26.36 26.78 26.13 26.42 27.37 27.76 27.19 27.71 26.78 26.94 26.65 26.73 25.30 24.12 22.89 22.45 22.12
42.68 43.49 44.20 44.82 43.42 42.76 43.45 43.91 43.47 43.05 44.10 42.59 38.66 33.71 35.73 31.79 28.13 29.44 26.23 28.84 30.27 32.94 34.32 33.90 32.91 36.01 36.05 36.86 34.61 35.19 31.56 29.17 35.11 30.34 25.84 23.25 24.77 25.00 25.21 25.55 24.58 25.96 26.25 25.79 24.90 25.14 24.88 24.03 24.39 22.98 21.33 21.87 21.47 20.46
41.15 41.72 41.53 41.82 41.54 40.86 40.07 40.05 41.04 42.21 41.23 33.86 31.37 23.43 27.66 25.44 25.69 26.27 27.94 29.46 30.30 32.52 32.42 36.18 35.54 35.10 36.25 32.27 32.29 29.31 29.08 30.64 25.52 23.85 20.88 23.22 23.43 24.29 24.76 25.22 23.88 22.61 22.79 22.33 21.99 21.78 21.36 21.03 20.60 21.21 20.88 20.92 19.81 18.74
40.51 41.17 40.49 39.78 39.41 39.22 39.58 39.71 39.74 39.68 34.85 28.56 28.30 22.24 23.07 26.12 27.16 28.13 30.08 31.06 31.55 33.49 34.07 36.46 36.39 35.32 31.23 28.94 29.35 28.16 24.44 21.63 22.26 20.89 22.20 23.70 23.60 24.14 24.02 24.01 23.40 22.63 22.35 22.29 22.58 21.30 20.93 20.62 19.98 19.52 20.26 20.40 19.76 18.85
41.08 40.70 38.89 40.19 38.87 38.02 38.94 39.62 38.81 36.78 30.70 25.82 25.38 24.27 27.33 28.40 27.41 28.40 29.46 29.97 31.43 32.25 35.45 38.11 32.44 29.02 25.13 27.09 23.78 20.53 21.08 19.73 19.61 22.16 23.46 23.59 22.47 22.73 23.13 23.55 23.56 23.89 23.47 22.89 22.42 21.83 21.07 19.96 19.05 19.00 19.07 18.40 18.15 17.86
42.28 39.41 38.12 37.60 37.28 37.47 38.29 37.34 34.50 28.96 26.53 24.56 22.67 26.22 27.26 26.35 25.06 26.21 28.31 28.60 32.13 33.31 29.49 32.45 25.99 22.04 28.46 23.14 18.47 21.10 18.45 19.88 21.78 21.95 23.07 23.33 22.65 22.51 22.89 22.88 23.15 23.43 22.92 22.90 22.47 22.16 21.49 21.98 21.53 19.91 17.96 19.04 18.79 18.17
42.22 41.01 39.33 39.33 40.40 38.88 35.77 34.71 30.19 27.05 22.08 25.45 22.70 24.46 25.57 26.98 27.07 27.13 28.55 30.57 31.99 31.41 30.31 24.16 28.56 22.15 20.18 16.98 18.41 18.86 20.55 21.86 22.59 22.17 22.24 21.94 22.28 22.72 23.53 22.70 22.54 22.75 22.20 22.00 21.96 21.98 22.05 21.19 19.77 18.93 19.00 19.00 18.69 18.14
42.19 42.10 41.82 42.59 41.17 37.61 31.61 30.63 32.03 22.58 23.27 25.58 26.22 26.98 26.77 26.46 27.49 28.43 28.71 29.37 29.96 30.89 28.58 25.56 20.77 18.93 18.63 21.79 20.30 20.92 22.31 22.60 21.15 21.64 21.54 22.06 22.52 21.61 21.78 21.93 21.88 21.62 21.14 21.15 20.67 19.63 19.47 19.95 20.21 20.54 20.46 20.47 18.78 18.65
41.12 40.62 40.41 40.27 40.40 34.63 28.25 28.46 34.69 27.06 23.74 24.83 27.08 25.08 24.99 24.71 26.74 27.23 26.48 26.37 26.46 24.75 20.54 18.41 19.28 21.27 21.21 23.54 25.15 23.75 23.74 24.73 23.82 21.65 21.04 21.92 22.65 22.25 22.36 22.71 21.79 21.62 20.92 20.54 20.62 20.29 19.92 18.92 18.74 18.84 19.34 19.08 18.37 16.67
40.42 38.59 39.77 41.18 37.92 35.42 31.83 29.65 27.06 27.39 26.49 24.56 26.69 26.60 23.81 26.03 24.66 24.56 23.85 26.20 22.46 20.58 18.83 21.06 20.72 22.42 25.23 25.90 26.56 25.73 25.20 26.22 24.39 25.37 22.16 19.82 21.40 21.76 21.13 21.45 21.75 21.84 21.19 20.59 19.37 17.67 18.01 17.55 17.89 18.64 18.19 17.17 16.46 16.02
40.15 36.93 40.17 39.57 33.53 32.24 30.45 32.38 28.88 29.39 27.41 25.93 26.26 27.50 24.31 23.03 22.63 21.85 24.89 21.06 18.25 20.27 22.77 21.94 22.20 22.52 21.41 21.08 21.87 22.69 22.38 22.29 21.84 21.63 20.85 21.03 19.98 19.96 20.02 21.08 21.24 19.36 19.40 19.64 19.27 18.05 17.43 17.43 17.62 17.08 16.40 15.63 15.92 15.64
37.84 39.63 37.27 35.53 31.03 29.17 26.22 33.94 27.21 27.85 23.87 23.74 26.09 22.39 22.48 22.87 22.73 26.58 19.49 19.65 19.15 22.39 22.39 21.91 21.67 22.09 20.80 21.35 21.60 21.64 22.54 22.27 21.09 20.64 20.52 20.52 20.29 20.22 19.96 19.52 20.02 18.54 17.52 17.37 19.15 18.08 15.45 12.12 13.49 15.41 15.40 16.27 15.37 13.68
35.80 30.17 28.76 29.38 29.01 24.32 29.29 25.97 28.43 26.21 26.24 24.17 21.64 18.51 20.10 22.23 24.42 21.71 16.63 18.25 19.90 21.82 20.90 20.81 22.09 21.03 21.22 21.06 20.25 19.91 20.59 21.69 20.42 20.07 20.64 20.25 18.72 17.96 18.78 18.19 17.93 17.48 17.42 17.75 17.35 16.68 15.93 14.44 11.12 15.42 14.47 14.69 13.73 13.86
27.55 21.70 26.20 22.97 28.38 25.21 23.21 22.98 22.54 23.44 20.30 21.52 19.18 19.20 19.91 24.31 19.57 17.25 15.69 17.27 19.71 20.42 20.74 22.22 22.75 22.86 21.08 20.20 19.89 18.93 19.94 21.67 20.20 17.90 18.78 19.47 18.73 18.31 17.41 17.24 16.37 16.08 17.87 17.75 16.17 15.02 13.99 14.22 14.29 14.23 13.26 13.64 10.81 8.98
18.59 20.17 22.52 24.12 24.23 24.34 23.93 20.88 21.44 21.14 20.80 18.43 17.88 20.23 23.02 20.79 16.00 14.28 17.25 19.67 20.24 20.56 21.45 21.96 21.96 21.01 20.59 21.68 20.16 19.48 18.76 20.72 21.08 18.42 17.06 18.12 17.50 17.39 17.12 15.93 15.65 14.84 16.18 16.16 15.97 14.88 13.06 12.23 11.97 8.30 10.87 7.84 4.17 7.60
17.97 18.74 21.06 24.19 25.78 24.93 23.55 24.17 24.81 22.52 19.05 16.63 18.66 17.58 18.53 12.98 12.03 14.80 19.06 21.77 20.71 21.96 23.27 23.38 23.43 22.75 20.72 19.21 18.59 18.33 18.70 18.05 17.19 16.41 16.70 16.28 15.94 15.86 15.81 14.57 11.05 13.73 15.37 14.02 14.49 13.57 13.22 11.88 11.20 10.19 10.21 11.57 11.39 9.82
18.56 18.96 14.99 17.20 18.02 21.16 17.21 18.45 17.69 16.38 17.56 18.68 19.64 12.31 12.07 12.71 13.60 19.50 19.89 21.43 21.95 22.00 21.13 21.31 21.83 21.30 19.87 18.40 18.17 17.49 16.00 15.23 14.83 15.75 16.09 15.70 15.31 14.55 12.98 13.65 12.30 9.58 12.25 11.69 12.38 12.27 12.36 12.15 11.48 10.56 9.54 9.06 9.59 10.49
17.31 19.29 16.04 8.09 13.77 14.07 13.65 15.12 15.66 15.48 16.76 19.43 16.29 13.39 12.30 14.54 19.12 17.84 19.01 20.50 22.08 21.04 18.67 17.26 16.79 18.19 17.59 17.27 17.88 18.52 18.80 18.58 12.52 7.74 8.14 12.75 14.23 12.96 14.16 14.12 14.21 13.39 13.83 13.61 6.34 8.42 10.09 9.70 9.68 9.34 9.13 9.35 10.14 9.50
15.14 20.26 13.23 10.68 9.68 10.49 11.69 15.74 14.19 16.15 17.71 17.96 16.72 14.78 13.90 14.76 17.78 21.03 20.36 20.48 19.72 19.28 19.11 18.79 18.92 19.28 16.95 16.71 14.20 13.67 16.44 15.85 14.01 12.62 12.05 11.78 12.16 13.12 13.48 12.90 12.72 12.30 12.27 12.52 11.59 10.75 6.60 9.19 9.04 8.90 7.99 9.00 9.34 9.47
20.02 19.36 15.07 14.10 11.20 13.47 15.60 16.36 17.85 18.07 18.62 18.13 19.83 16.45 14.12 14.78 16.37 17.73 17.83 18.83 18.77 18.28 17.57 15.86 16.04 17.33 16.09 15.77 16.70 14.65 13.75 12.45 8.12 8.56 10.90 12.51 12.87 12.92 11.63 10.28 10.89 11.31 11.04 9.77 8.93 8.58 8.10 7.34 8.75 8.02 7.47 6.76 6.18 4.65
17.96 14.85 12.89 9.87 11.41 15.04 17.85 19.16 18.34 17.40 18.08 17.02 15.76 16.70 17.07 17.42 13.88 15.70 16.85 18.90 18.01 17.37 13.75 17.51 16.84 16.26 15.75 14.87 13.18 11.59 9.08 10.93 10.00 9.59 7.49 11.46 11.59 9.04 9.99 9.71 8.93 9.90 8.84 7.65 8.00 7.31 5.82 5.36 6.00 6.01 5.53 5.03 4.63 3.34
17.52 17.51 16.57 15.18 13.39 14.57 15.80 18.47 17.01 15.51 17.28 16.00 14.66 15.42 14.91 16.18 11.80 14.42 15.89 17.01 17.98 18.43 16.91 16.85 16.06 14.53 12.00 11.91 11.87 10.73 10.59 9.49 5.86 5.24 4.24 3.02 1.80 4.94 8.79 10.54 9.65 8.46 6.23 6.56 7.18 6.79 5.20 4.78 4.51 4.41 3.54 2.70 2.35 2.33

GFSWCAN_sfc_wetblb_078.txt.gz
Wetbulb
41.07 42.03 42.77 43.18 43.58 44.06 44.65 45.02 45.39 45.51 45.58 45.87 46.09 46.14 46.07 46.23 46.12 43.97 41.67 45.82 40.38 35.37 36.22 39.06 39.84 36.13 37.77 38.12 34.20 37.51 36.53 37.22 35.81 31.06 30.64 31.15 31.60 34.11 33.48 35.73 33.98 32.51 30.77 30.43 32.04 28.50 26.71 44.23 43.20 37.47 43.27 45.72 46.32 46.23
41.59 42.53 42.75 43.39 43.37 44.06 44.51 45.03 45.18 45.46 45.58 45.96 46.26 46.16 46.28 45.72 44.86 44.64 40.09 44.62 45.19 37.59 36.71 42.87 43.02 43.97 42.40 42.00 38.89 38.79 35.96 36.84 38.81 34.32 35.31 36.05 33.54 36.84 34.71 29.89 39.71 32.20 36.56 33.81 34.86 34.47 43.70 46.77 45.30 47.07 47.37 45.52 45.10 45.49
41.98 42.89 42.91 43.06 43.52 43.95 44.53 44.46 45.06 45.71 45.80 46.07 46.35 46.28 46.19 45.86 45.11 44.24 41.05 43.32 42.09 36.91 36.53 37.44 37.28 43.62 46.47 45.60 46.85 34.75 39.68 41.48 39.43 41.30 38.37 37.58 33.58 37.50 32.12 33.52 36.28 39.54 41.68 38.02 37.83 41.05 43.00 44.03 46.10 46.71 46.55 45.86 45.87 45.44
42.56 42.78 42.90 43.39 43.70 44.00 44.21 44.66 45.36 45.82 46.17 46.25 46.51 46.49 46.09 46.14 45.81 44.57 40.27 41.96 40.20 37.40 30.25 34.64 45.07 41.25 45.77 47.09 46.01 43.95 42.79 43.92 42.74 40.49 35.75 36.31 33.95 39.53 35.59 37.32 36.90 39.70 40.56 37.94 37.56 39.60 42.00 42.32 42.96 44.43 44.61 44.58 43.91 44.23
42.57 43.02 43.34 44.01 44.28 44.63 44.93 45.32 45.71 45.87 46.03 46.33 46.60 46.51 46.35 46.37 46.25 45.11 43.52 42.93 43.32 38.15 33.64 35.34 41.77 44.43 45.68 45.02 43.54 45.21 43.68 42.29 40.42 37.24 35.27 33.96 38.86 38.80 40.03 39.86 36.58 41.12 37.61 35.88 36.06 40.78 41.23 39.65 41.80 42.86 41.58 40.90 41.60 41.58
43.12 44.12 45.18 45.48 45.41 45.48 45.43 45.31 45.54 45.85 45.96 46.21 46.53 46.64 46.44 46.11 45.95 42.64 32.98 42.32 43.92 42.99 36.05 33.80 42.14 41.28 43.78 44.70 43.00 42.32 43.17 42.43 40.04 36.81 35.32 39.35 43.10 39.97 35.36 33.96 38.32 40.58 41.13 41.03 37.57 40.18 42.04 41.58 39.57 39.56 38.98 38.82 39.45 38.66
43.70 44.68 44.61 44.49 44.60 45.12 45.32 45.41 45.49 45.73 45.94 46.17 46.44 46.41 46.49 46.00 44.29 37.40 37.72 41.79 44.46 44.15 37.17 33.36 34.71 41.76 44.03 43.24 42.66 41.86 43.82 41.25 39.60 36.07 35.59 38.34 39.61 39.86 37.76 32.40 35.32 35.42 38.12 39.03 38.44 39.32 39.95 36.93 34.65 36.06 36.55 37.43 37.51 35.10
44.13 43.86 43.66 44.47 44.61 45.25 45.61 45.54 45.63 45.62 45.84 46.05 46.40 46.23 46.39 45.98 43.82 39.96 45.46 45.48 45.23 40.44 40.06 32.48 33.95 37.22 43.18 38.41 37.37 42.44 37.98 38.37 37.67 37.04 38.12 36.97 39.38 39.58 32.95 32.97 33.81 33.30 35.80 35.25 34.48 37.94 36.71 36.69 36.31 34.48 35.41 34.99 33.95 29.95
43.65 43.54 43.92 43.93 44.19 44.99 45.09 45.62 45.99 46.03 46.15 46.30 46.40 45.40 42.05 39.94 36.91 40.37 45.52 45.28 46.42 41.05 33.96 34.95 32.19 30.88 41.32 37.82 39.49 38.58 37.44 32.58 38.61 34.95 36.63 38.20 35.97 28.04 27.51 28.40 29.01 29.74 29.82 30.07 33.21 35.49 35.10 33.74 31.86 30.59 29.62 28.93 27.57 25.95
43.30 43.12 43.85 44.40 44.71 44.92 45.34 45.23 45.67 46.16 45.88 43.91 42.09 37.18 33.16 39.60 45.73 44.88 40.08 34.18 36.61 38.51 39.68 35.23 39.63 33.96 38.52 37.96 36.83 36.40 37.34 34.48 31.08 34.48 38.80 34.17 26.42 29.26 30.24 30.29 29.92 29.80 30.33 30.48 28.42 27.80 28.88 29.09 29.03 27.47 25.96 26.20 25.32 23.82
43.30 44.49 44.90 45.00 45.18 45.43 45.67 45.59 44.80 43.90 43.88 40.82 36.69 36.19 41.98 44.70 40.63 36.14 32.43 33.16 33.31 32.78 37.10 38.13 37.54 34.90 41.43 35.11 34.79 37.76 34.12 35.20 29.37 32.58 32.47 30.39 24.57 25.90 28.35 27.86 28.44 29.00 29.47 28.84 29.43 28.49 28.31 28.25 27.75 26.14 24.74 24.49 23.67 22.86
44.60 44.17 44.17 44.39 44.36 44.28 43.99 43.56 44.64 44.53 43.05 41.72 39.94 41.50 40.70 36.83 34.52 32.75 32.25 33.83 33.29 31.29 36.26 36.36 36.92 38.33 38.59 40.04 35.75 34.01 31.79 34.19 28.37 36.00 32.90 23.98 23.50 26.06 26.69 25.84 25.93 27.28 27.10 26.47 27.08 26.16 26.18 26.12 25.97 24.48 23.00 22.16 21.93 21.93
44.02 44.25 42.19 42.77 44.31 44.78 44.85 44.66 44.71 43.50 44.73 43.09 38.46 34.91 35.42 32.87 29.87 28.86 26.27 29.63 29.89 33.73 34.71 35.67 33.59 35.72 37.04 37.67 34.97 34.86 30.33 29.48 35.00 30.90 23.63 22.28 24.22 25.05 25.29 25.24 24.32 25.09 25.24 24.64 24.01 23.89 23.12 22.58 22.88 21.77 20.49 21.02 20.60 19.88
41.76 41.74 41.38 41.34 41.13 40.93 39.54 40.57 41.09 41.64 40.66 34.77 32.04 24.42 28.48 25.69 25.90 26.16 27.65 29.20 30.81 32.98 33.16 36.93 34.38 35.30 34.43 33.04 32.25 30.35 29.48 31.20 26.72 25.09 19.11 21.68 22.80 24.26 25.18 25.21 23.34 21.80 22.24 21.61 21.37 21.33 20.90 20.45 19.92 20.59 20.28 20.04 18.89 17.67
40.98 40.13 39.74 39.26 40.36 40.62 40.76 40.79 41.27 41.54 35.98 29.62 30.23 23.07 23.58 26.89 28.72 30.50 32.08 32.16 32.46 33.34 33.70 35.27 35.83 34.64 31.76 29.77 30.55 28.91 25.65 23.41 21.77 19.14 20.85 22.68 23.72 24.08 23.70 23.73 22.95 22.53 22.25 21.85 21.51 20.31 20.06 19.68 19.05 18.70 19.42 19.17 18.57 17.89
41.81 41.98 39.26 38.81 38.70 39.40 40.61 40.99 39.77 37.50 32.17 27.95 26.70 26.04 29.39 28.69 27.80 29.14 30.90 30.16 32.87 33.34 36.14 38.00 32.36 28.25 25.89 27.79 24.66 22.44 23.79 19.74 19.56 21.87 23.26 23.11 22.27 22.66 22.82 23.07 23.33 23.30 22.55 21.95 21.70 20.84 20.22 19.13 18.15 17.81 18.44 18.18 18.15 17.85
42.79 39.56 38.25 39.44 39.80 39.70 40.47 38.13 35.06 28.64 27.22 25.42 24.02 28.30 29.26 28.07 26.85 28.12 30.15 30.42 34.26 33.93 30.59 32.82 25.95 23.08 28.80 23.59 19.76 20.40 18.01 20.11 21.41 21.45 22.56 22.93 22.22 21.94 22.47 22.85 23.15 22.80 22.21 22.01 21.77 21.56 21.10 21.44 21.30 19.61 17.36 18.24 18.04 17.17
41.43 38.60 39.05 38.90 40.79 39.89 37.36 36.08 31.53 27.75 23.55 26.55 24.16 25.41 26.73 29.09 27.82 27.94 29.45 32.98 33.01 31.31 30.15 25.04 29.48 22.59 20.22 19.74 18.02 19.47 21.18 22.46 23.13 22.65 22.28 22.50 23.01 23.67 23.87 22.69 23.07 22.94 22.41 22.32 22.02 21.70 21.40 20.42 19.32 18.41 18.66 18.55 18.42 18.04
42.44 41.61 39.38 40.57 41.35 37.85 31.83 31.76 32.57 23.28 24.87 27.01 27.69 28.54 27.53 27.35 28.64 29.14 30.17 31.26 31.10 31.97 29.80 26.62 21.60 19.23 19.20 21.80 20.68 21.35 22.47 22.44 21.06 21.35 21.65 22.78 22.90 22.48 22.29 22.40 22.27 22.09 22.07 21.95 21.18 20.26 20.14 20.65 20.76 20.89 20.72 20.70 18.36 18.23
40.72 40.51 40.17 39.94 39.50 35.00 29.35 29.81 35.14 27.85 25.02 25.99 28.11 25.97 26.15 26.14 28.36 28.77 28.64 28.43 27.22 25.25 21.25 19.88 20.48 22.63 22.85 24.41 25.76 24.89 24.84 25.17 23.68 21.01 20.64 21.98 23.26 22.84 23.47 23.10 21.81 21.84 21.21 21.07 20.96 20.79 19.88 18.88 18.65 18.26 18.33 18.22 17.90 16.25
40.06 38.82 40.55 41.79 37.76 36.42 32.73 29.85 27.81 28.12 28.16 25.76 27.55 26.89 25.06 27.00 25.11 24.82 23.76 25.87 23.19 21.02 19.14 22.03 22.09 23.25 25.76 26.85 27.23 26.16 24.86 26.76 23.89 25.16 21.77 20.30 22.48 22.60 21.89 22.37 22.83 23.17 21.80 20.96 19.23 18.09 18.23 17.51 17.84 18.42 18.01 16.64 16.48 15.37
39.28 38.22 39.74 39.02 33.59 32.87 30.83 33.00 29.20 30.63 27.92 27.06 27.35 27.79 25.66 23.67 22.77 22.60 25.06 20.50 19.45 22.10 23.52 22.26 22.33 22.67 21.71 21.78 22.31 23.18 23.56 23.64 23.47 22.65 22.03 22.31 20.79 20.68 20.50 21.39 21.29 19.66 19.39 19.49 19.32 17.96 17.17 17.04 16.62 17.20 16.29 15.74 15.52 13.78
36.69 39.80 37.78 35.78 30.91 28.58 26.66 34.21 27.96 28.67 24.40 24.29 26.90 23.55 23.53 22.83 23.29 27.12 19.59 19.54 20.08 23.18 23.49 22.84 22.73 23.16 21.57 22.54 23.13 23.37 24.19 23.06 21.19 21.16 21.28 20.83 20.72 20.74 20.18 19.87 20.08 18.68 17.37 17.24 18.73 17.82 14.79 10.55 13.31 15.28 15.04 15.47 14.44 12.76
37.09 32.10 30.56 30.21 28.66 24.34 30.07 26.61 29.23 27.20 26.94 25.15 22.59 20.35 21.86 22.65 25.77 22.18 17.01 18.60 20.67 22.64 22.04 22.03 22.94 21.28 22.05 22.09 20.52 20.37 21.54 22.51 20.99 20.71 21.35 20.54 18.80 17.93 18.92 18.21 17.85 17.24 17.21 17.37 17.03 16.28 15.70 14.44 8.61 14.79 14.09 13.79 12.83 13.25
28.27 22.94 27.43 24.59 29.94 26.03 23.76 24.07 24.37 24.60 21.75 22.86 20.77 20.42 20.98 25.17 20.83 18.75 16.84 18.01 21.09 21.71 22.03 23.48 23.84 24.04 21.33 20.31 19.80 19.48 21.83 22.47 20.31 17.80 19.04 20.08 18.96 18.29 17.42 17.22 16.40 15.87 17.33 16.98 15.60 14.84 13.69 13.77 13.78 13.37 12.61 12.65 11.37 10.42
19.71 21.49 24.13 25.79 26.18 25.46 24.94 21.97 22.77 22.71 22.19 19.81 19.52 22.05 24.83 21.88 17.83 15.72 18.51 21.14 21.70 21.56 23.11 23.44 22.60 21.84 21.43 22.23 20.15 19.23 18.68 21.14 21.43 17.83 17.11 18.31 17.42 16.86 16.50 15.46 15.22 13.75 16.08 15.83 15.10 14.19 12.82 11.93 11.72 9.80 10.79 7.11 0.31 6.32
19.52 20.05 22.97 27.30 28.04 26.86 25.35 26.26 26.40 23.77 20.30 18.08 20.18 20.38 20.41 14.65 13.35 15.97 22.17 23.50 22.37 23.63 24.28 24.40 24.28 23.10 20.78 19.05 19.07 18.82 18.63 17.89 17.31 16.44 17.10 16.66 16.29 15.96 15.12 12.96 12.02 12.36 14.84 13.43 13.68 13.20 12.72 12.02 11.15 10.51 10.44 11.35 11.64 10.52
20.32 21.38 16.77 20.50 20.98 23.57 20.00 20.60 20.01 18.59 18.52 21.22 21.24 15.12 14.95 15.52 14.67 20.11 21.08 23.33 23.11 23.16 22.20 21.95 22.43 21.81 20.28 19.11 19.01 17.64 16.46 16.08 16.08 16.89 16.62 16.19 15.88 14.77 13.86 12.81 10.95 11.12 11.24 10.17 10.90 11.97 11.48 11.18 10.91 10.76 10.19 9.17 9.60 10.60
19.51 20.76 17.21 11.24 16.19 15.80 15.80 17.37 16.90 16.74 19.18 21.91 17.98 14.47 13.08 17.25 20.06 19.76 20.97 22.20 22.73 21.46 19.12 17.88 17.79 19.52 18.67 19.14 19.29 19.10 19.33 17.50 15.30 10.95 10.75 12.32 13.75 11.52 13.67 13.39 13.28 12.60 13.22 12.93 7.61 8.68 9.96 9.56 9.66 8.54 8.77 8.85 9.67 10.14
18.07 22.56 15.44 13.33 11.84 10.63 14.14 18.12 16.88 18.53 19.89 18.16 17.05 16.03 16.15 18.12 20.22 22.80 21.94 22.18 21.25 19.94 19.76 19.73 19.92 19.64 17.56 16.69 14.48 14.69 16.01 15.57 13.70 12.63 11.56 11.38 11.49 12.84 13.05 12.54 12.45 12.04 11.72 12.01 11.30 11.34 9.14 9.50 11.40 9.10 7.03 8.27 9.77 9.57
22.61 21.86 17.04 15.22 12.62 14.62 17.17 20.67 22.14 22.61 21.63 19.49 20.15 15.37 13.03 14.43 16.86 19.09 20.23 20.81 20.06 19.61 18.64 17.60 17.70 18.22 16.73 16.37 16.38 15.00 12.17 11.53 9.18 9.38 11.97 12.93 12.72 12.75 11.15 10.08 10.58 10.60 10.94 10.04 8.91 8.74 7.98 6.65 8.34 8.64 8.33 7.39 6.32 5.28
21.07 17.11 14.65 10.47 12.10 18.02 20.30 21.52 19.96 18.47 18.38 17.63 16.35 18.35 18.40 17.95 13.78 15.82 18.50 20.71 19.58 18.58 16.94 18.55 16.79 14.92 15.44 14.38 13.00 11.87 10.18 11.55 10.63 10.66 10.74 11.43 11.40 9.60 9.89 9.64 9.83 9.99 8.73 7.75 8.52 7.70 7.31 6.10 5.78 5.92 5.65 5.48 4.72 3.40
19.52 18.54 17.26 15.31 13.72 15.51 17.53 20.27 18.09 17.30 18.33 16.94 16.02 17.74 16.88 17.27 12.47 14.18 17.68 18.72 19.91 19.26 17.88 16.38 15.64 14.33 13.20 13.12 12.30 11.63 10.13 7.43 5.19 7.05 4.97 3.64 1.57 4.17 6.37 10.57 9.49 9.06 7.28 7.14 7.26 7.55 6.61 5.84 4.82 4.00 3.02 2.61 2.57 2.56

GFSWCAN_sfc_wetblb_081.txt.gz
Wetbulb
42.77 42.24 42.24 42.34 42.49 42.95 43.58 44.10 44.38 44.86 45.18 45.67 45.72 45.84 45.95 46.25 46.54 43.96 39.58 41.88 37.79 33.95 33.87 36.02 36.52 33.40 34.53 33.89 30.09 33.50 31.91 33.83 33.65 24.52 26.60 25.70 24.42 29.54 30.84 33.24 32.44 29.39 27.33 26.18 27.31 23.89 22.54 41.86 42.48 36.56 40.52 42.84 42.93 42.87
41.46 41.29 41.63 41.96 42.49 42.87 43.51 43.86 44.01 44.62 44.91 45.42 45.47 45.95 46.16 46.37 46.54 45.85 38.10 41.58 43.02 35.53 32.92 39.22 39.06 39.86 38.32 37.42 36.16 36.30 32.70 35.42 36.98 31.39 29.99 30.16 26.00 29.60 31.55 27.53 37.33 30.53 33.84 29.88 31.05 29.90 40.63 43.60 43.11 44.65 44.85 42.96 42.81 42.33
40.43 40.78 41.70 42.10 42.56 43.14 43.51 43.68 44.03 44.46 44.88 45.31 45.99 46.16 46.49 46.67 46.61 45.42 39.89 41.19 40.21 35.68 33.70 33.37 32.48 38.34 42.67 41.47 41.91 32.54 36.87 38.95 38.87 37.34 34.44 34.22 30.41 34.69 28.18 29.58 34.42 37.73 39.48 35.94 34.61 39.00 40.48 41.37 42.90 43.21 43.27 41.94 42.61 42.17
39.98 41.18 42.07 42.60 43.07 43.40 43.79 43.99 44.38 44.59 45.08 45.62 46.35 46.42 46.42 46.47 46.07 44.63 39.71 41.68 38.86 35.15 23.56 28.88 40.12 37.29 41.34 41.17 41.97 40.01 39.31 40.45 40.64 37.15 34.06 32.75 32.27 37.61 33.16 34.06 33.43 37.55 39.20 36.18 36.57 39.06 40.46 39.61 40.21 40.93 41.19 41.66 41.74 40.38
40.68 41.59 42.18 42.66 43.20 44.21 45.25 44.84 44.72 45.01 45.41 46.10 46.33 46.35 46.71 46.51 46.05 43.86 42.36 41.43 41.41 33.84 29.37 32.52 38.93 41.04 42.24 40.74 39.02 42.11 40.24 38.88 35.89 34.65 33.93 32.75 36.31 36.11 36.73 36.52 35.59 38.08 35.59 35.66 32.40 36.91 37.67 36.79 39.05 40.21 38.26 37.77 36.34 36.58
41.24 42.02 42.40 43.40 44.75 45.21 45.50 45.51 45.49 45.46 45.69 46.26 46.40 46.42 46.69 46.40 45.89 41.85 33.25 41.29 42.45 39.88 34.27 27.99 38.57 38.84 39.20 40.74 38.46 37.75 39.72 38.23 36.73 36.10 34.34 37.03 39.93 38.14 29.61 31.84 35.45 35.39 36.81 35.57 32.99 38.42 36.69 35.57 35.75 36.86 36.43 34.96 33.33 31.20
41.83 42.23 43.30 44.34 44.48 44.35 44.75 45.07 45.41 45.51 45.69 45.94 46.14 46.53 46.55 46.07 44.24 36.93 35.67 39.85 43.92 42.50 33.93 30.94 29.50 39.25 40.32 40.07 37.20 36.24 38.95 37.42 38.97 35.98 34.74 34.87 36.45 38.09 32.84 29.84 31.32 32.30 35.71 33.87 35.36 38.14 34.92 33.57 31.37 33.99 33.93 33.22 32.10 28.84
42.12 43.11 44.07 44.07 43.91 44.58 44.85 44.75 45.12 45.72 45.81 45.99 46.07 46.33 46.31 46.24 43.76 39.49 42.92 44.62 43.73 38.87 37.28 29.37 28.91 35.36 39.45 33.98 32.01 37.74 35.30 38.15 37.51 36.34 36.48 33.71 37.03 35.91 28.27 29.07 29.75 30.27 31.77 31.38 32.97 35.71 34.39 32.69 31.04 29.62 30.34 29.99 27.13 25.65
42.90 43.75 43.58 43.25 43.52 44.45 44.79 44.79 45.28 45.84 46.03 46.00 46.17 46.28 41.38 39.30 36.50 39.62 45.54 44.52 44.41 39.28 31.51 30.33 26.95 29.52 38.24 36.06 36.49 36.42 37.82 31.33 37.74 32.98 34.28 35.72 31.70 21.87 25.93 26.38 26.79 27.89 28.02 28.05 31.37 30.71 31.05 30.10 27.60 26.91 26.46 26.20 24.01 23.21
43.52 43.11 43.89 44.41 44.96 44.89 44.88 45.40 45.79 45.83 45.82 45.66 42.08 36.16 31.75 38.80 45.41 43.93 38.56 36.10 35.72 37.47 36.84 30.15 35.00 32.14 35.60 33.85 31.23 33.68 34.98 32.07 29.91 32.41 35.87 30.14 24.19 27.17 27.57 27.17 27.10 26.80 28.20 28.54 25.69 24.67 26.05 27.25 25.15 23.88 23.28 23.66 23.05 21.54
43.49 44.54 44.30 44.86 44.99 45.26 45.48 45.72 45.48 45.09 44.09 40.17 35.51 35.21 41.46 44.70 39.67 35.09 30.24 30.79 31.72 29.53 31.57 34.10 35.17 33.22 39.42 32.01 32.13 33.55 31.71 31.48 26.75 28.73 29.23 26.09 21.33 24.35 25.62 25.10 26.66 27.00 27.10 27.13 27.26 26.33 26.77 26.34 24.71 22.64 21.67 21.54 21.19 19.83
43.61 44.25 44.38 45.48 45.45 45.28 44.69 44.65 44.80 43.24 41.38 40.53 39.69 41.43 39.51 35.57 32.85 30.77 29.64 31.08 29.91 26.99 33.40 29.82 34.62 37.04 35.76 38.19 31.27 32.25 29.46 30.08 24.53 33.55 30.40 19.01 21.66 24.31 24.62 23.31 23.72 25.45 24.85 23.83 24.14 23.17 23.22 22.79 22.26 20.87 20.04 19.69 19.46 19.64
42.65 43.83 44.50 44.38 44.35 44.48 44.94 44.75 44.31 43.79 44.23 42.24 37.56 34.39 33.85 30.61 28.02 27.39 21.83 23.95 28.06 31.93 33.40 34.44 32.27 33.47 34.98 35.85 32.11 31.89 27.26 27.06 31.71 27.81 16.83 18.28 21.92 22.96 22.98 22.76 21.80 22.63 22.45 21.80 20.97 20.90 20.48 20.17 20.55 19.22 17.21 17.58 17.02 16.28
42.04 42.08 41.66 42.72 42.23 42.17 43.22 44.32 44.07 41.39 39.19 33.10 29.09 21.38 25.65 23.98 22.22 22.41 26.46 27.97 30.32 31.92 32.84 32.66 32.61 30.73 32.04 30.53 29.20 27.89 27.57 28.38 24.66 18.77 12.21 17.41 18.31 21.68 22.79 22.69 20.73 18.44 17.33 17.20 16.17 16.21 16.98 17.49 16.80 17.22 17.08 16.91 16.08 15.39
40.96 40.75 40.39 40.06 40.93 41.03 40.75 41.90 41.56 38.26 33.33 27.37 26.95 20.55 20.07 23.45 26.93 29.33 30.98 30.53 31.15 32.31 32.85 33.11 29.44 30.38 26.04 23.56 24.00 22.78 20.16 18.64 17.48 9.98 13.00 16.65 17.31 19.30 17.25 19.54 16.81 17.18 14.87 16.22 14.59 15.60 14.43 15.25 16.19 15.68 16.40 16.69 16.78 15.79
41.17 40.78 37.77 39.56 40.32 40.68 41.04 40.19 37.79 35.42 29.80 26.17 25.05 24.66 27.06 24.41 23.87 26.66 28.84 28.74 31.83 31.69 32.66 31.98 28.99 24.51 24.40 24.38 22.98 16.56 19.67 10.47 11.75 16.03 17.67 16.11 17.95 18.64 18.67 19.14 18.82 18.89 18.98 18.98 18.87 18.43 17.58 16.31 15.88 15.88 16.30 15.74 14.91 13.90
42.12 37.27 38.77 40.58 40.87 40.71 41.08 35.76 31.90 27.85 26.03 24.76 20.85 23.98 25.86 23.48 24.82 25.08 27.77 28.32 32.84 31.36 24.69 27.51 23.53 22.51 26.56 22.09 14.03 14.02 8.49 12.99 17.00 18.95 20.53 18.28 16.26 15.88 18.50 19.32 19.86 20.50 20.41 20.39 20.14 19.72 18.67 18.79 18.42 17.49 14.99 15.70 16.15 15.61
37.16 36.62 39.61 40.48 40.81 38.47 35.84 34.65 29.71 27.08 23.04 24.65 20.33 22.69 22.88 25.56 24.69 25.35 25.17 27.52 27.96 26.34 26.38 23.01 26.49 16.02 11.58 12.82 10.51 14.80 18.13 20.73 20.77 19.59 20.52 20.92 20.93 20.96 19.99 18.60 17.94 19.41 18.40 17.37 17.43 17.99 19.18 18.42 17.70 16.53 17.48 17.66 17.10 16.72
37.62 38.16 39.89 40.63 40.07 35.18 30.05 30.22 29.67 22.58 24.05 24.86 24.67 24.00 23.48 23.60 25.24 25.79 26.63 27.69 28.02 27.58 26.48 22.36 14.54 13.31 13.38 16.79 17.56 18.37 17.65 16.01 17.29 16.88 17.75 16.61 19.38 17.21 16.08 18.53 18.98 18.37 19.61 19.79 19.42 18.46 18.32 19.24 19.13 19.25 19.62 19.08 15.78 16.01
42.01 41.35 41.38 41.56 39.58 32.60 28.44 28.09 32.49 26.07 23.30 24.63 26.23 23.94 24.52 25.10 26.05 23.38 23.90 25.07 24.44 22.45 17.50 16.23 16.03 20.08 20.57 22.18 22.18 20.49 17.83 20.31 18.95 16.96 18.22 18.72 20.24 19.80 20.71 19.19 18.35 18.94 18.93 19.17 19.86 19.34 18.00 16.71 16.91 15.77 15.83 15.53 13.74 11.52
39.08 37.97 39.74 39.80 35.20 34.23 29.99 27.22 26.16 26.33 26.40 24.61 26.46 25.18 23.76 24.59 22.46 21.04 20.46 23.81 19.92 19.27 17.54 19.23 18.15 19.98 21.21 22.77 22.51 20.91 21.65 21.81 22.74 19.49 16.34 17.62 18.61 19.14 19.27 19.61 21.32 22.17 18.68 16.25 13.11 14.02 13.40 11.19 13.68 15.21 7.89 0.77 1.16 2.94
37.60 38.93 36.46 36.75 30.44 30.03 27.83 29.17 26.74 27.27 26.16 26.00 26.37 26.80 23.84 20.31 19.48 20.45 23.03 18.66 17.63 19.99 19.18 17.84 18.36 19.02 19.03 18.07 17.99 20.37 19.55 21.11 19.95 19.56 17.95 18.87 17.35 17.54 16.11 17.18 17.36 11.25 11.03 10.58 14.11 10.79 8.83 9.16 9.85 10.26 4.51 6.18 7.23 3.59
38.87 38.57 33.92 32.28 25.35 23.35 24.08 31.13 25.53 27.36 20.99 22.14 25.26 22.33 21.47 18.82 21.28 23.90 13.81 17.50 18.42 19.56 20.09 19.84 20.50 21.50 19.92 21.34 22.14 22.35 22.84 21.03 17.91 16.91 16.30 13.49 13.05 12.14 12.26 12.63 13.00 9.79 9.83 10.02 13.93 11.11 5.23 3.90 5.08 2.15 3.45 5.68 2.46 -3.00
36.36 29.46 26.23 24.26 24.03 21.93 26.46 22.62 26.73 25.48 24.94 23.16 19.89 18.38 18.80 18.17 22.40 16.27 13.46 15.76 17.70 18.80 18.81 19.90 19.48 18.35 19.79 19.89 16.54 16.28 18.00 18.39 16.34 15.46 15.74 15.54 12.07 10.41 12.72 12.34 11.63 9.73 10.93 12.10 11.76 9.13 7.95 -0.70 -0.55 8.54 -2.08 -2.56 -3.25 1.72
20.95 18.11 21.89 16.39 23.14 17.98 15.23 17.15 19.68 21.17 14.98 18.48 16.44 14.70 15.24 22.55 14.56 12.64 10.86 15.69 16.88 17.56 16.97 20.76 22.61 22.22 16.51 12.97 13.66 14.61 18.50 18.96 15.41 12.20 13.09 14.61 11.64 11.81 11.78 12.11 10.90 10.78 11.84 11.32 9.98 3.58 -2.03 -2.29 -1.42 1.53 -1.09 -2.65 1.50 -5.23
12.14 14.05 18.48 19.14 19.15 18.56 19.37 13.59 14.20 15.16 15.47 12.60 12.95 17.98 19.66 16.28 9.93 10.25 15.41 18.40 17.22 14.77 17.28 17.37 14.56 17.82 17.24 18.30 15.18 13.49 13.31 16.14 16.79 12.20 12.16 13.65 12.13 6.35 6.34 6.04 8.95 8.00 8.94 1.92 0.61 5.72 3.20 -1.96 -2.40 -2.43 -5.54 -2.28 -5.21 -8.59
9.87 11.34 21.13 25.47 26.04 25.12 18.91 20.64 22.84 17.66 11.78 9.71 12.67 11.71 9.38 1.66 1.89 12.71 20.70 18.80 19.51 21.00 20.17 20.22 21.81 18.22 15.07 14.30 14.76 13.88 13.11 12.59 11.67 12.23 12.83 12.65 11.92 11.06 5.20 0.61 2.39 4.84 7.54 4.68 0.34 -3.07 1.09 2.63 -0.71 -2.21 -5.44 -5.21 0.48 -0.44
16.84 18.57 8.96 15.64 14.90 19.35 12.41 13.10 11.06 8.75 10.11 17.53 13.93 3.73 2.38 2.88 8.89 15.62 19.01 20.03 18.71 18.35 17.45 17.11 17.78 17.37 15.70 14.39 12.44 9.27 6.52 6.60 6.66 8.87 10.10 9.20 7.46 3.79 2.24 0.28 -0.12 7.80 -1.32 -4.83 -5.11 -4.39 -4.59 -5.37 -3.74 -0.52 -0.17 -3.72 -7.69 -6.34
14.33 17.16 13.80 5.53 9.80 10.82 11.58 10.78 9.63 13.32 16.06 16.18 5.56 4.37 6.49 16.07 17.11 17.75 17.84 17.37 17.97 16.56 13.38 12.17 8.66 8.57 12.09 13.05 12.96 13.30 9.40 4.82 4.76 -2.03 -3.93 2.20 2.38 0.84 0.50 -0.38 -1.39 -2.20 -0.25 2.82 4.88 0.36 -1.66 -4.17 -5.28 -6.28 -7.00 -7.41 -7.41 -7.78
13.18 18.90 9.63 5.26 2.89 5.54 11.10 16.04 7.76 11.47 13.89 12.37 15.38 15.62 14.88 15.65 18.45 16.90 15.95 19.73 17.62 13.39 10.07 9.69 8.67 7.93 4.84 5.19 1.13 2.94 4.06 -0.38 -2.65 -1.92 -0.48 -1.02 0.93 0.51 0.02 -0.74 0.20 -0.64 -2.99 -3.71 -4.33 -1.34 6.74 0.72 -0.74 -2.69 -1.80 -3.77 -3.02 -2.90
20.25 15.80 9.66 9.21 6.53 11.93 17.24 18.51 18.67 16.71 14.66 12.98 11.10 9.85 8.32 10.54 11.39 16.27 17.67 13.94 11.47 10.36 13.82 8.54 6.71 6.59 6.68 7.28 4.48 4.68 -2.65 -3.01 -4.89 -3.17 -2.26 -2.35 1.13 -0.94 -5.58 -6.11 -5.85 -6.03 -5.02 -5.19 -7.38 -8.00 -8.72 -9.80 -9.25 -6.90 -6.76 -7.81 -10.20 -12.19
14.26 8.56 5.55 4.60 9.25 15.36 18.96 12.81 9.68 11.46 12.27 8.55 6.55 7.09 7.06 5.58 3.67 6.70 10.80 13.21 14.67 13.25 10.03 11.50 7.88 4.41 3.90 0.56 -1.09 -0.27 0.06 -2.48 -3.37 -4.10 -3.19 0.59 -5.01 -6.45 -4.56 -3.61 -4.62 -2.81 -6.59 -7.80 -4.50 -5.06 -5.87 -8.64 -10.88 -11.59 -12.99 -11.93 -12.63 -12.67
12.33 11.56 11.23 8.51 5.84 6.79 12.60 11.25 10.95 11.89 10.67 8.74 8.20 11.00 7.19 4.71 1.84 5.46 11.34 12.69 16.05 12.82 10.54 9.32 7.34 6.19 5.33 3.01 1.50 -0.60 -3.61 -7.72 -5.73 1.89 -1.74 -3.19 -7.18 -5.73 -6.11 -4.47 -7.02 -5.42 -7.19 -9.00 -9.03 -8.47 -7.80 -7.71 -9.62 -10.96 -11.75 -13.14 -13.99 -14.34

GFSWCAN_sfc_wetblb_084.txt.gz
Wetbulb
40.47 41.00 42.15 42.60 42.26 41.45 41.45 41.54 42.24 42.85 43.66 44.41 45.06 45.24 45.59 45.95 46.01 44.35 40.83 40.79 35.66 29.13 32.17 34.48 35.15 31.05 31.96 33.52 29.84 33.12 28.77 30.75 32.90 25.96 25.47 25.81 23.02 27.65 27.57 31.36 29.90 29.36 27.46 24.58 25.30 22.76 21.74 40.85 40.97 34.86 38.54 40.43 40.78 41.43
40.33 41.57 42.46 41.62 41.27 40.98 41.12 41.74 42.96 43.61 43.97 44.35 44.89 45.17 45.65 46.04 46.23 45.94 39.23 42.04 41.35 33.12 31.53 36.98 36.95 37.56 36.18 36.85 33.02 35.38 32.39 33.81 36.02 32.80 29.79 30.14 24.54 25.41 28.27 24.96 36.63 29.09 33.32 29.46 29.04 27.99 39.21 41.78 41.41 42.92 42.63 40.45 40.45 40.14
40.92 41.67 41.21 40.55 40.54 41.05 41.90 42.98 43.51 43.89 44.01 44.40 44.87 45.51 45.85 46.20 46.38 45.32 40.26 40.53 39.95 35.22 33.46 32.93 31.96 37.08 39.33 38.62 40.57 29.51 34.40 36.93 33.81 35.49 33.73 31.56 28.84 33.41 25.74 28.74 33.70 34.14 37.06 34.65 34.77 37.41 38.16 39.44 40.60 40.96 41.35 39.99 40.11 40.38
41.06 41.10 40.41 39.75 40.33 42.30 42.88 43.21 43.80 44.15 44.49 44.88 45.12 45.40 46.13 46.52 46.59 45.88 40.33 41.22 38.66 34.44 24.90 28.70 38.44 35.01 39.15 38.72 39.40 39.09 38.11 39.25 38.01 38.88 33.40 31.38 28.82 35.13 30.38 32.75 32.62 36.30 38.39 34.72 34.83 37.10 38.28 38.02 38.26 38.76 37.25 38.60 35.85 34.57
40.56 40.19 39.84 40.48 41.67 42.55 42.85 43.52 44.73 45.18 45.11 45.00 45.39 45.95 46.50 46.82 46.50 43.23 42.27 42.04 41.53 34.38 26.30 29.33 36.86 39.21 39.89 37.88 36.85 38.87 39.80 38.71 36.23 34.87 32.01 29.81 32.81 34.85 35.84 35.57 30.98 34.26 33.23 31.88 29.87 33.63 35.67 34.03 36.97 38.13 34.57 32.10 32.38 31.29
39.73 39.34 40.40 41.45 42.34 42.73 43.29 44.65 45.52 45.57 45.25 45.52 46.02 46.54 46.52 46.57 44.59 41.04 33.13 40.97 42.36 40.70 31.00 24.74 35.24 37.67 39.12 38.42 36.54 36.27 39.01 38.82 38.26 34.53 31.57 36.28 37.93 36.41 31.00 31.24 31.25 34.55 34.04 33.58 34.03 34.33 32.93 32.95 32.76 34.77 31.95 30.03 29.49 28.03
38.98 40.11 40.89 42.25 42.55 43.37 44.31 44.68 44.91 45.54 45.77 45.80 46.04 46.11 46.38 46.25 43.05 37.75 32.97 38.11 42.80 40.69 32.95 28.84 27.63 35.26 39.02 36.96 35.84 33.88 37.57 38.71 35.94 36.39 34.39 34.34 34.10 36.21 31.99 27.09 29.41 30.63 31.53 32.99 36.38 37.57 31.62 31.66 28.79 32.30 30.42 29.10 28.26 25.94
40.05 40.96 41.78 42.17 42.89 43.97 44.27 44.17 44.65 45.40 45.80 46.16 46.23 46.08 46.13 46.28 43.74 38.81 42.92 43.69 42.53 37.88 36.56 28.43 25.60 33.02 37.47 31.20 34.33 37.80 33.62 37.15 34.77 35.06 35.95 34.34 34.17 33.53 24.64 27.54 27.52 28.39 30.82 29.95 31.27 32.61 30.66 30.00 29.18 28.78 29.28 27.87 25.08 23.58
41.33 41.57 41.98 43.07 43.68 43.99 43.93 43.70 44.28 45.29 45.70 46.05 46.16 46.04 42.93 39.06 36.59 39.85 44.76 43.90 43.96 38.26 29.91 30.27 25.18 23.90 38.63 33.67 36.57 35.58 36.77 30.68 34.92 32.45 33.11 32.38 27.40 19.25 22.98 23.77 24.20 25.67 25.98 26.80 29.75 29.66 29.70 26.88 25.59 25.24 24.88 24.57 23.08 22.22
40.86 42.03 43.12 42.70 43.06 44.28 44.35 44.71 45.30 45.39 45.82 46.16 41.86 35.78 30.91 37.99 45.08 43.91 39.78 34.33 35.56 36.91 37.08 30.90 30.98 29.57 36.46 32.48 31.48 33.29 33.22 30.64 27.94 31.55 35.72 26.37 21.50 24.69 24.91 25.51 25.42 25.82 26.67 27.00 25.00 23.88 26.38 24.64 23.51 22.56 22.14 22.03 20.47 18.62
42.02 42.44 44.19 44.42 44.81 44.93 44.98 45.11 45.35 45.69 44.36 39.16 33.78 33.61 40.59 44.76 39.20 34.95 29.75 29.71 31.23 28.74 31.75 31.21 32.33 32.42 38.97 31.73 30.80 32.18 31.35 31.56 26.33 27.91 29.10 24.24 20.10 21.65 24.26 23.79 25.15 25.30 24.96 24.71 24.36 24.24 24.25 25.03 22.67 21.35 21.12 20.61 19.85 18.94
42.41 44.67 45.61 45.31 45.40 45.56 45.47 45.37 44.76 42.86 40.51 39.38 40.13 41.17 39.52 34.72 32.37 29.68 28.17 30.26 27.43 25.02 29.86 27.45 31.59 36.49 35.54 38.52 32.49 31.14 27.52 30.75 24.36 33.70 23.86 13.56 19.93 23.03 22.58 22.02 22.48 23.44 22.38 21.74 22.75 22.16 22.22 21.79 21.18 20.23 19.47 18.61 17.99 17.28
44.30 44.44 44.63 44.80 44.67 45.07 44.90 44.46 43.97 44.09 43.82 41.58 37.21 33.55 32.75 30.49 26.27 24.41 23.70 26.41 26.28 32.12 33.43 33.63 31.35 33.50 34.71 35.48 32.15 30.82 26.58 25.85 31.88 20.82 14.41 16.44 21.83 22.27 21.45 20.60 20.05 20.89 21.03 20.08 19.41 20.12 19.99 19.11 19.00 17.86 15.68 16.14 16.07 14.82
43.38 43.56 43.30 44.09 44.63 44.19 44.37 44.41 43.08 41.21 39.01 32.37 28.23 17.04 24.89 16.91 15.93 18.07 23.39 27.48 29.97 32.15 32.99 32.47 31.89 31.57 31.95 28.76 27.31 26.51 23.05 25.55 19.65 11.36 12.36 16.16 18.09 19.40 21.38 21.07 18.49 13.52 13.90 13.46 11.91 12.15 12.73 14.15 13.71 14.56 14.56 15.10 14.93 13.75
42.60 42.62 42.04 41.47 41.23 41.18 41.89 41.57 40.65 37.11 31.25 26.52 25.85 14.89 13.18 18.45 21.39 28.80 30.82 30.18 30.97 32.39 32.90 31.55 28.55 29.32 26.21 23.76 24.86 22.75 21.03 15.35 14.64 8.72 9.80 15.03 16.49 17.36 15.67 17.91 15.34 15.32 11.81 12.68 9.91 12.01 10.98 12.13 13.78 14.06 15.16 15.59 15.49 14.49
41.37 40.87 37.82 40.40 40.48 40.90 40.23 38.88 36.12 33.86 29.17 26.36 24.02 22.45 23.97 20.32 22.14 25.77 27.84 28.26 31.94 31.59 32.92 30.03 25.29 19.62 18.99 20.42 16.86 11.84 16.34 8.58 8.17 9.34 15.67 13.09 12.81 12.25 13.49 15.71 14.68 13.70 13.35 14.10 14.56 14.98 15.23 14.18 14.29 14.56 15.51 14.95 13.96 13.39
41.70 35.01 38.90 40.03 40.73 41.01 40.41 34.31 31.52 28.12 26.11 23.61 20.86 22.01 21.68 20.05 19.67 24.42 25.70 26.31 31.54 30.94 22.08 24.35 19.63 20.15 24.86 15.09 9.56 10.66 3.49 5.90 13.68 16.29 15.15 13.81 16.04 14.04 14.72 15.72 15.06 14.59 13.92 11.75 11.93 13.55 13.07 15.78 16.60 15.62 13.60 14.55 15.31 14.17
34.70 35.25 40.23 41.19 40.12 37.61 35.16 33.18 28.75 25.43 20.89 22.40 19.29 19.77 16.57 19.28 20.06 22.20 23.79 26.52 28.11 25.02 23.65 19.73 22.74 13.10 5.93 7.14 5.20 9.78 14.29 17.63 17.46 16.79 14.76 11.37 12.95 13.82 14.89 12.89 13.92 15.25 14.65 14.42 15.38 15.52 17.07 17.35 17.53 16.32 16.65 17.14 16.35 15.62
34.97 35.75 40.26 41.18 39.05 33.80 29.16 29.45 28.80 20.74 21.07 19.64 21.41 22.26 23.03 22.11 23.70 23.51 23.62 24.78 24.58 25.24 23.37 18.98 12.24 8.26 8.21 10.91 13.15 15.20 16.70 15.43 15.36 13.78 13.44 12.87 15.05 14.43 14.52 17.78 18.82 18.65 18.79 18.12 18.70 17.57 17.82 17.86 17.52 18.38 18.72 18.19 15.57 14.55
40.37 40.28 40.56 40.39 39.21 30.59 27.88 27.93 31.76 25.82 21.24 21.44 24.44 23.72 24.05 22.94 23.48 20.51 22.61 24.06 23.88 21.92 16.48 12.66 11.77 13.39 14.54 18.24 16.83 16.73 16.03 17.52 16.32 13.70 11.18 15.09 14.21 13.96 13.63 17.35 16.93 18.04 18.27 19.28 18.54 18.10 16.74 15.75 16.06 15.41 14.60 13.54 10.38 10.13
37.83 37.22 39.48 37.15 33.53 32.15 28.43 26.95 25.98 26.49 25.61 23.09 25.65 24.64 21.90 23.42 20.13 18.01 18.34 22.58 16.79 16.65 13.66 15.73 16.84 18.93 20.40 19.28 19.23 20.34 18.00 18.54 13.57 15.24 13.65 11.35 11.60 17.95 18.36 19.42 20.51 18.95 16.44 12.07 8.83 9.97 9.55 7.73 9.52 9.60 2.12 -4.76 -2.26 1.66
35.39 39.60 34.03 34.60 29.70 28.98 26.98 27.44 25.61 25.97 25.62 25.29 25.63 26.51 20.74 15.99 15.72 18.18 21.52 16.78 16.14 17.76 18.83 18.55 17.19 18.29 18.41 17.29 18.34 20.03 19.04 20.99 20.06 17.88 15.47 15.31 15.15 14.72 13.87 14.63 13.47 8.55 9.92 9.86 12.03 7.58 7.16 8.69 7.40 4.50 1.34 -3.49 -0.29 0.38
38.10 36.47 31.48 29.24 23.30 21.53 21.05 29.30 22.95 25.62 19.93 22.00 24.46 21.27 17.96 17.34 20.88 22.75 13.60 16.99 16.93 18.68 16.15 17.82 19.38 20.57 19.16 20.58 21.40 21.11 21.33 19.54 16.58 15.62 15.06 13.34 12.36 9.95 9.44 8.76 8.07 6.32 6.30 7.18 9.10 5.85 3.20 2.43 2.14 -1.05 -2.09 -1.29 -1.38 -6.83
34.56 27.41 23.45 20.85 21.68 19.02 21.30 19.25 25.87 24.69 24.16 21.41 18.88 17.06 16.25 16.22 20.33 12.41 10.49 11.13 11.92 16.90 17.06 18.44 18.57 17.16 17.48 17.34 14.61 14.74 16.56 16.46 14.40 13.00 12.55 12.57 9.91 8.11 10.25 9.52 8.75 7.30 9.27 10.35 8.68 3.63 1.48 -4.98 -3.60 0.16 -7.84 -4.76 -5.13 -1.36
21.16 17.69 18.52 12.55 18.08 14.68 12.63 12.70 16.69 18.87 13.57 16.28 13.75 11.15 13.15 20.72 10.73 7.37 4.29 10.78 11.01 9.51 12.55 18.05 18.67 17.59 12.68 9.26 11.51 13.42 16.30 16.34 12.70 10.62 11.12 11.81 7.65 8.73 9.56 10.11 9.40 9.47 8.85 2.41 1.52 -3.93 -5.53 -10.02 -9.19 -7.51 -6.57 -10.44 -1.26 -3.01
10.75 11.58 15.99 13.95 15.20 16.86 16.31 11.19 11.05 12.10 12.89 9.28 9.76 15.76 15.68 10.05 4.63 4.27 10.78 10.25 7.33 8.95 9.35 16.55 18.59 15.41 14.33 14.74 12.24 10.96 11.10 13.96 13.88 9.67 9.89 11.77 9.74 4.14 1.89 1.69 0.47 2.21 4.80 -3.67 -2.25 -3.49 -4.12 -7.67 -8.62 -7.55 -10.28 -8.08 -8.63 -13.27
6.95 8.12 19.50 24.48 23.81 22.78 15.91 16.71 19.52 14.14 7.60 6.80 8.47 5.22 1.55 -4.60 -3.67 9.22 16.78 12.75 15.76 12.39 15.91 18.82 18.17 15.38 12.69 11.55 12.02 11.04 10.51 11.40 9.96 10.63 10.88 10.60 9.63 7.70 1.17 1.00 0.45 3.96 3.63 -2.90 -7.49 -6.39 -4.22 -4.58 -6.95 -8.26 -10.76 -7.14 -6.57 -7.37
15.11 14.34 9.42 10.88 9.87 13.96 4.57 6.91 5.33 4.09 4.82 14.31 9.46 -1.07 -2.73 -0.82 5.84 13.83 15.52 15.50 14.80 16.09 15.82 15.98 16.35 15.02 12.91 10.78 7.85 5.82 4.43 4.29 7.24 7.32 7.56 6.30 3.74 -1.47 -3.27 -3.78 -3.17 4.48 -6.39 -10.69 -10.92 -12.19 -10.56 -9.66 -7.30 -7.66 -9.47 -10.02 -11.65 -12.92
6.87 13.30 12.01 3.46 6.10 6.98 8.71 5.38 4.83 11.07 14.34 11.20 -0.44 -1.50 4.64 13.53 11.74 14.05 12.76 13.74 13.68 14.46 12.34 11.07 5.39 9.04 10.28 9.14 5.60 3.91 -0.67 -0.09 0.23 -3.68 -7.48 -6.03 -5.67 -2.69 -6.03 -7.48 -8.24 -8.94 -9.29 -5.67 0.68 -4.06 -6.29 -8.13 -10.41 -10.44 -11.52 -11.67 -12.58 -16.36
9.38 14.30 5.22 -0.08 0.44 2.80 4.78 5.84 1.39 1.67 10.25 9.30 13.87 14.43 12.39 12.39 16.75 13.89 14.19 11.63 9.40 6.42 3.17 8.88 4.46 7.14 0.95 -0.14 -7.84 -3.90 -6.23 -12.19 -9.66 -4.24 -7.31 -7.66 -3.91 -2.46 -6.03 -7.48 -8.02 -10.56 -13.28 -12.92 -11.84 -8.57 0.21 -8.08 -4.84 -9.50 -8.27 -8.39 -9.29 -12.92
14.92 7.65 3.07 2.27 6.36 9.73 10.82 10.93 12.15 10.80 3.68 6.61 2.58 3.28 5.59 9.81 11.09 14.73 13.86 5.90 8.40 8.72 9.71 7.18 3.69 -0.81 -0.17 -6.76 -9.84 -10.56 -7.31 -7.49 -12.74 -10.38 -6.57 -5.30 -8.02 -10.74 -11.47 -12.19 -13.83 -15.09 -14.37 -14.19 -14.91 -16.00 -15.28 -15.64 -18.00 -17.45 -16.91 -16.00 -17.27 -18.72
2.86 -1.07 2.43 2.34 7.53 9.63 10.76 1.02 0.78 3.70 -1.88 -1.08 -1.02 -2.05 2.15 -0.43 -0.25 4.50 10.72 7.72 4.33 5.20 -2.04 1.71 2.12 -3.31 -8.02 -9.47 -8.21 -7.12 -5.33 -9.11 -11.83 -10.92 -8.02 -10.92 -14.37 -15.28 -12.38 -9.84 -13.28 -14.37 -14.74 -14.91 -14.37 -12.56 -10.56 -12.56 -15.64 -16.55 -16.73 -15.46 -17.27 -18.36
3.83 2.45 3.56 3.85 2.13 3.02 4.62 5.93 4.18 8.54 5.72 4.38 4.87 4.85 -0.48 -4.27 -3.00 3.34 8.25 8.14 5.97 6.31 5.30 -1.90 -0.71 -1.07 -1.97 -2.15 -3.51 -8.57 -10.38 -13.46 -11.47 -0.41 -5.67 -7.30 -11.11 -9.66 -15.64 -17.81 -18.36 -17.81 -15.64 -16.55 -17.45 -17.09 -14.91 -14.19 -14.55 -15.64 -16.73 -18.54 -19.08 -20.71

GFSWCAN_sfc_wetblb_087.txt.gz
Wetbulb
40.54 40.49 40.52 40.78 41.25 42.14 42.74 41.66 41.61 41.64 41.90 42.66 43.39 43.88 44.38 44.96 45.26 43.96 40.90 40.61 36.20 26.47 28.22 32.92 33.67 29.20 31.03 31.03 25.47 29.63 28.15 28.65 31.43 27.61 25.40 25.50 23.15 27.10 26.78 28.95 28.03 26.12 24.66 23.52 25.63 24.18 21.50 39.55 39.23 32.33 36.26 39.69 40.03 40.70
40.07 40.17 40.48 40.72 41.77 42.43 41.60 41.53 41.28 41.53 42.42 43.23 43.60 43.72 44.15 44.79 45.47 45.55 39.77 41.20 40.95 34.18 29.35 35.22 35.71 36.61 34.83 34.45 30.57 31.27 31.34 31.55 34.80 31.36 30.49 30.65 25.77 24.18 27.04 22.43 34.14 23.11 29.82 29.99 29.69 27.45 38.23 39.72 38.85 40.65 41.78 39.91 40.12 39.75
40.02 39.96 40.22 41.31 42.01 41.47 40.73 40.84 41.35 42.54 43.21 43.36 43.87 44.11 44.39 44.60 45.52 45.13 41.28 40.61 38.98 34.00 31.95 31.01 29.86 36.42 38.92 37.26 38.37 27.56 30.78 36.10 35.01 35.00 32.72 31.76 27.12 31.71 23.98 25.72 31.22 33.10 35.29 31.42 33.48 37.17 37.54 38.17 37.64 38.52 37.17 34.63 35.58 36.82
39.75 39.97 40.65 41.56 41.69 40.74 40.07 40.50 42.30 43.14 43.56 43.91 44.27 44.69 44.94 45.29 45.68 46.09 40.33 41.56 38.79 35.74 27.84 28.39 37.18 33.93 37.66 37.74 36.72 36.85 36.12 38.79 38.10 37.74 34.16 31.33 29.03 32.83 28.82 30.79 32.20 34.27 34.21 33.45 32.74 34.98 36.02 36.68 37.72 35.87 35.07 34.79 32.73 30.90
39.28 39.74 40.89 41.10 40.73 40.30 40.77 42.02 42.67 43.15 43.71 45.11 44.94 44.85 45.25 45.76 46.36 45.10 42.11 41.84 40.68 35.52 25.28 26.67 34.27 37.82 38.14 35.84 34.87 36.30 37.27 36.90 34.96 34.32 31.84 29.50 30.62 34.11 33.16 35.08 28.31 33.58 29.92 28.80 28.44 32.04 32.55 32.00 35.76 35.60 32.31 30.31 29.74 28.95
38.79 39.90 40.96 40.49 39.89 40.42 41.57 42.39 42.87 43.88 45.59 45.51 45.28 45.41 45.64 46.52 44.34 40.28 32.77 41.30 42.08 40.83 31.07 22.70 32.52 35.02 36.69 35.87 34.71 35.79 37.24 36.88 37.40 34.77 32.75 33.22 36.62 36.13 25.47 27.38 29.66 32.21 33.20 34.54 33.38 33.28 31.65 31.86 33.02 31.71 29.00 27.97 27.31 25.85
39.39 40.29 39.97 39.51 40.31 41.36 42.38 42.91 43.20 44.85 45.42 45.84 45.82 46.07 46.34 44.89 42.45 37.36 33.13 37.20 43.14 41.31 31.53 27.06 26.59 33.95 37.94 35.32 33.31 32.82 36.05 35.96 36.64 35.44 32.54 33.27 32.46 35.67 31.24 25.74 27.55 29.98 30.87 31.54 34.09 34.61 31.10 29.32 27.59 29.59 28.03 27.16 26.78 24.93
39.71 39.53 39.27 40.21 41.31 42.08 42.68 42.97 44.16 44.99 45.25 45.79 45.98 45.95 45.70 44.99 43.48 39.16 42.94 43.66 42.42 37.33 35.13 26.83 26.66 29.99 36.44 30.23 31.53 36.92 33.37 34.19 36.73 32.92 35.75 33.41 34.47 33.01 24.21 25.65 26.33 27.86 29.64 29.14 29.83 31.23 29.43 29.38 28.84 27.55 27.60 26.29 23.74 22.54
39.40 39.48 40.43 41.24 41.82 42.26 42.87 43.57 44.30 44.96 45.14 45.86 46.02 45.88 43.61 38.75 36.78 38.07 44.54 43.54 43.22 37.15 28.96 29.51 23.94 21.34 36.29 33.22 36.34 34.68 32.10 24.34 32.98 28.51 30.19 33.20 28.23 20.58 21.83 23.54 23.96 25.40 25.52 25.98 28.83 29.79 28.00 25.86 24.78 24.22 23.64 23.78 22.30 21.06
39.43 40.41 41.25 41.56 42.08 42.74 43.46 43.86 44.24 44.74 45.00 45.69 42.82 37.09 30.71 36.89 44.49 43.09 39.10 34.71 35.05 36.22 36.65 29.17 30.94 28.46 36.21 33.59 32.74 32.24 31.65 24.31 27.88 30.37 33.88 25.83 18.57 23.83 24.62 25.04 25.35 25.29 25.24 25.15 25.03 23.83 25.25 22.98 22.12 21.36 20.74 20.42 19.78 18.51
40.10 40.59 41.33 42.24 42.92 43.08 44.02 44.68 44.00 44.36 45.02 39.21 32.74 33.99 39.69 44.20 38.87 35.15 29.58 29.44 30.58 29.08 32.26 31.49 30.34 29.32 37.64 30.55 27.99 29.89 29.72 30.62 25.97 26.11 29.90 22.45 17.59 20.73 23.18 22.88 24.23 24.10 24.09 24.17 23.96 23.26 23.58 23.62 21.82 20.90 19.69 20.15 19.39 18.26
40.78 41.68 42.63 43.55 44.10 44.57 44.91 45.21 45.23 40.70 37.00 36.81 39.72 41.42 39.65 35.50 32.21 29.07 26.50 28.94 27.72 25.02 27.50 28.23 33.22 35.70 34.34 37.40 32.33 32.06 27.83 30.10 23.63 31.92 22.41 11.91 18.82 22.03 21.71 21.43 21.85 21.87 21.36 20.87 22.29 21.53 21.93 21.43 21.28 20.11 19.08 17.27 16.43 15.86
41.26 43.93 45.30 44.94 45.13 45.48 45.45 45.28 43.68 43.58 43.71 40.83 37.40 33.78 33.25 30.50 25.41 17.49 20.45 25.14 24.76 30.37 31.54 33.48 31.60 33.20 34.17 32.03 30.68 27.86 26.33 22.28 31.02 19.37 12.36 14.15 20.59 21.84 20.35 20.04 19.27 20.22 20.18 19.56 19.63 19.89 19.40 18.17 18.29 16.90 14.58 14.76 14.43 12.90
44.05 44.73 44.74 44.62 44.30 44.46 44.38 44.41 44.52 43.12 39.07 32.27 29.05 21.10 25.37 12.09 15.47 17.26 18.53 24.88 30.31 31.97 32.02 32.78 31.34 30.12 31.38 27.09 29.21 26.64 26.61 24.54 16.11 8.22 9.00 14.33 18.53 19.81 20.36 20.07 17.11 13.06 12.83 11.68 10.29 10.19 10.04 10.55 11.00 11.80 11.97 13.00 13.17 11.32
42.41 42.55 42.15 42.30 41.95 42.13 41.44 41.41 39.94 35.86 30.05 27.67 25.79 13.87 13.53 17.24 21.16 25.84 28.89 30.01 31.21 32.58 32.54 30.66 28.84 27.88 23.65 23.65 22.37 19.07 17.42 10.90 13.33 8.51 7.54 12.04 17.11 17.23 15.26 16.54 13.20 12.38 8.85 9.44 7.55 10.22 8.39 9.28 11.86 11.88 14.27 14.88 14.92 13.36
41.36 40.83 39.85 41.30 41.13 40.51 39.66 38.32 36.16 34.26 29.42 26.37 23.13 22.54 22.59 18.14 21.83 23.31 27.30 28.47 31.94 32.19 32.33 30.75 24.42 19.61 19.13 18.23 16.19 10.61 16.06 11.78 8.53 8.37 11.30 13.52 15.35 9.89 11.65 13.69 11.38 11.13 10.89 8.23 7.57 9.00 9.67 7.47 7.54 8.81 11.62 11.22 9.90 10.79
40.25 36.13 40.09 39.83 40.46 40.01 39.52 34.45 31.89 28.51 25.92 22.87 19.11 20.66 14.83 11.58 15.06 23.92 25.49 26.13 30.03 29.99 23.27 22.17 15.43 17.25 21.92 14.69 11.98 11.92 4.71 2.89 12.23 11.32 12.02 9.91 12.45 14.27 13.72 12.68 10.75 12.09 11.77 9.98 9.58 11.07 9.95 11.52 12.25 13.80 11.74 13.10 13.88 12.82
33.96 37.50 40.73 41.95 39.06 37.71 34.96 32.51 27.57 25.28 21.01 21.67 19.96 19.89 15.84 16.72 16.84 23.09 24.14 26.23 28.42 25.52 22.99 18.01 21.41 12.12 7.52 9.11 4.10 6.18 9.64 11.61 11.17 13.28 12.20 9.73 8.29 7.38 12.40 11.34 9.66 12.31 11.00 10.66 12.12 11.83 13.76 14.36 16.30 15.13 15.12 15.62 15.32 14.51
35.82 38.58 41.05 41.69 38.60 33.20 28.73 27.89 28.07 20.80 21.14 22.36 22.92 21.94 22.09 20.66 23.18 22.63 22.63 23.44 24.58 25.25 22.77 17.75 12.02 7.67 4.65 6.39 6.98 9.73 10.96 12.65 14.86 10.92 10.91 8.42 9.22 12.62 11.72 12.85 13.05 12.20 13.58 13.79 17.79 16.65 16.60 17.87 17.53 17.96 17.64 17.74 14.51 13.96
40.31 40.44 40.46 40.16 38.18 30.07 27.76 27.43 30.09 24.16 19.93 22.27 24.86 22.95 23.40 22.29 22.73 18.35 21.53 22.95 23.82 20.73 13.32 9.09 7.85 13.08 15.15 15.46 11.20 12.94 10.46 15.31 15.61 12.54 13.63 11.31 10.09 11.73 9.64 12.99 12.00 15.54 17.42 18.26 18.19 17.49 16.82 15.73 15.68 15.19 14.11 13.57 12.25 9.87
37.49 37.17 38.67 36.37 32.33 31.53 29.07 27.43 24.71 24.62 24.41 22.33 25.20 23.82 21.02 22.08 18.69 17.02 18.40 20.95 14.94 14.99 11.90 13.80 11.97 16.48 17.54 16.70 18.02 17.57 15.88 16.64 11.93 13.50 11.66 11.48 11.79 13.98 15.12 14.38 15.00 13.47 11.87 8.94 8.90 9.76 9.48 8.15 7.76 8.05 -0.28 -4.76 -3.85 -0.05
34.84 38.99 32.82 33.64 29.32 29.22 27.03 27.52 24.93 25.10 24.21 24.38 24.65 24.54 17.90 11.66 12.14 13.93 19.89 13.87 13.75 13.75 14.72 16.73 17.01 17.16 18.12 16.35 16.32 18.23 17.05 18.72 16.53 14.52 13.64 14.33 12.85 12.15 12.18 9.12 12.76 9.77 12.22 8.84 10.61 4.30 5.10 7.45 6.34 4.11 -3.37 -7.30 -3.14 1.38
38.06 36.16 31.09 29.67 24.77 23.82 19.91 29.26 21.74 24.44 16.92 19.83 22.03 17.41 13.31 12.53 17.19 21.32 11.93 15.90 15.18 16.15 16.56 17.39 18.91 20.09 18.87 19.79 20.31 20.29 20.91 19.11 15.76 14.14 12.99 10.30 9.05 5.92 7.10 6.05 5.35 4.49 3.55 5.60 7.47 4.16 2.07 0.49 1.02 -1.87 -4.76 -4.76 -4.85 -9.41
33.98 28.54 25.08 21.52 23.54 20.02 20.65 17.54 25.05 23.59 22.33 19.83 16.80 13.87 14.92 16.00 19.26 11.13 8.23 8.11 13.58 17.37 16.55 17.89 17.28 15.94 16.50 16.63 13.74 14.06 14.93 15.24 13.10 12.01 11.16 11.00 8.14 6.57 8.00 7.69 7.07 5.65 7.38 8.45 6.59 0.98 -1.37 -7.69 -6.57 -3.34 -9.47 -11.10 -12.37 -8.39
21.67 18.09 18.97 12.84 18.23 14.92 13.00 12.37 15.88 17.56 11.63 14.27 12.16 10.68 12.89 18.17 6.98 2.97 5.53 7.55 9.99 7.69 10.37 16.05 16.74 15.26 11.90 8.31 10.44 12.00 15.44 14.88 12.12 9.49 9.40 9.82 6.44 7.39 7.68 8.56 7.12 7.21 6.80 -1.69 -3.67 -5.85 -8.57 -13.64 -13.46 -11.10 -8.75 -11.47 0.00 -2.95
10.45 10.46 14.24 11.66 13.21 15.36 14.37 11.33 10.31 11.45 11.33 8.24 8.53 13.77 12.20 5.16 -0.39 -0.43 9.21 7.48 3.70 6.80 3.71 10.97 10.59 12.49 12.76 13.16 10.77 10.21 10.13 12.60 12.44 8.69 8.63 10.51 8.17 3.24 1.05 -0.47 -0.84 1.81 3.04 -6.21 -6.57 -6.94 -5.12 -9.47 -11.68 -9.76 -12.01 -9.49 -11.45 -15.06
6.13 8.43 19.25 21.58 21.56 21.06 14.16 15.17 18.35 12.50 6.70 5.94 9.39 4.89 1.14 -6.04 -4.76 7.52 12.17 10.05 12.77 9.61 14.66 16.75 17.43 14.64 11.80 9.96 10.42 9.50 9.40 9.96 9.09 9.33 9.00 8.26 7.02 5.54 0.31 -2.12 -0.09 4.12 2.35 -5.72 -9.47 -9.84 -6.21 -5.12 -7.32 -11.29 -13.28 -14.73 -15.64 -14.21
15.52 14.76 11.64 8.58 9.44 12.47 3.90 6.01 5.68 3.27 4.69 13.54 7.78 -3.39 -3.40 -0.10 4.32 10.24 9.70 10.39 13.27 15.69 14.66 14.54 15.05 13.96 11.28 8.70 6.30 6.33 3.54 5.02 5.47 5.12 4.77 4.27 2.10 -2.91 -5.10 -6.40 -4.96 2.67 -9.33 -13.28 -13.28 -15.46 -13.10 -11.29 -8.39 -7.30 -9.11 -8.20 -10.02 -14.01
7.55 12.98 10.65 2.28 4.59 6.31 6.91 3.39 5.00 11.17 13.43 8.91 -2.51 -2.77 4.10 11.47 8.46 8.95 10.96 7.66 11.97 13.75 10.55 8.29 3.76 5.47 4.43 2.59 -1.09 -0.86 -4.03 -0.06 -1.98 -6.39 -9.47 -11.29 -10.92 -4.11 -9.29 -10.92 -11.47 -12.37 -15.09 -9.84 -4.22 -8.02 -6.21 -7.12 -12.19 -13.47 -12.74 -13.10 -8.97 -15.09
9.56 12.66 4.81 -0.22 0.97 2.31 1.55 4.33 2.59 3.97 10.05 7.80 11.25 12.62 10.28 11.39 14.43 13.33 11.74 10.05 7.97 4.42 -0.11 6.12 1.21 3.55 -2.41 -1.51 -8.93 -5.28 -11.49 -15.64 -8.75 -2.55 -8.57 -12.92 -6.69 -8.23 -11.47 -8.75 -10.02 -13.82 -17.99 -16.00 -14.19 -11.32 -3.86 -12.19 -8.57 -14.40 -16.75 -17.29 -20.35 -19.08
11.11 4.36 0.26 3.37 4.90 4.01 5.16 2.36 9.72 5.93 -1.15 0.43 0.18 4.06 5.22 9.14 12.70 12.81 8.35 -0.05 4.37 5.39 5.24 -2.58 -6.75 -10.38 -3.45 -10.56 -12.37 -11.54 -8.92 -10.59 -16.18 -13.46 -10.92 -10.38 -13.82 -12.37 -13.28 -15.46 -18.18 -20.17 -19.81 -18.54 -18.36 -18.54 -18.72 -19.08 -21.62 -20.35 -19.08 -16.54 -17.99 -20.35
-1.05 -4.23 0.68 0.62 4.04 5.18 5.15 -3.32 -0.63 -0.28 -2.48 -0.12 0.97 -2.28 -1.01 -1.92 -2.77 3.93 8.95 4.33 3.01 -0.24 -4.94 -1.95 -0.25 -3.13 -11.29 -13.46 -13.64 -13.10 -7.36 -9.29 -12.56 -12.01 -12.01 -14.91 -16.36 -17.81 -16.91 -15.82 -20.17 -19.81 -18.54 -18.72 -20.17 -19.26 -17.45 -15.64 -17.99 -19.63 -19.99 -17.81 -17.81 -18.72
-1.20 -4.08 -2.31 3.18 2.64 3.37 2.73 3.89 0.81 3.53 0.78 0.58 0.48 -1.69 -8.39 -6.79 -3.54 0.83 5.71 4.85 3.50 4.07 -0.04 -7.66 -9.11 -6.03 -5.06 -3.49 -4.25 -11.29 -13.46 -16.18 -14.73 -3.31 -7.84 -9.47 -13.10 -12.92 -19.81 -22.35 -22.35 -21.62 -18.72 -19.99 -21.44 -21.44 -18.54 -16.72 -17.81 -19.08 -19.63 -20.17 -19.44 -21.80

GFSWCAN_sfc_wetblb_090.txt.gz
Wetbulb
41.55 40.78 40.53 41.10 40.41 40.70 41.11 41.51 42.74 42.33 41.72 41.57 41.98 42.75 43.59 44.13 44.90 43.29 40.83 40.79 36.53 29.29 27.95 31.67 32.11 28.51 28.81 29.41 23.97 28.64 27.53 27.79 31.38 26.06 26.18 25.61 23.04 26.31 26.72 28.19 27.72 25.45 23.75 23.18 26.75 23.61 20.02 37.62 37.41 30.25 36.26 39.00 38.71 37.84
40.91 40.69 40.41 40.76 40.53 40.72 41.06 41.96 42.54 41.69 41.46 41.53 41.94 42.86 43.80 44.04 44.44 44.76 39.55 41.26 41.37 35.07 31.18 34.07 34.16 34.95 34.33 33.46 29.89 29.85 28.93 28.60 33.82 26.15 28.23 29.20 27.54 25.29 26.71 23.18 32.52 21.77 29.82 29.07 28.96 27.45 36.91 37.48 35.80 37.34 38.41 36.12 37.35 37.10
40.30 40.64 40.23 40.28 40.27 40.69 41.16 42.27 41.64 41.15 41.30 41.71 42.54 43.21 43.99 44.13 44.34 43.76 41.36 40.47 38.58 34.09 34.01 31.88 30.90 35.19 37.05 36.02 36.42 26.71 29.79 34.39 33.63 34.42 30.52 31.39 27.56 30.69 23.98 24.98 29.77 29.96 34.93 30.97 31.33 33.29 35.10 36.56 36.87 35.10 34.29 32.84 33.85 34.42
40.19 40.34 40.21 40.01 40.06 40.68 41.54 41.69 40.53 40.19 41.11 42.08 42.75 43.20 44.17 44.54 44.75 44.54 41.29 40.94 38.13 35.54 25.63 27.90 35.83 32.93 36.44 37.10 36.01 34.48 34.57 36.13 35.87 36.02 32.78 31.18 28.65 33.51 29.02 30.66 30.94 31.25 33.19 29.42 32.24 32.95 34.72 33.59 34.23 35.10 33.55 32.47 29.59 28.86
39.85 40.13 40.13 39.95 40.30 41.15 41.61 41.09 40.55 41.03 41.86 42.42 43.25 44.30 44.56 44.97 45.13 44.68 43.36 41.62 41.29 35.55 25.70 26.80 32.52 35.43 36.31 35.28 34.60 34.73 34.46 33.26 33.64 33.23 32.33 28.63 30.65 33.29 33.79 33.49 25.86 31.57 28.55 25.41 27.26 30.79 31.68 29.58 31.66 32.33 29.22 27.98 28.58 27.54
39.83 39.57 39.22 39.45 40.24 40.99 40.96 40.51 40.54 41.99 41.36 43.03 44.98 45.82 45.26 45.30 45.70 39.62 32.43 41.31 42.12 41.01 33.64 22.89 31.82 32.61 34.90 33.82 32.31 32.48 32.82 33.77 36.63 35.25 33.82 33.50 35.13 33.91 27.44 21.27 29.13 31.83 32.90 33.37 32.33 33.32 31.48 31.06 30.58 30.06 27.20 26.29 25.02 24.10
39.47 39.14 38.80 39.21 40.36 40.75 40.35 40.51 41.68 41.67 42.73 44.29 45.61 45.49 45.68 45.84 42.61 37.45 33.05 38.23 42.91 41.18 31.84 25.05 25.35 32.93 35.40 33.77 31.49 31.04 33.76 35.77 35.25 34.24 32.51 29.99 30.31 35.43 30.70 26.39 26.95 30.25 30.33 30.26 31.86 32.38 31.38 28.64 26.19 27.99 26.72 25.35 25.31 23.41
38.63 38.59 39.08 40.22 40.34 40.00 40.24 41.27 41.28 42.25 43.35 44.93 45.71 45.80 45.94 44.88 42.63 39.47 42.63 43.59 42.51 37.40 34.65 26.93 25.44 29.82 35.92 30.74 29.20 33.10 30.00 32.36 35.11 34.54 35.01 33.43 34.02 32.60 23.80 25.31 26.11 26.80 28.31 27.55 28.75 29.97 28.30 28.40 26.67 25.54 26.07 24.67 22.30 21.09
38.37 39.13 39.87 39.86 39.71 40.02 40.98 41.57 41.74 42.92 44.29 45.04 45.32 46.05 42.60 39.91 36.44 38.63 44.15 43.53 42.66 36.00 28.37 26.52 23.02 20.91 36.43 33.97 35.47 34.29 32.39 25.41 31.44 29.78 29.06 30.14 26.48 24.80 19.94 23.17 24.11 24.89 24.43 23.51 26.93 28.35 26.06 24.10 22.71 22.25 22.02 22.37 20.66 19.67
38.49 39.52 39.90 40.20 40.46 40.90 41.37 41.37 42.12 43.40 44.56 44.86 43.07 36.99 30.38 36.53 44.65 42.51 38.75 34.53 34.38 35.80 35.20 28.73 28.31 24.11 32.86 32.42 31.92 30.20 27.99 22.39 24.37 27.45 32.06 28.19 17.99 23.47 23.85 24.10 24.17 24.10 23.46 23.79 23.65 23.96 22.87 23.06 21.11 20.16 19.36 19.78 18.88 16.75
39.13 39.63 39.69 39.80 40.30 41.51 41.94 42.02 42.78 43.84 44.45 40.09 33.14 33.34 39.47 43.67 38.70 35.01 29.94 29.29 30.25 28.41 31.38 31.86 28.05 27.34 34.46 30.44 28.44 30.48 25.51 23.40 20.08 25.42 26.96 20.89 18.11 21.08 23.23 22.88 23.09 23.04 23.20 23.11 22.96 22.55 22.97 23.10 21.60 19.95 19.24 19.41 18.54 16.90
39.69 39.55 39.99 40.02 40.90 41.47 42.17 42.91 43.81 42.49 39.39 37.09 39.03 41.33 39.94 35.19 32.24 29.12 24.38 28.19 27.31 24.02 28.01 29.17 30.08 32.32 34.51 35.40 29.43 30.49 28.66 29.39 21.52 31.23 23.21 13.84 18.39 21.62 21.66 21.22 21.34 21.33 20.87 20.75 21.61 20.76 20.85 21.17 20.17 18.53 16.77 15.44 15.08 14.52
39.43 39.21 39.94 40.58 41.11 41.93 42.83 43.68 44.20 42.55 41.90 41.85 37.72 33.11 32.39 30.91 24.82 16.64 17.94 24.69 24.72 27.91 25.70 32.34 31.56 33.59 32.73 32.24 30.14 30.22 25.89 20.77 29.17 18.50 17.27 13.27 20.64 21.05 19.98 19.43 18.14 19.71 19.83 19.75 19.28 19.19 17.95 16.40 16.60 15.56 12.58 11.85 11.04 10.19
38.53 39.80 40.94 44.23 45.04 45.02 44.38 44.60 43.44 43.18 38.56 32.02 29.09 23.74 23.11 19.86 16.49 17.96 19.82 20.24 25.76 31.25 32.14 32.36 31.41 30.84 31.62 29.19 29.78 25.17 21.60 24.65 15.94 9.81 11.29 13.04 17.51 19.67 19.54 19.18 15.90 10.55 10.99 10.87 8.71 8.97 8.48 9.36 7.57 7.16 4.68 4.15 6.15 6.73
41.92 42.97 42.61 44.09 44.96 45.07 44.16 43.66 40.53 37.83 32.30 28.63 25.92 18.02 15.19 17.30 19.17 26.10 29.86 30.61 31.41 33.11 26.65 30.62 29.19 27.05 20.41 19.26 22.90 18.73 20.89 16.25 13.84 8.56 5.75 12.51 16.29 17.43 15.44 16.05 12.63 11.05 6.24 6.29 4.57 6.79 4.86 6.36 9.91 10.14 9.79 8.96 9.72 6.40
42.29 41.29 39.75 41.19 41.23 41.48 40.78 38.78 36.72 34.36 28.20 25.17 20.81 17.58 22.50 24.22 23.71 25.84 28.09 28.90 31.80 32.22 26.18 29.06 25.47 19.65 15.68 15.84 16.23 12.53 16.96 13.26 8.98 8.18 11.76 12.86 10.60 7.40 7.22 9.12 8.00 8.01 8.34 7.59 6.70 8.46 8.42 6.03 7.05 7.38 10.05 10.03 6.05 6.42
40.08 36.70 41.21 40.94 40.04 40.09 39.04 34.30 32.03 28.40 25.35 21.87 15.40 18.25 13.52 15.04 17.55 21.44 25.70 26.73 30.01 29.23 17.27 21.27 14.84 15.20 19.94 11.22 10.34 11.81 8.45 7.71 11.54 11.11 9.19 7.95 11.49 9.84 5.39 6.27 6.25 8.72 9.11 7.27 7.44 9.13 8.01 10.26 10.69 12.47 10.84 12.25 13.51 11.53
37.18 39.55 40.14 39.88 38.81 37.07 33.88 32.14 27.43 25.26 19.47 21.53 19.27 16.67 14.56 12.19 13.51 22.76 22.80 26.47 27.53 25.77 22.13 17.38 21.27 11.51 6.54 10.43 5.47 4.15 6.29 7.84 7.73 8.30 5.96 4.15 3.95 4.32 9.36 7.88 7.71 10.20 9.86 8.83 10.83 10.27 11.33 11.37 13.42 11.02 13.44 14.67 14.27 13.96
38.46 39.17 40.14 40.93 38.20 33.70 29.56 28.56 28.58 21.19 21.25 22.07 23.96 21.38 19.89 19.03 22.16 21.48 22.46 23.98 23.28 24.32 22.08 17.21 9.03 6.99 5.25 3.72 2.80 4.31 8.62 8.05 12.42 9.14 9.28 6.39 7.17 10.49 10.18 10.49 11.39 11.06 13.67 13.54 15.48 13.82 14.98 16.66 16.67 16.69 15.86 15.88 14.37 12.85
40.07 40.02 40.58 39.96 37.60 30.25 27.53 26.69 29.03 24.60 20.45 23.00 24.68 22.68 22.60 21.12 21.55 16.85 20.43 22.92 22.19 19.11 14.08 8.54 5.71 5.67 11.78 11.22 9.00 10.76 7.80 14.07 14.81 13.33 10.53 11.02 12.35 10.02 8.64 13.27 14.27 15.57 15.82 16.37 13.80 13.34 13.94 14.06 13.63 12.84 11.18 11.28 10.83 9.56
38.29 37.98 38.30 34.83 31.45 31.12 27.67 25.86 24.19 24.64 24.89 22.17 24.52 23.14 20.56 21.72 18.31 16.86 17.18 20.53 15.75 14.39 9.46 9.17 11.71 17.91 14.96 13.82 16.80 16.67 15.70 16.88 11.42 12.95 11.30 14.09 10.02 12.67 12.30 10.82 13.77 13.07 9.14 7.21 6.85 6.65 6.58 5.81 6.52 6.88 -2.02 -7.27 -6.73 -2.92
34.39 38.22 31.33 32.21 28.19 28.77 25.75 26.20 24.87 25.32 24.52 24.58 23.99 23.33 17.20 11.34 10.87 15.29 19.20 14.03 13.16 11.65 11.66 14.32 17.55 17.33 17.08 15.42 14.55 16.90 15.57 16.72 15.10 13.79 13.46 13.95 12.02 11.68 9.03 7.21 11.24 7.37 9.81 7.45 10.06 2.61 3.35 5.52 4.05 1.26 -4.80 -8.54 -4.56 -1.65
37.10 34.58 30.02 29.01 24.44 23.12 20.18 28.38 20.40 24.22 17.48 21.31 21.49 17.02 14.31 13.30 16.73 20.44 11.60 15.07 13.39 14.68 16.04 17.81 18.83 19.58 18.46 19.47 20.06 20.11 20.32 18.30 15.20 13.35 11.83 9.00 7.37 4.20 5.51 4.87 3.47 1.37 2.13 4.37 6.68 4.20 1.47 -1.29 -0.95 -6.00 -6.91 -5.46 -5.09 -9.08
33.70 27.26 22.04 20.61 23.68 18.44 18.36 14.95 24.32 22.59 22.13 17.03 15.21 11.69 12.40 12.13 15.93 9.98 7.13 7.72 13.89 17.52 16.74 16.82 17.01 15.59 15.97 15.82 12.91 13.30 15.05 14.82 12.06 10.68 10.19 9.96 7.47 5.44 6.67 6.40 5.87 4.28 5.84 6.86 5.37 -0.60 -2.91 -9.32 -9.63 -5.46 -9.26 -9.63 -12.71 -8.18
24.09 19.22 19.23 13.94 19.68 14.97 10.42 6.78 11.23 14.10 7.24 9.64 8.60 6.97 10.21 15.82 5.74 1.23 4.61 8.71 10.69 8.81 9.40 14.66 15.50 14.74 10.82 7.38 9.27 10.79 14.08 14.05 11.47 8.64 8.32 9.18 5.62 5.96 6.34 6.79 5.57 5.47 5.23 -3.47 -5.28 -6.73 -8.72 -14.16 -15.43 -13.25 -10.17 -15.25 -5.82 -8.72
13.69 12.70 14.85 12.14 11.89 12.44 11.02 6.91 5.18 6.29 6.22 4.59 5.96 12.23 8.24 3.41 -0.49 -1.51 7.38 7.06 2.30 6.08 2.26 8.95 8.74 11.42 11.53 12.09 10.30 9.64 9.27 11.46 11.51 7.93 8.05 9.38 6.92 1.13 -2.05 -1.88 -1.03 1.75 2.30 -7.09 -8.36 -8.36 -6.00 -6.56 -9.99 -8.37 -11.62 -10.90 -13.08 -15.65
8.27 9.39 19.03 19.78 19.69 18.79 10.32 11.43 15.55 9.32 3.77 4.35 5.32 0.73 0.16 -4.41 -5.46 5.95 10.59 9.33 11.12 7.93 13.58 14.67 15.74 13.66 11.22 9.36 9.56 8.42 8.23 8.52 8.47 8.24 7.37 6.39 5.28 4.19 -0.38 -3.54 -1.67 2.16 1.27 -6.05 -11.44 -11.80 -10.53 -8.18 -6.73 -7.10 -8.00 -13.43 -17.78 -15.79
12.86 12.99 10.04 5.31 5.92 10.49 0.42 0.78 -0.44 0.14 3.05 12.82 7.10 -3.03 -3.09 -1.45 3.26 8.46 9.98 9.99 12.62 14.49 12.99 12.35 13.65 12.48 9.92 7.22 5.69 4.88 2.88 3.59 4.18 4.02 4.02 3.04 0.34 -5.12 -7.45 -9.08 -6.55 1.07 -11.08 -14.88 -15.07 -17.24 -14.70 -13.98 -13.25 -13.25 -13.25 -11.08 -9.63 -13.25
5.84 10.19 9.01 -1.11 2.08 3.87 4.97 0.68 3.57 10.27 12.35 7.75 -2.69 -2.92 2.67 9.44 6.34 7.67 13.59 9.29 11.05 12.63 8.69 5.91 0.34 1.91 1.89 0.50 -2.97 -2.10 -3.67 -1.29 -1.98 -5.64 -9.08 -11.44 -13.07 -5.17 -10.53 -13.43 -13.61 -15.43 -18.51 -12.71 -7.63 -8.54 -9.99 -9.45 -12.71 -15.79 -15.97 -15.07 -12.35 -15.61
6.45 10.56 2.16 -3.74 -3.37 -0.38 -0.26 4.01 2.05 2.56 9.11 6.40 9.21 10.28 8.69 8.08 11.97 12.50 11.56 8.79 6.34 2.50 -3.28 2.20 -1.92 0.88 -2.44 -1.06 -7.45 -5.64 -12.18 -15.61 -7.46 -1.46 -6.00 -10.90 -8.09 -11.10 -14.88 -12.71 -13.98 -17.78 -21.05 -18.33 -16.52 -13.66 -5.46 -13.80 -11.26 -17.78 -18.87 -18.33 -21.41 -21.41
8.92 2.84 -0.05 1.22 0.31 2.24 3.43 -0.41 2.10 -0.42 -4.21 -3.23 -1.23 -0.89 1.38 7.58 11.65 11.00 6.78 2.25 3.34 4.06 3.86 -1.85 -6.18 -11.98 -4.26 -10.91 -13.49 -11.71 -8.35 -10.36 -16.52 -14.34 -14.35 -15.25 -17.06 -16.88 -17.06 -18.33 -21.23 -23.77 -22.68 -20.32 -20.32 -20.50 -20.32 -20.69 -22.50 -21.23 -20.69 -18.69 -16.33 -21.77
-3.62 -7.09 -1.26 -2.56 1.23 3.95 1.13 -6.37 -4.01 -1.34 -2.78 -1.62 -1.73 -4.91 -1.62 0.52 -0.77 5.70 5.47 -1.19 0.18 0.10 -4.37 -0.78 -0.16 -3.94 -12.35 -15.44 -17.61 -15.80 -7.32 -6.55 -14.34 -14.70 -13.98 -16.70 -18.15 -20.50 -19.60 -18.69 -23.59 -22.68 -21.41 -21.77 -22.86 -22.32 -20.69 -18.51 -20.14 -21.05 -21.41 -15.79 -15.25 -16.88
-6.62 -7.65 -5.30 0.47 0.99 -0.74 -0.62 -1.35 -2.02 0.21 -2.93 -3.83 -2.74 -6.18 -9.63 -3.98 -1.07 1.21 4.67 3.28 2.28 2.57 0.50 -6.36 -11.80 -10.00 -11.44 -11.26 -9.26 -13.43 -11.26 -16.33 -15.97 -4.55 -9.63 -10.35 -14.88 -15.25 -22.50 -25.04 -24.86 -23.22 -19.97 -21.41 -23.40 -23.95 -20.50 -20.32 -19.96 -21.25 -20.19 -21.06 -18.58 -18.55

GFSWCAN_sfc_wetblb_093.txt.gz
Wetbulb
41.42 41.97 43.32 41.69 41.17 41.39 40.86 41.21 41.15 41.52 42.41 42.60 41.71 41.73 42.45 43.06 43.82 42.96 40.71 41.22 37.01 30.67 30.51 31.70 32.70 29.77 29.69 30.11 25.79 30.48 29.35 29.84 30.59 27.42 27.29 27.69 26.32 28.01 27.81 29.67 29.32 27.65 26.27 25.38 26.50 23.75 20.75 37.20 37.83 32.50 36.36 38.31 37.95 36.20
41.66 41.53 41.29 40.78 41.23 41.17 40.41 40.72 41.11 41.82 42.53 42.05 41.68 41.55 42.20 42.91 43.77 43.74 39.34 41.53 41.63 35.37 32.68 35.11 35.50 36.58 35.21 34.85 32.64 31.44 30.12 30.10 32.57 28.19 28.87 28.88 27.21 28.58 26.79 24.76 33.66 27.97 31.70 28.68 30.13 29.97 35.07 36.12 34.53 35.27 36.91 34.44 35.16 34.81
41.31 41.93 41.45 40.77 40.94 40.93 40.64 40.58 41.14 41.79 42.21 41.74 41.59 41.63 42.29 43.41 43.99 43.56 40.88 40.39 38.68 33.62 34.22 34.02 33.23 37.32 37.70 37.13 38.94 30.61 31.37 34.29 33.92 35.06 31.27 30.10 27.26 31.14 25.21 26.70 29.79 32.67 34.62 31.32 31.76 32.72 31.66 33.56 34.70 34.37 32.99 30.23 31.57 33.40
40.95 41.03 40.36 40.81 40.49 40.49 40.36 40.57 41.37 41.89 41.45 40.89 41.33 42.05 43.17 43.31 44.16 44.03 40.69 41.18 38.87 35.00 28.71 29.50 36.62 34.51 38.15 38.18 37.06 37.20 35.91 38.25 36.85 36.55 32.31 29.72 28.07 33.95 29.76 30.83 30.42 31.04 31.95 28.58 31.59 31.59 33.38 30.67 32.19 32.15 31.04 31.32 29.54 28.50
40.87 40.67 40.50 40.87 40.59 40.35 39.90 40.75 41.74 41.64 40.88 40.88 41.51 42.33 43.25 43.90 44.54 44.20 43.51 41.70 41.51 36.22 28.74 29.29 34.23 36.14 37.28 36.60 36.30 37.05 37.04 35.32 34.78 31.88 32.16 30.41 32.82 33.08 34.97 33.06 27.70 30.90 28.75 26.99 26.80 30.44 29.94 28.28 30.22 30.35 27.85 26.50 26.74 26.93
40.67 40.34 40.47 40.17 40.40 40.20 40.63 40.86 41.50 41.07 40.96 40.94 41.85 42.41 43.59 44.16 44.79 40.90 33.08 41.03 42.07 41.30 33.23 28.10 34.07 33.88 35.29 35.11 34.62 34.39 35.32 34.64 35.21 34.05 33.67 35.10 36.56 34.91 29.29 27.34 29.41 31.56 32.58 32.28 31.16 33.26 30.27 29.70 29.30 29.16 26.53 25.43 25.42 24.46
40.22 40.24 40.15 39.88 39.77 39.61 40.20 40.80 40.99 40.64 40.63 41.15 42.17 43.79 45.46 45.85 43.56 36.83 34.97 38.98 43.19 40.36 32.49 27.87 27.86 34.07 35.08 34.17 33.79 33.58 35.13 35.56 36.05 34.84 33.76 33.82 33.68 35.56 31.55 27.14 27.83 30.11 29.96 30.06 30.87 32.34 28.67 27.54 25.60 27.48 26.16 24.71 24.51 23.24
39.94 39.89 39.71 39.59 39.28 39.41 40.66 40.82 40.55 40.34 41.01 42.22 43.49 45.35 45.39 45.60 43.01 38.90 43.02 43.49 42.56 36.95 34.93 26.65 26.56 31.03 36.82 31.54 30.74 34.21 32.65 34.65 35.27 34.16 34.39 33.25 34.93 33.52 27.71 26.15 26.71 27.03 29.09 27.19 28.87 29.63 28.46 27.41 25.87 25.08 26.01 24.79 22.53 21.47
39.43 39.60 39.52 39.56 39.48 40.04 40.47 40.43 40.07 40.71 41.36 42.93 44.53 45.35 42.29 40.19 36.73 39.42 44.19 43.61 42.99 36.56 28.79 28.89 25.09 24.92 37.58 34.48 34.57 34.66 34.83 28.83 34.11 31.37 31.28 32.83 29.42 26.85 23.62 25.07 24.69 24.57 23.90 23.57 27.33 27.32 26.28 24.26 22.73 22.35 22.47 22.42 20.73 18.89
39.14 39.03 39.17 39.63 39.80 40.07 40.22 39.78 40.40 41.18 42.53 43.87 42.57 35.63 30.86 36.86 44.49 42.60 38.85 34.30 34.67 35.66 35.27 29.71 29.97 28.12 35.10 33.02 30.65 30.89 30.97 28.78 25.33 29.25 33.53 29.89 24.88 24.30 24.44 24.77 24.57 24.23 23.81 24.59 24.97 23.46 23.49 22.53 21.50 20.48 19.65 19.73 18.55 16.99
38.89 38.56 38.62 38.76 39.27 39.82 39.86 39.95 40.76 40.97 42.54 38.50 32.70 32.91 39.59 43.67 38.71 35.13 30.27 29.27 29.23 28.09 31.53 31.50 30.06 29.58 36.18 30.92 29.64 30.87 27.77 27.72 24.11 27.60 27.12 25.44 22.20 21.78 24.16 22.81 23.24 23.27 23.56 23.42 23.46 23.06 23.50 23.18 21.72 20.29 19.44 19.11 18.25 17.03
38.51 38.59 39.09 39.58 39.94 39.99 39.94 40.13 40.74 40.43 39.15 36.88 38.64 41.12 39.69 33.89 32.55 27.43 25.56 28.46 26.76 24.71 29.79 29.12 30.51 32.38 34.70 35.67 31.60 30.95 28.21 28.53 22.45 32.06 27.19 20.73 19.77 22.32 22.57 21.42 21.37 21.66 21.88 21.29 21.88 20.83 21.13 20.40 19.96 18.62 17.53 16.57 16.05 15.13
38.63 39.03 39.44 39.75 39.86 40.15 40.51 41.25 41.54 42.44 41.76 41.17 36.91 33.41 32.58 30.88 25.73 20.97 18.59 24.32 25.08 28.58 28.10 30.87 30.87 33.01 32.83 33.28 31.99 30.55 25.36 25.22 30.59 24.99 21.63 17.83 21.00 21.38 20.68 19.86 18.59 19.80 20.34 19.41 18.25 18.29 17.85 16.82 17.20 16.00 13.26 12.93 13.26 11.87
39.14 39.53 39.76 39.95 39.93 40.15 40.55 41.32 42.25 42.37 39.34 32.61 30.38 26.20 23.15 20.95 23.01 20.26 23.72 24.15 26.42 27.30 28.98 33.25 31.07 31.97 32.46 30.69 31.21 25.91 27.21 27.55 22.05 18.57 18.59 18.64 20.01 19.96 20.09 19.15 16.51 13.21 12.90 12.62 12.05 12.30 11.28 11.49 10.44 10.32 9.57 10.09 10.45 10.17
37.37 37.99 38.73 39.17 39.80 40.49 41.04 41.20 42.26 38.83 33.40 28.98 28.99 23.63 21.09 19.60 20.37 25.24 30.82 30.79 32.69 33.56 30.90 31.57 31.34 30.65 26.54 26.58 25.83 24.01 23.54 21.94 21.23 20.06 15.80 18.80 19.88 18.64 17.03 16.47 14.79 12.81 10.87 11.05 11.64 11.77 10.53 11.28 12.00 11.64 11.30 12.17 11.32 9.03
37.75 40.75 41.52 42.75 43.08 43.58 43.60 42.12 36.80 34.00 30.96 26.54 23.55 19.09 23.27 24.91 24.73 28.35 29.88 30.13 32.46 32.60 29.45 30.23 26.09 23.78 21.39 21.76 21.70 21.27 20.87 19.54 18.04 15.33 16.00 18.08 15.34 13.78 13.22 13.59 11.72 11.55 12.36 12.27 12.55 12.79 12.13 10.62 11.66 12.66 12.85 12.56 10.56 11.04
40.30 36.90 42.06 41.20 40.65 40.81 39.85 34.49 32.76 28.54 26.31 22.71 19.26 19.41 19.27 15.97 17.85 24.99 27.82 27.88 30.48 31.70 26.94 24.84 18.95 20.50 21.97 16.67 16.82 16.41 17.23 15.04 14.00 15.01 16.08 16.04 16.14 13.66 11.67 11.81 11.14 12.64 12.91 13.06 13.08 13.70 13.03 13.55 14.00 14.47 13.12 13.73 14.37 12.86
37.41 39.34 40.19 38.99 37.66 36.64 33.25 32.34 29.01 25.26 19.84 22.39 19.63 20.00 18.37 17.31 20.46 19.55 24.91 27.03 29.73 27.28 24.80 21.92 23.50 18.81 15.95 15.33 15.14 13.10 12.62 12.28 14.15 15.49 14.81 13.01 12.63 11.71 14.67 14.24 12.85 15.06 14.35 13.37 14.51 14.27 14.71 14.39 15.10 15.46 14.97 15.55 14.85 14.62
39.13 39.38 40.43 39.84 37.74 33.05 29.82 28.86 29.04 20.00 20.26 22.73 22.88 22.78 20.97 20.26 22.34 22.17 23.64 26.03 25.78 26.27 23.40 19.04 15.21 15.06 14.15 12.41 11.54 10.64 14.30 15.58 15.31 14.78 14.41 10.93 13.41 14.65 14.31 15.08 14.66 14.63 14.77 15.34 16.59 16.88 16.89 17.19 17.98 18.59 17.69 16.95 15.84 16.00
40.23 40.16 40.61 40.10 37.87 31.32 26.87 26.20 29.81 23.88 20.06 23.87 24.84 22.36 21.84 20.94 21.64 21.47 22.03 23.22 22.61 21.23 18.12 14.90 13.20 12.82 13.66 14.89 14.09 17.09 14.62 17.29 17.39 15.41 15.00 15.61 16.05 16.14 16.67 17.41 17.37 17.72 18.08 17.94 17.85 17.24 17.13 16.54 15.76 15.46 15.12 14.48 15.89 15.42
37.61 37.83 37.64 34.56 32.08 30.86 27.44 25.54 23.81 24.88 24.48 22.52 24.28 23.04 20.85 21.77 19.23 19.64 19.25 21.19 17.94 15.17 13.74 13.19 15.21 17.72 16.26 16.39 18.67 18.49 18.60 18.95 16.90 17.52 16.22 15.53 16.09 17.75 16.61 17.53 18.85 18.35 17.03 16.42 15.73 14.66 14.08 14.66 13.76 13.13 12.60 10.68 9.25 10.79
34.84 37.53 31.35 33.20 29.44 28.20 26.79 26.52 24.65 25.16 24.15 24.29 23.66 22.53 17.90 15.99 15.59 17.89 19.69 16.01 14.61 15.07 16.11 17.62 18.42 17.94 17.93 17.36 17.96 18.71 18.04 17.62 16.56 16.36 15.20 16.34 16.50 16.81 16.23 15.90 17.21 15.86 15.37 14.81 15.15 13.90 13.32 12.45 11.86 10.59 10.52 8.85 5.69 9.91
36.45 34.30 29.49 29.02 24.55 22.55 21.41 28.83 21.68 23.89 18.14 20.76 21.34 17.53 16.38 16.14 17.80 20.50 13.66 15.80 15.33 17.43 18.43 18.99 19.26 20.02 19.21 20.17 20.26 19.91 20.02 18.60 16.66 15.74 14.80 13.49 12.58 12.35 12.89 12.38 13.28 12.67 12.96 12.55 12.82 12.59 12.26 2.97 5.86 8.53 7.59 8.30 9.53 9.33
32.34 24.35 20.47 19.66 23.03 15.15 19.48 17.95 24.91 22.61 22.26 18.62 16.56 13.52 14.55 15.32 16.79 12.81 9.99 11.01 15.31 18.57 18.12 18.19 18.67 17.28 17.60 17.01 15.57 15.84 16.38 16.33 13.96 12.92 13.19 13.68 12.13 10.42 11.21 11.11 11.01 10.98 11.60 11.78 11.53 9.80 8.50 7.53 -1.40 7.39 4.80 6.10 4.74 5.33
20.36 15.08 17.50 12.42 18.65 13.08 10.28 8.15 11.44 14.47 7.91 9.29 10.09 9.16 11.47 16.07 8.73 5.60 8.18 11.72 14.34 15.81 15.01 16.94 17.04 16.69 13.72 11.91 13.08 13.78 15.17 15.93 13.98 11.96 11.64 12.85 10.47 10.53 9.73 9.90 9.21 9.06 9.79 10.53 9.60 8.25 7.00 2.66 3.03 4.03 4.82 4.20 6.07 4.73
12.05 13.11 14.29 10.38 10.87 13.23 12.02 7.10 5.15 6.92 7.66 5.31 8.02 12.91 10.60 7.70 4.07 4.16 10.00 11.19 11.52 11.92 10.00 13.85 13.46 14.04 13.49 14.08 12.68 13.04 12.75 14.34 14.02 11.29 10.18 11.72 11.18 9.89 8.26 8.14 8.07 8.93 7.05 6.25 7.20 7.38 6.02 3.22 2.91 3.29 4.16 2.79 -5.79 -1.14
8.86 9.35 17.81 18.22 18.16 17.05 9.83 10.99 14.46 9.17 4.21 4.90 8.98 4.64 5.17 0.35 0.17 7.84 12.31 12.01 13.98 13.00 14.79 16.31 17.51 16.09 13.35 11.38 10.73 10.18 10.38 10.82 11.16 10.27 8.74 8.22 7.41 7.30 8.16 7.96 5.85 8.26 6.59 4.66 4.39 5.01 5.07 3.33 2.44 2.48 2.49 2.08 1.42 0.38
13.45 12.63 9.50 4.41 5.59 9.34 0.14 0.53 -0.49 0.10 5.07 12.58 8.16 -0.66 0.61 1.22 4.86 10.75 12.41 12.66 13.92 14.94 12.98 11.79 12.94 13.56 11.97 9.54 8.05 6.81 5.60 5.85 5.57 6.39 7.16 6.66 4.44 2.57 1.43 2.45 3.00 2.46 0.54 -0.76 1.79 -0.79 1.82 2.25 2.42 1.54 0.74 1.65 1.51 -1.33
4.87 9.57 8.12 -1.69 1.41 3.03 4.00 0.24 3.79 9.85 11.25 8.25 1.07 1.18 4.66 8.60 8.39 9.18 13.43 12.57 13.84 13.86 10.42 7.89 3.95 4.76 3.62 2.43 1.05 3.37 5.61 6.69 6.05 0.96 0.85 3.33 1.89 4.47 -0.17 0.19 0.90 -0.50 -0.93 2.85 -1.23 0.88 1.45 1.63 1.51 1.29 0.42 -0.47 -0.59 -4.01
4.45 9.43 1.84 -5.07 -3.98 -0.09 1.75 4.70 4.59 5.45 8.71 8.17 10.28 9.71 7.90 8.19 11.05 12.85 13.14 11.43 11.71 8.67 5.28 5.75 2.71 5.83 4.03 4.68 2.41 2.40 -2.31 -3.16 1.69 5.41 4.26 3.69 3.58 0.72 -0.63 1.35 1.15 -1.71 -3.46 0.13 0.70 1.64 -0.39 -0.68 0.44 -1.91 -2.21 -1.73 -1.37 -2.22
6.70 3.21 0.02 0.76 0.46 4.44 4.26 2.73 1.89 0.27 -1.34 0.00 -2.51 0.27 3.46 8.27 10.87 10.06 7.32 6.33 6.82 6.30 4.99 0.63 -1.45 -0.89 2.26 0.89 1.97 2.02 1.46 -0.53 -8.62 -5.79 -3.13 -2.38 -2.80 -1.73 -2.03 -3.90 -5.70 -6.08 -4.48 -2.80 -2.80 -2.44 -2.27 -2.32 -2.99 -3.71 -2.64 -2.89 -3.45 -6.12
-3.48 -7.53 -1.82 -2.45 1.27 3.33 2.47 -3.55 -3.35 2.10 2.09 4.17 1.59 -4.28 0.24 3.11 2.54 7.00 6.43 7.27 7.15 6.53 2.34 4.30 5.57 4.35 -1.75 -3.84 -5.06 -2.92 -4.47 -1.98 -3.89 -4.07 -3.17 -2.63 -2.26 -5.52 -5.52 -5.89 -9.14 -6.97 -4.87 -5.13 -6.00 -5.76 -6.26 -5.00 -4.66 -4.72 -5.48 -5.98 -6.86 -7.90
-8.49 -9.15 -7.34 -1.56 -0.31 -0.82 -1.55 -0.24 -0.61 0.96 0.32 1.67 0.28 -4.97 -6.08 -1.23 0.85 4.39 6.52 4.82 6.83 6.59 4.05 1.32 -1.77 -1.54 -2.32 -1.78 -0.88 -3.53 -5.16 -5.34 -5.70 0.46 -3.34 -7.15 -11.14 -7.76 -7.21 -7.49 -7.67 -6.97 -5.65 -4.63 -5.51 -7.44 -6.13 -6.99 -5.85 -6.79 -7.28 -9.50 -10.18 -10.19

GFSWCAN_sfc_wetblb_099.txt.gz
Wetbulb
44.44 44.27 44.19 44.31 44.16 43.73 42.46 42.75 42.95 42.62 42.13 42.37 42.63 43.04 42.41 42.56 43.62 44.27 42.28 43.94 39.79 36.15 38.93 39.96 40.64 36.70 36.94 37.09 32.60 36.56 36.77 37.42 35.57 32.62 31.55 30.77 30.16 32.70 32.75 34.35 32.47 32.06 30.33 31.19 32.62 29.35 25.37 33.60 38.61 32.32 31.89 35.33 36.09 35.57
44.07 43.89 44.02 43.84 44.01 43.18 42.64 43.18 42.98 42.90 42.04 42.24 42.55 42.59 42.32 42.46 43.27 43.69 40.21 44.08 43.35 37.85 38.43 43.40 43.49 44.25 42.59 41.48 38.43 38.23 35.20 35.72 36.17 32.81 33.71 31.38 30.95 33.05 32.99 29.37 37.75 30.82 32.94 29.93 30.01 28.13 32.64 33.89 32.54 33.58 34.32 32.80 34.64 35.09
43.79 43.90 43.77 43.72 43.63 43.36 43.37 43.08 43.04 42.56 41.71 42.36 42.60 43.31 42.50 42.24 42.82 43.27 42.29 42.50 39.22 36.14 37.44 39.53 39.98 44.53 46.28 45.43 46.01 36.37 40.10 39.90 37.29 40.22 34.08 32.28 29.53 35.90 30.31 31.18 33.10 35.88 38.41 33.73 31.77 31.96 31.94 33.38 34.46 34.21 34.66 33.27 34.96 35.00
43.16 43.16 43.31 43.29 43.09 41.61 42.50 42.93 42.47 42.11 41.75 42.41 42.22 42.52 42.52 42.20 42.52 43.19 42.77 43.31 40.67 38.56 33.62 37.33 44.66 41.89 45.25 45.41 44.57 44.05 41.98 42.50 41.58 41.34 34.57 32.75 30.80 38.65 34.03 35.27 33.69 34.85 36.25 33.32 30.92 32.59 32.83 32.62 32.99 33.58 33.81 34.93 34.72 35.11
42.58 42.74 42.91 42.63 42.16 42.22 42.39 42.59 42.13 42.04 41.58 41.95 42.78 42.74 42.29 42.13 42.69 44.52 45.43 44.38 44.90 39.24 32.73 35.33 42.52 44.35 44.52 43.99 42.93 43.18 41.77 39.99 37.81 35.94 35.93 33.69 38.00 36.94 38.47 37.96 33.00 34.72 31.37 31.33 29.04 32.59 32.49 30.72 32.38 32.69 31.07 31.03 33.03 33.49
42.20 42.22 42.39 42.58 42.29 42.31 42.38 42.23 42.10 41.99 42.14 42.34 42.22 41.85 41.41 42.50 43.21 43.23 35.25 44.79 46.06 43.85 37.68 32.23 42.03 40.71 42.58 42.78 41.87 41.11 41.35 39.72 38.15 35.40 35.24 39.04 40.37 37.15 32.48 32.06 32.45 34.61 35.26 35.60 32.80 34.33 32.41 32.23 33.03 32.76 31.88 32.32 32.77 32.60
41.97 41.95 42.29 42.24 41.96 41.94 42.27 41.88 41.76 41.28 41.78 42.01 42.31 41.78 42.02 42.94 44.05 38.63 37.25 41.44 45.73 44.63 36.55 33.11 35.25 40.32 41.03 41.06 40.75 39.35 39.77 37.85 37.05 35.71 36.35 36.97 37.39 38.10 34.20 31.02 32.30 33.40 34.91 35.07 36.36 35.01 32.47 32.92 31.42 33.29 32.97 32.17 31.39 31.27
41.65 41.89 42.23 41.92 41.70 41.50 41.58 41.40 41.26 41.19 41.88 42.16 41.78 41.55 41.91 41.69 41.75 39.02 44.06 44.23 43.84 37.67 37.33 32.60 33.91 36.13 41.26 35.46 35.07 39.25 35.89 36.31 36.02 36.84 36.69 36.47 38.52 38.73 31.82 33.51 34.39 34.11 34.07 33.64 33.65 34.56 33.61 33.51 33.43 32.41 32.89 32.31 30.30 28.90
41.12 41.51 41.55 41.62 41.58 41.67 41.43 41.08 41.19 41.56 41.75 41.62 41.44 41.16 40.55 37.97 35.92 39.95 44.82 44.18 44.56 38.76 34.89 33.10 31.12 31.07 40.67 36.76 38.41 38.23 37.37 31.83 39.40 34.02 34.08 37.59 35.30 31.57 31.02 33.13 32.91 32.64 32.22 32.09 32.07 32.77 32.01 30.46 29.47 29.70 29.80 29.01 27.82 25.97
40.90 41.16 41.32 41.29 41.38 41.27 41.40 41.29 41.60 41.54 41.41 41.18 40.52 36.73 31.86 38.28 44.62 42.85 39.05 35.53 35.02 36.52 38.15 31.87 38.03 33.45 38.22 37.25 34.85 33.59 36.13 33.18 30.60 34.22 38.66 33.24 32.84 32.04 31.71 30.92 31.12 30.70 31.40 32.21 29.58 28.04 28.27 27.39 27.05 26.43 25.62 26.07 25.14 23.40
40.36 40.85 41.18 41.33 41.30 41.09 40.93 41.27 41.37 41.28 41.24 39.15 33.68 34.02 41.05 44.00 40.29 36.97 32.91 32.95 34.30 30.96 34.71 34.31 36.74 34.46 40.86 33.10 33.91 37.22 33.95 35.54 28.47 32.65 31.87 30.65 29.88 28.21 30.19 29.96 30.77 30.71 31.15 30.59 30.63 29.75 29.21 28.88 26.98 25.61 24.40 24.15 23.75 22.72
40.35 40.50 40.93 41.05 40.81 40.67 40.36 40.71 41.01 40.97 39.57 38.98 38.93 41.19 40.02 36.88 34.40 31.96 30.53 32.12 30.14 29.80 35.65 32.62 34.57 38.64 38.57 41.26 37.05 36.65 30.62 33.75 26.71 36.52 30.87 28.06 26.44 28.21 28.35 27.72 28.30 29.16 28.84 28.22 29.01 27.62 26.94 26.08 26.30 25.30 24.19 22.93 21.43 20.19
39.78 40.30 40.43 40.49 40.34 40.07 40.20 40.51 41.04 41.76 41.49 39.01 35.35 32.92 33.74 33.90 29.38 28.26 24.75 27.78 29.65 35.19 36.02 35.92 33.19 36.35 37.92 39.22 34.51 33.76 28.49 29.46 37.67 30.25 29.98 27.84 27.51 27.95 27.90 27.57 26.67 27.53 26.78 26.15 25.41 25.57 24.84 23.54 23.88 22.93 20.31 19.89 19.99 18.29
39.70 40.16 39.98 39.92 39.86 40.14 40.53 40.43 41.11 40.85 35.97 32.41 31.68 28.96 30.91 28.35 31.50 32.35 33.01 35.51 38.73 37.59 36.06 35.63 34.34 34.35 35.54 32.17 33.50 29.69 33.84 32.80 27.88 26.15 25.67 28.21 26.69 26.27 25.94 25.05 23.11 20.73 21.17 21.86 21.47 20.52 19.33 18.74 17.95 18.58 18.89 18.73 17.81 17.22
39.56 39.88 39.81 39.57 40.28 40.50 40.84 40.79 40.93 38.71 33.50 31.68 33.65 29.76 29.43 34.91 35.42 35.66 37.80 37.43 37.19 39.66 38.44 35.67 35.65 35.59 33.91 32.73 33.64 32.36 28.36 26.29 28.12 28.94 28.19 27.58 26.41 25.42 24.09 23.62 21.86 20.02 19.60 20.20 20.49 18.98 18.20 18.23 18.67 18.19 19.21 19.96 18.37 16.63
39.45 39.19 38.94 40.09 40.02 40.45 41.07 39.48 37.26 35.14 34.52 33.28 31.77 30.28 32.45 32.64 30.90 33.13 34.95 32.95 38.21 38.56 39.39 38.01 33.05 30.96 29.70 30.93 28.31 27.86 27.43 27.19 27.88 27.85 27.14 26.35 24.77 23.91 22.88 21.96 21.32 21.68 22.15 21.72 20.89 20.24 20.02 19.39 19.58 20.08 20.03 19.11 17.75 17.27
38.90 36.78 39.74 40.26 40.45 40.61 39.76 37.64 35.25 33.48 33.27 27.93 28.46 32.05 33.48 34.95 33.86 32.95 36.94 34.96 37.54 36.81 34.19 34.36 28.73 27.78 32.96 28.37 27.13 32.44 28.63 27.73 27.31 26.38 27.42 26.49 24.34 22.71 21.61 21.08 20.23 21.57 22.19 22.04 21.95 21.65 21.00 21.57 21.31 21.07 20.63 20.30 21.08 19.90
36.67 38.84 39.84 40.73 41.13 38.45 36.17 35.63 33.96 31.60 25.50 29.46 28.75 29.13 30.59 31.66 32.57 32.77 33.99 37.05 36.37 36.37 35.97 32.22 35.76 30.01 29.19 28.09 30.32 28.43 27.34 27.41 27.37 26.58 25.86 25.37 24.27 23.05 23.53 22.90 22.38 23.05 22.86 22.35 22.08 21.95 21.74 21.35 21.96 23.15 21.75 21.86 21.59 21.33
37.89 39.89 39.96 40.87 39.96 37.24 33.63 32.99 34.59 27.21 27.17 28.32 28.55 30.25 30.46 30.03 32.15 33.50 33.84 35.13 37.28 38.17 37.18 35.00 30.95 31.56 32.20 31.19 30.21 28.72 27.67 27.27 24.94 24.70 24.41 24.78 24.90 23.82 23.88 23.59 23.15 23.47 22.93 22.94 23.38 24.63 24.47 22.48 22.79 23.49 24.05 23.55 22.39 23.07
39.68 39.77 40.28 40.54 40.24 35.93 30.26 30.28 37.38 30.20 27.41 28.24 29.43 29.14 29.64 29.63 30.79 32.08 32.72 32.28 34.39 35.36 33.47 31.63 31.64 30.93 30.84 29.68 31.97 30.24 29.16 28.85 27.07 24.65 23.80 24.18 24.86 24.16 24.17 24.47 25.13 24.38 23.89 23.38 23.44 22.19 23.61 23.21 24.11 23.46 22.75 21.38 20.44 20.73
39.06 41.04 39.98 39.66 36.94 35.07 32.58 31.65 30.46 30.33 28.80 28.10 29.12 30.10 27.21 30.62 30.15 30.47 30.42 32.71 32.04 31.92 30.52 31.18 29.70 27.34 29.51 31.12 31.27 30.87 29.30 29.84 28.82 28.68 26.38 23.78 25.40 25.81 24.68 25.07 24.60 25.02 25.33 25.47 24.48 23.81 21.10 22.44 23.49 22.83 21.70 20.99 20.96 20.41
37.16 39.48 36.76 37.07 32.85 31.97 30.68 34.42 31.47 31.87 30.22 28.41 28.53 30.02 27.78 28.09 28.54 29.55 31.33 30.35 30.28 29.43 31.34 30.47 28.58 27.12 26.87 26.76 28.41 29.84 28.55 27.75 27.95 27.84 27.12 26.43 24.89 24.66 24.35 24.86 24.63 24.63 24.39 25.14 24.07 23.19 23.09 23.18 22.08 21.60 20.62 20.54 17.96 19.50
39.51 39.44 37.23 34.88 30.49 29.35 27.02 35.23 29.03 29.56 26.04 26.80 28.93 26.54 26.39 27.27 28.55 30.59 27.97 29.32 27.36 28.57 30.06 29.47 28.85 29.74 27.79 27.80 27.56 27.23 27.84 27.89 27.27 26.81 26.54 26.65 25.78 25.53 25.21 25.14 25.68 24.31 23.35 24.35 23.78 22.99 22.21 15.35 19.01 18.49 19.87 19.23 19.28 18.64
36.25 32.02 30.73 29.86 29.50 25.63 30.30 28.40 29.67 27.31 27.67 26.82 25.77 22.80 24.76 26.40 27.76 26.97 26.27 27.19 25.86 26.79 27.00 26.50 27.71 26.24 26.42 25.83 25.73 25.83 26.93 28.20 26.64 25.93 25.84 24.86 23.26 22.91 24.00 23.08 23.23 23.10 22.19 22.38 22.15 21.69 21.01 19.82 15.91 18.59 18.66 17.32 17.08 16.51
28.12 23.96 27.45 24.39 28.73 26.61 24.94 25.12 25.23 25.36 23.18 25.08 23.82 23.31 24.77 27.01 25.54 25.34 24.91 24.86 24.02 25.94 26.23 27.52 27.74 27.42 26.37 26.87 26.12 24.74 26.26 26.72 24.68 22.77 23.66 24.69 22.96 21.73 21.23 22.01 21.48 20.98 21.51 20.98 20.60 19.91 19.16 19.00 17.82 17.21 16.56 16.05 15.14 14.37
22.03 22.13 24.39 25.88 26.10 25.83 25.82 23.05 23.96 24.21 24.63 23.74 23.88 26.57 27.07 26.23 23.71 23.81 25.30 25.37 25.09 25.57 26.75 27.76 27.31 27.18 26.44 27.03 24.68 23.94 23.86 26.19 25.07 21.99 20.96 23.02 22.64 22.75 21.78 20.63 20.39 20.42 20.52 19.80 18.61 17.31 16.86 15.77 14.58 13.22 13.54 14.37 11.34 11.04
21.99 21.76 23.54 25.77 27.01 27.08 25.77 26.49 27.75 26.67 23.29 22.22 23.92 23.89 23.86 21.37 22.60 21.78 23.97 26.70 25.78 26.71 28.09 29.03 29.03 28.00 26.27 24.87 23.49 23.32 23.06 22.80 22.83 21.68 20.95 19.96 19.55 20.18 20.42 19.31 16.21 17.92 18.39 16.76 16.66 15.31 14.47 13.69 13.39 12.87 12.75 14.00 14.28 13.68
21.84 22.70 20.28 20.88 21.90 24.32 20.87 22.56 21.66 19.81 22.49 24.78 26.08 21.69 21.40 21.94 19.99 21.27 23.29 25.96 28.30 26.83 26.30 27.40 27.89 26.55 24.35 22.76 22.04 20.69 19.57 18.84 17.92 18.49 18.75 18.69 18.53 18.08 16.58 16.39 14.67 11.94 15.32 13.82 14.62 14.29 14.07 13.30 12.45 12.54 12.49 11.91 11.79 13.08
21.11 22.08 20.79 12.88 17.38 18.16 17.58 18.06 19.22 19.44 19.74 23.00 22.20 19.03 16.68 17.07 19.13 21.41 22.54 26.03 25.47 24.57 22.32 21.06 21.12 22.41 21.35 21.60 22.14 22.22 22.03 21.33 17.94 14.11 11.76 17.26 16.88 16.53 17.55 17.01 16.98 16.01 16.16 15.76 9.78 11.10 12.51 11.95 12.15 11.91 11.11 11.30 12.06 12.37
18.14 22.94 17.65 13.56 13.00 14.33 15.94 18.26 17.62 18.68 19.58 20.56 19.84 17.81 16.82 16.86 18.92 23.92 24.52 25.88 24.77 24.02 23.27 22.33 21.64 21.35 19.74 19.52 17.75 17.20 18.46 19.22 18.76 18.89 17.91 16.26 16.44 16.06 16.21 15.71 15.45 14.66 14.81 14.51 13.39 13.18 11.64 12.32 12.81 12.85 11.67 11.40 11.50 10.82
21.61 22.17 17.92 17.90 14.92 16.63 17.20 19.21 20.01 20.00 20.17 19.65 22.58 19.77 16.60 16.93 18.65 20.03 20.51 22.53 22.79 22.58 22.06 21.23 21.47 22.34 20.73 19.01 18.62 16.39 14.45 14.75 12.33 14.16 15.62 15.92 15.39 15.03 13.82 12.92 14.12 14.23 13.57 12.25 11.25 11.08 9.95 9.25 10.33 9.75 9.51 7.80 6.76 6.15
20.27 17.09 16.11 13.43 14.23 17.36 19.61 20.89 19.50 18.59 19.31 18.48 17.04 18.34 18.55 19.40 16.06 17.76 17.78 21.93 21.71 21.62 20.26 21.15 19.57 18.94 19.24 17.72 16.46 15.00 14.37 12.97 12.57 12.69 13.21 13.73 13.54 12.57 12.80 12.57 12.17 12.81 11.34 10.10 10.52 9.86 8.76 7.38 7.15 6.70 6.07 4.80 3.54 1.96
17.93 18.73 18.54 16.86 15.03 15.69 17.62 18.81 17.45 15.86 18.27 17.04 16.95 18.52 18.88 19.00 14.02 15.99 18.39 18.84 22.74 21.15 20.42 18.86 17.29 16.47 15.61 14.99 13.66 12.61 12.13 11.54 9.05 7.96 6.98 6.19 5.21 8.07 12.17 13.17 12.07 10.96 8.96 9.06 9.32 8.93 7.16 5.60 4.05 2.72 2.61 1.43 0.21 -0.45

GFSWCAN_sfc_wetblb_102.txt.gz
Wetbulb
44.57 44.80 44.65 44.53 44.34 44.04 43.43 43.55 43.57 43.25 42.44 42.57 43.21 43.35 42.52 41.98 43.53 43.89 44.26 45.78 41.26 36.33 38.05 40.31 40.22 37.04 37.22 36.38 31.88 35.74 35.34 36.56 34.84 31.45 30.29 29.95 29.65 31.91 31.73 34.16 32.38 29.81 29.36 28.64 30.20 27.66 23.46 33.32 35.65 29.20 30.85 34.28 35.33 35.63
44.50 44.47 44.48 44.27 44.36 43.85 43.55 43.62 43.65 43.33 42.55 42.89 42.91 43.03 43.05 42.17 43.58 43.11 41.13 44.43 43.94 37.13 37.74 42.35 42.90 43.76 42.07 41.35 37.75 37.76 35.97 36.01 36.37 32.49 31.89 30.83 29.57 33.83 31.87 28.03 36.79 29.37 32.53 29.03 28.84 26.69 32.85 33.74 32.34 34.82 35.34 32.85 34.78 34.53
44.74 44.54 44.36 43.83 44.13 44.11 43.59 43.42 43.32 43.10 42.51 43.06 43.01 42.87 42.72 42.14 43.07 42.95 42.97 42.69 40.02 35.53 36.97 38.46 39.19 44.65 46.74 45.83 46.11 36.16 38.35 39.64 37.83 39.92 35.05 33.29 28.58 34.84 29.51 30.84 33.60 35.90 38.21 32.49 31.38 31.41 31.44 32.86 34.43 34.78 35.33 34.39 35.22 35.59
44.18 44.18 43.96 43.81 43.86 43.94 43.74 43.58 43.30 43.15 42.32 42.42 42.77 43.30 43.06 42.37 42.07 42.48 41.32 42.93 41.46 37.95 33.03 36.71 45.13 42.05 46.00 45.91 45.11 44.50 41.96 42.31 41.26 39.93 35.67 33.37 29.87 38.03 33.38 34.85 33.86 35.13 36.39 33.09 30.47 31.76 32.45 31.77 32.41 33.78 33.95 35.05 34.90 35.49
43.47 43.71 43.62 43.56 43.50 43.33 42.83 43.23 43.00 42.94 42.08 42.38 42.69 42.76 42.71 42.38 42.20 42.48 43.66 45.03 44.91 38.75 32.69 34.95 41.67 43.85 45.25 44.91 43.35 43.63 41.89 39.63 38.02 35.26 34.87 32.37 36.63 36.32 37.29 36.88 31.46 34.35 30.24 29.78 27.47 32.30 31.79 30.37 31.82 33.32 31.48 31.99 33.69 33.51
43.11 43.15 43.22 43.32 43.48 43.29 42.38 43.05 42.89 42.39 41.98 42.48 42.44 43.05 42.85 42.23 42.27 41.09 35.40 44.33 45.72 44.20 36.85 31.34 40.03 41.71 43.48 43.35 42.12 41.23 40.99 39.42 38.54 35.69 35.09 37.01 39.87 36.95 32.15 30.80 32.51 34.36 34.84 35.20 32.36 33.41 32.22 32.72 33.30 33.66 32.24 31.66 32.81 32.29
42.52 42.78 42.73 42.96 43.09 42.73 42.65 42.68 42.68 42.26 41.83 42.15 42.85 42.27 41.57 41.98 43.00 38.96 36.93 40.43 44.34 45.48 36.80 31.76 34.54 40.76 41.81 40.67 40.35 39.64 40.89 39.67 37.83 36.27 35.16 35.90 37.06 37.92 34.78 30.39 32.37 34.03 35.13 35.18 35.79 34.99 32.49 33.08 31.69 34.37 34.09 33.54 33.20 31.96
42.19 42.55 42.59 42.65 42.78 42.53 42.44 42.42 42.20 41.56 41.66 42.01 42.54 41.95 41.46 42.05 41.65 39.61 43.04 43.52 43.78 39.01 37.76 30.57 32.68 36.03 41.21 36.05 35.12 40.21 35.93 36.82 36.64 35.36 36.54 34.95 37.35 37.57 31.19 32.91 33.90 34.35 34.52 33.97 34.21 35.25 34.25 34.42 34.30 33.36 33.95 33.22 31.55 28.66
41.75 42.05 42.14 42.44 42.52 42.32 42.15 41.98 41.92 41.32 41.71 42.50 42.15 41.68 41.42 39.94 36.32 39.30 44.66 44.47 44.33 38.04 32.70 33.36 29.60 29.70 39.95 37.73 38.53 37.59 38.22 31.74 38.07 33.47 34.50 36.52 33.93 30.74 31.01 33.55 33.44 33.44 32.63 32.88 33.61 33.82 32.88 31.35 30.36 29.67 29.25 28.30 26.21 24.45
41.41 41.76 41.90 41.84 41.96 41.95 41.86 41.69 41.48 41.57 42.14 41.91 41.04 36.21 31.92 36.92 43.82 43.79 40.04 35.97 35.30 35.27 37.13 32.48 36.77 33.03 38.02 36.69 35.19 34.32 36.53 32.20 30.24 33.78 38.23 33.85 31.11 31.75 32.72 32.99 32.66 32.18 32.58 33.13 30.31 29.12 29.24 28.25 27.81 26.27 25.13 25.16 24.16 23.24
40.87 41.47 41.58 41.99 41.99 41.81 41.86 41.59 41.56 41.95 41.48 39.25 34.05 33.71 40.18 44.33 39.77 35.76 32.29 31.83 32.82 30.73 35.42 35.44 35.86 34.07 40.44 33.41 33.21 36.68 33.33 34.74 27.75 32.08 31.68 30.81 28.67 28.64 31.85 31.34 31.99 32.30 32.34 31.43 30.88 29.93 29.64 29.04 27.36 26.14 24.65 24.45 23.73 22.27
40.65 41.04 41.71 41.89 41.62 41.78 41.68 41.63 41.74 40.16 39.54 38.89 39.12 40.02 40.27 36.17 33.56 32.04 29.39 32.56 31.43 29.30 35.65 33.50 34.26 37.63 37.99 41.35 35.96 36.13 31.14 33.21 26.13 36.48 30.89 27.29 26.35 29.49 29.24 28.62 29.19 29.55 29.32 28.74 29.38 27.40 27.00 26.62 26.57 25.26 23.64 21.40 20.14 19.72
40.88 41.38 41.69 41.54 41.50 41.72 41.64 41.72 41.55 41.59 42.15 39.84 34.83 32.28 32.93 33.18 28.81 27.52 24.69 27.75 29.27 35.27 37.78 37.55 34.23 37.74 38.51 38.72 33.85 33.25 27.88 28.55 36.69 29.91 28.12 27.15 27.70 28.32 28.25 27.97 26.65 27.66 27.49 26.64 25.42 25.19 24.09 22.61 22.94 21.87 19.64 20.36 20.01 18.33
40.79 41.20 41.63 41.70 41.39 41.27 41.22 41.30 41.33 40.65 38.21 32.66 31.01 28.01 30.47 28.14 30.53 32.32 33.27 35.19 39.48 38.88 37.86 36.56 35.16 34.75 36.74 32.50 32.81 28.94 33.58 32.79 27.14 25.70 26.53 27.17 26.88 26.46 26.23 25.61 22.95 21.36 21.98 22.14 20.87 20.19 19.14 18.71 18.39 18.54 18.06 17.57 17.26 16.56
40.50 41.19 41.31 41.18 41.06 41.01 41.12 41.11 41.11 40.38 34.47 31.01 31.90 28.91 29.70 35.79 35.68 36.63 39.33 37.54 38.33 40.16 37.89 36.10 35.45 36.09 33.73 32.06 32.93 31.10 28.31 25.73 28.15 27.77 27.17 27.06 26.72 25.66 24.50 23.59 21.84 20.56 20.37 20.51 20.46 19.01 17.88 18.07 18.72 18.75 19.50 20.02 17.98 15.09
40.42 40.13 39.13 40.70 40.76 40.56 40.91 40.24 38.26 37.18 33.71 31.65 32.40 31.55 34.67 33.03 31.06 33.56 33.56 34.11 39.66 38.93 40.44 38.42 33.10 31.00 29.49 30.98 29.03 28.03 27.18 26.37 27.37 26.68 27.01 26.82 25.21 24.50 23.20 22.34 21.58 22.66 22.75 22.03 20.96 20.50 20.20 18.37 19.11 20.22 20.46 19.50 16.24 16.69
39.66 37.23 40.33 40.55 40.78 40.51 40.07 37.95 36.17 32.43 32.42 30.90 30.77 32.66 33.38 33.73 32.78 33.02 34.47 36.43 39.46 38.20 33.74 34.48 29.93 27.41 32.88 27.59 26.55 31.73 28.59 27.98 27.18 26.82 27.77 26.61 24.26 22.88 22.53 22.12 21.60 23.01 22.92 22.75 21.94 21.75 21.03 22.19 21.71 20.50 18.74 19.78 19.53 19.96
37.41 39.86 40.81 40.58 39.93 38.90 37.39 36.77 34.48 32.69 29.01 31.38 29.90 30.57 31.58 33.18 33.02 33.73 36.43 37.59 37.94 35.76 36.07 32.77 35.52 29.97 28.21 27.30 30.00 28.65 27.73 28.05 28.16 26.88 26.13 25.30 23.97 23.07 23.51 22.42 23.25 23.62 23.25 22.96 22.80 22.30 22.24 21.55 21.67 23.33 22.30 22.96 22.19 22.25
39.28 40.55 40.24 40.15 39.36 37.33 33.54 33.37 35.15 28.92 29.02 29.77 30.20 31.16 31.59 32.30 34.45 35.23 36.09 36.21 36.77 37.75 37.79 35.01 31.52 30.38 30.87 30.48 29.47 28.76 28.04 27.42 25.12 24.44 24.71 25.33 25.26 24.73 24.33 24.14 24.15 24.17 23.36 22.60 23.04 24.34 24.67 23.01 22.64 23.03 23.19 23.29 21.70 22.67
40.22 40.24 40.12 40.11 39.81 35.76 30.91 31.95 37.12 30.47 27.59 29.31 31.00 29.75 30.87 30.57 32.26 33.29 34.61 35.22 35.65 35.52 33.40 31.91 30.72 29.83 29.70 29.97 33.22 31.11 30.17 28.91 25.79 22.73 22.26 23.25 24.51 24.52 24.06 24.10 24.93 24.90 23.98 24.17 23.62 21.98 23.81 23.46 24.22 23.47 22.33 20.72 19.48 20.05
38.56 39.58 40.34 39.86 37.25 36.51 33.60 32.13 31.48 31.14 30.16 29.15 30.42 29.82 28.15 30.68 30.52 31.33 31.17 34.80 33.84 32.72 31.14 31.53 29.26 28.88 32.17 32.09 32.21 31.36 30.02 30.09 28.65 27.93 25.08 23.07 25.44 26.29 25.12 25.86 25.38 25.26 24.64 24.27 23.67 23.00 21.52 22.29 23.33 22.66 22.60 21.85 21.64 20.04
37.72 39.60 37.08 37.47 35.05 33.25 32.06 34.87 32.10 32.86 30.25 29.12 29.46 30.33 27.89 28.24 29.33 30.88 33.10 31.57 31.45 30.54 32.10 31.75 29.43 28.50 28.45 28.83 29.80 30.72 30.01 29.72 29.47 29.06 27.76 26.48 25.03 24.82 24.90 25.35 24.64 24.38 23.95 24.54 23.84 23.32 23.04 22.74 21.42 21.25 21.43 20.94 19.18 19.85
38.91 37.82 35.82 34.90 30.66 30.00 28.51 35.77 29.68 30.06 25.83 27.19 29.34 26.63 27.13 28.28 29.86 32.71 29.17 30.99 28.74 31.03 32.16 31.21 30.13 30.97 29.20 29.69 28.91 28.81 29.44 29.00 27.79 27.02 27.41 27.34 26.64 26.66 25.65 24.83 24.99 23.89 22.84 23.59 23.41 22.51 21.75 15.58 18.91 19.06 19.42 19.49 19.34 18.96
38.45 34.77 31.16 30.68 30.91 26.49 30.96 29.37 30.79 28.77 28.48 26.94 27.31 24.56 25.64 26.85 29.39 27.75 26.79 28.23 28.16 29.94 29.58 29.00 29.34 27.26 27.28 26.78 26.16 26.86 28.34 29.32 27.46 26.95 26.97 25.30 23.57 23.62 24.26 22.95 22.74 22.45 21.53 21.86 21.71 21.37 21.09 20.83 16.48 18.90 18.89 18.04 17.85 17.03
28.97 25.70 29.47 26.42 30.33 27.28 25.75 26.08 26.68 26.12 25.15 26.53 25.36 24.88 25.53 28.28 24.73 25.13 25.96 26.31 26.21 27.68 28.01 28.96 28.40 27.75 25.87 26.94 26.79 25.91 28.15 27.53 25.08 23.24 24.69 25.67 23.63 22.04 21.34 21.69 21.01 20.95 21.53 20.81 20.32 19.75 19.53 19.81 18.91 17.53 16.01 15.45 14.62 14.17
23.28 24.89 25.71 27.21 27.57 26.74 25.93 23.44 24.70 25.14 25.58 25.18 26.21 28.34 28.81 26.20 24.21 24.64 26.74 27.10 26.74 27.92 28.61 29.39 29.02 28.05 27.74 27.42 24.28 24.28 25.03 27.62 25.84 21.73 22.31 23.88 23.15 22.96 21.69 20.64 20.25 18.28 20.57 19.66 18.15 16.61 16.54 16.56 15.22 13.72 13.40 13.96 11.40 11.44
22.85 23.23 24.29 26.77 28.38 29.03 27.46 28.98 29.94 27.68 24.54 23.69 25.03 24.69 24.95 22.80 24.13 22.59 26.45 28.88 27.85 29.58 30.59 31.39 30.89 29.34 27.40 25.73 24.82 23.87 23.56 24.42 24.35 22.35 21.85 21.02 20.32 20.45 20.38 18.92 17.48 16.42 18.18 16.66 16.62 15.46 14.15 13.76 13.54 13.26 13.04 14.35 14.33 13.67
23.77 24.95 21.08 23.97 25.04 27.06 25.01 25.67 25.26 24.28 25.30 27.87 27.65 23.90 23.68 23.26 20.25 22.97 25.06 28.74 30.11 30.27 30.01 29.98 30.07 27.88 25.26 23.99 22.70 21.50 19.99 19.80 19.87 20.06 19.95 19.05 19.04 18.10 16.82 15.46 14.52 13.73 15.22 14.55 13.61 14.26 13.54 12.90 12.28 12.37 12.29 11.83 11.51 13.15
22.67 23.90 21.78 18.17 21.27 21.16 21.16 21.39 22.07 21.64 22.17 24.28 25.87 21.36 18.00 18.27 22.38 22.64 25.89 26.81 28.28 26.64 24.18 23.10 23.00 24.60 23.54 23.50 23.54 22.90 22.81 21.60 18.66 15.37 16.10 17.29 16.28 15.55 17.62 17.18 16.90 15.40 16.16 15.69 11.14 11.97 12.56 11.08 11.32 11.10 10.51 10.81 11.50 12.98
20.41 25.15 19.35 17.06 16.98 17.24 17.55 20.37 19.42 21.09 22.13 22.54 21.05 18.33 16.99 17.87 21.43 25.61 26.85 26.09 24.99 24.22 23.96 23.37 22.95 22.45 21.36 20.69 18.81 18.43 20.36 20.35 19.67 19.69 18.04 16.69 15.75 16.53 16.41 15.54 15.35 14.51 15.22 14.56 13.71 13.56 12.78 12.18 12.73 12.99 12.38 11.78 11.59 9.65
23.95 24.51 21.30 20.09 16.80 17.84 18.76 20.91 22.02 22.30 22.90 23.63 24.66 19.38 15.71 16.80 19.89 21.53 22.84 26.69 25.92 24.93 23.20 22.29 22.62 23.42 21.60 19.55 17.87 15.58 12.82 14.47 15.23 16.35 17.11 17.16 16.66 15.30 13.98 13.51 13.71 14.05 14.25 12.89 11.75 11.55 10.45 9.47 9.28 8.72 8.13 6.62 5.79 4.61
23.07 20.29 18.93 15.57 15.07 18.75 21.54 22.64 21.82 19.96 20.25 19.12 17.93 19.45 19.65 19.56 16.03 18.63 19.95 22.42 24.10 23.23 22.75 22.88 21.25 19.31 19.54 17.71 16.54 16.59 14.37 14.20 14.38 14.69 15.00 15.12 13.84 13.29 13.26 13.12 13.31 13.09 11.21 10.19 10.88 10.58 9.71 7.86 6.94 5.34 4.16 3.54 2.74 1.40
20.97 21.57 20.32 17.89 15.83 16.71 18.91 20.76 18.74 17.95 19.63 18.24 19.41 21.46 21.45 19.67 14.07 16.46 20.85 22.18 24.77 22.78 21.12 19.58 19.09 18.43 16.77 15.42 14.78 14.15 12.72 10.77 9.38 10.29 8.69 7.75 5.99 8.72 12.84 12.06 11.04 10.45 8.97 8.64 8.86 9.12 7.61 5.67 4.08 2.69 2.19 0.25 -1.91 -3.51

GFSWCAN_sfc_wetblb_105.txt.gz
Wetbulb
44.85 44.43 44.85 44.40 44.11 44.21 44.12 44.08 43.97 43.98 43.84 43.45 43.30 43.38 43.07 42.64 43.39 40.84 40.18 41.97 38.30 34.17 33.43 37.93 38.49 33.55 33.37 31.43 25.61 30.34 29.09 30.27 28.51 26.27 26.51 25.91 26.32 28.94 30.13 32.48 30.74 26.99 27.12 23.92 26.16 23.61 19.15 31.88 31.82 26.28 30.93 34.43 34.89 34.40
44.58 44.12 44.31 44.22 44.19 43.99 43.79 43.94 43.74 43.87 43.21 43.42 43.48 43.43 42.67 41.95 43.24 42.05 39.22 42.01 40.65 34.58 32.26 37.99 38.82 39.75 38.38 36.65 33.18 32.87 30.75 33.13 32.61 25.81 27.36 27.81 25.85 27.98 29.25 26.64 34.60 26.32 30.38 25.55 26.90 25.40 32.08 32.88 31.83 34.45 34.95 33.48 34.64 34.76
44.52 44.59 44.16 43.79 44.17 43.78 43.70 43.94 43.73 43.54 43.34 43.30 43.23 43.43 43.14 42.00 42.90 41.57 40.97 39.77 37.81 34.08 32.68 32.83 34.63 40.76 43.07 41.23 41.30 30.73 35.57 37.05 33.40 34.83 27.50 26.92 25.88 31.35 26.54 29.30 32.30 34.25 36.26 26.84 28.97 30.59 30.81 32.25 33.94 34.56 35.90 33.75 33.96 34.21
43.71 43.97 44.27 44.04 44.25 43.80 43.73 43.72 43.54 43.33 43.39 43.32 43.15 43.09 43.18 42.31 42.23 41.72 36.92 38.81 38.80 35.55 26.23 33.94 43.51 39.76 43.68 42.70 41.33 40.30 38.08 38.70 36.53 34.93 29.73 26.28 25.34 34.49 30.23 33.14 30.69 31.44 33.69 31.04 29.16 30.63 30.58 31.38 31.93 33.10 32.80 34.45 34.51 33.93
44.23 44.18 44.08 43.62 43.59 43.65 43.59 43.44 43.42 43.26 42.96 42.87 42.94 43.29 43.06 42.33 41.76 39.21 37.91 40.12 40.32 37.36 30.51 29.71 37.12 40.40 43.43 41.67 40.32 39.44 38.23 35.90 32.55 30.43 29.14 27.64 31.77 32.08 33.16 33.93 29.13 31.77 29.63 28.57 25.08 32.41 30.58 29.87 32.27 33.12 31.47 31.52 31.70 31.06
43.82 43.93 43.80 43.57 43.60 43.46 43.37 43.47 43.37 43.05 42.68 42.72 42.85 43.24 42.92 42.39 41.88 37.00 31.79 39.03 42.00 40.62 33.64 27.17 36.79 38.38 40.54 40.11 38.86 37.86 37.77 35.17 33.55 30.95 28.75 31.31 36.15 33.02 25.24 24.52 31.94 34.22 34.34 34.89 29.90 32.67 30.49 30.73 33.06 33.72 30.49 30.64 30.72 29.65
43.17 43.58 43.71 43.39 43.50 43.23 42.64 43.11 43.03 42.75 42.00 42.54 42.85 43.05 42.44 42.04 38.36 35.28 33.94 39.61 43.54 42.77 32.32 29.27 28.65 38.40 40.11 37.83 35.88 36.16 38.07 35.23 33.08 31.62 29.93 30.64 31.60 34.79 27.74 25.92 32.16 34.19 34.35 34.20 34.86 33.62 31.30 33.22 30.84 33.59 32.96 32.23 31.14 28.54
42.89 43.13 43.13 43.27 43.24 43.22 42.64 42.74 42.74 41.92 42.09 42.54 42.78 42.30 42.07 42.22 40.19 36.03 41.23 43.59 43.10 38.78 34.58 28.17 26.50 31.83 37.55 31.52 30.04 35.27 31.36 32.30 32.19 30.28 31.51 29.95 32.73 33.23 27.96 31.17 33.02 33.72 34.15 34.03 34.28 34.52 32.97 33.05 31.68 29.78 29.57 29.52 26.07 23.84
42.33 42.68 42.50 42.76 42.97 42.53 42.52 42.62 42.58 42.00 41.98 42.56 42.51 42.23 38.71 35.71 32.74 35.10 44.43 44.37 42.63 37.75 30.09 29.77 26.84 22.30 36.90 33.43 34.50 32.87 33.93 25.00 33.11 25.69 29.11 31.01 25.74 25.52 29.35 31.16 31.23 32.22 31.78 32.04 33.43 32.82 30.47 28.95 26.75 25.54 25.23 24.50 22.20 21.27
41.96 42.29 42.23 42.45 42.68 42.42 42.20 42.24 42.02 41.95 41.98 42.27 38.94 32.52 28.10 34.28 42.88 43.30 39.04 35.21 34.42 35.63 34.92 29.35 30.88 24.50 34.34 30.11 32.53 30.06 29.52 26.64 27.29 29.58 32.48 24.07 26.49 30.85 31.45 30.93 31.25 30.71 30.27 30.34 29.37 28.28 28.50 24.99 23.42 22.84 21.97 22.14 22.04 20.60
41.50 42.05 42.11 42.46 42.51 42.10 42.04 42.00 41.95 41.59 41.43 35.63 30.98 30.74 38.00 43.72 38.64 34.36 30.69 29.58 29.92 27.99 30.75 30.68 30.97 28.35 36.02 26.12 26.77 29.56 28.10 26.62 23.45 29.55 24.72 23.29 25.30 28.06 30.03 29.34 30.04 29.59 29.69 27.85 27.29 26.03 25.62 26.14 24.52 23.02 22.35 21.55 20.18 18.73
41.10 41.97 42.04 42.35 42.32 42.17 42.11 41.73 41.63 38.15 35.72 35.79 36.78 39.28 39.86 35.58 32.39 29.78 25.44 26.12 26.54 25.19 30.09 27.22 29.08 32.99 33.34 36.92 32.58 31.07 25.07 24.62 19.57 30.61 23.29 17.01 25.54 27.20 27.08 26.50 25.27 25.36 25.25 24.94 25.20 23.37 23.22 23.62 22.83 21.29 19.69 18.12 17.02 16.73
41.12 41.85 42.07 42.06 41.92 42.11 42.01 41.68 41.56 41.87 41.38 38.23 35.55 31.46 31.97 31.07 26.25 23.16 20.53 23.10 24.99 26.43 29.46 28.55 29.06 33.15 34.12 34.87 29.58 27.09 21.29 18.50 28.98 25.22 21.53 24.22 26.40 26.67 25.92 22.62 21.74 23.22 23.23 22.53 21.47 21.19 20.33 19.55 20.21 18.85 15.56 13.38 11.31 9.72
41.09 41.57 41.95 42.06 41.84 41.89 41.68 41.72 41.52 40.53 37.27 31.41 29.36 25.28 26.32 24.61 23.87 23.98 24.77 25.58 28.76 29.12 29.62 30.36 27.69 27.78 27.21 24.75 30.14 26.40 24.81 26.45 18.40 14.53 22.77 24.55 25.07 22.84 23.34 22.84 20.67 16.94 16.65 15.80 13.60 13.15 12.00 11.64 8.61 7.62 6.89 5.88 7.43 6.23
41.06 41.38 41.72 41.55 41.84 41.92 41.85 41.64 41.03 39.12 33.50 29.23 29.94 24.53 22.95 29.01 32.67 33.09 32.18 30.41 30.51 29.72 30.27 28.63 27.28 30.37 28.57 25.11 28.30 28.57 21.91 16.21 21.10 23.19 23.94 24.54 24.24 22.26 20.61 20.34 17.31 15.38 12.81 13.52 10.85 9.80 7.35 7.84 9.42 8.33 10.67 8.35 9.48 4.37
41.08 40.97 39.04 41.44 41.57 41.61 41.26 39.88 38.06 35.80 32.12 30.54 29.52 27.15 32.09 31.03 30.66 32.39 32.21 32.58 31.99 29.26 30.43 30.17 26.79 26.70 25.83 27.36 24.29 18.53 23.35 22.72 23.92 23.87 24.76 24.38 21.76 19.26 16.53 15.59 13.81 18.81 21.00 14.14 11.98 11.67 11.29 9.14 9.89 10.18 10.26 10.01 5.72 5.83
39.13 35.15 40.99 41.42 41.01 40.50 39.85 36.76 34.40 29.65 28.25 29.71 29.21 31.83 29.96 32.02 31.08 32.23 32.61 31.80 32.21 30.95 28.69 27.29 23.56 25.74 28.12 25.01 24.77 27.83 24.21 24.88 24.76 25.03 25.37 23.73 20.16 15.47 14.96 21.01 21.58 21.84 19.85 13.76 12.84 13.99 12.75 14.83 14.14 16.77 13.81 12.30 13.62 16.06
35.65 39.03 40.87 40.82 39.55 38.72 36.55 35.97 31.07 29.14 26.85 29.19 27.72 29.77 30.72 31.44 32.03 32.20 32.94 33.66 31.78 29.71 29.66 27.23 28.98 25.69 25.63 22.00 24.04 25.98 25.68 26.29 25.88 24.23 22.75 19.57 16.14 14.66 15.77 13.06 22.03 21.57 16.17 15.53 15.45 15.03 16.10 14.40 18.88 20.19 22.06 22.17 20.31 21.57
38.26 38.66 40.66 40.57 37.95 34.62 30.52 30.39 33.57 27.32 27.53 29.02 29.23 29.52 30.09 30.85 31.79 31.15 32.70 33.10 33.79 34.15 31.89 27.56 26.02 23.86 25.42 27.33 26.93 25.78 25.73 21.86 21.10 22.03 22.41 21.84 19.53 21.65 21.67 21.89 22.38 17.46 17.19 16.64 19.83 21.04 21.40 21.46 18.69 17.73 18.07 18.47 15.01 15.46
40.56 40.44 40.38 40.09 39.61 32.87 29.70 29.51 35.47 29.70 25.95 28.22 30.07 28.78 29.53 29.11 30.62 31.83 32.17 31.71 30.68 29.96 28.25 23.42 26.22 27.35 27.12 28.47 29.98 28.22 26.34 23.78 21.55 19.65 20.95 22.35 23.55 23.51 20.00 18.89 18.65 20.39 19.56 21.02 21.00 17.39 19.57 19.29 21.76 20.52 17.02 14.95 11.21 11.30
38.53 38.58 39.71 39.25 36.43 35.15 33.07 29.21 30.49 29.86 28.66 27.86 29.35 28.91 26.77 29.51 28.95 29.65 29.36 31.57 31.13 28.64 25.33 25.00 25.78 28.28 29.98 29.97 30.34 28.36 26.63 24.36 21.60 20.68 19.56 18.62 19.80 20.47 22.16 24.14 22.42 20.29 21.15 20.14 16.80 18.58 13.57 15.40 16.69 17.64 8.63 5.49 6.21 7.40
36.76 39.11 36.08 36.81 33.04 32.50 30.48 30.95 28.77 29.18 28.13 27.77 28.40 28.49 27.04 27.07 27.79 29.34 30.89 28.10 28.40 26.79 29.69 28.11 27.42 27.87 26.73 26.28 27.02 26.52 25.59 26.61 26.25 23.66 20.64 21.17 21.43 18.31 17.48 17.36 18.40 16.21 14.30 13.12 15.66 12.56 13.97 14.22 13.14 11.55 6.74 4.98 8.51 7.46
38.20 36.89 32.40 31.87 29.29 27.92 25.72 33.14 26.77 27.87 22.58 25.84 28.33 25.69 25.45 26.92 28.61 30.53 26.68 28.90 26.75 24.44 26.12 27.64 27.01 27.68 26.09 26.56 26.84 26.83 27.18 25.92 23.81 22.29 21.62 20.73 21.15 20.94 19.68 18.29 17.01 13.52 13.02 16.61 17.13 14.60 10.71 9.77 8.99 5.99 6.12 5.95 6.35 4.31
37.93 30.79 26.63 27.33 29.63 21.55 28.55 24.41 28.71 27.27 26.56 25.56 25.31 23.75 24.74 26.04 27.82 25.78 24.76 26.14 23.89 24.95 25.78 26.04 26.07 24.55 24.23 24.74 21.94 22.29 24.23 25.30 23.01 22.96 21.72 20.45 18.63 17.54 18.61 17.52 17.07 15.61 15.46 16.55 15.47 11.06 9.86 5.20 6.49 7.22 2.21 0.95 -0.29 -0.61
23.82 23.36 28.28 24.33 28.18 23.16 24.00 24.82 23.99 24.26 18.62 24.93 22.00 22.44 24.32 23.88 22.67 22.78 24.61 23.19 18.43 20.93 25.79 25.37 24.56 23.80 21.25 18.73 19.74 21.49 24.94 24.11 21.32 18.75 19.24 21.13 17.06 15.79 16.30 17.26 16.44 15.68 15.88 10.52 6.19 4.31 3.00 3.34 1.90 -0.31 0.66 -2.73 0.91 -1.60
18.43 19.96 22.95 24.41 21.10 22.93 23.31 22.85 21.48 20.08 22.79 23.25 24.00 24.52 23.23 24.28 22.39 21.92 23.68 21.42 19.90 24.39 26.95 26.15 20.53 22.01 22.64 22.90 20.43 19.90 19.85 23.18 21.60 18.39 18.26 19.70 17.81 15.19 14.22 13.68 13.09 12.57 13.09 6.44 2.92 1.05 1.60 1.05 -1.19 -0.71 -2.05 0.43 0.68 -2.62
21.48 22.22 24.35 27.01 27.34 28.59 23.47 25.13 26.67 21.19 19.55 22.26 23.59 22.26 23.31 20.80 20.05 17.93 22.24 24.61 23.55 26.14 27.69 28.30 26.55 25.42 23.03 20.11 19.62 18.92 19.32 20.68 19.29 17.44 17.42 16.68 15.73 14.69 11.20 9.10 7.89 7.21 10.29 6.23 1.88 -0.68 -1.78 -2.80 -3.18 -2.92 -3.42 -4.08 -3.18 -2.28
23.11 23.93 18.89 24.48 24.17 25.70 21.94 19.82 19.23 18.65 21.28 25.21 23.94 21.57 20.38 12.94 13.40 18.27 19.56 26.61 26.92 26.68 25.68 26.10 25.29 22.74 20.15 19.02 17.68 16.54 16.21 16.39 15.75 15.57 15.59 13.94 11.61 8.86 6.12 5.61 4.66 11.85 3.38 0.43 -1.09 -1.19 -1.92 -3.53 -4.39 -4.94 -4.76 -5.48 -5.14 -3.82
21.87 23.88 21.97 15.83 19.63 20.18 17.21 16.91 17.26 18.09 19.54 21.78 22.89 16.89 13.19 15.66 18.93 19.59 22.75 24.81 24.04 22.23 20.21 19.34 19.17 20.23 19.33 18.54 18.54 17.52 14.88 10.76 10.02 5.15 4.82 3.58 3.40 6.54 5.54 6.41 5.42 4.29 2.28 2.68 7.24 3.25 0.33 -1.83 -2.28 -3.58 -1.25 0.96 2.38 4.83
19.07 25.03 18.53 15.42 11.60 12.95 13.03 17.64 14.44 14.10 17.83 16.72 16.03 15.11 14.15 14.23 16.42 20.97 23.08 22.21 21.65 19.87 19.95 19.91 20.03 18.98 17.83 17.44 15.14 12.89 12.58 10.03 8.20 6.78 6.11 7.43 6.42 5.62 4.26 5.13 3.88 2.09 1.31 -0.33 -1.24 -0.49 5.93 -1.40 -0.11 -3.55 -2.72 -3.33 -5.04 -8.14
23.30 23.62 19.95 17.18 13.87 16.45 16.11 15.94 14.93 16.53 19.04 20.54 15.49 9.42 8.57 11.41 14.74 16.47 17.12 23.43 22.17 20.36 19.33 19.20 19.28 19.14 16.64 13.92 10.85 5.15 2.12 6.38 3.89 8.80 11.84 11.50 8.90 6.14 5.56 3.82 1.65 1.55 0.09 -1.96 -4.16 -5.37 -6.41 -7.08 -8.48 -9.56 -9.28 -10.60 -7.31 -9.34
22.33 18.60 14.18 10.91 12.41 15.43 18.74 18.72 19.24 12.74 12.99 10.74 10.30 9.71 8.53 11.27 7.49 11.76 16.98 19.11 19.56 19.25 20.32 20.42 16.55 13.05 12.98 11.24 10.85 9.58 9.75 6.31 2.56 4.58 7.85 8.38 6.40 3.94 4.83 4.70 2.61 -0.15 -3.07 -5.23 -5.94 -6.32 -6.93 -7.51 -10.39 -11.64 -11.46 -8.83 -14.95 -16.95
20.37 17.57 13.56 11.60 11.66 11.20 14.10 16.09 15.54 15.40 15.27 11.90 9.60 12.57 17.96 10.80 4.81 9.68 16.73 19.80 20.82 18.47 14.81 14.98 14.07 13.09 10.90 10.00 8.12 6.27 5.23 3.27 3.10 8.14 6.06 4.96 4.69 6.48 2.80 0.75 -1.06 -5.48 -7.95 -7.97 -6.98 -6.57 -5.27 -8.89 -10.75 -11.21 -15.02 -19.11 -21.43 -22.52

GFSWCAN_sfc_wetblb_108.txt.gz
Wetbulb
44.54 44.76 44.59 44.15 44.18 44.16 44.61 44.51 44.52 44.32 44.06 43.84 43.39 43.55 43.34 43.54 43.93 40.66 39.31 38.20 34.15 27.62 30.54 36.30 36.97 31.78 31.70 29.38 24.30 28.60 26.94 28.59 27.02 23.49 24.15 25.20 26.10 27.51 29.33 31.65 29.94 27.17 25.98 23.11 25.04 21.22 18.17 31.02 30.93 25.84 30.66 34.08 34.06 32.34
44.37 44.31 44.21 43.93 43.79 44.13 44.51 44.23 44.13 44.08 43.87 43.66 43.72 43.13 42.44 43.17 43.69 42.22 35.11 39.46 38.40 30.70 29.54 35.78 36.69 37.87 37.04 35.97 31.37 30.99 29.62 31.68 30.49 24.24 25.00 26.75 25.24 26.79 28.95 22.97 34.32 25.70 28.46 24.76 26.22 24.35 31.26 33.72 32.20 34.96 35.59 33.60 33.96 32.80
44.26 44.13 44.22 44.12 43.99 44.08 44.12 43.92 44.09 43.63 43.70 43.91 43.60 43.13 42.47 42.42 43.34 42.38 37.24 36.07 34.46 26.12 28.84 31.39 33.11 39.17 40.28 38.87 38.61 29.82 32.12 35.54 31.78 31.88 25.62 26.51 25.32 29.07 26.53 29.43 29.78 33.96 34.37 25.82 25.80 29.42 30.21 32.32 33.93 34.18 34.19 32.01 32.18 33.19
44.33 44.07 44.11 44.05 43.73 43.74 43.91 43.93 43.60 43.66 43.63 43.52 43.63 43.31 42.53 42.42 43.00 41.04 35.79 36.33 36.95 33.93 22.89 30.10 40.71 37.61 42.08 40.58 39.53 38.27 36.41 37.13 35.05 32.44 27.90 24.51 25.49 32.24 27.20 32.55 28.18 29.46 31.94 29.43 27.94 29.78 30.43 30.46 31.35 31.50 31.51 33.00 30.08 28.74
44.20 44.10 43.64 43.87 43.72 43.88 43.85 43.60 43.32 43.53 43.26 43.30 43.27 42.96 42.73 42.32 42.14 38.42 35.93 36.97 39.29 35.22 27.82 27.91 34.82 38.79 40.23 40.35 39.16 38.27 36.87 34.31 30.75 28.41 24.88 24.62 30.62 31.20 31.17 32.43 27.60 31.59 29.77 28.15 24.63 31.84 30.42 29.57 31.56 32.69 29.21 27.73 28.66 27.13
43.49 43.53 43.07 43.70 43.70 43.54 43.54 43.43 43.37 43.35 43.32 43.40 43.04 43.38 42.89 42.36 41.25 34.83 26.23 37.38 39.48 37.93 32.63 23.97 33.95 35.98 38.68 38.99 37.61 36.40 35.88 33.34 31.58 30.04 26.78 28.37 33.38 31.53 24.77 25.93 31.82 33.78 34.00 33.67 29.11 31.85 26.69 27.28 30.21 31.60 28.45 28.02 27.85 26.44
43.65 43.84 43.84 43.53 43.33 43.49 43.52 43.24 43.19 42.91 43.03 43.04 43.40 43.29 42.75 42.17 36.44 35.33 30.64 39.53 42.81 41.00 30.89 25.63 26.34 35.69 41.11 37.35 34.05 33.95 37.74 33.39 31.64 30.11 28.77 28.56 30.17 33.24 27.69 24.41 31.54 33.58 33.61 33.08 32.77 32.57 30.36 31.40 26.42 30.30 29.07 27.08 27.09 25.62
43.40 43.46 43.53 43.36 43.24 42.73 43.32 43.13 42.78 41.92 42.28 42.63 42.88 42.46 41.85 42.16 38.54 36.24 40.95 43.69 43.32 35.11 32.45 27.66 25.75 32.82 36.07 29.63 29.05 33.07 29.98 30.50 30.42 29.02 29.96 28.69 31.21 32.00 25.98 31.05 32.73 33.86 34.44 34.33 34.39 32.59 29.34 28.15 27.52 26.14 26.31 24.90 22.47 21.36
43.12 43.22 43.09 43.10 43.10 42.84 42.82 42.71 42.22 42.15 42.37 42.79 42.41 42.35 36.76 33.64 29.33 32.55 43.97 43.27 40.30 36.85 29.31 29.31 25.16 25.02 34.89 31.34 31.62 30.83 31.12 22.15 30.49 23.46 27.10 29.97 26.44 23.57 28.30 28.74 29.87 30.86 30.60 31.76 31.71 30.28 28.27 25.56 24.28 24.45 23.53 22.65 20.68 19.85
42.72 42.67 42.77 42.69 42.67 42.69 42.56 42.49 42.33 42.34 42.54 42.54 36.85 29.10 21.56 30.32 41.02 41.93 37.74 33.51 33.99 35.12 34.24 27.71 28.29 22.56 31.89 26.53 27.26 29.33 26.35 24.01 24.11 28.67 29.93 28.33 25.94 30.46 30.63 29.49 29.50 28.23 28.83 31.17 27.96 26.57 24.20 22.63 22.09 21.52 21.06 21.28 19.82 17.57
42.50 42.52 42.73 42.80 42.63 42.47 42.35 42.23 42.28 42.23 41.34 33.25 29.90 27.04 36.92 41.16 37.81 32.43 29.43 28.27 29.65 26.91 30.02 28.94 28.12 26.86 33.25 25.42 24.83 26.84 22.55 24.01 22.58 28.75 23.99 22.41 23.74 26.16 27.69 26.76 26.74 27.35 26.22 24.90 24.66 24.18 25.38 23.86 22.17 21.56 20.67 20.05 18.81 17.67
41.89 42.37 42.56 42.70 42.31 42.27 42.25 42.24 42.11 36.43 33.46 33.50 34.64 38.43 38.17 33.90 31.54 28.26 25.24 26.53 26.32 24.03 27.12 25.80 27.42 30.39 31.12 34.21 28.69 27.68 23.75 22.40 19.03 28.84 24.75 13.08 21.39 25.64 25.09 24.44 24.11 23.73 23.53 22.86 23.47 22.42 22.51 22.63 21.84 20.46 18.94 17.28 15.70 15.01
41.99 42.25 42.54 42.53 42.23 42.40 42.19 41.97 40.95 41.59 39.08 36.03 34.81 31.04 31.28 29.26 23.80 20.33 15.27 20.25 17.08 23.52 25.86 25.45 27.71 33.39 30.86 31.17 29.91 24.16 17.57 16.82 27.32 23.12 19.97 18.57 24.03 24.65 23.17 22.34 21.56 22.17 22.07 21.07 20.18 20.55 20.26 19.16 19.32 17.64 13.03 8.44 7.86 6.63
41.80 42.13 42.31 42.31 42.32 42.14 41.76 41.78 41.40 39.22 34.69 28.33 27.09 23.66 24.47 22.72 24.07 20.76 21.48 21.87 25.58 25.14 26.90 26.67 24.73 26.25 24.75 21.94 28.68 21.42 22.16 24.72 15.52 11.55 19.93 19.19 24.47 22.88 22.60 22.66 19.93 15.34 14.40 13.53 11.50 11.28 10.77 11.12 6.27 4.34 3.91 3.24 4.22 4.11
41.62 41.80 42.08 41.89 42.00 41.85 41.91 41.37 40.44 36.81 33.00 26.47 27.68 17.06 23.73 25.39 30.16 32.15 31.87 26.97 27.04 26.79 27.93 26.04 26.19 26.76 21.44 23.87 27.72 27.64 22.77 14.49 18.01 15.81 15.55 22.73 23.25 21.36 19.79 19.01 15.26 13.48 10.33 9.81 6.77 8.18 4.22 4.72 8.30 6.83 5.15 4.80 7.21 1.05
41.34 41.26 38.46 41.82 41.82 41.70 41.15 38.54 35.12 32.67 30.12 28.28 27.51 24.72 28.35 29.74 29.70 32.03 30.22 28.48 26.86 26.16 26.57 27.72 24.72 19.95 23.71 23.82 25.38 21.86 21.39 17.42 18.11 20.35 22.60 22.53 19.58 14.83 14.41 14.26 12.26 11.12 11.10 9.57 8.71 9.26 9.09 6.15 7.71 9.24 6.79 6.77 1.78 2.58
39.50 35.37 41.27 41.54 41.38 40.44 39.50 34.60 28.28 27.18 24.79 26.97 26.46 31.02 29.92 28.65 31.06 32.03 32.27 30.59 30.36 27.93 25.80 24.93 19.77 19.27 25.73 19.29 23.63 19.93 22.93 22.18 22.68 23.04 20.60 19.15 16.08 12.61 11.73 12.35 13.22 15.63 13.22 12.12 10.80 11.92 12.18 13.35 11.37 14.40 12.68 10.26 11.71 14.03
34.24 39.45 41.46 41.23 38.69 37.44 35.73 33.24 27.25 26.70 23.64 24.70 22.03 27.18 29.75 30.88 31.79 32.00 32.36 31.29 28.44 27.41 27.28 25.95 26.71 24.08 16.62 16.97 15.14 19.16 24.64 24.45 22.76 19.76 15.29 13.59 11.88 10.81 14.80 14.57 20.06 17.54 15.71 14.59 15.05 14.13 13.65 12.51 17.21 16.39 19.07 20.32 20.78 20.23
38.64 39.14 40.74 40.10 36.79 32.97 29.72 29.39 32.30 25.36 23.67 24.49 24.74 27.78 28.70 29.92 30.57 31.11 31.91 32.01 30.75 30.61 28.25 26.47 20.69 17.88 17.66 19.10 24.48 24.81 24.55 19.97 18.53 15.63 14.15 12.44 14.00 14.47 14.27 16.49 19.83 15.60 17.07 16.56 18.93 17.62 17.23 19.21 17.65 16.81 16.77 18.07 13.49 13.80
40.75 40.61 40.42 40.19 39.08 30.56 28.32 26.61 33.03 28.30 21.86 23.76 28.32 28.83 27.93 28.42 29.91 30.84 31.16 31.37 31.76 28.99 25.95 22.07 24.37 24.06 23.96 17.84 25.80 24.66 22.00 21.48 20.63 18.30 17.22 14.05 17.98 17.98 16.69 18.75 18.20 18.99 18.07 17.94 18.46 16.76 18.10 18.68 19.94 18.28 15.51 13.65 9.56 8.06
37.76 38.10 39.72 36.36 34.45 33.16 30.36 27.40 28.15 29.70 28.68 25.56 29.00 29.37 26.39 28.90 28.30 28.86 28.86 31.12 29.84 28.03 24.39 27.16 22.49 23.59 28.41 28.34 26.61 24.67 23.19 22.72 20.24 19.72 18.85 18.24 20.71 18.32 17.29 18.10 20.79 18.52 17.09 15.14 14.56 14.63 13.54 12.16 14.00 14.54 10.17 7.77 5.16 4.40
36.17 38.39 35.42 36.34 32.12 32.12 30.64 30.58 28.38 28.62 27.32 28.08 28.39 28.02 26.46 25.60 26.75 28.54 30.26 28.28 27.90 23.80 22.35 21.48 22.33 27.85 27.80 24.69 23.70 25.24 24.09 23.94 22.22 20.02 17.72 18.41 17.34 16.70 19.75 17.92 18.25 14.20 14.68 13.68 15.05 11.73 12.62 13.24 11.42 9.37 3.58 1.43 2.69 4.07
37.33 35.65 32.98 32.63 27.75 23.35 22.35 31.58 24.72 26.27 23.24 25.36 27.79 23.76 21.47 24.66 23.27 29.94 25.50 27.94 26.62 25.45 23.13 23.56 26.15 27.15 25.20 25.94 26.23 25.95 26.52 25.35 22.26 20.89 19.77 18.54 16.04 15.31 16.27 14.18 14.07 14.16 13.05 14.03 15.50 13.22 9.29 7.53 6.39 1.39 0.22 0.52 0.93 -3.18
36.52 28.94 25.24 24.62 26.82 17.45 25.23 22.72 28.22 27.52 25.42 24.69 20.23 19.94 24.49 25.37 27.51 24.60 22.87 24.06 25.18 22.93 23.62 25.44 25.09 23.55 23.53 24.92 21.40 22.07 23.21 23.82 21.47 19.76 19.71 20.08 19.27 17.84 18.03 15.49 14.66 14.28 15.13 15.49 14.14 7.94 5.43 1.03 1.50 1.27 -4.70 -6.16 -9.12 -8.22
23.26 20.78 22.56 20.07 28.53 20.67 18.36 19.64 19.93 20.24 12.58 15.22 16.83 19.88 23.71 22.11 21.57 21.66 22.21 16.44 13.80 14.78 23.09 25.30 23.62 23.51 19.35 15.99 17.66 19.99 23.59 23.71 21.37 19.04 17.72 19.43 16.27 15.81 15.56 15.30 14.67 14.20 12.94 8.07 1.40 -1.23 -2.60 -5.00 -5.56 -5.33 -4.64 -9.67 -1.77 -5.35
14.04 17.85 22.04 16.75 12.54 19.51 18.45 14.31 12.06 12.48 14.83 14.47 15.64 19.53 20.95 22.48 16.80 14.05 19.23 13.46 11.24 14.74 20.88 22.51 18.72 19.84 19.75 20.75 19.43 20.06 18.37 21.67 20.82 16.27 15.12 17.41 16.34 15.03 12.79 11.08 6.81 6.70 8.65 3.48 0.38 -3.88 -3.72 -6.42 -7.67 -5.15 -6.40 -4.42 -5.50 -6.22
14.86 17.64 22.30 26.84 25.90 25.82 17.01 17.57 23.44 16.44 11.90 12.81 16.66 16.80 21.76 19.03 19.45 14.96 18.41 20.54 18.89 20.85 26.89 26.75 25.73 23.96 19.76 17.50 17.51 17.88 18.20 18.37 17.64 15.84 15.00 13.76 13.07 12.75 11.80 10.68 6.05 6.08 7.08 2.73 -3.09 -4.45 -5.86 -8.40 -8.03 -9.12 -10.39 -11.84 -10.93 -11.84
23.36 24.43 17.89 17.69 21.66 23.35 15.37 14.43 12.43 12.96 12.99 20.62 20.49 20.44 20.01 20.19 13.55 13.85 16.30 23.26 23.69 22.95 22.85 22.94 24.51 22.57 19.85 17.05 16.18 15.02 14.10 14.43 13.73 13.45 12.56 11.09 8.80 5.71 4.87 5.21 4.86 7.61 -1.63 -4.29 -4.29 -5.74 -5.73 -6.77 -7.85 -9.12 -10.57 -8.94 -6.95 -2.81
21.55 23.80 22.66 18.40 20.06 19.49 15.71 13.42 11.89 15.07 17.30 18.32 14.86 11.37 12.24 13.74 12.31 14.12 20.16 20.18 19.59 20.37 18.50 17.31 17.27 18.05 16.96 16.46 15.58 14.50 13.71 14.14 10.65 4.96 -1.17 1.21 -0.60 6.51 -1.15 -1.08 -3.01 -3.51 -3.34 1.04 6.76 2.24 1.68 -2.58 -6.04 -7.50 -8.58 -6.95 -8.22 -9.92
18.11 23.96 18.14 15.67 11.89 12.31 13.07 17.59 14.04 9.99 15.27 14.72 14.40 13.01 11.56 10.81 13.32 17.40 18.03 18.72 15.27 12.66 15.44 17.55 17.93 17.26 15.25 13.06 10.82 9.57 8.78 5.42 7.17 8.24 3.93 1.88 3.26 -1.57 -5.68 -4.60 -3.34 -2.82 -1.63 1.35 -1.18 -1.44 3.41 -5.23 -4.14 -9.91 -10.00 -11.76 -15.15 -18.91
23.37 22.76 18.92 16.89 14.58 13.23 13.24 8.27 6.56 10.16 12.24 7.50 6.57 6.99 6.99 8.10 10.92 13.80 13.66 15.35 19.05 19.12 18.72 17.94 17.80 16.12 13.65 12.45 10.82 9.54 7.68 7.01 4.16 7.32 8.58 7.23 3.46 0.31 -3.00 -4.23 -3.53 -0.85 -0.22 -1.06 -3.59 -9.48 -11.85 -14.92 -17.82 -18.73 -16.38 -19.27 -22.90 -25.08
20.34 17.83 14.75 11.64 10.34 11.59 15.02 12.26 10.08 6.49 6.94 4.57 3.57 1.55 2.76 4.08 2.65 9.47 16.08 16.29 17.07 15.35 15.95 16.79 13.39 9.86 12.08 10.36 7.71 6.85 8.28 3.16 5.03 5.02 3.63 2.52 -1.14 -5.31 -0.69 0.09 -0.91 0.73 -1.22 -3.33 -6.28 -12.02 -14.38 -14.20 -18.37 -21.99 -24.89 -26.34 -27.61 -27.98
15.05 12.12 8.67 8.83 8.27 9.76 12.50 10.21 11.32 10.98 9.36 1.57 -0.46 1.65 6.09 0.77 0.68 7.26 12.00 15.32 12.36 12.00 11.50 11.31 10.93 9.88 8.44 7.28 5.91 3.77 2.70 1.85 3.93 6.75 3.80 2.94 0.18 -0.04 -3.04 -3.19 -3.31 -3.27 -3.27 -6.93 -12.62 -15.15 -15.69 -18.21 -23.81 -25.62 -27.80 -28.70 -29.43 -30.15

GFSWCAN_sfc_wetblb_111.txt.gz
Wetbulb
44.54 44.58 44.19 44.50 44.53 44.38 44.71 44.78 44.64 44.38 44.52 44.31 43.79 43.69 44.16 44.86 44.76 40.01 36.59 36.97 33.16 28.14 29.46 35.10 35.61 31.37 30.06 27.99 22.93 27.42 25.39 27.19 25.58 21.75 23.22 22.98 23.78 28.01 28.82 30.65 29.66 25.61 25.34 22.85 24.90 20.00 16.55 30.01 30.83 25.46 30.04 33.44 31.70 30.60
43.72 44.11 44.06 44.32 44.25 44.22 44.44 44.24 44.14 43.93 44.14 43.96 43.95 43.51 44.06 44.20 44.13 41.26 34.14 37.70 36.42 30.26 29.89 34.46 35.28 36.51 35.30 33.55 30.07 29.61 28.65 30.15 29.41 23.81 24.32 24.72 24.55 27.55 27.92 25.49 33.75 24.64 27.23 24.70 25.38 23.14 30.84 33.62 31.68 33.76 33.85 31.25 33.80 30.90
43.72 43.72 43.75 43.68 44.04 44.16 44.22 44.13 43.71 43.81 44.03 43.81 43.21 42.71 43.62 44.04 44.72 41.19 35.05 34.67 33.01 27.08 28.64 31.10 32.93 37.55 38.28 36.87 37.22 29.05 30.60 34.27 30.43 30.34 24.39 23.46 23.22 28.67 25.38 27.02 29.16 31.58 33.22 26.07 25.21 28.96 29.46 31.10 31.03 32.84 33.46 28.98 28.98 33.32
43.80 43.84 43.83 44.10 44.01 43.84 43.79 43.75 43.63 43.58 43.79 43.83 43.22 42.69 43.36 43.75 43.37 40.73 35.68 35.73 34.69 30.71 24.16 30.42 38.59 36.29 39.79 38.65 37.52 36.73 35.27 35.69 33.86 31.17 27.02 22.36 23.27 31.94 28.72 32.14 27.86 29.95 31.28 28.24 26.69 29.08 28.74 29.41 29.90 29.95 29.67 29.17 27.35 27.32
43.88 43.71 43.60 43.65 43.76 43.51 43.59 43.25 43.32 43.67 43.92 43.67 43.00 42.59 42.76 43.06 42.02 38.13 36.44 36.55 37.84 31.34 25.98 27.33 33.71 37.56 39.37 38.85 37.82 37.16 35.77 33.08 29.75 27.67 23.83 23.40 28.33 29.47 31.75 31.11 28.11 31.48 29.45 26.81 20.99 29.45 29.23 27.22 30.32 29.67 27.67 26.92 26.84 25.16
43.81 43.61 43.40 43.43 43.36 43.36 43.22 43.34 43.31 43.48 43.85 43.65 43.14 42.64 42.36 42.04 39.48 33.13 26.33 36.94 39.69 36.80 26.93 22.57 31.80 33.96 37.23 37.58 36.55 35.13 34.77 32.10 30.21 28.57 26.08 27.08 30.98 29.73 26.08 25.75 31.70 33.19 32.33 32.97 30.20 30.77 27.52 29.38 30.61 29.22 26.62 25.95 25.44 24.59
43.47 43.31 43.40 43.60 43.47 43.37 43.36 43.18 43.24 43.31 43.52 43.64 43.55 42.66 42.41 41.70 37.44 32.38 29.01 39.20 42.00 37.58 28.17 22.94 25.69 33.71 39.88 35.90 33.28 33.61 36.78 32.11 30.66 28.48 27.36 27.72 28.92 31.86 27.05 24.88 31.86 32.60 32.20 31.62 31.81 31.72 28.69 26.11 25.06 27.19 26.59 25.84 25.71 23.80
43.00 43.14 43.25 43.47 43.30 43.30 43.12 42.87 43.17 43.02 43.41 43.40 42.92 42.13 41.96 40.87 38.77 35.93 40.94 43.14 41.28 32.78 30.42 21.05 27.32 32.87 36.68 31.60 28.75 31.47 29.19 29.08 29.04 27.35 28.03 27.74 29.60 28.84 23.15 31.35 32.79 33.41 33.76 33.31 31.02 30.72 27.29 25.87 25.52 24.47 24.75 23.59 21.73 20.79
43.37 43.31 43.13 43.24 43.07 42.98 42.85 42.59 42.58 42.89 42.93 43.03 42.40 41.22 36.10 32.64 32.40 34.44 43.30 42.28 39.93 32.17 22.48 22.35 21.64 25.33 33.61 31.34 30.04 29.77 29.37 21.17 29.05 22.52 26.20 28.52 27.05 22.85 26.72 29.80 30.93 31.89 30.85 29.38 29.67 28.87 27.67 25.68 23.54 23.33 22.84 21.78 20.00 18.95
43.26 43.09 42.94 42.53 42.57 42.61 42.19 42.45 42.74 42.81 43.07 40.93 35.61 28.66 21.26 30.36 39.65 41.40 35.27 29.47 31.15 33.26 33.33 24.44 26.29 24.15 30.46 25.15 23.65 28.67 25.19 23.20 22.84 27.08 28.97 28.10 25.41 28.97 27.46 27.66 28.21 26.94 28.42 29.70 25.04 23.55 23.23 22.04 21.69 21.17 20.10 19.86 18.86 16.47
43.02 43.04 42.90 42.77 42.65 42.44 42.41 42.72 42.71 42.39 39.30 32.28 26.16 29.93 34.29 40.13 33.41 30.55 27.87 26.72 25.78 25.79 29.53 27.68 26.87 26.82 31.87 24.46 24.13 25.72 21.38 23.49 21.81 26.12 24.50 19.97 22.09 22.79 25.97 25.49 25.93 26.17 25.62 24.87 25.30 26.23 25.72 23.82 21.96 20.60 19.58 19.21 18.00 16.63
43.26 43.22 43.00 42.78 42.74 42.53 42.38 42.55 41.85 35.79 32.74 33.02 35.66 36.58 37.86 32.82 30.12 26.54 24.82 27.26 26.45 22.84 25.96 25.05 26.39 28.90 31.30 31.58 24.69 26.40 24.05 21.54 18.02 29.07 26.27 14.18 18.34 22.70 24.15 24.55 24.33 23.48 23.53 22.89 23.67 22.93 22.97 22.74 21.89 20.29 18.64 16.68 14.67 13.70
42.73 43.13 42.88 42.55 42.51 42.50 42.50 42.15 40.55 40.86 39.38 35.51 33.89 30.91 31.06 28.44 22.36 19.63 15.22 18.82 20.64 23.10 23.83 24.55 26.63 28.39 29.25 31.09 29.08 27.94 18.08 15.74 28.72 20.69 17.31 15.86 22.07 23.93 24.03 22.92 21.24 21.60 21.69 21.19 20.56 20.97 20.26 18.95 18.64 16.85 11.49 6.60 5.66 4.45
42.30 42.72 42.57 42.43 42.18 42.12 42.13 41.73 41.45 38.09 33.27 26.13 21.21 22.72 23.90 21.51 23.38 18.74 19.98 20.01 24.29 22.77 24.64 25.37 27.37 30.23 23.91 21.75 19.29 14.89 19.57 26.42 17.68 10.72 18.42 19.04 21.05 23.46 22.89 22.57 20.09 14.30 13.38 13.57 11.00 10.77 10.40 10.56 4.45 3.25 3.17 1.81 2.94 4.27
42.12 42.48 42.47 41.86 42.14 42.09 41.63 41.04 39.45 34.62 30.94 22.53 23.41 14.12 23.04 23.77 26.55 30.06 30.74 29.04 30.27 24.04 26.67 25.64 25.37 25.86 19.93 22.19 27.37 26.74 24.73 17.67 16.47 15.24 13.86 16.28 21.64 21.22 19.66 18.48 14.68 12.55 8.37 8.19 5.33 7.07 2.25 2.87 6.38 5.00 2.46 1.61 4.90 -0.41
41.90 41.26 38.35 41.74 41.68 41.19 40.54 38.20 35.14 30.43 29.84 26.86 26.86 21.46 26.74 27.95 28.00 31.80 31.22 30.80 30.82 23.77 29.67 27.60 23.90 17.55 17.08 19.78 24.54 23.05 21.52 14.52 15.50 14.53 19.06 20.59 18.69 14.42 12.99 13.76 11.04 9.11 8.91 8.11 7.43 7.78 7.14 4.39 6.31 6.43 5.69 5.30 -0.29 -0.01
39.16 33.92 41.16 41.45 41.24 40.00 39.08 32.94 29.37 25.41 23.92 25.79 21.79 26.43 28.78 26.92 26.11 32.01 32.19 31.75 31.80 25.74 24.35 24.14 17.91 17.95 23.28 23.56 22.53 22.05 19.73 15.23 20.41 22.31 18.64 17.35 16.71 12.57 11.29 11.05 10.04 11.26 10.88 9.67 8.18 10.00 10.10 10.79 9.57 13.03 11.85 8.93 10.54 12.55
32.77 39.00 41.48 41.02 37.70 35.56 34.58 31.16 26.88 25.57 21.06 24.64 25.07 22.27 23.31 30.09 31.57 31.60 32.16 32.31 28.64 26.64 26.76 24.83 26.31 22.11 11.93 14.58 13.89 20.34 22.21 22.10 19.76 18.86 13.49 9.37 10.23 10.15 13.60 12.61 13.78 13.70 12.21 11.38 13.55 12.39 12.39 11.02 15.35 14.25 17.05 18.72 19.19 19.00
38.31 39.42 40.51 39.56 35.55 31.10 25.57 26.51 30.78 23.78 23.67 27.00 25.14 23.03 23.46 27.92 30.25 31.03 30.97 31.76 29.07 29.39 28.57 24.96 20.21 16.75 18.65 18.30 20.98 14.54 16.02 16.80 18.02 13.97 8.98 6.61 12.33 13.54 13.15 14.92 14.95 12.73 14.52 15.50 17.34 15.51 15.29 17.70 16.30 15.50 16.04 17.21 13.69 13.04
40.77 40.45 40.09 39.99 37.93 29.60 27.35 26.33 31.00 26.79 21.51 21.75 26.81 27.20 25.39 26.27 29.47 29.66 30.35 31.16 31.52 28.54 27.39 22.20 22.22 16.67 21.41 17.24 19.94 19.23 17.67 19.48 19.58 16.40 12.56 10.59 12.19 14.18 13.84 16.58 15.88 16.25 16.75 17.15 16.81 15.60 16.53 16.96 18.37 17.68 15.37 14.25 12.19 11.26
38.49 38.63 39.08 35.00 33.43 33.29 29.74 27.20 26.38 28.35 27.35 25.13 27.23 28.39 25.93 26.30 27.99 28.49 28.61 30.92 29.83 28.58 23.60 27.49 26.44 16.52 21.91 21.78 22.56 22.39 22.25 22.50 19.50 18.55 16.24 14.31 15.05 16.75 16.17 14.75 18.13 16.91 14.58 12.65 12.28 11.17 10.31 10.82 13.08 14.85 10.91 8.97 4.86 1.74
36.55 37.89 34.25 33.96 31.18 30.23 30.19 29.23 27.64 28.03 27.16 27.75 26.06 28.35 23.53 24.44 26.18 27.70 30.24 27.99 27.71 27.24 24.17 22.70 21.60 22.41 23.69 23.36 22.07 23.81 22.71 22.44 20.59 18.59 16.83 18.71 16.88 15.02 14.77 13.51 16.28 11.88 11.81 10.30 14.35 9.76 11.91 15.17 14.20 11.23 3.79 -0.14 0.36 1.24
36.42 34.42 31.82 31.41 28.12 25.98 26.03 29.15 25.15 27.81 22.94 25.03 27.34 24.91 24.66 25.23 24.44 30.17 25.24 26.61 23.86 22.62 23.02 23.61 26.20 27.45 25.07 25.88 25.47 24.80 24.84 22.90 19.92 18.32 17.82 16.42 15.71 12.96 13.17 12.66 13.66 11.63 10.47 12.14 13.67 12.29 9.75 7.20 4.81 -0.73 -2.28 -2.17 -0.96 -5.52
35.31 27.44 22.48 24.64 25.51 21.13 26.82 22.20 27.87 27.63 25.21 24.62 23.74 22.33 23.25 23.40 27.20 23.19 18.27 19.34 19.90 20.04 22.24 24.87 24.69 22.21 22.79 24.05 20.10 20.16 21.81 22.17 19.53 17.74 17.77 18.19 15.66 13.02 14.88 13.73 14.31 14.21 14.98 15.00 13.43 7.69 4.34 -2.62 -1.05 1.03 -6.85 -9.51 -13.68 -12.23
21.20 20.00 18.60 10.39 22.75 21.98 16.48 17.96 19.92 18.14 12.50 19.05 18.64 16.78 21.40 21.58 20.92 18.75 15.87 16.29 11.81 11.97 16.75 22.96 22.95 22.34 18.94 14.67 16.49 17.71 22.42 22.47 19.77 16.77 14.98 18.07 15.37 15.42 14.46 14.02 12.81 12.53 11.63 6.55 -1.04 -3.17 -6.61 -9.87 -9.89 -8.99 -8.07 -12.59 -3.27 -7.69
12.55 12.67 20.32 16.11 14.15 18.27 17.52 11.47 9.50 10.34 11.69 16.93 12.91 16.48 15.78 14.59 13.50 14.73 17.03 13.77 8.57 10.83 10.36 18.52 16.87 18.21 19.24 19.82 18.25 17.04 16.61 20.61 20.41 15.07 14.21 17.96 17.30 14.84 11.10 8.51 5.55 5.65 6.47 2.20 -0.86 -6.61 -6.79 -9.69 -9.32 -6.79 -8.78 -6.97 -7.87 -12.04
12.58 10.22 20.84 25.42 24.72 24.46 15.06 14.91 21.12 14.43 9.24 10.03 17.83 10.64 12.29 8.22 7.52 12.54 13.73 21.94 20.79 17.08 22.74 25.16 24.02 22.24 19.35 16.91 16.77 15.87 16.39 16.83 16.65 14.51 13.32 12.84 12.13 12.32 11.04 8.14 4.58 5.43 6.23 2.02 -1.96 -4.35 -5.71 -8.78 -8.96 -9.51 -10.77 -15.13 -12.95 -13.68
20.72 21.22 15.44 14.26 16.78 21.20 13.16 9.77 8.23 11.82 11.39 18.42 16.48 10.93 11.00 11.81 11.60 9.33 13.94 16.16 22.93 21.27 21.04 21.07 22.22 20.91 18.62 16.60 15.20 13.60 12.44 11.86 11.41 11.32 11.53 10.70 8.46 5.86 4.74 5.67 7.15 8.12 -0.77 -3.76 -4.88 -10.24 -8.99 -6.12 -7.34 -11.14 -12.23 -11.86 -11.32 -12.41
19.15 22.65 23.78 19.14 18.27 15.93 15.94 14.33 10.72 13.10 16.83 16.16 10.49 7.78 6.46 11.06 8.63 8.60 11.85 17.15 21.92 21.26 16.91 15.61 14.47 15.59 13.92 13.52 13.19 14.27 13.59 13.87 11.40 6.73 2.10 -0.44 -1.71 2.31 -4.43 -1.62 -1.42 -5.52 -7.33 -3.35 4.63 -0.33 -0.73 -2.88 -7.73 -7.04 -14.40 -14.40 -20.38 -23.47
16.70 21.15 17.96 17.11 17.41 16.84 14.47 14.06 10.42 7.84 13.96 12.53 12.83 11.51 9.57 6.79 8.33 12.61 14.61 14.42 13.78 9.77 11.13 15.62 16.43 15.95 13.73 12.31 11.11 10.98 9.27 7.96 7.48 7.90 4.15 0.51 1.82 -1.22 -6.61 -2.15 -4.97 -9.14 -8.62 -5.82 -6.16 -2.26 4.05 -5.66 -7.19 -16.15 -18.12 -20.26 -25.12 -26.73
21.78 19.59 12.85 14.82 13.20 15.89 17.38 16.48 14.55 13.26 10.24 7.79 5.53 6.30 6.04 5.41 10.00 11.31 11.15 10.46 14.95 16.43 15.54 14.74 14.21 13.98 13.15 12.99 12.95 11.98 9.10 6.27 3.88 5.45 6.61 6.42 4.26 -1.64 -5.15 -7.69 -10.41 -9.52 -6.88 -5.28 -4.60 -7.56 -11.34 -17.30 -23.83 -24.55 -23.28 -25.64 -28.72 -31.26
18.15 18.19 15.41 12.37 12.79 15.90 17.91 16.47 15.03 14.27 11.95 6.27 1.73 0.64 4.62 6.00 4.19 7.80 11.82 11.10 11.47 12.69 11.19 12.84 11.91 9.27 12.78 10.59 8.67 9.36 9.63 5.23 6.92 6.07 4.72 2.97 -2.81 -6.06 -4.85 -6.49 -8.50 -4.62 -3.60 -4.28 -6.39 -11.56 -15.51 -18.39 -26.00 -28.90 -29.63 -29.99 -31.08 -31.99
12.68 14.41 13.64 13.09 12.97 13.30 15.16 15.51 14.88 11.24 7.83 3.12 -0.46 -0.88 1.95 4.93 4.53 6.14 7.66 11.53 9.11 5.89 7.35 9.20 8.83 8.99 7.53 7.46 6.63 5.23 5.08 4.14 4.69 6.01 2.69 0.25 -2.56 -2.60 -7.64 -8.33 -5.52 -4.03 -5.54 -10.05 -14.12 -16.53 -19.17 -23.13 -28.18 -30.17 -31.44 -31.62 -32.53 -33.62

GFSWCAN_sfc_wetblb_114.txt.gz
Wetbulb
44.62 44.72 43.91 44.12 44.00 44.50 44.59 44.57 44.30 43.77 43.87 44.50 45.14 45.65 45.42 44.80 43.64 39.50 36.74 37.37 34.53 29.69 29.97 34.93 34.94 30.56 29.28 26.87 21.39 26.14 24.64 26.32 24.84 20.75 22.88 22.43 22.85 25.78 24.59 30.07 29.14 24.27 24.05 22.87 25.60 21.10 18.53 31.06 31.43 25.33 29.93 31.28 30.30 28.55
44.21 44.05 43.53 43.89 44.09 44.30 44.33 44.17 44.34 44.02 43.91 44.41 45.02 45.19 45.16 44.37 43.60 40.81 35.46 37.47 36.72 32.45 31.21 34.57 34.94 35.54 34.04 31.72 29.09 28.74 27.74 29.53 28.55 23.08 23.94 24.25 23.18 24.79 27.22 25.10 32.60 24.82 26.82 24.72 24.58 22.84 30.36 32.21 30.70 32.34 31.39 32.84 30.85 29.84
44.04 43.61 43.34 43.18 43.91 44.04 43.90 43.84 43.84 44.08 44.11 44.19 44.74 44.80 44.95 44.78 43.63 40.52 35.45 34.74 33.37 30.05 30.78 32.36 33.38 36.64 37.25 36.23 35.84 28.94 29.64 32.90 29.59 28.95 23.82 22.91 22.04 27.36 24.64 26.79 28.55 31.42 32.72 26.39 26.18 28.32 29.25 30.12 30.59 32.04 29.99 28.45 30.82 32.15
43.08 43.34 43.47 43.45 43.55 43.93 43.58 43.61 43.66 43.61 43.43 43.72 44.36 44.65 44.31 43.94 43.43 40.84 35.97 35.68 34.05 30.62 27.67 30.95 37.69 34.89 38.24 37.12 36.26 35.48 34.75 34.18 32.32 29.79 26.39 21.77 23.58 29.44 27.36 30.20 27.59 29.89 31.20 28.10 26.33 28.30 28.89 29.29 29.13 29.21 28.04 27.81 25.93 25.80
43.24 43.24 43.07 43.44 43.23 43.65 43.30 43.37 43.21 43.37 43.08 43.27 43.93 43.82 43.72 43.39 42.38 39.53 37.31 36.74 37.40 32.34 26.66 28.40 33.08 35.96 38.18 37.17 36.82 36.26 34.81 31.60 28.88 27.08 23.42 23.00 27.45 27.87 31.21 29.18 27.77 31.63 29.05 27.24 24.78 29.58 28.40 28.09 29.48 30.31 27.35 25.57 25.38 23.84
43.17 43.21 43.50 43.23 42.80 43.11 42.96 43.11 42.99 43.30 43.07 43.01 42.85 43.04 42.72 41.29 38.30 32.90 27.66 35.34 39.56 35.70 28.92 24.46 31.26 33.64 35.61 36.92 35.90 34.68 33.63 30.65 29.39 27.89 25.78 26.50 29.45 28.72 24.46 24.87 31.09 32.06 32.26 33.06 30.30 30.48 28.32 29.55 28.43 27.78 24.90 24.36 24.58 23.39
42.78 42.74 42.89 42.92 43.08 43.07 42.84 42.88 42.97 43.28 43.37 43.02 42.37 42.28 42.48 42.25 38.30 32.41 29.25 35.62 41.13 36.58 27.49 24.44 26.76 33.35 37.76 35.66 33.31 32.99 34.87 30.09 29.52 27.66 26.83 27.20 28.42 30.01 26.69 23.62 30.81 31.40 30.95 30.89 31.57 30.26 26.79 26.57 24.47 26.06 25.15 24.36 24.15 21.93
43.07 42.88 42.79 42.86 42.84 42.88 42.89 43.01 43.33 43.48 43.42 42.43 42.18 42.09 42.05 42.61 40.19 37.82 40.88 42.63 38.36 31.93 30.23 22.80 27.60 31.72 37.19 31.55 29.82 30.06 29.14 28.59 28.48 26.59 27.22 27.04 29.10 30.52 23.36 31.09 32.08 32.18 31.96 32.16 29.63 30.11 26.19 25.20 24.60 23.15 23.22 22.47 21.04 19.99
42.31 42.76 42.75 42.63 42.85 42.85 42.59 42.74 43.07 43.22 42.81 41.90 41.18 39.61 35.24 32.86 31.83 37.00 42.63 40.82 37.09 31.56 24.14 21.28 23.37 24.66 34.82 31.05 29.24 28.98 28.58 20.90 28.19 21.82 25.64 27.42 24.37 22.83 27.41 31.41 31.61 32.92 29.63 28.10 28.10 26.80 25.80 24.56 22.63 22.81 22.16 21.28 19.60 18.66
42.79 42.74 42.69 42.58 42.39 42.39 42.47 42.66 42.84 43.09 41.98 39.57 34.42 29.25 22.35 32.41 39.69 39.18 33.62 29.14 28.70 30.08 29.65 22.55 25.52 27.90 29.48 26.75 23.12 25.01 24.32 22.64 21.49 26.92 28.62 27.78 24.32 27.36 27.04 26.26 26.14 27.13 28.11 27.66 24.39 23.19 23.47 22.41 21.88 20.96 19.83 19.58 18.52 15.83
42.94 42.81 42.63 42.38 42.24 42.24 42.52 42.59 42.85 40.65 38.66 32.07 28.14 29.65 34.57 40.08 33.27 29.95 21.50 21.92 25.12 22.99 26.32 25.90 26.56 27.67 31.03 24.13 23.76 24.67 20.49 22.96 21.07 25.53 24.92 20.03 22.30 25.63 25.62 25.47 25.70 26.36 26.67 25.68 26.33 26.86 27.14 24.73 21.90 19.83 18.97 18.39 17.07 15.61
42.87 42.74 41.92 42.25 42.45 42.64 42.37 42.39 40.01 35.07 32.59 32.89 34.57 37.85 35.85 32.07 28.39 23.94 24.45 26.66 24.62 22.40 25.51 24.26 25.65 28.41 33.47 30.89 23.96 27.48 22.32 22.12 17.15 29.55 25.67 13.79 17.34 23.14 24.17 25.11 24.92 24.60 23.74 23.18 23.75 22.86 23.23 23.12 21.86 19.80 17.99 16.13 13.86 12.88
42.88 42.93 42.51 42.38 42.42 42.64 42.30 40.61 40.54 40.87 38.30 34.18 32.32 27.45 27.07 24.98 19.45 20.61 15.90 20.18 20.89 21.75 22.46 23.74 26.20 27.58 29.82 32.05 26.62 28.40 18.91 14.74 28.44 19.71 16.23 16.85 20.57 23.06 23.30 23.49 22.07 21.90 22.19 21.80 20.93 20.89 20.05 18.68 18.11 16.31 11.08 6.04 5.60 3.91
42.49 42.57 42.45 42.34 42.18 42.17 41.64 41.67 40.56 37.61 32.67 25.69 20.88 18.67 20.07 20.31 23.34 17.95 18.60 18.84 21.98 21.80 23.82 24.19 26.59 29.57 23.89 24.27 13.22 13.75 17.97 27.57 20.86 11.36 17.68 14.85 19.94 21.36 22.75 22.41 19.39 13.58 14.08 14.25 11.64 11.04 10.42 10.00 4.29 2.43 2.39 -0.03 1.68 2.92
42.69 42.31 42.20 41.92 41.93 41.76 41.04 40.00 38.41 34.29 27.22 24.96 22.59 18.91 22.37 23.95 26.67 26.46 25.68 28.64 30.11 22.75 24.70 24.94 24.55 25.01 18.56 19.94 25.54 24.91 24.29 16.10 15.54 14.38 14.17 13.29 20.87 21.41 20.47 19.47 16.00 13.38 9.17 8.13 5.31 7.34 4.86 4.30 7.85 3.32 0.42 0.12 2.91 -2.24
41.89 41.00 38.79 41.73 41.55 41.07 39.78 37.14 33.40 30.03 27.47 25.38 26.39 20.14 25.61 26.73 26.72 31.31 31.19 29.92 30.20 23.02 29.37 27.86 22.63 16.32 15.75 17.95 17.90 17.97 21.51 12.87 14.58 12.60 15.70 16.20 18.16 16.99 16.08 14.88 12.02 9.53 8.66 7.33 6.98 7.33 6.85 5.49 6.33 5.78 3.93 3.86 -1.24 -0.26
38.56 33.98 41.44 41.00 40.25 39.48 38.92 31.76 27.85 26.06 23.91 23.62 20.68 24.35 27.25 26.75 25.08 30.65 31.96 31.69 30.04 30.93 20.91 23.13 16.97 16.75 22.29 16.56 17.04 21.01 21.15 14.27 17.81 22.21 19.42 14.76 18.50 14.44 11.77 10.66 9.08 9.92 9.75 9.07 7.58 8.86 7.96 9.11 8.25 12.25 11.30 8.29 9.64 12.37
34.46 39.61 41.18 39.84 36.78 35.39 32.12 30.14 25.82 24.79 19.54 23.31 23.44 21.75 22.35 28.56 30.42 31.18 31.93 32.10 31.50 29.97 26.32 24.10 25.40 18.94 10.95 13.79 12.15 13.09 23.85 22.19 21.54 19.76 11.87 9.63 10.89 9.49 12.82 10.38 10.11 11.38 10.54 9.46 11.19 10.25 10.73 10.66 14.27 12.17 15.65 17.06 17.80 18.07
38.24 39.24 40.36 38.97 34.24 29.17 24.60 27.34 27.37 19.66 19.93 23.60 26.18 25.43 27.44 26.89 30.07 30.78 31.51 32.35 30.85 29.10 27.71 23.31 18.31 15.69 14.88 14.78 16.31 12.37 18.85 19.81 18.81 12.55 8.87 6.19 10.31 12.81 12.18 12.83 12.29 10.71 11.78 12.25 15.72 14.04 13.79 15.94 14.41 13.55 14.44 15.10 12.55 11.29
40.79 40.33 39.89 39.52 36.63 28.56 27.03 25.61 30.55 26.14 20.44 20.67 26.32 25.83 22.48 21.71 25.66 25.26 27.75 30.81 30.87 28.14 25.53 20.07 17.65 15.91 17.76 16.85 18.46 17.90 15.61 17.25 17.89 14.29 11.44 9.25 10.88 13.67 13.31 15.51 14.62 14.16 14.31 15.32 15.03 14.38 15.39 15.47 16.42 16.23 13.61 11.72 9.19 9.58
38.11 37.82 37.77 34.34 31.25 31.94 27.78 26.10 25.31 26.97 26.35 24.95 26.37 26.37 21.46 24.30 22.43 22.39 26.63 30.72 29.65 28.39 24.25 24.22 17.59 16.62 24.98 23.71 21.46 20.25 21.02 21.72 17.94 18.47 15.53 11.94 10.53 15.41 14.85 14.34 16.46 15.18 12.90 10.82 10.42 9.86 9.30 9.19 10.65 12.11 5.75 4.30 2.53 0.46
36.06 37.19 32.55 32.73 27.03 29.52 28.03 27.65 27.13 27.65 25.64 25.97 26.51 26.93 19.55 15.17 21.76 27.17 29.86 27.29 27.50 27.87 22.24 21.40 21.76 23.68 22.61 22.39 20.80 22.55 21.49 21.48 19.54 17.11 15.92 17.06 15.10 14.05 13.55 12.13 14.75 9.12 9.21 7.52 10.88 7.89 10.92 14.16 12.33 9.10 2.15 -2.85 -0.93 -0.60
36.17 32.94 28.61 29.45 20.70 18.45 22.55 28.73 23.13 26.93 20.04 22.51 26.08 22.05 18.93 21.06 23.54 29.52 23.90 27.36 23.91 20.48 20.87 23.45 25.98 27.27 24.13 24.68 23.98 23.65 23.72 21.81 18.64 17.12 16.76 15.69 14.91 13.13 13.02 11.54 12.32 9.73 9.06 10.50 11.85 10.59 9.01 6.51 3.85 -0.41 -2.53 -2.11 -1.55 -7.94
34.49 23.99 18.11 19.03 20.36 17.83 27.50 21.40 27.75 27.25 25.90 24.11 21.08 18.12 19.03 22.60 26.26 21.40 17.25 18.38 18.25 18.91 22.26 24.92 24.45 22.50 22.10 23.03 18.73 18.87 20.05 20.16 17.72 16.47 16.50 17.36 15.03 11.83 14.14 12.92 12.03 11.47 13.01 14.36 12.73 8.06 4.59 -1.76 -1.66 0.81 -6.87 -11.55 -15.90 -13.54
18.04 15.76 15.71 8.74 21.20 18.78 14.54 14.03 17.14 21.34 18.19 18.32 15.65 14.53 18.67 22.01 14.69 12.36 15.09 14.48 12.60 10.69 14.01 21.04 21.80 21.06 18.22 13.97 14.90 16.50 21.00 20.46 18.26 16.24 13.82 16.71 14.16 14.40 13.53 13.33 12.23 11.67 11.49 8.04 0.05 -2.30 -5.75 -5.79 -9.20 -9.92 -9.92 -13.54 -4.54 -9.37
9.22 13.47 13.09 12.23 12.80 17.96 16.86 11.81 9.66 13.93 13.80 16.76 14.40 17.08 16.30 14.53 15.04 12.95 15.53 15.34 10.36 8.84 7.47 13.76 16.04 17.20 17.90 18.64 16.94 15.86 15.63 19.33 19.79 14.94 13.73 16.90 17.07 15.67 11.96 9.63 9.30 8.23 7.29 3.67 2.15 -1.03 -3.25 -9.74 -11.00 -8.65 -11.37 -10.10 -11.00 -13.91
11.40 9.70 19.70 23.85 23.67 23.83 17.36 18.69 19.24 13.26 10.93 10.79 20.53 15.24 11.55 6.93 4.57 11.61 18.01 21.57 21.70 22.32 21.25 23.41 24.73 21.24 18.85 16.92 16.27 15.36 15.13 15.25 15.81 14.39 12.68 12.37 12.31 13.32 12.90 10.52 7.87 8.59 6.42 3.47 0.74 -0.88 -4.20 -10.46 -12.64 -13.36 -14.81 -16.08 -17.17 -18.07
18.60 15.85 11.53 14.23 20.60 20.86 9.48 9.83 10.06 8.93 10.56 16.06 14.51 9.75 8.32 10.17 11.42 8.80 11.01 14.58 22.32 20.16 17.67 18.10 19.62 19.50 17.58 15.01 13.84 12.18 11.10 11.52 11.44 11.56 11.70 10.28 7.87 6.39 7.29 8.23 8.66 8.40 0.81 -1.34 -3.44 -5.00 -5.50 -7.95 -12.27 -16.08 -15.72 -16.26 -20.43 -23.88
15.75 19.50 18.59 13.27 13.89 14.23 13.61 13.77 12.83 12.30 15.56 15.04 10.99 9.15 7.72 10.69 5.85 6.90 9.63 16.21 21.75 21.34 14.51 12.65 11.18 13.05 12.35 11.98 12.82 13.51 13.19 13.78 12.32 8.72 3.99 0.65 1.56 5.33 2.15 3.47 1.57 -0.53 -1.96 -0.37 4.95 -0.50 -4.50 -9.03 -10.84 -12.48 -17.57 -19.91 -27.32 -32.22
19.42 23.76 19.46 17.98 18.66 18.05 15.89 16.32 9.23 5.28 11.35 10.52 11.76 10.45 8.64 5.31 4.68 9.87 13.08 13.27 18.22 18.44 15.53 9.82 12.07 8.84 10.76 10.86 10.03 9.89 9.00 6.85 7.23 9.85 6.97 3.91 5.97 4.84 0.27 1.14 -1.48 -7.74 -6.11 1.22 1.44 2.09 -0.49 -11.95 -11.59 -21.06 -24.28 -25.54 -29.68 -30.40
21.05 18.84 15.87 16.08 15.50 14.71 14.03 11.14 9.33 9.53 6.22 5.66 2.87 6.62 7.05 6.57 8.34 8.41 9.00 7.52 7.20 9.03 12.58 9.31 9.78 11.52 12.77 12.59 12.15 11.20 8.71 6.61 5.25 5.98 7.38 7.80 5.91 1.99 -1.00 -2.24 -8.47 -7.07 -4.48 -4.70 -6.98 -11.80 -18.44 -24.06 -27.86 -27.86 -26.42 -28.77 -32.58 -34.03
15.71 14.38 12.11 9.24 10.47 15.82 16.61 13.56 10.17 8.55 5.90 0.92 0.53 -0.70 2.10 3.54 5.79 5.78 7.13 5.90 8.55 5.41 3.98 6.51 11.01 8.01 11.67 11.80 9.85 8.32 8.36 6.16 5.58 6.42 6.29 4.77 1.07 -2.09 -3.37 -5.13 -6.05 -4.03 -5.44 -7.55 -9.71 -13.82 -15.16 -20.85 -28.59 -31.31 -32.03 -32.40 -33.85 -34.39
9.59 9.23 10.09 8.84 8.55 9.96 13.54 15.67 14.37 7.67 1.61 -1.03 -1.76 -2.55 -0.52 6.55 6.17 1.77 2.24 6.74 6.38 9.14 8.65 6.95 8.09 7.69 7.65 7.42 6.05 4.85 4.39 3.97 4.73 6.34 3.14 0.94 -2.44 -3.39 -6.05 -6.08 -4.79 -5.89 -8.06 -10.31 -14.42 -17.35 -20.55 -25.36 -30.77 -32.40 -33.85 -33.67 -34.21 -35.30

GFSWCAN_sfc_wetblb_117.txt.gz
Wetbulb
43.82 43.36 43.28 43.50 43.61 43.13 42.71 42.50 42.75 44.05 45.00 45.02 45.72 45.95 45.46 44.46 43.40 39.52 36.93 37.99 36.91 32.45 33.39 36.07 35.99 31.73 30.79 29.70 26.59 29.20 29.09 30.18 28.57 25.26 25.65 25.39 26.23 27.65 27.63 29.96 28.75 24.93 24.21 23.71 25.34 22.59 19.81 30.75 32.45 26.88 28.95 31.52 29.88 29.70
43.77 43.74 43.30 44.01 43.06 42.62 42.58 43.43 44.33 45.19 45.31 45.52 45.54 45.16 45.01 44.37 43.59 41.06 35.99 37.65 38.36 35.11 34.12 36.08 36.55 36.89 35.90 33.85 32.26 31.08 30.39 31.37 30.83 27.13 27.73 27.85 26.57 28.43 27.86 25.66 32.25 25.49 27.74 25.01 24.85 23.53 30.18 32.83 30.41 32.26 34.55 31.39 30.90 29.84
43.45 43.69 43.50 43.31 43.30 43.73 43.70 43.98 44.39 45.10 45.02 45.23 45.47 45.41 44.96 44.39 43.36 40.07 35.87 35.74 37.37 35.23 34.53 34.99 34.03 37.71 39.28 38.23 38.96 32.56 32.82 34.44 32.65 32.92 30.57 29.63 26.38 30.12 26.79 27.06 29.33 30.91 32.93 27.13 27.12 28.79 29.15 30.30 31.80 30.35 31.02 30.53 32.07 30.44
43.21 43.31 43.64 43.01 42.03 42.61 43.15 43.69 44.19 44.71 44.98 45.05 44.91 44.73 44.54 43.81 43.33 40.89 36.72 37.34 36.62 35.03 30.61 32.08 38.62 36.67 39.19 39.69 38.79 37.97 36.55 35.50 34.60 33.59 30.95 29.68 28.52 32.13 30.11 30.06 28.66 30.66 32.05 28.15 26.64 28.23 28.62 29.25 29.85 29.42 28.48 28.83 27.57 27.33
43.23 42.91 43.29 42.97 43.21 43.31 43.45 43.47 43.67 44.36 44.65 44.77 44.76 44.41 44.24 43.46 42.89 40.67 39.19 39.19 38.63 35.89 30.28 31.10 35.38 37.22 38.44 39.42 38.13 38.17 36.65 34.26 33.02 31.30 30.67 28.92 31.18 31.84 32.46 31.42 27.96 32.01 29.52 28.00 26.17 30.23 29.44 28.29 30.34 30.18 27.75 26.39 26.50 25.64
43.01 43.06 42.69 42.57 43.16 42.85 42.94 42.92 43.35 43.92 44.07 44.13 43.76 42.49 41.53 40.56 37.80 35.44 32.48 37.22 40.13 37.23 33.25 28.03 33.40 36.23 37.37 38.02 37.34 36.31 35.62 33.49 33.08 31.93 30.49 30.80 31.87 32.37 28.37 25.46 30.87 31.94 33.00 33.90 30.83 31.33 30.47 30.04 28.95 28.55 26.36 25.49 25.01 23.92
43.35 42.91 42.60 42.23 43.04 42.95 43.07 43.04 42.90 43.32 43.45 43.07 43.38 44.18 43.68 43.39 40.56 34.27 31.95 36.88 41.14 38.15 32.23 28.80 31.27 35.66 37.68 36.29 35.44 35.05 35.45 33.34 33.39 31.44 30.76 31.10 32.09 33.67 30.01 25.21 30.62 31.50 32.39 31.25 31.70 30.97 28.14 28.10 25.97 26.87 26.23 24.99 24.47 22.83
42.81 42.22 42.46 42.81 42.71 42.88 42.79 43.08 43.12 42.97 43.39 43.83 44.16 43.22 42.70 42.71 40.97 38.18 41.12 42.17 38.68 33.75 32.86 27.72 29.20 33.47 37.85 32.49 32.10 32.85 32.04 32.18 31.31 30.56 30.96 30.69 32.58 32.48 26.42 30.78 30.85 31.22 31.90 31.83 31.24 31.82 29.66 27.33 26.27 25.04 24.86 24.24 22.42 21.40
42.46 42.63 42.56 42.64 42.73 42.75 42.85 43.06 42.85 43.04 42.44 41.43 40.34 39.12 36.67 35.09 36.23 37.83 42.43 39.98 38.17 34.24 27.32 26.72 26.95 26.33 35.90 32.09 32.33 32.05 31.49 27.75 31.10 29.31 29.41 31.33 28.13 26.16 29.98 31.19 31.08 32.01 30.78 27.58 27.43 27.23 26.98 25.86 24.14 23.91 23.68 22.73 21.70 20.47
42.26 42.42 42.41 42.45 42.47 42.73 43.02 42.74 42.55 41.31 39.86 39.65 35.85 30.11 28.37 35.06 40.80 38.31 34.28 30.15 30.80 31.58 31.08 26.94 28.63 29.05 32.59 29.72 28.76 29.30 28.70 27.31 26.18 29.78 31.84 29.41 26.85 27.81 27.77 30.51 31.89 31.83 30.22 28.97 25.65 24.08 24.78 23.77 23.84 23.26 22.50 21.98 20.84 19.19
42.65 42.60 42.53 42.48 42.54 42.44 42.61 42.70 40.67 39.75 38.10 32.91 29.81 29.19 35.88 40.11 34.54 31.10 25.51 25.94 26.76 25.48 28.23 27.83 29.72 30.50 33.23 29.03 28.27 28.29 26.48 27.14 23.73 28.22 27.65 24.78 25.19 27.05 27.66 27.19 28.57 29.55 29.66 28.97 29.36 29.52 28.68 27.21 24.07 21.54 20.17 19.47 18.70 17.49
42.81 42.61 42.44 42.43 42.46 42.57 42.00 40.22 39.69 35.95 33.51 33.98 35.90 38.14 35.58 31.29 28.04 24.67 24.16 26.30 25.12 23.64 27.13 26.91 28.67 32.45 34.17 32.90 29.26 28.52 26.35 25.95 22.32 30.31 27.46 22.29 24.90 26.36 26.82 26.61 26.90 27.34 26.93 26.00 26.99 25.96 25.83 25.04 23.80 21.71 20.03 18.43 17.18 15.62
42.04 42.31 42.61 42.46 42.26 41.50 40.75 41.32 41.01 40.39 36.60 34.77 31.49 28.87 27.81 26.50 18.60 17.16 17.03 21.23 22.43 25.54 26.95 28.95 27.84 32.39 32.91 33.69 29.79 29.58 23.47 22.27 29.88 25.05 23.12 25.01 23.75 26.10 25.84 25.35 24.19 24.93 24.74 24.16 23.33 22.94 22.22 21.01 20.64 19.00 14.93 13.39 12.26 9.91
41.34 42.13 42.45 42.36 41.94 41.77 41.66 40.52 39.91 37.20 32.64 26.84 22.93 19.65 19.27 20.42 21.51 20.98 22.67 23.29 25.43 25.96 27.50 29.81 27.97 29.81 28.54 27.77 23.80 21.97 24.32 27.85 22.17 18.61 21.90 24.68 23.25 24.02 24.12 23.57 21.76 19.19 18.57 18.69 17.65 16.91 14.98 13.83 11.07 10.82 10.64 9.79 10.13 11.03
42.12 42.06 42.27 41.56 41.71 41.33 40.18 39.11 38.16 34.52 29.20 25.15 24.36 20.74 22.20 25.63 27.86 28.29 25.86 29.25 29.74 26.93 28.69 28.59 27.95 28.15 23.83 23.33 25.00 25.92 24.34 19.59 20.93 21.71 24.53 22.56 23.37 23.04 22.00 21.39 18.73 17.09 14.70 13.60 13.97 12.82 10.44 10.08 12.26 10.08 8.41 9.71 10.92 7.29
41.46 40.88 39.50 41.54 40.86 40.20 38.66 36.47 33.28 31.39 28.25 27.39 25.80 23.52 25.03 25.99 28.10 30.27 29.61 29.72 30.57 27.97 28.98 29.73 24.57 21.71 21.54 22.43 21.82 19.53 21.26 18.32 22.92 23.63 23.36 20.66 21.68 20.34 19.64 19.08 17.67 15.35 14.98 13.15 13.13 12.85 11.91 11.15 13.04 14.64 11.14 11.51 8.67 10.32
39.44 37.00 40.95 40.29 39.91 39.24 38.47 32.00 29.89 26.95 25.16 25.21 23.36 25.35 27.76 26.99 26.21 29.67 32.27 31.33 28.16 30.81 25.27 25.97 20.37 20.33 24.36 21.17 20.77 23.61 22.25 24.20 23.47 24.18 23.07 20.77 21.59 19.67 17.25 15.22 13.28 13.60 13.61 13.51 12.77 13.99 13.69 13.87 13.65 15.84 16.30 16.93 14.35 16.06
36.62 39.49 40.34 39.47 36.38 34.90 32.09 30.22 27.70 25.66 21.42 23.74 23.08 23.62 24.82 28.19 30.24 31.43 31.79 32.48 32.06 30.39 28.79 26.84 27.11 22.03 18.50 18.65 20.85 22.67 25.03 23.98 22.70 22.90 19.89 17.73 18.11 16.38 17.65 16.10 13.87 15.07 14.34 13.46 14.83 14.78 14.90 14.59 17.45 18.89 19.06 19.77 20.40 20.26
38.44 38.26 39.81 38.75 34.71 30.12 27.09 27.85 28.41 21.99 22.24 25.72 26.14 27.01 27.33 29.25 31.04 31.49 31.96 32.45 31.38 30.65 29.62 26.93 23.43 22.92 23.11 22.08 23.94 21.95 24.56 24.65 21.81 18.18 15.31 12.77 16.58 16.21 15.13 15.12 14.54 14.76 15.01 15.54 17.28 18.29 18.82 19.41 20.32 20.38 20.59 20.10 20.23 19.69
40.40 39.52 39.02 38.82 35.96 29.38 26.89 26.11 30.97 25.73 22.39 24.08 27.51 26.72 25.53 26.20 27.17 24.55 29.18 32.64 32.73 29.95 26.79 25.15 25.42 24.49 25.42 25.49 24.52 24.95 22.89 21.52 19.68 18.44 16.43 15.32 16.16 16.26 16.75 17.15 17.46 17.17 16.95 17.83 19.21 17.39 19.34 19.91 20.88 21.14 20.62 19.17 19.25 19.00
37.17 36.31 36.61 33.52 31.24 30.40 27.64 26.27 24.99 26.81 26.68 25.15 27.05 26.72 23.53 25.54 24.95 24.75 26.10 29.81 28.00 27.94 27.54 25.61 24.90 23.21 25.22 26.07 25.79 23.25 22.45 23.27 22.31 23.37 20.64 15.72 16.16 18.73 18.75 19.26 18.90 18.90 18.77 18.76 19.38 18.55 16.86 20.57 18.89 18.34 18.09 16.63 14.40 14.52
35.05 36.01 30.37 31.25 28.14 28.96 28.35 29.13 27.36 28.32 26.79 26.54 27.38 27.11 21.24 17.91 18.88 22.97 28.80 26.43 26.79 27.50 27.22 26.22 25.75 26.69 25.09 24.58 23.99 24.04 23.40 22.65 20.78 18.70 17.33 17.33 17.04 18.03 18.46 18.80 19.13 18.19 19.12 19.18 19.68 19.64 19.70 18.79 17.38 16.15 15.53 11.99 10.31 11.22
35.08 31.91 28.58 27.90 19.75 17.05 21.14 30.36 23.21 26.81 18.93 22.62 25.62 21.55 19.65 19.75 24.02 28.82 22.23 27.85 26.20 22.81 23.85 25.73 27.26 27.44 24.89 24.67 24.46 24.06 24.05 22.44 20.16 19.32 19.05 19.23 19.26 19.54 19.22 19.39 20.21 18.85 18.63 18.43 18.45 18.27 17.58 13.05 10.40 11.67 10.24 10.33 10.69 9.36
33.02 24.13 17.61 16.96 19.02 13.96 24.51 23.17 27.78 26.37 24.62 23.26 21.31 19.02 21.65 23.81 25.96 23.13 20.25 22.30 20.96 21.14 23.79 25.37 25.28 23.80 23.67 23.35 21.61 21.68 21.54 21.11 19.11 18.67 19.52 19.26 18.11 17.85 19.71 19.34 19.05 19.19 20.04 17.55 17.00 14.30 12.07 10.24 7.99 9.64 8.07 6.75 4.79 5.80
20.00 14.82 14.76 6.97 20.63 14.56 16.24 17.89 16.44 20.83 16.53 18.18 18.52 18.05 20.53 21.92 15.69 15.91 19.77 20.01 18.34 18.07 19.09 22.83 23.92 23.50 22.21 19.50 19.39 20.50 21.35 21.42 19.69 18.06 18.42 19.61 17.01 16.58 15.82 15.92 15.57 15.43 15.99 14.57 11.80 10.44 6.87 6.54 7.41 6.79 5.63 5.79 6.19 2.68
8.49 10.08 12.41 10.70 16.05 14.71 14.21 14.50 15.63 11.51 17.87 20.96 18.15 19.25 18.88 16.65 16.41 15.55 18.75 21.01 18.93 18.46 18.07 18.96 23.52 23.03 21.26 21.44 19.96 20.04 20.10 21.47 21.11 18.36 17.19 19.22 19.61 18.77 16.02 15.17 14.72 14.46 13.30 15.02 11.64 10.06 7.50 5.45 6.18 4.94 3.09 0.32 -5.00 0.32
9.85 10.27 20.05 23.05 23.01 23.05 16.11 15.75 19.00 14.24 13.83 16.86 20.85 17.89 15.08 14.59 12.41 15.97 20.13 21.15 21.52 22.57 23.30 23.14 24.76 24.06 21.24 18.39 17.19 16.46 17.22 17.68 18.13 16.46 15.09 14.86 15.08 16.91 18.67 16.67 14.76 14.63 12.03 11.81 11.06 9.87 7.95 5.68 3.98 2.54 -0.70 -3.52 -5.15 -4.34
17.15 18.29 13.20 18.02 21.58 22.49 18.18 14.57 13.35 10.96 14.74 18.11 17.58 14.55 12.48 13.23 15.42 16.53 16.91 18.06 22.15 20.33 18.63 18.56 19.43 19.80 18.67 16.34 15.04 13.83 13.20 13.09 12.92 13.45 13.82 12.28 10.11 9.59 10.57 11.52 12.01 11.04 8.84 8.72 7.56 6.35 5.93 4.62 2.53 0.12 -0.70 -3.40 -8.58 -12.06
20.30 18.60 16.99 18.64 12.94 17.98 13.14 14.10 15.40 14.94 16.67 18.18 16.77 14.49 12.86 14.77 12.55 12.48 14.00 16.75 19.32 21.42 16.79 14.92 12.91 13.78 13.19 13.59 14.38 15.03 15.56 16.91 16.19 13.65 12.19 10.33 10.46 8.69 7.76 8.59 8.18 7.62 7.73 7.77 7.79 3.99 2.11 0.83 -1.45 -3.39 -6.47 -8.37 -13.71 -15.38
13.95 20.13 12.15 8.55 11.11 14.43 15.24 17.01 12.76 12.36 13.97 13.85 13.45 12.28 11.87 10.67 9.98 11.42 13.23 14.72 19.32 20.53 18.61 15.50 12.72 13.54 12.47 12.62 11.17 11.81 11.23 12.41 15.09 17.25 13.12 10.55 11.21 7.88 7.01 7.30 6.89 6.49 8.11 8.52 5.21 2.58 1.42 -4.11 -5.06 -10.12 -11.40 -12.97 -11.94 -12.14
20.99 19.23 16.29 17.48 18.07 16.87 17.46 14.94 11.05 9.28 10.10 10.08 7.45 12.66 11.37 9.32 9.84 10.12 9.93 9.93 11.37 14.99 13.88 12.17 12.11 13.75 13.73 13.24 13.46 13.40 12.82 10.83 9.29 10.33 11.01 10.25 8.56 7.42 7.07 5.98 4.81 5.32 5.40 2.88 0.54 -2.14 -5.81 -8.86 -10.00 -11.05 -12.02 -14.22 -17.84 -16.31
17.46 16.11 13.03 11.48 12.02 12.40 16.63 17.26 16.00 11.62 7.84 9.44 8.18 5.99 7.57 10.61 10.97 8.86 8.32 9.06 12.09 12.25 10.88 12.49 13.42 12.72 15.18 14.84 12.53 12.00 12.12 9.42 9.01 9.26 9.21 7.93 6.02 4.34 3.20 1.78 1.61 2.22 0.81 -1.45 -3.55 -5.36 -7.08 -10.31 -12.31 -12.87 -14.20 -16.11 -18.04 -18.94
13.27 14.51 13.45 12.50 9.76 9.95 14.17 16.14 11.55 7.55 5.09 5.65 6.15 4.37 7.54 9.11 8.63 8.25 7.17 7.50 9.42 13.06 11.09 9.70 9.31 8.95 8.54 8.12 7.22 6.76 6.85 6.84 7.11 7.54 4.94 3.27 1.56 1.67 0.89 1.00 0.74 -0.88 -3.18 -5.04 -7.06 -9.14 -11.53 -13.47 -15.28 -16.66 -18.03 -18.74 -19.64 -20.38

GFSWCAN_sfc_wetblb_120.txt.gz
Wetbulb
44.15 43.55 43.12 42.17 41.82 43.11 43.85 43.45 44.47 44.93 45.11 45.44 45.96 45.43 45.02 44.47 44.04 43.65 39.54 41.96 42.38 36.65 36.17 38.84 38.60 35.11 35.48 36.76 31.61 34.38 33.58 34.10 33.89 31.30 31.07 31.26 30.93 32.65 31.21 32.44 30.96 29.70 27.95 27.81 28.88 26.64 23.00 32.28 33.41 29.09 30.75 33.23 33.72 33.46
42.99 43.52 43.29 42.41 42.10 42.21 42.72 43.54 44.04 44.16 44.62 45.55 45.26 44.84 44.35 44.49 43.56 44.49 39.94 41.04 46.21 41.05 37.33 40.98 39.54 39.95 40.19 39.33 36.53 36.43 35.07 35.26 36.21 33.68 34.26 34.56 31.62 33.95 32.42 27.14 35.02 28.50 31.90 29.52 27.97 26.95 32.01 33.54 32.14 35.16 35.28 32.97 32.88 33.49
43.20 43.04 42.28 42.35 42.59 44.17 43.40 43.08 43.08 44.12 45.06 45.15 45.19 44.83 45.15 44.75 44.49 44.30 42.27 44.96 44.48 40.30 38.95 38.72 36.58 41.26 43.18 42.73 44.84 36.22 38.09 37.70 37.08 40.45 37.79 36.46 31.00 36.66 30.60 31.19 31.47 32.46 34.70 30.96 29.84 29.93 30.81 31.21 32.98 34.68 35.02 33.72 34.12 34.17
43.12 42.60 42.35 42.27 42.96 44.16 44.54 44.58 44.64 44.92 45.12 45.03 45.00 44.85 44.68 44.51 44.21 45.10 42.22 43.68 44.73 41.25 34.55 34.53 41.70 38.59 42.79 44.80 43.88 43.73 40.38 40.64 40.33 40.98 37.66 36.64 33.70 37.23 32.26 33.16 32.80 33.85 34.17 30.38 28.58 29.87 30.59 31.32 32.07 32.34 32.15 32.27 31.32 31.96
42.72 42.30 42.11 43.06 43.35 43.62 44.31 44.53 44.56 44.87 44.91 44.91 44.88 44.75 44.70 44.53 44.54 44.75 43.98 43.70 43.70 41.22 33.15 33.72 39.05 40.41 43.50 43.92 42.21 42.63 41.24 39.78 38.66 36.69 36.69 34.71 37.67 36.05 35.98 35.27 31.73 34.61 31.69 31.04 30.39 31.74 32.55 30.62 31.93 31.95 30.22 29.91 30.26 29.23
42.51 42.15 42.33 41.54 42.67 42.99 43.91 44.17 44.38 44.19 43.40 43.32 43.40 42.53 41.59 40.19 41.39 44.60 38.21 44.04 44.73 46.02 38.81 31.14 38.55 38.57 41.56 42.40 41.26 40.46 40.73 39.53 40.38 38.10 36.36 37.56 37.60 37.57 31.67 29.31 32.81 33.74 34.68 35.54 32.35 34.70 33.09 32.35 31.67 31.64 30.11 29.64 29.63 28.93
42.21 41.75 41.75 42.13 41.06 42.40 43.84 43.84 43.43 43.68 44.17 44.08 44.06 44.27 44.48 44.28 43.77 38.76 38.23 42.28 42.11 46.23 39.78 32.52 33.35 38.29 40.24 40.37 39.77 40.02 40.84 39.87 39.91 37.95 37.16 37.39 37.50 38.80 33.30 27.53 33.03 33.06 35.03 35.17 34.85 32.73 29.31 29.90 28.33 30.50 29.81 28.62 28.08 27.55
42.14 42.47 42.69 42.87 42.86 43.25 43.28 43.18 43.39 44.14 44.06 43.63 43.47 43.40 43.99 44.32 43.51 39.34 41.63 41.83 42.73 41.23 39.82 32.37 31.85 34.94 39.61 35.57 35.45 39.57 37.83 39.67 38.19 37.43 37.90 36.04 37.20 37.12 29.34 32.29 34.46 34.69 34.65 34.45 34.62 35.27 33.87 31.46 30.43 29.08 29.29 28.77 26.91 25.54
41.88 42.08 42.43 42.72 42.87 42.75 42.99 43.34 43.93 43.61 41.85 40.65 40.73 42.57 43.54 40.81 39.04 39.36 42.20 41.91 44.19 41.15 33.68 33.95 29.79 28.36 38.91 36.65 38.45 37.95 38.86 33.48 38.03 35.29 35.35 36.57 33.58 29.57 33.14 33.19 33.93 34.77 33.97 32.73 32.31 32.37 31.42 30.04 28.82 28.24 28.34 27.59 25.97 24.52
42.50 42.28 42.27 42.68 42.78 42.54 42.78 42.19 40.89 40.67 40.72 40.68 40.53 37.86 33.12 38.37 40.89 41.15 41.07 37.92 36.86 36.84 37.44 32.44 35.80 31.13 36.48 35.84 35.05 34.69 36.86 32.67 30.19 34.11 37.12 33.48 32.87 33.19 35.49 36.85 36.92 36.47 34.76 33.63 30.23 28.62 29.64 28.35 28.21 27.40 27.08 26.65 25.44 23.58
42.44 42.15 42.50 42.73 42.64 42.49 42.13 40.52 40.26 40.08 40.44 38.98 35.58 33.35 40.02 41.22 40.47 36.69 32.43 31.89 32.76 30.16 34.44 33.68 34.69 32.09 38.16 33.07 32.25 35.34 32.44 33.66 27.95 31.16 31.15 29.65 29.96 31.89 33.36 35.87 37.54 37.12 35.52 35.20 34.96 34.31 33.46 32.02 29.15 26.25 24.59 23.99 23.40 22.49
42.25 42.35 42.42 42.64 42.53 41.22 40.84 40.94 40.66 40.12 38.27 38.78 39.54 40.64 39.70 36.25 33.35 29.15 27.56 29.15 29.11 26.99 31.72 32.35 34.00 34.84 36.01 39.53 34.52 34.35 29.69 31.96 25.47 33.31 30.56 27.20 32.05 32.54 31.94 31.91 34.54 35.15 34.42 33.28 34.18 33.15 31.95 30.49 29.12 26.80 24.61 23.18 22.16 20.41
42.45 42.54 42.47 42.12 41.49 41.77 41.75 41.00 40.26 39.23 39.23 40.99 36.81 33.65 33.12 30.74 25.28 23.41 21.18 24.94 26.28 30.65 32.51 34.18 31.97 36.22 37.03 37.47 33.41 31.55 27.34 27.95 32.73 28.73 28.10 32.26 31.27 31.92 32.56 31.71 30.96 31.29 31.67 31.03 30.15 30.18 29.13 27.47 26.54 24.86 21.37 19.80 18.15 15.74
42.28 42.34 42.19 42.23 41.61 40.93 40.74 40.11 39.61 39.56 38.89 33.06 30.56 24.10 26.33 24.49 26.52 27.08 27.55 29.05 30.55 33.14 34.68 34.56 31.94 34.39 34.36 32.35 32.38 27.68 30.60 31.44 25.57 23.73 25.16 32.75 30.13 30.34 31.06 30.11 28.21 26.39 26.00 26.25 25.60 24.68 22.34 20.37 18.83 18.59 17.99 17.80 16.84 15.54
42.07 42.06 42.12 41.44 40.74 40.28 39.46 38.78 38.42 39.54 36.05 30.29 30.53 23.95 26.21 29.65 31.09 30.83 31.62 31.85 32.59 36.57 35.77 34.39 33.96 35.18 31.49 29.48 31.34 29.50 26.20 23.88 26.25 28.38 33.29 32.73 30.23 29.23 28.00 27.70 25.76 24.17 22.43 22.64 22.49 20.19 17.98 16.74 17.24 16.47 16.51 18.55 18.88 15.80
41.84 41.28 40.10 41.13 40.32 39.94 38.89 38.70 38.27 37.35 34.08 31.37 29.49 27.89 30.50 31.19 30.32 31.42 32.20 31.45 34.55 35.43 36.54 36.23 30.87 29.75 27.99 29.59 26.77 25.70 25.07 24.26 30.48 33.78 31.96 29.94 28.27 28.00 26.99 25.79 24.43 23.72 23.49 22.59 21.33 19.78 18.75 17.88 18.29 19.26 18.01 18.08 16.15 16.67
40.37 37.96 40.49 40.33 39.69 38.64 38.29 37.58 36.28 30.51 29.67 28.85 28.29 30.72 31.61 31.14 29.53 31.84 33.61 33.53 35.87 36.30 32.61 33.06 27.35 25.13 30.56 27.78 25.49 30.71 29.05 32.91 32.41 29.75 29.61 30.38 28.61 27.01 25.44 23.76 21.05 21.17 21.73 21.67 20.50 20.53 20.20 21.17 20.13 19.67 19.22 20.14 19.87 21.13
37.98 40.24 39.79 38.87 38.51 37.58 36.57 35.36 31.82 29.77 26.35 28.91 29.01 29.32 31.30 32.02 32.76 32.22 33.65 35.68 36.87 35.75 35.20 30.95 33.05 27.42 27.24 24.55 28.11 33.39 32.61 28.95 28.02 28.01 28.50 28.36 28.47 26.15 25.85 24.14 21.68 22.20 21.83 20.74 20.76 20.45 20.25 19.81 21.18 22.92 23.52 23.72 23.57 23.54
39.49 39.59 39.49 38.84 37.46 35.14 31.55 31.34 32.62 26.22 27.85 29.68 30.73 31.50 31.45 32.55 33.71 33.61 34.38 35.95 37.14 38.49 36.98 34.98 31.11 30.19 31.45 33.36 34.65 32.40 30.80 30.15 28.72 26.30 25.44 24.69 26.40 24.18 23.65 22.70 21.76 22.23 21.44 21.19 21.94 23.12 23.41 23.20 25.38 25.89 25.64 25.05 25.46 25.23
39.19 38.82 38.35 38.31 38.61 33.16 28.33 28.67 33.92 29.35 26.63 28.61 30.34 29.91 30.62 31.03 32.89 33.23 34.21 35.22 34.30 36.89 34.11 32.78 33.08 34.84 35.66 35.01 35.44 34.34 33.53 31.09 28.45 26.90 25.31 24.96 24.93 23.38 23.74 23.45 24.09 23.37 22.67 22.99 23.95 23.62 24.23 24.24 25.27 25.65 26.14 25.72 24.82 23.21
38.59 38.13 37.54 37.81 35.45 33.83 30.14 28.95 28.28 29.13 28.79 28.41 29.59 31.24 30.27 32.49 32.59 33.24 34.34 36.01 34.83 34.45 33.76 35.67 35.15 33.06 31.52 31.29 32.41 32.79 30.76 30.79 31.32 32.08 29.46 25.20 25.35 26.41 24.59 25.23 24.22 24.55 24.20 24.40 24.22 23.82 23.21 25.69 26.03 25.92 25.26 24.39 23.70 22.96
37.40 36.66 36.66 35.64 31.80 31.16 30.09 32.39 29.65 30.29 28.50 28.05 29.64 30.89 29.68 30.27 30.84 32.15 34.14 33.37 33.71 35.11 35.58 35.45 34.41 30.96 31.06 30.15 30.25 30.71 29.95 28.78 26.97 25.76 25.55 25.08 24.38 24.65 24.96 25.33 24.65 24.46 25.11 25.78 25.87 25.35 25.71 25.64 25.22 24.57 23.43 20.97 20.19 19.54
36.67 36.42 33.91 31.90 27.41 27.90 27.01 33.07 28.22 28.96 25.24 25.81 29.22 26.90 28.21 29.45 31.19 33.48 30.50 32.40 32.33 30.39 31.83 32.82 31.96 32.21 30.36 29.01 28.94 28.62 28.93 28.88 27.70 26.88 25.73 27.75 27.46 27.41 26.62 26.15 26.98 25.94 25.08 25.22 26.40 26.12 25.06 21.46 21.22 21.77 19.66 20.10 19.90 17.93
34.88 29.30 26.19 25.63 26.64 24.23 29.15 26.27 29.39 28.10 28.30 26.46 25.85 22.68 25.09 27.47 30.61 29.32 26.88 30.27 29.94 29.95 30.49 29.91 31.33 29.35 28.69 27.82 28.19 27.47 27.02 28.05 25.93 25.54 26.52 26.13 25.41 25.54 26.64 26.24 26.60 27.23 27.09 25.85 25.39 24.17 22.33 21.16 17.65 19.17 17.82 16.82 15.51 14.77
26.29 23.40 25.20 21.17 25.88 24.00 22.88 22.97 23.57 25.42 22.76 24.27 22.90 24.17 26.60 29.02 25.84 25.02 24.74 28.08 29.18 29.06 27.81 29.91 30.50 30.87 30.75 28.55 27.17 26.04 25.67 27.39 26.16 24.54 25.60 27.45 26.33 24.97 24.48 24.79 24.73 24.23 25.55 24.64 22.60 21.17 19.30 18.93 18.14 16.63 15.31 14.94 12.16 9.86
20.54 21.51 22.29 21.61 23.49 23.26 23.88 20.99 20.98 22.48 24.16 23.52 23.93 26.38 27.69 26.35 21.42 22.28 24.88 26.99 27.34 26.91 27.08 28.78 29.88 28.87 27.64 28.03 26.57 25.77 25.70 27.64 27.31 24.86 23.96 25.59 25.83 25.75 23.64 22.12 21.66 20.61 22.91 25.27 22.59 19.93 17.68 16.65 14.91 12.99 10.27 7.29 4.69 8.12
19.51 20.65 23.62 26.85 26.71 25.91 25.41 25.50 25.32 25.20 22.49 22.34 25.70 24.51 24.03 19.84 20.32 23.93 25.92 25.87 25.90 26.47 26.49 27.86 28.72 29.39 29.13 25.82 24.19 24.12 25.22 25.70 25.99 24.66 23.95 23.44 23.38 25.51 26.88 24.74 23.22 22.07 21.48 21.67 21.29 20.10 16.67 14.71 13.20 11.16 7.53 6.50 4.73 4.36
24.41 23.81 20.81 23.53 23.96 25.58 22.06 23.34 23.24 22.84 25.30 25.89 25.40 22.40 21.60 21.85 23.20 24.79 24.88 25.03 25.25 25.14 24.73 23.03 22.41 26.07 26.68 24.53 23.28 22.28 20.71 19.62 19.14 19.98 20.30 19.07 18.17 19.09 19.54 19.63 18.47 17.01 18.44 18.61 17.74 16.77 15.58 13.36 11.14 9.60 7.75 4.30 -0.42 -0.36
23.54 25.30 24.68 20.18 21.38 22.69 23.51 24.25 25.68 25.78 24.24 26.05 26.37 25.28 23.83 22.35 22.89 24.18 24.15 23.65 23.75 25.63 25.56 24.01 21.48 22.63 21.81 21.80 22.22 22.51 22.42 23.30 22.30 20.33 20.55 18.93 18.06 15.36 17.35 17.23 16.42 15.64 15.11 13.08 11.23 11.45 10.33 9.29 7.46 5.37 3.22 0.56 -1.91 -2.23
22.86 26.34 24.03 20.78 19.34 21.71 26.73 26.70 26.79 23.80 22.53 23.48 22.86 21.74 21.31 22.27 22.44 21.61 21.95 23.96 24.92 25.95 26.00 24.76 22.75 23.59 21.65 21.64 19.26 19.01 21.13 22.69 23.78 24.94 22.10 20.43 19.96 15.69 15.68 15.20 14.88 14.87 14.89 13.48 10.26 6.99 5.81 3.53 2.29 0.27 -1.02 -1.38 -0.20 -1.23
25.80 25.63 24.28 24.57 23.45 24.62 24.01 22.44 21.61 21.58 22.13 22.19 20.05 22.44 23.83 21.89 21.87 20.28 20.06 19.83 21.29 23.07 22.31 21.40 20.77 22.08 21.39 20.62 21.42 20.04 18.84 18.42 15.90 17.49 19.57 17.49 15.79 15.86 15.25 14.86 15.23 14.82 12.36 10.07 8.40 6.57 4.38 3.18 1.57 -0.50 -2.24 -4.87 -7.37 -4.55
24.46 24.00 22.49 19.80 20.90 21.05 22.06 22.84 22.81 21.94 20.27 20.19 20.92 18.34 19.06 20.00 20.54 18.59 15.68 17.06 20.53 20.97 18.67 21.32 20.86 20.39 21.96 21.60 19.82 19.70 18.90 16.12 15.13 15.19 15.65 15.58 14.87 13.71 13.31 13.03 12.97 12.34 10.27 7.85 6.25 4.11 2.37 0.68 -0.15 -1.70 -3.84 -5.73 -7.25 -8.66
20.26 21.36 19.84 19.54 18.28 17.36 20.11 20.58 18.67 17.28 17.04 17.10 17.43 16.28 18.42 19.10 17.68 15.62 15.89 14.93 16.00 18.89 19.17 17.86 17.19 16.90 15.98 15.90 15.16 14.55 14.15 13.94 13.27 12.58 11.56 10.96 10.74 11.06 11.48 11.16 10.09 8.27 6.42 4.61 2.15 0.49 -1.15 -2.50 -3.38 -4.88 -6.56 -8.27 -9.31 -10.60

GFSWCAN_sfc_wetblb_123.txt.gz
Wetbulb
41.30 43.73 42.84 41.82 43.43 42.68 44.72 45.64 45.85 45.82 46.31 47.22 47.30 47.12 47.12 47.28 47.03 46.17 43.07 48.28 45.36 40.24 40.09 41.29 40.82 38.33 38.19 38.46 32.55 36.29 35.09 36.13 34.75 32.10 32.55 32.91 32.71 34.30 33.78 35.73 33.78 32.12 30.69 30.34 31.32 27.93 25.09 33.56 34.13 29.89 33.42 35.48 35.22 34.68
43.82 43.17 42.25 42.02 43.35 42.96 43.14 45.10 45.51 45.41 45.52 45.44 45.42 45.35 45.80 45.88 46.02 48.48 41.80 45.49 45.88 40.29 38.74 42.95 42.34 43.49 43.25 43.31 40.15 39.98 37.60 36.75 37.08 35.20 35.85 36.66 33.45 35.86 34.54 28.98 37.27 30.32 35.22 32.59 31.43 28.87 32.33 33.65 35.28 36.76 36.28 34.50 34.69 34.20
43.51 42.70 42.38 42.02 43.39 43.59 43.18 44.82 44.86 44.81 45.01 44.84 45.23 45.26 45.45 45.93 46.79 46.40 43.58 45.44 42.92 38.14 38.29 39.07 38.81 43.88 46.67 46.94 48.02 38.62 40.76 41.23 39.73 43.62 40.13 39.13 33.38 37.29 31.61 33.42 33.76 34.93 37.18 31.80 31.57 30.83 31.11 33.62 35.85 36.51 36.00 34.72 35.16 35.14
42.41 42.42 42.24 42.44 42.87 43.13 43.83 44.71 44.78 44.97 44.55 44.73 44.95 44.97 45.36 46.02 47.10 47.17 45.27 47.17 44.66 41.63 34.87 36.11 44.59 41.91 46.84 46.85 46.26 46.15 43.65 44.14 43.49 43.31 39.55 37.89 34.96 39.69 36.62 36.84 35.41 35.74 35.95 32.08 30.23 31.73 32.51 33.21 34.60 34.65 33.93 33.97 34.05 34.79
42.06 42.34 43.24 43.48 42.22 43.70 44.25 44.61 44.41 44.63 45.11 45.06 45.28 45.48 45.83 46.39 46.65 47.54 47.51 47.23 48.56 41.43 35.17 36.41 42.61 44.30 45.40 45.52 44.16 44.85 43.74 42.25 40.66 37.86 38.06 36.82 39.05 37.46 36.66 36.21 32.48 36.43 33.92 32.18 33.31 34.04 33.71 31.62 34.00 34.82 32.72 31.35 32.25 31.51
41.97 41.82 42.26 43.70 43.74 44.10 44.38 44.59 44.77 44.92 44.83 44.54 44.25 44.18 44.13 44.75 47.18 46.33 40.33 47.73 48.68 47.32 39.89 32.36 40.96 41.05 43.74 44.01 42.84 42.28 42.63 41.93 41.11 39.57 38.64 40.63 40.63 39.01 34.22 30.82 34.66 35.71 36.89 37.45 33.95 35.74 33.98 32.90 34.01 33.46 31.35 31.61 32.23 31.52
41.91 42.32 41.32 43.67 43.88 43.71 44.03 44.08 44.28 44.47 44.80 44.81 44.88 44.92 44.61 44.63 46.18 43.37 40.20 44.10 44.82 48.16 41.08 33.30 34.06 39.61 42.56 42.11 41.90 41.23 42.41 41.50 41.67 39.49 39.18 38.76 38.32 39.60 34.91 31.85 34.07 35.38 36.82 36.36 36.31 34.44 30.77 31.77 30.33 33.40 32.81 31.84 31.49 30.90
41.58 40.54 41.84 43.49 43.37 43.79 43.74 43.71 44.01 44.07 44.12 44.42 44.66 44.54 44.23 44.42 44.65 41.08 42.56 44.52 46.05 43.74 41.87 33.62 31.72 35.89 41.91 37.24 36.28 42.31 38.92 40.59 40.32 39.14 39.33 37.84 38.61 39.11 31.37 33.87 35.14 35.50 35.77 35.00 35.16 36.68 33.95 34.62 33.14 31.95 32.16 31.11 29.16 28.03
41.71 40.85 42.48 43.15 43.27 43.80 43.52 42.73 42.10 41.93 42.34 43.41 44.57 45.20 45.39 43.19 40.36 40.41 41.63 44.42 48.85 44.15 36.41 35.87 31.00 28.94 40.75 38.23 38.69 39.50 41.17 35.14 40.05 36.47 37.46 38.59 35.23 31.51 34.55 35.31 34.96 35.37 34.55 34.28 36.09 35.00 33.09 31.81 31.28 31.07 31.14 30.40 28.69 27.40
42.32 42.12 42.86 42.88 42.89 41.85 41.81 41.61 41.50 41.61 42.33 43.71 44.23 39.90 35.49 40.76 40.64 42.70 44.43 40.89 40.97 40.65 40.69 35.63 38.28 32.21 38.27 37.29 35.55 35.79 38.58 33.71 30.58 35.48 38.37 34.80 33.43 36.66 38.32 38.11 37.20 36.58 37.56 37.40 33.48 31.55 32.18 30.82 30.30 30.36 30.17 30.16 28.78 26.81
42.40 42.58 42.68 42.36 41.57 41.46 41.85 42.28 41.85 41.95 43.64 42.99 38.07 36.80 41.90 41.73 44.14 40.52 35.89 35.09 36.69 33.02 36.61 36.00 36.91 33.87 40.66 34.34 33.66 38.09 34.13 34.63 28.50 32.12 32.43 30.61 31.22 34.62 38.19 36.64 37.52 38.52 38.34 37.69 37.48 36.58 35.42 33.74 31.74 30.25 28.62 28.42 27.33 26.07
42.34 42.64 41.93 41.67 41.65 42.60 42.79 43.19 42.54 43.55 41.69 41.77 41.75 43.29 43.96 40.17 37.46 32.73 30.54 32.89 32.80 29.57 35.07 34.49 35.46 37.46 38.81 41.58 35.45 35.84 30.28 33.45 26.81 36.53 31.38 28.08 33.97 36.78 37.23 36.35 36.88 38.11 37.80 36.81 37.22 35.99 35.70 34.02 32.72 30.20 28.20 26.78 25.85 24.97
42.31 42.12 42.44 42.72 42.23 41.58 41.26 40.63 40.58 40.09 40.34 43.82 39.92 34.72 36.34 34.28 28.87 29.53 24.00 28.23 29.31 32.59 35.33 36.21 34.42 37.52 38.64 39.22 35.48 33.59 29.26 29.01 34.49 29.95 28.49 33.82 35.55 35.90 35.84 36.51 36.22 37.31 36.72 36.21 35.30 35.10 33.92 32.10 30.84 28.31 25.63 23.86 21.37 19.11
42.45 42.39 41.66 41.74 41.53 40.82 40.57 40.07 40.56 42.42 42.75 36.88 34.41 26.64 30.25 28.43 29.23 29.71 31.19 32.09 33.17 36.22 38.11 37.56 36.20 36.08 35.65 33.39 33.70 28.59 31.58 32.49 26.91 25.69 28.01 34.78 34.33 34.00 34.23 34.69 33.56 31.01 30.82 31.09 30.63 29.40 26.98 25.22 23.33 22.73 22.00 21.22 19.09 17.27
42.05 41.69 41.23 40.58 40.63 40.13 39.45 39.64 40.73 43.74 39.82 33.46 33.21 25.87 27.59 31.41 32.65 32.28 33.24 34.09 37.09 40.24 38.64 36.97 36.72 36.63 33.04 30.43 32.55 30.38 26.84 25.47 28.55 29.97 33.23 33.83 33.19 33.12 32.70 32.47 29.80 28.43 27.69 27.81 27.01 23.82 21.91 20.58 20.38 20.03 20.74 22.01 21.44 18.59
41.52 41.09 39.95 40.66 40.23 40.19 40.23 41.62 41.83 41.38 37.73 33.48 31.82 30.58 33.29 32.19 31.13 32.61 32.59 32.61 38.76 39.40 40.22 38.65 33.63 31.88 30.04 31.45 28.44 27.51 27.01 26.58 31.08 32.67 31.86 31.90 31.65 31.55 30.52 29.65 28.73 27.83 27.83 27.12 25.03 22.94 22.01 21.05 21.05 21.67 22.06 21.56 19.59 19.71
41.45 39.27 39.95 40.04 39.99 40.23 40.61 40.71 39.13 34.12 32.89 30.85 30.49 33.70 33.70 33.32 31.51 32.61 36.20 35.76 40.88 39.24 34.04 34.77 29.99 28.06 33.05 29.54 27.66 33.73 31.24 32.16 31.44 30.60 32.03 32.74 30.16 29.78 29.35 28.39 26.53 26.90 26.70 25.87 24.67 24.00 23.14 24.57 22.89 21.90 20.95 21.27 22.05 22.26
38.38 40.10 40.12 39.68 40.51 41.28 40.13 38.79 35.25 33.05 29.08 31.78 30.76 31.16 33.33 32.61 32.79 33.52 35.21 38.53 39.81 37.55 37.08 32.03 35.07 28.81 29.33 26.18 30.03 34.88 33.75 30.52 30.69 30.78 30.49 30.59 31.15 29.50 29.41 27.29 26.26 26.70 26.05 25.07 24.42 23.86 24.02 22.81 23.40 24.54 25.35 24.86 25.17 25.46
39.35 39.61 39.22 39.49 39.10 38.42 34.19 34.19 36.50 29.12 30.20 32.31 33.94 34.33 34.35 33.55 34.72 35.01 36.53 38.87 40.87 41.40 38.82 36.43 31.84 31.42 32.42 35.90 34.89 33.35 32.41 33.12 30.47 29.04 28.20 29.42 29.71 28.90 28.06 26.95 26.38 26.29 25.24 24.68 24.99 25.73 25.93 26.10 28.09 28.47 28.16 27.19 27.40 27.15
39.50 38.99 38.93 39.24 40.64 35.69 30.52 31.48 37.97 31.99 29.07 30.92 32.74 32.05 33.75 33.20 34.54 34.95 35.99 36.15 37.19 37.80 34.80 33.52 33.71 35.10 35.56 36.33 37.52 36.20 33.89 34.03 32.55 29.68 27.60 27.78 28.64 28.22 27.41 27.01 27.97 26.87 26.05 26.13 27.24 27.13 26.92 27.07 28.49 28.49 28.55 27.70 26.79 25.84
40.03 38.88 39.72 40.49 38.16 36.45 33.05 31.60 30.53 31.54 32.24 30.61 32.61 33.13 32.49 35.37 34.11 35.07 35.71 38.78 35.72 35.25 34.04 36.88 35.26 35.67 36.01 35.85 37.44 37.52 35.08 35.74 35.48 35.64 32.21 28.33 29.41 29.93 28.10 29.28 28.13 28.12 27.51 27.33 27.37 26.93 26.86 27.69 27.81 28.27 27.17 26.93 26.20 24.75
38.76 39.10 38.85 38.16 34.14 33.71 32.13 33.55 31.18 32.66 30.85 30.71 32.69 33.77 31.93 31.62 31.98 33.01 36.21 34.84 34.44 33.74 35.45 36.94 37.33 35.54 34.74 33.86 34.10 35.64 34.16 33.17 32.06 32.36 31.49 30.39 28.93 28.08 27.85 28.17 28.04 27.63 28.24 28.21 28.24 27.04 27.65 28.37 28.03 27.06 26.50 23.97 23.53 22.45
38.40 38.13 35.47 34.48 30.84 30.18 28.38 34.48 29.52 30.68 26.79 28.03 31.62 28.99 29.68 30.26 31.68 35.24 30.81 33.99 32.92 34.35 35.73 36.61 35.75 36.21 33.68 33.16 33.19 32.92 33.26 33.27 32.73 31.48 30.65 31.59 31.03 30.36 29.19 28.77 29.62 27.95 27.27 27.58 28.69 28.06 28.14 26.22 25.61 25.33 24.09 23.21 22.31 20.13
36.72 31.81 28.67 28.27 29.35 25.89 31.40 28.31 31.34 29.25 29.73 27.66 27.37 24.56 26.54 28.70 31.62 30.88 28.09 31.45 32.01 33.82 33.29 32.93 34.84 33.16 32.68 32.13 32.36 31.11 31.55 33.33 31.45 31.21 31.95 30.36 27.78 27.79 28.49 28.57 28.77 29.17 29.03 28.24 27.87 27.09 25.50 24.73 23.50 23.06 22.36 21.48 20.64 19.17
28.33 25.68 28.43 24.65 29.39 27.16 25.26 25.60 26.17 26.65 24.40 26.08 24.29 25.27 27.01 30.33 26.77 27.40 26.81 29.25 29.83 29.09 29.75 31.45 32.99 33.70 31.98 31.61 31.85 29.62 30.08 31.75 30.39 28.59 29.62 31.15 29.18 27.95 27.18 27.12 26.97 27.51 28.72 26.90 25.33 24.11 23.22 23.20 23.00 21.40 20.38 19.45 16.49 14.08
22.58 25.04 25.44 25.56 26.51 25.95 25.86 22.16 23.10 24.58 26.10 24.84 25.60 28.72 29.73 27.24 23.96 24.81 28.84 27.75 28.00 28.37 29.24 30.46 31.03 31.32 30.75 32.17 30.55 29.49 28.90 31.39 30.72 28.51 28.78 30.00 28.86 27.76 25.70 23.92 22.72 23.48 27.64 28.57 25.73 23.57 22.32 21.79 20.02 16.90 13.26 11.61 10.68 12.75
21.55 23.88 27.64 30.64 29.16 29.05 27.72 28.90 29.41 27.78 24.46 24.15 27.35 25.97 26.21 21.69 23.45 27.53 28.36 28.69 28.20 28.43 28.86 29.42 29.63 31.01 30.93 29.84 28.80 29.06 29.31 29.50 30.05 28.12 28.21 27.60 27.95 28.80 28.80 26.67 25.12 24.94 26.73 26.50 26.16 24.42 21.79 19.27 17.25 15.53 13.07 11.93 10.31 9.60
27.29 27.78 23.20 26.03 27.02 28.68 24.18 25.70 25.49 24.59 27.78 29.96 29.38 24.50 23.12 24.99 26.03 28.06 27.59 27.56 28.42 28.72 27.93 27.11 27.41 30.49 30.07 28.59 27.59 26.73 24.90 24.84 24.56 24.67 24.37 24.25 24.64 24.82 23.98 24.14 23.93 23.17 24.55 24.55 23.50 21.85 20.24 18.01 15.54 14.04 11.61 8.24 5.36 6.34
26.30 28.99 28.18 22.32 24.00 25.63 25.95 26.27 27.45 29.84 29.84 30.47 27.93 27.72 27.62 27.79 27.76 28.70 27.56 28.23 29.11 28.81 27.63 27.11 26.06 27.16 26.28 26.21 26.91 27.03 26.80 26.89 25.19 22.54 22.72 21.51 20.68 19.72 21.78 21.63 20.79 19.37 17.87 16.05 15.38 16.26 15.66 14.60 12.68 10.26 8.22 6.63 5.40 4.97
25.92 28.97 26.45 23.77 22.20 23.85 29.04 29.94 28.71 28.38 28.99 29.37 29.43 27.83 27.29 27.44 26.83 27.27 27.78 28.18 27.69 27.86 27.96 27.86 27.34 27.63 26.04 25.02 23.54 24.24 26.63 27.07 27.73 28.32 25.49 23.48 22.05 20.48 20.34 19.55 18.43 18.00 17.37 14.76 11.53 9.53 8.68 7.27 6.61 5.77 5.37 5.40 5.90 4.53
28.69 26.76 25.50 26.01 25.24 27.48 26.97 26.96 27.24 27.40 27.30 27.55 26.98 27.19 28.39 26.88 25.21 24.87 25.09 24.71 25.49 26.30 26.63 25.80 25.52 26.76 26.37 25.26 24.88 23.08 21.64 22.48 21.77 24.48 23.72 21.94 21.28 20.44 19.95 19.21 18.95 17.64 15.15 13.23 12.25 11.07 9.66 8.79 7.31 5.20 3.47 0.99 -1.00 1.58
26.22 25.15 24.65 23.05 25.01 26.01 26.45 26.39 26.62 25.47 25.82 24.48 25.30 24.96 24.31 24.36 23.97 21.92 20.32 21.97 23.43 23.70 23.76 26.33 25.82 24.99 27.15 25.06 24.49 24.68 22.85 20.94 20.61 20.93 21.37 20.84 19.99 19.06 18.55 17.60 16.57 16.03 14.05 12.23 10.87 9.14 7.95 6.96 5.93 3.87 1.86 0.27 -1.24 -2.43
24.91 25.53 25.13 24.96 24.11 22.74 25.07 24.51 22.76 22.19 21.83 21.65 22.45 22.19 23.19 23.21 21.85 18.92 20.00 20.21 20.28 22.31 23.76 22.72 23.03 23.09 22.39 21.90 20.89 20.35 19.92 19.57 18.78 18.10 17.44 16.75 16.25 16.41 16.82 16.19 14.81 12.89 11.23 9.62 7.86 6.43 4.81 3.67 2.84 1.15 -0.70 -2.57 -3.42 -4.53

GFSWCAN_sfc_wetblb_126.txt.gz
Wetbulb
41.75 41.82 42.08 42.36 42.63 42.76 43.57 44.54 45.29 46.58 47.02 47.77 47.96 47.35 45.92 46.30 46.89 45.93 43.87 48.43 46.06 40.55 43.50 45.25 45.04 41.13 40.91 39.95 34.19 36.64 35.17 36.50 35.29 31.18 30.30 31.40 32.27 34.77 33.86 35.68 33.18 31.32 29.24 29.19 30.56 27.10 24.47 34.35 33.62 30.17 33.73 36.70 36.24 35.38
41.47 41.91 42.31 41.60 41.49 43.10 42.59 43.53 45.94 46.14 46.83 47.53 47.76 48.02 48.27 47.20 46.83 47.06 42.62 47.09 48.78 44.90 40.37 46.39 46.85 48.64 46.34 44.38 39.66 38.49 37.25 35.61 36.77 33.70 35.31 36.03 34.11 37.06 34.32 30.50 38.35 30.70 34.48 31.93 29.55 28.22 32.51 34.34 35.48 37.58 37.51 35.53 34.59 32.91
41.76 41.11 40.78 42.55 42.59 41.71 43.90 45.10 45.70 45.64 45.84 46.47 48.40 49.30 49.08 49.23 47.51 47.12 45.85 46.88 46.17 40.15 39.57 40.64 39.90 44.19 46.54 46.43 48.67 36.75 39.30 41.36 40.91 44.54 41.04 39.25 33.48 37.30 32.06 33.56 34.83 36.24 38.46 32.57 31.28 30.53 31.25 34.65 36.14 36.95 36.56 35.24 35.03 34.38
41.43 42.53 42.51 42.78 41.66 42.26 44.58 45.22 45.35 45.21 45.77 46.12 46.01 46.90 47.81 47.52 47.76 48.50 46.68 48.47 45.95 41.79 35.09 36.11 44.10 42.24 46.46 47.60 47.49 47.11 45.35 45.34 45.67 44.79 39.96 38.04 35.59 40.05 36.13 36.95 35.24 36.44 36.48 32.27 30.25 31.06 31.47 33.89 34.98 35.31 35.36 35.54 34.41 34.58
42.87 42.77 42.23 42.03 41.56 44.35 44.51 44.87 45.10 45.14 45.53 45.80 46.18 46.59 47.12 47.66 47.77 48.16 48.00 47.77 48.29 42.02 34.36 35.46 41.22 43.54 45.64 45.93 45.19 45.75 45.02 43.16 41.27 38.76 38.66 35.73 38.63 37.93 37.62 37.00 33.60 37.10 34.73 31.60 31.89 33.74 33.70 31.91 34.41 34.88 33.31 32.28 32.14 31.79
41.90 42.20 41.58 41.93 43.57 43.70 44.06 44.47 44.70 44.96 45.40 45.60 46.11 46.74 46.87 46.82 47.05 45.02 37.99 46.78 46.94 45.34 37.40 32.35 41.18 40.77 43.73 44.68 43.79 43.42 43.54 43.21 42.06 39.51 39.43 39.84 41.93 38.91 33.78 32.12 35.78 37.84 38.90 38.69 34.54 36.02 33.14 33.29 34.53 33.92 32.16 32.24 32.19 31.42
42.93 42.18 42.24 43.12 43.85 43.84 44.10 44.18 44.35 44.64 45.20 45.75 46.13 46.39 46.55 46.21 45.53 41.80 39.75 44.91 47.25 48.04 39.21 32.69 34.13 40.35 42.54 42.18 41.99 41.69 43.48 42.08 41.67 39.45 37.80 38.00 38.14 38.77 35.67 31.28 34.91 36.32 37.11 36.42 35.71 33.75 30.48 31.99 30.83 33.47 32.79 32.29 32.54 31.51
42.95 42.99 43.26 43.42 43.93 44.19 44.18 44.24 44.40 44.49 44.70 44.78 45.00 44.96 44.52 44.52 45.34 42.73 43.83 45.68 45.91 44.49 41.30 33.46 31.97 35.31 41.85 37.03 35.65 41.70 38.77 40.36 40.06 38.54 38.62 37.27 37.73 38.15 31.68 34.94 35.91 35.96 35.63 34.66 35.16 37.28 34.52 34.54 33.67 32.63 32.50 31.20 29.06 27.95
42.78 43.43 43.02 42.77 42.33 42.30 42.29 42.57 43.17 44.01 44.97 45.28 45.55 45.71 46.74 44.58 40.73 41.93 41.49 44.70 51.69 45.26 36.54 36.05 30.57 28.73 40.64 38.43 38.85 38.87 40.04 35.89 39.11 36.20 36.46 37.73 35.01 31.42 34.90 34.49 33.97 34.76 34.24 33.92 36.30 35.57 34.69 32.34 31.53 30.99 30.88 30.14 28.10 26.89
42.98 42.04 41.77 41.47 41.63 41.82 41.89 42.14 42.65 43.14 43.58 45.17 45.16 41.22 35.88 39.70 40.23 41.50 43.97 41.30 41.66 41.47 40.91 35.32 37.29 31.89 38.02 37.28 36.12 35.97 38.50 33.93 30.42 34.72 37.79 35.29 33.16 37.35 38.30 37.80 37.48 37.06 36.96 36.58 32.76 31.06 31.73 30.81 30.36 30.58 30.24 30.65 28.94 27.48
42.04 41.58 41.89 42.62 43.00 42.86 42.35 42.65 43.80 44.37 45.50 43.04 40.25 38.37 41.45 41.80 43.52 41.23 36.73 35.99 37.04 33.36 37.66 37.45 36.85 34.29 40.52 34.67 34.43 37.44 34.90 34.72 28.46 32.34 32.12 30.50 30.49 35.23 38.43 37.81 38.32 38.18 38.13 37.22 37.03 36.18 35.29 33.42 31.53 30.70 29.95 29.41 28.04 26.66
42.05 42.58 42.69 42.25 42.14 42.20 42.52 43.18 43.87 43.66 42.43 42.38 42.09 43.85 43.87 40.88 39.73 32.64 31.27 33.74 33.22 29.17 35.89 35.33 36.51 38.29 39.04 41.27 35.69 36.08 31.39 33.34 28.00 36.80 31.86 27.46 33.62 36.76 37.02 36.62 36.92 37.86 37.62 36.88 37.32 35.80 35.30 34.13 33.33 30.90 28.89 27.58 26.68 25.26
42.56 42.62 42.21 41.99 41.78 41.71 42.06 41.75 41.70 41.53 41.93 44.58 40.36 35.00 36.21 35.78 29.74 31.13 24.57 28.52 29.08 34.25 36.40 36.84 34.69 36.98 38.06 39.56 36.29 33.66 28.83 28.98 35.30 30.14 27.69 32.24 35.11 36.87 36.15 36.01 35.48 36.94 36.61 35.53 34.83 34.63 34.08 32.94 31.98 29.51 25.33 22.47 21.44 19.19
41.85 41.80 41.86 41.67 41.43 41.30 41.60 42.03 42.37 44.02 43.31 38.72 34.31 27.16 31.48 28.58 29.61 30.67 32.53 32.59 35.36 36.97 37.26 37.92 36.93 35.03 36.28 33.03 33.35 29.67 31.94 32.60 26.99 25.30 27.59 33.38 35.03 35.22 34.37 33.68 32.57 31.56 31.66 31.20 30.33 28.04 24.97 23.75 22.51 21.93 20.96 20.18 17.83 16.62
41.43 41.30 41.13 41.02 41.60 41.65 41.53 41.69 42.37 44.63 41.49 34.06 33.49 26.04 27.63 31.50 32.66 33.85 35.86 37.31 39.56 40.75 39.18 37.48 37.46 35.69 33.12 30.14 33.00 30.16 26.95 24.81 27.71 28.60 31.63 34.45 34.58 33.44 32.62 31.25 30.17 28.58 27.64 27.37 26.32 23.86 21.67 20.78 20.67 20.20 20.13 20.19 19.67 17.19
41.67 40.98 39.17 41.01 41.30 41.49 41.73 43.06 43.23 42.68 39.44 33.74 32.77 31.55 33.77 32.08 31.26 32.81 33.54 35.17 41.55 41.07 41.93 39.39 34.14 31.25 29.97 30.85 28.47 27.56 26.79 25.98 30.32 30.64 32.27 33.67 32.72 32.21 30.88 30.82 30.35 30.07 29.56 28.04 25.88 22.86 21.88 20.46 20.19 21.36 22.28 20.92 19.04 18.74
40.91 38.01 40.11 40.93 40.88 41.53 42.20 41.75 40.59 35.31 33.24 32.03 31.23 33.90 33.72 32.61 31.24 32.45 35.35 37.36 41.65 39.52 33.79 34.94 30.01 28.13 33.55 29.46 27.83 32.83 29.90 29.86 31.33 30.49 32.58 33.05 31.88 30.94 30.46 29.52 28.02 28.36 27.50 26.27 24.52 23.68 22.78 23.93 22.63 21.80 19.81 19.50 20.92 20.82
38.54 39.87 40.79 40.88 41.46 41.99 41.12 40.82 36.74 33.59 29.59 33.13 31.08 31.72 32.45 33.17 32.63 33.17 35.88 40.18 40.89 38.14 36.89 32.10 35.77 30.01 30.36 26.62 29.25 32.89 30.42 30.44 31.23 31.59 31.69 31.49 31.18 30.36 29.75 27.79 28.02 28.26 27.25 25.94 24.62 23.83 24.30 22.27 22.59 22.62 23.10 22.46 23.65 23.46
39.09 40.02 40.18 41.15 40.74 38.96 34.88 35.46 37.54 29.41 30.96 33.82 34.35 35.42 34.63 33.16 35.00 36.14 37.63 39.91 41.49 41.58 39.89 36.94 32.00 31.00 31.64 33.73 32.48 31.70 31.59 31.80 28.99 28.95 29.97 30.50 30.00 29.11 28.19 27.86 27.91 27.73 26.40 25.19 24.59 24.96 24.92 25.68 26.65 27.14 26.73 25.68 25.64 26.51
40.54 39.89 40.38 40.51 41.62 36.34 31.49 33.06 39.09 32.44 29.44 31.68 34.36 32.99 33.61 33.58 35.17 36.03 38.46 39.07 38.65 39.09 35.43 33.09 32.16 33.43 33.32 34.15 35.25 34.00 33.01 32.18 29.62 26.99 26.70 27.73 29.18 28.55 27.60 27.76 27.70 27.24 26.18 26.07 27.09 26.78 26.47 27.03 28.93 28.86 28.59 27.39 27.80 25.70
39.99 39.77 40.43 41.57 38.89 37.09 34.20 32.83 31.18 32.63 33.20 31.04 33.57 33.95 33.01 35.35 35.18 36.91 36.28 39.06 36.42 35.67 32.52 34.56 32.75 34.71 36.42 37.01 37.96 36.55 34.60 35.41 34.03 33.15 29.02 26.29 28.74 29.19 28.21 29.83 28.40 27.93 26.96 26.83 27.03 27.13 26.70 27.99 28.38 28.53 28.53 27.78 26.74 24.29
38.84 39.69 38.91 38.96 35.02 34.32 32.66 34.64 32.06 33.46 31.69 31.69 32.49 33.82 31.56 30.91 32.17 33.27 36.37 35.22 33.68 32.86 35.09 35.77 35.33 34.93 34.65 33.92 35.45 36.15 34.44 34.44 34.84 33.76 32.04 30.16 28.61 28.22 28.67 28.76 28.24 28.03 28.29 28.96 28.40 27.94 28.46 29.38 28.75 28.02 27.14 24.93 24.25 21.56
39.03 38.42 36.34 35.64 31.70 30.56 28.51 35.90 29.87 30.96 27.00 28.63 31.68 29.13 29.55 29.87 31.69 35.56 31.37 33.70 31.92 34.64 35.40 35.32 35.47 35.53 33.65 34.05 34.16 34.03 34.72 34.58 32.81 32.07 31.47 31.16 30.84 31.12 29.93 29.37 30.36 29.36 28.10 28.36 29.79 28.80 28.54 26.66 26.67 26.42 24.84 24.40 21.39 18.34
37.30 32.84 29.73 28.89 29.49 25.69 32.00 28.62 31.49 29.41 29.82 28.38 27.32 25.59 26.79 28.92 32.26 31.06 28.44 30.93 31.69 33.49 32.80 33.63 34.57 33.02 33.11 33.43 31.96 31.40 32.86 33.86 31.96 31.81 31.47 29.86 28.36 28.46 29.40 29.22 29.54 30.24 29.98 29.63 29.04 27.57 26.77 25.83 24.90 24.01 23.75 22.63 21.88 20.45
28.32 26.20 29.18 25.42 30.79 27.48 25.54 26.28 26.93 27.07 24.51 26.62 25.41 25.43 26.94 30.65 27.56 27.23 27.83 28.41 28.98 29.20 29.90 32.21 32.89 32.98 30.87 30.08 30.26 29.86 32.10 32.82 30.93 28.78 30.43 30.95 29.25 28.57 28.09 28.33 28.59 28.98 30.33 28.72 26.44 25.34 24.39 24.04 24.31 22.47 21.44 20.53 17.51 16.40
22.79 25.98 26.15 26.64 27.02 26.25 25.85 23.08 24.68 25.73 26.27 25.25 26.15 28.30 29.44 27.21 24.81 25.46 27.27 27.83 28.00 28.37 29.48 30.02 30.86 31.10 30.76 31.87 29.72 29.04 29.67 32.52 31.93 29.07 29.24 29.86 29.24 28.36 26.38 24.83 23.75 24.83 28.89 29.09 26.46 23.85 22.58 22.74 21.23 16.75 14.11 13.16 12.84 13.65
22.78 24.23 28.43 31.71 30.22 29.43 27.73 28.84 29.20 27.57 25.11 24.94 27.21 25.75 25.67 23.18 24.62 26.07 27.30 27.80 28.01 28.19 29.41 29.79 29.88 31.16 29.49 28.91 29.11 29.03 29.47 30.47 29.51 27.43 27.99 27.51 27.92 29.39 29.17 26.05 23.88 25.27 28.15 28.15 27.20 25.27 22.79 20.35 17.44 15.85 14.14 12.87 11.70 10.96
27.59 28.93 23.99 26.65 27.34 29.18 24.94 26.08 25.80 25.21 27.69 29.60 29.57 24.50 24.54 25.01 24.62 26.56 26.76 27.82 28.62 28.92 28.43 28.70 29.26 30.42 29.36 28.15 27.57 26.90 26.29 26.13 25.65 25.80 25.16 24.71 24.25 23.62 22.99 23.85 24.28 24.53 25.46 25.60 25.06 23.85 21.77 19.38 16.54 14.48 11.66 8.80 7.10 7.06
27.09 29.83 28.47 22.52 25.47 26.75 27.00 26.70 27.48 29.24 30.25 30.41 27.46 27.17 26.70 28.10 28.08 27.72 27.25 28.11 29.35 29.54 27.75 26.89 26.68 28.13 27.72 27.71 28.30 27.53 27.03 26.39 24.17 21.66 21.15 19.33 19.52 19.87 22.51 22.13 20.83 19.88 18.77 17.71 18.10 18.63 17.64 16.43 14.27 10.94 8.36 7.16 6.92 6.85
26.29 30.33 26.55 24.57 23.11 24.12 28.48 29.04 29.38 28.76 30.01 30.00 30.72 28.98 28.65 26.97 26.41 28.06 27.73 27.65 27.67 28.08 28.92 29.11 27.92 27.56 25.77 25.11 24.90 26.62 28.22 28.15 28.08 27.96 24.65 22.30 20.66 21.56 21.01 19.19 17.82 17.11 15.96 13.79 11.13 9.71 10.79 8.34 8.70 7.01 6.31 6.33 5.81 4.12
28.90 27.36 25.81 26.16 25.37 28.77 28.26 27.92 28.08 28.02 28.22 28.26 27.91 27.80 28.89 26.43 25.26 25.58 24.96 24.59 26.11 27.55 27.39 26.47 26.87 28.57 27.48 25.45 24.54 23.05 21.51 24.30 25.25 24.12 23.71 22.56 22.23 21.62 20.68 20.08 18.75 16.67 14.43 13.18 12.45 11.15 9.92 8.96 7.45 6.20 4.42 1.96 0.81 2.16
26.22 25.05 25.08 22.97 26.03 26.77 27.30 26.08 26.99 26.18 28.27 25.88 26.78 26.96 25.75 25.11 24.43 22.23 20.42 22.27 23.95 24.33 25.90 27.85 26.43 26.82 26.70 25.40 25.29 25.53 23.96 23.54 23.59 23.16 22.24 21.70 20.91 20.36 19.39 17.79 17.22 16.72 15.18 13.24 11.79 10.59 9.47 8.01 6.09 3.89 2.18 1.09 -0.05 -1.40
26.34 26.52 25.63 25.64 25.13 23.51 26.35 25.40 24.94 24.13 24.58 23.17 24.67 25.30 25.31 23.77 20.40 18.74 21.15 22.11 21.58 22.56 22.76 23.25 24.28 24.89 24.11 23.47 22.72 22.18 21.82 21.58 21.33 20.95 19.92 19.16 18.35 17.99 18.07 17.12 15.80 14.13 12.15 10.72 9.20 8.05 6.37 5.08 3.61 1.88 -0.18 -1.80 -2.18 -2.58

GFSWCAN_sfc_wetblb_132.txt.gz
Wetbulb
41.33 41.48 41.53 41.64 41.75 42.05 42.38 42.57 43.00 43.46 43.85 44.30 44.49 44.66 44.97 45.71 45.80 43.57 40.84 42.16 39.56 35.56 36.39 37.44 37.50 33.82 33.42 33.51 29.94 32.94 31.10 31.70 33.03 29.05 28.84 25.91 25.08 27.79 27.58 30.52 28.51 26.35 24.38 24.78 25.96 23.64 20.80 33.86 31.92 28.09 29.44 30.11 29.76 29.88
41.46 41.67 41.53 41.64 41.90 42.19 42.46 42.55 42.63 43.03 43.37 43.66 43.99 44.39 44.78 45.33 45.73 45.21 36.99 41.91 43.84 38.37 36.79 40.98 40.12 40.31 40.55 39.24 35.44 36.17 32.03 31.94 33.51 29.63 29.78 28.31 26.67 28.78 28.13 23.86 36.56 27.23 31.02 28.62 28.07 25.59 31.02 35.19 33.02 33.61 32.76 29.60 29.06 27.60
41.16 41.44 41.60 41.67 41.89 41.86 42.10 42.33 42.48 42.48 42.99 43.26 43.63 43.99 44.33 44.82 45.37 44.87 39.12 41.22 41.25 37.50 36.68 36.54 35.98 40.60 42.43 42.18 44.78 35.74 35.50 36.39 34.38 36.00 33.39 32.48 26.60 30.53 26.28 28.13 32.94 35.75 35.68 28.16 27.36 28.56 30.94 34.51 34.99 34.39 34.37 31.57 31.12 30.68
41.37 41.53 41.47 41.64 41.79 41.97 42.00 41.97 42.15 42.29 42.61 42.98 43.25 43.43 43.77 44.28 44.96 44.87 39.96 41.57 41.07 38.32 31.66 33.41 41.18 38.62 43.22 42.69 43.81 43.22 40.50 40.00 37.84 37.92 33.34 31.01 29.97 36.30 31.03 32.91 29.94 32.57 33.06 28.72 28.08 30.20 31.47 32.98 34.69 34.50 32.96 31.90 31.04 30.79
42.23 41.83 41.87 42.12 42.06 42.16 41.89 42.08 42.19 42.42 42.81 43.12 43.29 43.34 43.77 44.06 44.56 44.04 43.15 42.64 44.11 37.40 31.93 33.84 40.16 41.36 42.51 42.25 42.48 41.04 41.03 37.52 36.25 34.67 32.84 30.49 33.44 33.46 33.28 32.61 29.03 33.61 30.20 25.48 24.58 30.17 28.65 31.39 33.57 34.96 33.42 32.15 31.28 30.35
41.91 42.46 42.76 42.45 42.12 42.01 41.91 42.22 42.26 42.51 43.01 43.11 43.27 43.29 43.45 43.86 44.25 41.65 36.40 42.39 44.59 41.15 35.85 30.53 38.64 39.03 41.36 42.79 40.97 39.60 39.16 38.86 38.21 35.07 32.61 34.04 38.00 34.56 27.30 25.31 32.93 35.07 35.29 34.00 29.60 32.61 28.99 33.18 32.80 33.36 31.38 31.63 32.05 31.43
40.98 41.00 41.03 41.32 41.92 42.16 42.01 41.79 41.97 41.96 41.81 42.22 42.76 43.15 43.80 44.29 42.62 37.85 35.33 40.28 44.90 43.59 35.76 30.94 31.81 38.36 41.88 41.25 38.79 38.05 39.81 39.37 37.82 34.81 32.59 33.58 33.90 34.26 27.53 26.90 33.02 33.19 32.44 32.16 32.92 32.87 30.23 31.05 30.17 32.00 31.57 31.74 32.90 30.49
42.07 41.87 41.60 42.05 43.07 43.72 44.39 45.34 45.58 47.19 46.58 45.39 45.31 45.66 44.64 44.83 44.25 40.38 42.79 45.28 45.22 40.62 39.15 30.94 31.07 34.30 40.18 34.27 33.30 38.01 34.72 35.85 34.37 32.87 33.27 32.33 33.12 32.03 26.59 32.04 32.83 32.12 32.04 31.86 32.17 32.44 31.33 32.48 32.68 31.72 31.84 30.81 26.09 24.45
42.36 42.06 42.22 43.92 44.54 44.85 45.04 44.75 44.79 46.42 47.42 47.04 46.37 46.46 45.40 42.23 38.98 40.99 45.93 45.93 45.33 39.31 31.77 31.52 28.08 27.02 37.63 33.11 33.92 33.93 35.21 30.04 33.93 30.04 30.77 31.93 27.76 26.84 30.75 31.78 31.72 31.86 31.63 31.77 32.54 31.07 31.34 30.71 30.84 29.64 27.61 25.70 23.77 23.27
42.29 42.45 42.80 43.25 43.74 44.04 44.10 44.37 44.08 45.20 45.13 45.81 43.70 38.01 31.94 40.03 46.49 45.65 42.26 38.62 37.85 39.16 36.89 29.14 31.25 27.67 34.23 32.46 31.51 31.48 31.54 28.91 26.16 29.37 31.74 27.99 28.29 33.78 34.98 34.57 33.53 32.78 33.68 33.41 28.74 28.65 29.68 28.83 28.59 25.61 25.36 25.22 25.03 24.36
42.49 42.59 42.84 43.20 43.45 43.71 43.75 44.13 44.37 44.66 44.00 39.33 35.72 35.42 42.24 45.98 41.53 36.86 31.15 31.13 31.73 30.81 32.64 31.54 33.03 30.89 36.00 30.25 29.85 31.73 28.17 27.77 24.92 27.37 26.69 25.10 26.63 29.10 32.83 33.24 33.78 34.03 35.82 34.22 33.58 31.32 30.86 29.82 26.41 25.63 24.85 25.42 24.51 23.14
42.86 42.93 43.16 43.33 43.58 44.05 44.23 44.30 44.32 41.59 38.73 39.05 40.00 41.80 40.13 36.51 31.63 29.09 27.30 28.96 27.23 28.90 30.58 31.26 32.52 34.71 34.74 35.47 29.91 29.97 26.80 26.38 22.67 29.07 23.90 21.26 26.15 30.83 32.09 32.29 32.13 32.92 33.09 32.03 32.27 29.82 28.29 28.10 26.81 25.73 24.80 23.85 22.51 21.43
42.12 42.61 43.10 43.11 43.54 44.35 44.66 44.65 44.73 44.37 42.65 38.61 34.55 30.08 31.01 27.44 23.32 20.29 18.64 23.76 27.12 28.50 31.15 33.26 30.74 32.58 32.92 31.76 26.84 26.33 22.47 22.40 28.40 19.82 21.36 24.64 27.56 31.46 31.65 31.60 30.88 31.93 33.38 30.85 29.36 29.21 27.81 26.27 26.29 25.04 19.40 17.27 16.82 15.03
41.55 41.93 42.62 43.05 43.45 43.84 43.91 44.16 44.14 41.78 37.80 31.20 27.13 22.24 23.93 22.07 27.14 28.74 27.50 28.67 29.74 33.19 33.44 33.55 29.61 30.03 27.93 26.18 22.73 21.13 24.59 27.28 19.88 15.66 22.79 24.25 28.80 29.26 29.66 29.43 28.56 25.25 28.48 30.48 28.52 27.97 23.99 20.96 16.19 15.59 17.78 16.55 15.00 13.34
41.06 41.27 41.82 42.15 43.47 43.65 43.59 43.37 43.32 39.97 34.05 29.45 28.64 21.62 23.32 28.89 30.59 30.63 29.85 31.45 33.62 34.80 33.05 30.28 29.23 29.71 25.76 24.94 26.42 24.87 23.36 19.16 22.33 20.17 25.39 24.84 30.36 29.29 27.91 27.76 26.11 22.11 22.25 20.39 19.73 18.34 16.11 17.43 17.37 12.73 12.31 14.64 15.56 13.12
40.79 39.32 38.54 42.37 43.13 43.90 43.02 41.39 38.70 36.68 32.77 30.58 30.28 25.34 28.83 30.90 31.42 32.24 32.88 32.69 32.26 30.25 30.81 31.53 27.76 24.09 23.22 24.49 23.39 19.28 22.45 18.73 21.41 28.67 28.97 27.82 29.49 28.77 25.81 27.05 25.06 22.43 19.86 18.11 17.67 17.07 16.82 16.53 17.01 15.38 14.96 14.98 14.12 13.55
39.40 34.30 41.11 42.44 42.72 42.24 42.93 37.12 34.36 31.76 29.70 28.70 28.48 30.77 29.86 31.33 31.51 31.96 32.85 32.65 32.19 31.12 25.18 28.17 22.84 24.06 27.68 22.93 23.60 28.23 21.99 26.56 28.93 29.64 29.43 29.82 28.55 27.39 26.88 26.30 24.67 23.07 20.29 17.27 16.53 16.78 15.01 17.62 16.98 16.66 14.67 12.88 14.72 14.08
34.10 36.31 42.20 42.60 40.88 38.83 36.05 35.16 30.82 30.00 28.61 30.25 27.69 30.05 31.36 31.94 32.68 32.47 31.39 31.76 31.27 29.34 28.72 27.28 29.61 25.48 19.21 22.04 24.14 26.59 27.32 28.60 29.82 30.13 29.93 29.51 28.73 28.36 28.12 26.32 24.99 23.20 20.43 16.68 17.47 17.91 18.35 18.21 18.52 17.35 17.54 17.56 18.27 17.90
37.56 39.31 41.84 42.27 38.57 33.85 30.21 31.48 32.49 26.68 28.25 30.78 31.34 31.52 31.69 31.92 32.25 32.79 31.54 31.05 34.26 33.99 30.53 29.10 25.87 26.76 27.32 28.81 27.12 27.33 27.57 27.58 27.44 27.87 28.16 28.66 28.45 27.79 27.47 26.95 25.47 23.68 18.82 18.36 20.73 19.82 20.00 21.39 20.34 19.88 19.22 19.87 17.77 19.17
40.46 40.44 41.22 41.07 38.88 30.69 28.70 28.36 33.42 28.96 26.46 29.86 32.05 31.09 30.97 30.10 28.92 31.66 29.64 30.65 31.40 29.86 28.77 28.50 28.01 29.00 28.82 29.76 29.25 29.69 29.08 28.73 27.93 25.42 25.00 26.18 27.38 27.26 26.90 26.45 25.25 23.73 20.63 21.77 21.83 20.29 21.20 21.56 22.51 21.61 20.11 20.14 18.73 17.66
36.55 36.55 39.15 36.75 33.18 32.31 30.07 27.82 27.83 29.16 29.87 29.26 31.49 30.39 29.89 29.62 27.94 27.17 27.71 30.48 28.67 29.88 28.37 29.86 28.76 29.66 31.90 31.71 31.68 30.34 28.56 29.28 27.29 25.01 25.90 24.39 26.13 26.64 26.29 26.43 25.15 22.74 19.60 19.45 18.75 17.85 18.71 19.54 21.10 21.70 17.90 14.71 13.47 16.68
32.94 38.98 33.52 34.14 28.90 29.63 27.82 29.47 27.61 28.65 29.33 28.93 28.25 29.92 26.04 22.69 22.01 24.90 29.06 27.21 28.80 29.34 30.26 26.30 27.46 30.29 31.16 30.81 30.87 31.33 30.36 30.20 29.74 27.17 27.12 26.88 24.93 24.85 24.98 22.56 21.26 16.41 17.66 16.01 19.54 17.18 18.74 22.34 22.11 19.86 16.91 14.39 16.71 17.26
35.53 34.25 29.71 28.29 22.12 20.77 21.85 28.73 24.89 26.74 21.78 24.74 26.99 24.19 22.28 21.79 25.96 29.64 26.04 28.05 28.75 31.33 29.11 30.25 30.58 30.08 28.82 29.25 30.35 29.82 29.74 28.20 26.96 26.70 27.36 27.17 26.76 26.27 25.29 25.25 21.85 18.24 17.24 18.39 21.42 21.39 21.34 20.01 18.13 16.53 15.09 14.90 14.67 12.99
34.29 26.96 21.41 20.33 22.31 14.54 21.19 19.87 26.61 25.73 23.80 23.66 22.33 19.56 21.03 21.85 26.50 25.12 23.48 23.85 26.58 30.17 30.08 30.25 29.89 27.76 27.84 28.29 25.77 27.54 29.03 29.06 28.69 28.38 28.55 27.61 26.31 25.90 26.62 26.30 26.14 24.90 23.35 23.66 23.02 21.52 21.04 19.90 18.30 17.12 15.75 13.03 12.33 10.03
19.49 18.66 17.66 11.32 19.51 16.02 11.31 12.52 16.97 20.52 14.77 19.19 17.81 17.05 19.74 25.00 19.10 21.55 20.34 21.29 24.76 26.75 28.18 29.69 30.15 29.66 27.02 25.97 26.21 26.10 29.63 29.59 27.95 26.50 27.16 27.89 26.61 26.19 24.97 24.98 23.44 24.17 24.42 22.19 20.68 20.07 19.05 19.54 18.98 16.92 15.45 13.06 10.92 8.50
11.63 14.57 14.84 14.57 14.80 16.71 17.75 12.58 13.40 14.29 15.57 13.52 16.62 24.61 21.88 17.56 16.88 17.69 23.05 22.90 24.74 24.88 25.62 26.34 27.90 27.75 26.97 27.17 25.43 23.55 24.73 28.39 27.40 24.68 24.94 27.38 26.12 20.87 14.82 18.09 17.28 20.12 22.48 22.68 20.89 19.60 18.26 15.95 15.53 13.86 11.44 10.50 9.40 6.30
11.39 10.45 23.09 27.20 26.09 24.80 17.45 19.21 23.83 18.34 15.17 12.81 19.02 15.29 13.63 12.79 14.39 21.16 24.54 25.58 25.19 26.37 27.57 27.66 28.72 27.59 25.66 24.15 22.43 21.20 22.10 23.14 22.66 21.35 22.01 21.65 21.39 20.55 20.27 17.75 17.26 20.83 21.53 21.67 21.49 18.16 14.78 12.01 9.67 7.69 5.33 3.60 3.26 3.95
18.56 20.18 12.48 15.84 16.16 21.30 10.64 10.02 11.23 15.52 15.07 24.32 21.11 16.95 12.90 14.82 17.64 22.71 23.63 25.65 26.36 27.44 26.71 26.82 27.00 25.91 23.03 19.90 18.28 19.69 19.15 18.97 18.21 18.80 19.47 18.79 17.94 16.87 16.40 18.70 20.43 18.82 17.76 18.70 16.22 14.81 12.78 10.53 7.32 4.17 1.82 -0.51 -2.99 -0.90
15.18 19.66 16.06 8.05 9.93 14.10 19.18 15.78 21.02 21.41 24.38 23.84 17.93 13.62 16.04 23.24 24.13 23.89 24.03 24.96 27.08 26.31 24.36 23.59 22.64 24.27 24.49 23.67 23.35 18.46 17.52 17.65 14.61 10.03 5.45 4.40 6.78 11.53 13.82 13.95 14.44 15.63 15.69 15.50 16.66 13.31 10.30 7.71 5.08 2.36 0.20 -0.89 -2.98 -3.44
14.85 20.74 11.23 4.53 7.60 14.66 22.49 22.16 18.59 25.01 24.19 20.73 21.99 20.76 23.19 22.68 23.08 23.96 24.42 24.34 23.91 25.08 25.55 24.26 20.20 22.46 22.72 20.23 17.45 17.36 17.94 13.70 8.20 10.91 10.40 6.80 6.68 8.41 10.64 10.68 9.26 9.64 12.47 12.17 10.68 9.83 10.72 5.82 5.37 1.71 -0.45 -2.49 -4.33 -7.18
23.10 14.96 10.10 8.93 17.37 22.99 23.81 24.97 25.59 25.07 25.34 25.40 22.66 22.33 21.26 21.03 20.86 19.64 17.91 18.73 20.93 23.67 25.18 24.42 24.28 24.40 22.55 19.06 17.38 14.20 14.86 17.21 14.02 14.86 15.93 13.95 12.08 11.26 10.69 9.07 7.98 7.81 7.31 5.83 4.41 3.32 2.92 2.27 0.90 -0.99 -3.25 -6.61 -9.13 -11.06
21.76 11.47 11.33 11.48 15.10 23.02 24.65 23.85 22.94 22.82 22.30 21.83 21.85 23.87 22.92 21.23 12.96 8.39 13.20 14.47 17.96 18.74 20.20 21.75 22.38 16.99 16.38 16.58 16.65 16.60 16.23 16.06 16.82 16.52 15.65 14.92 13.63 12.01 10.57 9.67 9.24 8.31 6.52 5.56 4.65 3.46 1.20 -0.31 -2.35 -3.91 -6.46 -8.60 -12.67 -15.55
20.75 21.63 20.80 21.19 19.75 20.56 19.84 20.31 19.51 19.72 17.85 11.92 12.96 14.51 16.47 12.54 9.64 8.12 11.22 11.43 9.47 9.69 11.59 13.50 14.54 14.86 15.01 16.63 18.41 18.24 18.00 18.20 17.99 18.48 16.42 15.03 13.26 13.29 11.99 10.76 9.20 8.19 6.75 5.61 3.35 1.02 -1.33 -3.57 -5.83 -7.91 -10.57 -13.03 -16.53 -19.90